# Wetter Temperatur Luftdruck Luftfeuchtigkeit Sichtweite Windgeschwindigkeit Windrichtung Zeit
1 Clouds 26 1011 83 10000 4.02 193 21:42 28.01.2020
2 Clouds 25 1012 83 10000 2.1 210 21:20 28.01.2020
3 Clouds 25 1012 88 10000 1.5 190 20:57 28.01.2020
4 Clouds 25 1012 83 10000 2.1 190 20:39 28.01.2020
5 Clouds 26 1012 83 10000 2.1 190 20:21 28.01.2020
6 Clouds 27 1012 83 10000 2.1 180 19:39 28.01.2020
7 Clouds 27 1012 83 10000 2.1 180 19:20 28.01.2020
8 Clouds 26 1012 83 10000 2.6 180 18:58 28.01.2020
9 Clouds 26 1012 78 10000 2.6 180 18:39 28.01.2020
10 Clouds 26 1012 78 10000 2.6 180 18:21 28.01.2020
11 Clouds 27 1012 78 10000 3.1 190 17:56 28.01.2020
12 Clouds 27 1012 78 10000 2.6 190 17:37 28.01.2020
13 Clouds 27 1012 78 10000 2.6 190 17:19 28.01.2020
14 Clouds 27 1012 74 10000 3.6 190 16:46 28.01.2020
15 Clouds 27 1012 74 10000 3.1 200 16:27 28.01.2020
16 Clouds 27 1012 74 10000 2.6 190 15:59 28.01.2020
17 Clouds 27 1011 65 10000 2.6 190 15:40 28.01.2020
18 Clouds 28 1011 65 10000 2.6 190 15:18 28.01.2020
19 Clouds 28 1011 65 10000 2.6 190 14:45 28.01.2020
20 Clouds 29 1011 58 10000 3.1 180 14:20 28.01.2020
21 Clouds 29 1010 61 10000 4.1 190 13:45 28.01.2020
22 Clouds 28 1010 61 10000 3.6 210 13:25 28.01.2020
23 Clouds 28 1009 61 10000 2.6 210 12:58 28.01.2020
24 Clouds 30 1009 55 10000 3.1 190 12:40 28.01.2020
25 Clouds 30 1009 55 10000 3.1 190 12:22 28.01.2020
26 Clouds 31 1009 48 10000 3.6 180 11:42 28.01.2020
27 Clouds 32 1009 49 10000 4.1 190 11:22 28.01.2020
28 Clouds 32 1008 49 10000 4.1 190 10:55 28.01.2020
29 Clouds 32 1008 46 10000 5.7 210 10:37 28.01.2020
30 Clouds 32 1008 46 10000 5.7 210 10:18 28.01.2020
31 Clouds 32 1008 43 10000 5.1 200 09:42 28.01.2020
32 Clouds 33 1008 41 10000 5.7 210 09:20 28.01.2020
33 Clouds 33 1009 38 10000 4.1 260 08:46 28.01.2020
34 Clouds 33 1010 38 10000 4.1 240 08:26 28.01.2020
35 Clouds 32 1010 38 10000 2.1 170 07:57 28.01.2020
36 Clouds 32 1010 38 10000 2.1 0 07:35 28.01.2020
37 Clear 31 1011 40 10000 3.1 270 06:48 28.01.2020
38 Clear 31 1011 40 10000 3.1 270 06:48 28.01.2020
39 Clear 31 1012 37 10000 2.1 0 06:25 28.01.2020
40 Clear 30 1012 42 10000 4.1 300 05:40 28.01.2020
41 Clear 30 1012 42 10000 4.1 300 05:40 28.01.2020
42 Clear 30 1012 42 10000 4.1 300 05:22 28.01.2020
43 Clouds 28 1012 44 10000 3.6 280 03:50 28.01.2020
44 Clouds 27 1012 50 9000 3.6 270 02:49 28.01.2020
45 Clouds 27 1011 57 9000 3.1 260 02:25 28.01.2020
46 Clouds 24 1011 57 9000 3.1 260 01:56 28.01.2020
47 Clouds 23 1011 60 9000 2.6 250 01:22 28.01.2020
48 Clouds 24 1010 57 9000 2.1 240 00:45 28.01.2020
49 Clouds 24 1010 57 10000 2.1 250 00:22 28.01.2020
50 Clouds 24 1010 57 10000 2.6 270 23:44 27.01.2020
51 Clouds 23 1009 60 10000 2.1 250 23:20 27.01.2020
52 Clouds 25 1009 57 10000 3.1 270 22:45 27.01.2020
53 Clouds 25 1009 57 10000 3.1 270 22:20 27.01.2020
54 Clouds 25 1009 57 10000 3.1 270 22:20 27.01.2020
55 Clouds 25 1009 57 10000 3.1 270 22:20 27.01.2020
56 Clouds 25 1009 57 10000 3.1 270 22:20 27.01.2020
57 Clouds 25 1009 65 10000 3.6 250 21:58 27.01.2020
58 Clouds 26 1009 65 10000 3.6 260 21:39 27.01.2020
59 Clouds 26 1009 65 10000 3.6 260 21:19 27.01.2020
60 Clouds 26 1009 69 10000 3.1 250 20:57 27.01.2020
61 Clouds 26 1009 74 10000 4.1 260 20:38 27.01.2020
62 Clouds 27 1009 74 10000 4.1 260 20:19 27.01.2020
63 Clouds 27 1010 69 10000 4.6 250 19:56 27.01.2020
64 Clouds 27 1010 69 10000 6.2 240 19:38 27.01.2020
65 Clouds 28 1010 69 10000 6.2 240 19:19 27.01.2020
66 Clouds 28 1010 74 10000 5.7 210 18:39 27.01.2020
67 Clouds 28 1010 74 10000 5.7 210 18:21 27.01.2020
68 Clouds 28 1010 74 10000 4.1 200 17:58 27.01.2020
69 Clouds 28 1010 74 10000 4.6 190 17:38 27.01.2020
70 Clouds 28 1010 74 10000 4.6 190 17:19 27.01.2020
71 Clouds 28 1010 74 10000 4.6 190 16:55 27.01.2020
72 Clouds 28 1010 74 10000 4.6 190 16:36 27.01.2020
73 Clouds 28 1010 74 10000 4.6 190 16:36 27.01.2020
74 Clouds 28 1010 74 10000 4.6 190 16:18 27.01.2020
75 Clouds 28 1009 69 10000 5.7 180 15:41 27.01.2020
76 Clouds 28 1009 69 10000 5.7 180 15:19 27.01.2020
77 Clouds 28 1009 69 10000 5.1 180 14:56 27.01.2020
78 Clouds 28 1008 65 10000 4.6 190 14:37 27.01.2020
79 Clouds 28 1008 65 10000 4.6 190 14:37 27.01.2020
80 Clouds 28 1008 65 10000 4.6 190 14:19 27.01.2020
81 Clouds 29 1008 65 10000 3.6 180 13:42 27.01.2020
82 Clouds 29 1008 58 10000 5.1 200 13:22 27.01.2020
83 Clouds 30 1008 48 10000 5.1 190 12:56 27.01.2020
84 Clouds 30 1007 42 10000 5.7 200 12:38 27.01.2020
85 Clouds 30 1007 42 10000 5.7 200 12:20 27.01.2020
86 Clouds 32 1007 33 10000 5.7 200 11:42 27.01.2020
87 Clouds 32 1007 33 10000 5.7 200 11:21 27.01.2020
88 Clouds 32 1007 33 10000 5.7 200 11:21 27.01.2020
89 Clouds 32 1007 31 10000 6.2 190 10:55 27.01.2020
90 Clouds 33 1007 29 10000 5.7 200 10:36 27.01.2020
91 Clouds 33 1007 29 10000 5.7 200 10:18 27.01.2020
92 Clouds 32 1007 28 10000 5.7 180 09:39 27.01.2020
93 Clouds 33 1007 28 10000 5.7 180 09:18 27.01.2020
94 Clouds 33 1008 26 10000 6.2 210 08:47 27.01.2020
95 Clouds 33 1008 28 10000 6.2 210 08:23 27.01.2020
96 Clouds 33 1009 31 10000 5.7 190 07:55 27.01.2020
97 Clouds 33 1009 31 10000 5.7 190 07:36 27.01.2020
98 Clouds 33 1010 29 10000 5.7 190 06:55 27.01.2020
99 Clouds 33 1010 33 10000 5.7 210 06:27 27.01.2020
100 Clouds 32 1011 33 10000 2.6 230 05:37 27.01.2020
101 Clouds 30 1012 37 10000 2.6 270 04:20 27.01.2020
102 Clouds 29 1011 39 10000 2.6 250 03:23 27.01.2020
103 Clouds 25 1010 47 8000 3.6 250 01:32 27.01.2020
104 Clouds 24 1010 64 10000 1 0 00:59 27.01.2020
105 Clouds 24 1009 69 10000 2.1 230 00:37 27.01.2020
106 Clouds 24 1009 69 10000 2.1 230 00:19 27.01.2020
107 Clouds 25 1009 78 10000 3.1 240 23:41 26.01.2020
108 Clouds 26 1009 78 10000 3.1 240 23:19 26.01.2020
109 Clouds 26 1009 88 10000 2.6 200 22:55 26.01.2020
110 Clouds 26 1009 88 10000 3.1 240 22:37 26.01.2020
111 Clouds 26 1009 88 10000 3.1 240 22:18 26.01.2020
112 Clouds 27 1009 83 10000 3.6 260 21:55 26.01.2020
113 Clouds 27 1009 83 10000 3.6 280 21:37 26.01.2020
114 Clouds 27 1009 83 10000 3.6 280 21:19 26.01.2020
115 Clouds 27 1009 83 10000 3.1 270 20:55 26.01.2020
116 Clouds 27 1009 83 10000 2.6 270 20:36 26.01.2020
117 Clouds 27 1009 83 10000 2.6 270 20:18 26.01.2020
118 Clouds 27 1010 83 10000 3.1 250 19:42 26.01.2020
119 Clouds 27 1010 83 10000 3.6 220 19:21 26.01.2020
120 Clouds 27 1010 83 10000 4.6 220 18:59 26.01.2020
121 Clouds 27 1010 83 10000 3.6 210 18:40 26.01.2020
122 Clouds 27 1010 83 10000 3.6 210 18:22 26.01.2020
123 Clouds 27 1010 78 10000 3.6 210 17:58 26.01.2020
124 Clouds 27 1010 78 10000 3.6 210 17:58 26.01.2020
125 Clouds 27 1010 78 10000 3.6 210 17:38 26.01.2020
126 Clouds 27 1010 78 10000 3.6 210 17:18 26.01.2020
127 Clouds 28 1010 78 10000 3.1 210 16:57 26.01.2020
128 Clouds 27 1010 78 10000 3.6 210 16:39 26.01.2020
129 Clouds 27 1010 78 10000 3.6 210 16:20 26.01.2020
130 Clouds 27 1008 67 0 8.13 193 15:46 26.01.2020
131 Clouds 27 1008 66 0 8.13 193 15:22 26.01.2020
132 Clouds 27 1008 66 0 8.13 193 15:22 26.01.2020
133 Clouds 28 1008 66 0 8.13 193 14:58 26.01.2020
134 Clouds 28 1014 64 0 8.13 193 14:39 26.01.2020
135 Clouds 29 1007 65 0 5.33 164 14:19 26.01.2020
136 Clouds 29 1007 64 0 5.33 164 13:42 26.01.2020
137 Clouds 29 1007 63 0 5.01 163 13:20 26.01.2020
138 Clouds 29 1006 61 0 5.01 163 12:57 26.01.2020
139 Clouds 30 1007 70 0 5.01 163 12:38 26.01.2020
140 Clouds 31 1007 81 0 5.01 163 12:20 26.01.2020
141 Clouds 32 1005 52 0 5.01 163 11:57 26.01.2020
142 Clouds 32 1005 48 0 5.01 163 11:37 26.01.2020
143 Clouds 33 1006 38 10000 2.6 170 11:18 26.01.2020
144 Clouds 33 1006 38 10000 2.6 170 10:56 26.01.2020
145 Clouds 33 1006 38 10000 2.6 170 10:38 26.01.2020
146 Clouds 33 1006 38 10000 2.6 170 10:19 26.01.2020
147 Clouds 33 1006 38 10000 2.6 170 10:19 26.01.2020
148 Clouds 34 1007 38 10000 2.6 150 09:56 26.01.2020
149 Clouds 34 1007 43 10000 3.1 190 09:37 26.01.2020
150 Clouds 34 1007 43 10000 3.1 190 09:19 26.01.2020
151 Clouds 34 1008 38 10000 3.1 230 08:41 26.01.2020
152 Clouds 33 1008 38 10000 3.1 230 08:22 26.01.2020
153 Clouds 33 1008 38 10000 3.6 210 07:50 26.01.2020
154 Clouds 33 1009 44 10000 3.6 180 07:27 26.01.2020
155 Clouds 33 1010 46 10000 4.1 160 06:51 26.01.2020
156 Clouds 32 1011 46 10000 3.1 200 06:23 26.01.2020
157 Clouds 31 1012 52 10000 3.6 180 05:28 26.01.2020
158 Clouds 30 1012 66 10000 3.6 200 03:31 26.01.2020
159 Clouds 29 1011 74 10000 1.5 180 02:38 26.01.2020
160 Clouds 27 1011 83 10000 1.5 170 01:44 26.01.2020
161 Clouds 26 1011 83 10000 1.5 170 01:22 26.01.2020
162 Clouds 26 1010 78 10000 2.1 180 00:42 26.01.2020
163 Clouds 26 1010 78 10000 2.1 180 00:23 26.01.2020
164 Rain 25 1009 73 0 4.72 221 23:39 25.01.2020
165 Rain 25 1009 74 0 7.37 205 23:20 25.01.2020
166 Rain 25 1008 74 0 7.37 205 22:45 25.01.2020
167 Rain 25 1008 74 0 7.37 205 22:22 25.01.2020
168 Rain 25 1009 74 0 7.37 205 21:59 25.01.2020
169 Rain 26 1009 75 0 0.45 108 21:41 25.01.2020
170 Rain 26 1009 75 0 7.37 205 21:22 25.01.2020
171 Rain 27 1010 75 0 7.37 205 20:55 25.01.2020
172 Rain 26 1009 75 0 7.37 205 20:36 25.01.2020
173 Clouds 27 1011 75 0 8.07 194 20:18 25.01.2020
174 Clouds 26 1009 74 0 8.07 194 19:42 25.01.2020
175 Clouds 26 1010 71 0 8.07 194 19:20 25.01.2020
176 Clouds 26 1009 73 0 8.07 194 19:20 25.01.2020
177 Clouds 26 1010 73 0 8.15 195 18:57 25.01.2020
178 Clouds 26 1010 73 0 8.15 195 18:57 25.01.2020
179 Clouds 26 1010 72 0 8.15 195 18:38 25.01.2020
180 Clouds 26 1010 71 0 8.07 194 18:20 25.01.2020
181 Clouds 27 1010 71 0 0.45 333 17:40 25.01.2020
182 Clouds 28 1010 70 0 9.42 181 17:19 25.01.2020
183 Clouds 28 1010 70 0 9.42 181 16:57 25.01.2020
184 Clouds 28 1010 69 0 9.42 181 16:38 25.01.2020
185 Clouds 29 1010 69 0 9.42 181 16:19 25.01.2020
186 Clouds 27 1010 68 0 0.45 290 15:46 25.01.2020
187 Clouds 28 1010 68 0 0.89 302 15:25 25.01.2020
188 Clouds 28 1009 68 0 0.89 301 14:57 25.01.2020
189 Clouds 28 1009 67 0 0.45 126 14:39 25.01.2020
190 Clouds 28 1009 67 0 0.45 124 14:18 25.01.2020
191 Clouds 28 1008 65 0 0.89 278 13:41 25.01.2020
192 Clouds 29 1009 65 0 0.45 351 13:22 25.01.2020
193 Clouds 29 1009 65 0 0.45 351 13:22 25.01.2020
194 Clouds 29 1009 66 10000 5.7 190 12:43 25.01.2020
195 Clouds 30 1009 66 10000 5.7 190 12:23 25.01.2020
196 Clouds 30 1009 66 10000 5.7 190 11:45 25.01.2020
197 Clouds 31 1008 62 10000 5.1 190 11:22 25.01.2020
198 Clouds 32 1008 58 10000 6.2 190 10:58 25.01.2020
199 Clouds 32 1008 59 10000 5.7 190 10:40 25.01.2020
200 Clouds 32 1008 59 10000 5.7 190 10:20 25.01.2020
201 Clouds 32 1008 59 10000 5.7 200 09:41 25.01.2020
202 Clouds 32 1008 59 10000 5.7 200 09:22 25.01.2020
203 Clouds 32 1009 59 10000 6.7 210 08:44 25.01.2020
204 Clouds 32 1009 55 10000 6.2 200 08:26 25.01.2020
205 Clouds 32 1010 62 10000 6.7 210 07:49 25.01.2020
206 Clouds 32 1011 59 10000 6.2 180 06:52 25.01.2020
207 Clouds 32 1011 59 10000 6.2 180 06:51 25.01.2020
208 Clouds 32 1011 55 10000 5.7 200 06:27 25.01.2020
209 Clouds 32 1012 59 10000 6.7 210 05:46 25.01.2020
210 Clouds 31 1012 66 10000 5.1 200 04:50 25.01.2020
211 Clouds 31 1012 74 10000 5.7 200 03:51 25.01.2020
212 Clouds 29 1012 79 10000 3.6 190 02:57 25.01.2020
213 Clouds 28 1011 83 9000 2.6 170 02:18 25.01.2020
214 Clouds 27 1010 83 9000 2.1 160 01:37 25.01.2020
215 Clouds 26 1010 88 9000 2.6 160 00:44 25.01.2020
216 Clouds 26 1010 88 9000 2.1 170 00:25 25.01.2020
217 Clouds 26 1010 83 9000 2.6 160 23:57 24.01.2020
218 Clouds 27 1010 88 10000 2.1 170 23:38 24.01.2020
219 Clouds 27 1010 88 10000 2.1 170 23:20 24.01.2020
220 Clouds 27 1010 88 10000 2.6 170 22:42 24.01.2020
221 Clouds 27 1010 88 10000 2.6 170 22:24 24.01.2020
222 Clouds 26 1010 88 10000 2.6 180 21:43 24.01.2020
223 Clouds 26 1010 88 10000 4.1 190 21:20 24.01.2020
224 Clouds 26 1010 88 10000 4.1 190 21:20 24.01.2020
225 Clouds 26 1010 88 10000 3.6 190 20:56 24.01.2020
226 Clouds 27 1011 83 10000 4.6 200 20:38 24.01.2020
227 Clouds 28 1011 83 10000 4.6 200 20:19 24.01.2020
228 Clouds 28 1011 83 10000 4.1 190 19:55 24.01.2020
229 Clouds 28 1011 83 10000 4.6 200 19:37 24.01.2020
230 Clouds 28 1011 83 10000 4.6 200 19:19 24.01.2020
231 Clouds 27 1011 83 10000 3.6 190 18:43 24.01.2020
232 Clouds 27 1011 83 10000 3.6 190 18:43 24.01.2020
233 Clouds 27 1012 83 10000 3.6 190 18:23 24.01.2020
234 Clouds 28 1012 83 10000 4.1 190 17:46 24.01.2020
235 Clouds 28 1012 83 10000 4.6 200 17:23 24.01.2020
236 Clouds 28 1012 83 10000 5.1 190 16:58 24.01.2020
237 Clouds 28 1012 83 10000 5.7 190 16:38 24.01.2020
238 Clouds 28 1012 83 10000 5.7 190 16:19 24.01.2020
239 Clouds 28 1012 79 10000 5.1 180 15:42 24.01.2020
240 Clouds 28 1011 79 10000 5.7 190 15:21 24.01.2020
241 Clouds 29 1011 74 10000 4.6 200 14:55 24.01.2020
242 Clouds 29 1011 74 10000 4.6 200 14:55 24.01.2020
243 Clouds 29 1011 74 10000 3.6 180 14:36 24.01.2020
244 Clouds 29 1011 74 10000 3.6 180 14:18 24.01.2020
245 Clouds 30 1010 74 10000 3.6 170 13:41 24.01.2020
246 Clouds 30 1010 74 10000 3.6 170 13:22 24.01.2020
247 Clouds 30 1010 70 10000 4.6 190 12:43 24.01.2020
248 Clouds 31 1010 66 10000 5.7 180 12:21 24.01.2020
249 Clouds 31 1009 62 10000 4.6 190 11:45 24.01.2020
250 Clouds 32 1009 59 10000 4.6 180 11:19 24.01.2020
251 Clouds 32 1009 59 10000 4.6 180 11:19 24.01.2020
252 Clouds 33 1009 55 10000 4.1 200 10:56 24.01.2020
253 Clouds 34 1009 52 10000 4.6 180 10:38 24.01.2020
254 Clouds 33 1009 52 10000 4.6 180 10:18 24.01.2020
255 Clouds 33 1009 52 10000 4.6 200 09:41 24.01.2020
256 Clouds 33 1009 52 10000 4.6 200 09:23 24.01.2020
257 Clouds 33 1010 49 10000 4.1 200 08:41 24.01.2020
258 Clouds 33 1010 49 10000 4.1 200 08:21 24.01.2020
259 Clouds 33 1011 52 9000 4.1 200 07:58 24.01.2020
260 Clouds 33 1011 55 9000 3.6 190 07:37 24.01.2020
261 Clouds 33 1012 52 9000 4.1 190 06:54 24.01.2020
262 Clouds 33 1013 55 9000 4.1 170 06:33 24.01.2020
263 Clouds 32 1013 59 9000 4.1 160 05:59 24.01.2020
264 Clouds 31 1014 59 9000 4.1 160 05:18 24.01.2020
265 Clouds 29 1013 83 7000 3.1 140 02:54 24.01.2020
266 Clouds 28 1013 88 7000 3.1 120 02:27 24.01.2020
267 Clouds 28 1013 94 7000 2.1 120 01:53 24.01.2020
268 Clouds 27 1012 94 7000 2.1 120 01:33 24.01.2020
269 Clouds 27 1012 88 9000 0.5 90 00:31 24.01.2020
270 Clouds 27 1012 88 9000 4.59 206 23:56 23.01.2020
271 Clouds 27 1011 88 9000 1 140 23:37 23.01.2020
272 Clouds 27 1011 88 9000 1 140 23:18 23.01.2020
273 Clouds 27 1011 88 9000 2.6 200 22:39 23.01.2020
274 Clouds 27 1011 88 9000 2.6 200 22:19 23.01.2020
275 Clouds 26 1011 88 9000 3.1 180 21:58 23.01.2020
276 Clouds 26 1011 88 9000 3.1 180 21:58 23.01.2020
277 Clouds 27 1012 88 10000 3.6 200 21:39 23.01.2020
278 Clouds 27 1012 88 10000 3.6 200 21:20 23.01.2020
279 Clouds 27 1012 88 10000 3.1 190 20:59 23.01.2020
280 Clouds 28 1012 83 10000 2.6 190 20:39 23.01.2020
281 Clouds 28 1012 83 10000 2.6 190 20:20 23.01.2020
282 Clouds 28 1012 83 10000 3.6 180 19:56 23.01.2020
283 Clouds 28 1012 78 10000 5.1 190 19:38 23.01.2020
284 Clouds 28 1012 78 10000 5.1 190 19:19 23.01.2020
285 Clouds 27 1012 83 10000 4.6 190 18:55 23.01.2020
286 Clouds 27 1013 83 10000 4.6 200 18:37 23.01.2020
287 Clouds 27 1013 83 10000 4.6 200 18:18 23.01.2020
288 Clouds 27 1013 83 9000 6.2 200 17:43 23.01.2020
289 Clouds 28 1013 83 9000 6.2 200 17:20 23.01.2020
290 Clouds 29 1013 83 9000 5.1 200 16:57 23.01.2020
291 Clouds 28 1012 83 9000 4.1 200 16:37 23.01.2020
292 Clouds 28 1012 83 9000 4.1 200 16:18 23.01.2020
293 Clouds 28 1012 79 9000 3.6 180 15:56 23.01.2020
294 Clouds 28 1012 79 9000 4.1 190 15:37 23.01.2020
295 Clouds 29 1012 79 9000 4.1 190 15:18 23.01.2020
296 Clouds 29 1011 79 9000 4.1 190 14:55 23.01.2020
297 Clouds 29 1011 79 9000 4.6 170 14:37 23.01.2020
298 Clouds 30 1011 79 9000 4.6 170 14:19 23.01.2020
299 Clouds 30 1010 62 10000 4.1 210 13:40 23.01.2020
300 Clouds 30 1010 62 10000 4.1 210 13:20 23.01.2020
301 Clouds 31 1010 62 10000 3.1 210 12:47 23.01.2020
302 Clouds 31 1010 52 10000 3.6 250 12:25 23.01.2020
303 Clouds 32 1010 52 10000 2.6 200 11:59 23.01.2020
304 Clouds 33 1009 52 10000 3.6 180 11:39 23.01.2020
305 Clouds 33 1009 52 10000 3.6 180 11:20 23.01.2020
306 Clouds 34 1009 52 8000 4.1 200 10:45 23.01.2020
307 Clouds 34 1009 52 8000 4.1 190 10:23 23.01.2020
308 Clouds 34 1010 52 8000 4.6 210 09:59 23.01.2020
309 Clouds 34 1010 52 8000 2.6 0 09:39 23.01.2020
310 Clouds 34 1010 52 8000 2.6 0 09:20 23.01.2020
311 Clouds 33 1010 52 8000 2.6 190 08:42 23.01.2020
312 Clouds 34 1011 56 8000 3.6 200 08:24 23.01.2020
313 Clouds 34 1011 56 8000 3.6 200 08:24 23.01.2020
314 Clouds 33 1011 59 8000 3.1 170 07:48 23.01.2020
315 Clouds 33 1012 52 8000 1.5 0 07:27 23.01.2020
316 Clouds 33 1013 59 8000 3.6 210 06:54 23.01.2020
317 Clouds 34 1013 59 8000 3.1 160 06:23 23.01.2020
318 Clouds 33 1014 59 8000 3.6 210 05:58 23.01.2020
319 Clouds 33 1014 59 8000 3.6 210 05:58 23.01.2020
320 Clouds 31 1015 66 8000 2.6 190 04:24 23.01.2020
321 Mist 29 1013 88 5000 2.1 120 02:35 23.01.2020
322 Mist 27 1013 94 5000 2.1 110 01:41 23.01.2020
323 Clouds 27 1012 88 8000 1 0 00:28 23.01.2020
324 Clouds 27 1012 88 8000 1.5 140 23:48 22.01.2020
325 Clouds 27 1012 88 8000 2.1 140 23:30 22.01.2020
326 Clouds 27 1011 88 8000 5.67 180 22:59 22.01.2020
327 Clouds 27 1011 88 8000 2.6 160 22:41 22.01.2020
328 Clouds 27 1011 88 8000 2.6 160 22:23 22.01.2020
329 Clouds 27 1012 88 8000 2.6 170 21:41 22.01.2020
330 Clouds 27 1012 88 8000 2.6 170 21:22 22.01.2020
331 Clouds 27 1012 88 8000 1 150 20:58 22.01.2020
332 Clouds 27 1012 83 8000 2.6 200 20:39 22.01.2020
333 Clouds 27 1012 83 8000 2.6 200 20:21 22.01.2020
334 Clouds 27 1013 83 8000 2.6 210 19:57 22.01.2020
335 Clouds 27 1013 78 8000 2.6 210 19:39 22.01.2020
336 Clouds 27 1013 78 8000 2.6 210 19:19 22.01.2020
337 Clouds 27 1013 78 8000 2.6 210 18:57 22.01.2020
338 Clouds 27 1013 83 8000 2.6 210 18:38 22.01.2020
339 Clouds 27 1013 83 8000 2.6 210 18:19 22.01.2020
340 Clouds 27 1013 83 8000 2.6 210 17:54 22.01.2020
341 Clouds 28 1014 78 8000 2.6 210 17:36 22.01.2020
342 Clouds 28 1014 78 8000 2.6 210 17:18 22.01.2020
343 Clouds 28 1014 78 8000 2.6 210 17:18 22.01.2020
344 Clouds 28 1014 78 8000 2.6 210 16:43 22.01.2020
345 Clouds 28 1014 78 8000 2.6 200 16:22 22.01.2020
346 Clouds 29 1013 74 8000 3.1 210 15:58 22.01.2020
347 Clouds 28 1013 74 8000 2.6 200 15:39 22.01.2020
348 Clouds 28 1013 74 8000 2.6 200 15:21 22.01.2020
349 Clouds 28 1013 74 8000 2.6 200 15:21 22.01.2020
350 Clouds 29 1013 66 8000 3.1 240 14:54 22.01.2020
351 Clouds 29 1012 66 8000 3.1 240 14:36 22.01.2020
352 Clouds 29 1012 66 8000 3.1 240 14:36 22.01.2020
353 Clouds 30 1012 66 8000 3.1 240 14:18 22.01.2020
354 Clouds 30 1012 66 8000 2.6 260 13:54 22.01.2020
355 Clouds 30 1012 66 7000 3.6 250 13:36 22.01.2020
356 Clouds 30 1012 66 7000 3.6 250 13:18 22.01.2020
357 Clouds 31 1012 62 7000 3.1 240 12:54 22.01.2020
358 Clouds 31 1011 66 7000 4.1 240 12:36 22.01.2020
359 Clouds 31 1011 66 7000 4.1 240 12:18 22.01.2020
360 Clouds 32 1011 55 9000 2.1 280 11:54 22.01.2020
361 Clouds 33 1011 49 9000 1.5 180 11:36 22.01.2020
362 Clouds 33 1011 49 9000 1.5 180 11:18 22.01.2020
363 Clouds 34 1011 49 9000 2.1 120 10:41 22.01.2020
364 Clouds 33 1011 49 9000 2.1 120 10:19 22.01.2020
365 Clouds 34 1011 49 8000 1.5 150 09:42 22.01.2020
366 Clouds 34 1011 49 8000 1.5 130 09:24 22.01.2020
367 Clouds 34 1012 52 7000 1.5 60 08:57 22.01.2020
368 Clouds 34 1012 52 7000 2.1 0 08:39 22.01.2020
369 Clouds 34 1012 52 7000 2.1 0 08:20 22.01.2020
370 Clouds 33 1014 55 7000 2.1 60 07:46 22.01.2020
371 Clouds 33 1014 55 7000 2.1 60 07:28 22.01.2020
372 Clouds 33 1015 55 6000 2.1 0 06:38 22.01.2020
373 Clouds 32 1015 55 6000 2.1 0 06:20 22.01.2020
374 Clouds 31 1016 66 6000 1 0 05:21 22.01.2020
375 Mist 29 1016 94 5000 2.1 40 03:30 22.01.2020
376 Mist 29 1016 88 5000 2.1 50 02:50 22.01.2020
377 Clouds 27 1014 94 6000 1.23 172 01:42 22.01.2020
378 Clouds 27 1014 94 7000 1.65 184 00:44 22.01.2020
379 Clouds 26 1014 94 8000 1.65 184 00:25 22.01.2020
380 Clouds 26 1013 94 9000 1.65 184 23:38 21.01.2020
381 Clouds 26 1013 94 9000 2.75 184 23:20 21.01.2020
382 Clouds 26 1013 94 9000 2.75 184 22:55 21.01.2020
383 Clouds 27 1013 88 9000 2.75 184 22:36 21.01.2020
384 Clouds 27 1013 88 9000 2.75 184 22:36 21.01.2020
385 Clouds 27 1013 88 9000 2.75 184 22:18 21.01.2020
386 Clouds 26 1013 88 9000 1 180 21:55 21.01.2020
387 Clouds 26 1013 88 9000 2.75 184 21:36 21.01.2020
388 Clouds 27 1013 88 9000 2.75 184 21:18 21.01.2020
389 Clouds 27 1014 88 9000 0.5 170 20:39 21.01.2020
390 Clouds 27 1014 88 9000 0.5 170 20:20 21.01.2020
391 Clouds 27 1014 83 9000 3.76 188 19:58 21.01.2020
392 Clouds 27 1014 83 9000 1.5 190 19:40 21.01.2020
393 Clouds 27 1014 83 9000 1.5 190 19:21 21.01.2020
394 Clouds 27 1015 83 9000 1.5 190 18:57 21.01.2020
395 Clouds 27 1015 83 9000 2.1 200 18:39 21.01.2020
396 Clouds 27 1015 83 9000 2.1 200 18:21 21.01.2020
397 Clouds 27 1015 88 9000 3.76 188 17:57 21.01.2020
398 Clouds 27 1015 78 9000 3.76 188 17:38 21.01.2020
399 Clouds 28 1015 78 9000 4.67 211 17:18 21.01.2020
400 Clouds 28 1015 78 9000 2.6 210 16:38 21.01.2020
401 Clouds 28 1015 78 9000 2.6 210 16:19 21.01.2020
402 Clouds 28 1015 78 9000 2.6 220 15:59 21.01.2020
403 Clouds 28 1015 78 9000 2.6 220 15:38 21.01.2020
404 Clouds 28 1015 78 9000 2.6 220 15:19 21.01.2020
405 Clouds 29 1014 74 8000 4.1 210 14:40 21.01.2020
406 Clouds 29 1014 74 8000 4.1 210 14:21 21.01.2020
407 Clouds 30 1014 74 8000 3.6 210 13:44 21.01.2020
408 Clouds 30 1013 70 8000 3.6 220 13:21 21.01.2020
409 Clouds 31 1013 62 8000 3.6 250 12:59 21.01.2020
410 Clouds 31 1013 52 8000 5.47 201 12:41 21.01.2020
411 Clouds 31 1013 52 8000 5.47 201 12:23 21.01.2020
412 Clouds 32 1013 55 8000 2.1 120 11:56 21.01.2020
413 Clouds 32 1013 52 8000 2.6 90 11:37 21.01.2020
414 Clouds 32 1013 52 8000 2.6 90 11:18 21.01.2020
415 Clouds 33 1012 49 8000 2.6 30 10:42 21.01.2020
416 Clouds 33 1012 49 8000 2.6 30 10:22 21.01.2020
417 Clouds 33 1012 49 8000 2.6 30 10:22 21.01.2020
418 Clouds 33 1013 49 8000 2.1 60 09:55 21.01.2020
419 Clouds 33 1013 49 8000 2.6 160 09:37 21.01.2020
420 Clouds 33 1013 49 8000 2.6 160 09:18 21.01.2020
421 Clouds 33 1014 52 8000 3.1 0 08:41 21.01.2020
422 Clouds 33 1014 52 8000 3.1 0 08:21 21.01.2020
423 Clouds 33 1014 52 8000 2.6 0 07:43 21.01.2020
424 Clouds 33 1015 55 8000 3.1 80 07:23 21.01.2020
425 Clouds 33 1016 55 8000 3.6 120 06:56 21.01.2020
426 Clouds 33 1016 52 8000 2.6 100 06:37 21.01.2020
427 Clouds 33 1016 66 7000 2.6 110 05:53 21.01.2020
428 Mist 30 1017 79 5000 2.6 120 04:41 21.01.2020
429 Mist 30 1017 79 5000 2.6 120 04:19 21.01.2020
430 Mist 27 1016 88 2500 3.1 110 02:26 21.01.2020
431 Mist 26 1015 100 2500 1.5 50 01:31 21.01.2020
432 Mist 26 1014 94 5000 2.1 70 00:41 21.01.2020
433 Mist 26 1014 94 5000 2.1 70 00:21 21.01.2020
434 Clouds 26 1014 88 7000 1.5 70 23:41 20.01.2020
435 Clouds 27 1014 88 7000 1.5 70 23:19 20.01.2020
436 Rain 27 1014 83 7000 3.1 174 22:59 20.01.2020
437 Rain 26 1014 88 7000 3.1 174 22:39 20.01.2020
438 Rain 26 1014 88 7000 3.1 174 22:21 20.01.2020
439 Clouds 27 1013 83 8000 3.1 174 21:58 20.01.2020
440 Clouds 26 1014 83 8000 1 170 21:38 20.01.2020
441 Clouds 27 1014 83 8000 1 170 21:19 20.01.2020
442 Clouds 26 1014 83 8000 2.1 160 20:57 20.01.2020
443 Clouds 27 1014 88 8000 3.1 174 20:38 20.01.2020
444 Clouds 27 1014 88 8000 4.09 199 20:19 20.01.2020
445 Clouds 27 1015 74 8000 4.09 199 19:56 20.01.2020
446 Clouds 28 1015 74 8000 1.5 170 19:38 20.01.2020
447 Clouds 28 1015 74 8000 1.5 170 19:18 20.01.2020
448 Clouds 27 1015 74 8000 1 160 18:44 20.01.2020
449 Clouds 27 1015 74 8000 1 0 18:23 20.01.2020
450 Clouds 28 1015 70 8000 1.5 180 17:58 20.01.2020
451 Clouds 28 1015 70 8000 1.5 180 17:36 20.01.2020
452 Clouds 28 1015 70 8000 1.5 180 17:36 20.01.2020
453 Clouds 28 1015 70 8000 1.5 180 17:18 20.01.2020
454 Clouds 28 1015 70 8000 1.5 230 16:43 20.01.2020
455 Clouds 28 1015 70 8000 1.5 230 16:25 20.01.2020
456 Clouds 29 1015 62 8000 1.5 230 15:58 20.01.2020
457 Clouds 29 1014 62 8000 4.77 200 15:39 20.01.2020
458 Clouds 29 1014 62 8000 4.77 200 15:21 20.01.2020
459 Clouds 29 1014 55 8000 4.77 200 14:42 20.01.2020
460 Clouds 30 1014 55 8000 4.77 200 14:24 20.01.2020
461 Clouds 30 1013 55 8000 3.26 220 13:59 20.01.2020
462 Clouds 30 1013 55 8000 1 80 13:40 20.01.2020
463 Clouds 30 1013 55 8000 1 80 13:22 20.01.2020
464 Clouds 31 1013 52 7000 1.5 70 12:47 20.01.2020
465 Clouds 31 1012 55 7000 2.1 70 12:28 20.01.2020
466 Clouds 31 1012 55 7000 2.1 70 12:28 20.01.2020
467 Clouds 32 1012 52 7000 1.5 130 11:59 20.01.2020
468 Clouds 32 1011 52 7000 2.1 70 11:39 20.01.2020
469 Clouds 32 1011 52 7000 2.1 70 11:21 20.01.2020
470 Clouds 33 1011 52 7000 1.5 100 10:48 20.01.2020
471 Clouds 33 1011 52 7000 1.5 100 10:48 20.01.2020
472 Clouds 33 1011 52 7000 2.1 110 10:22 20.01.2020
473 Clouds 32 1011 52 8000 1.5 120 09:57 20.01.2020
474 Clouds 33 1011 55 8000 2.1 100 09:39 20.01.2020
475 Clouds 33 1011 55 8000 2.1 100 09:20 20.01.2020
476 Clouds 33 1012 55 8000 2.6 90 08:44 20.01.2020
477 Clouds 32 1012 55 8000 2.6 100 08:26 20.01.2020
478 Clouds 32 1014 52 8000 3.6 120 07:45 20.01.2020
479 Clouds 32 1014 52 8000 3.6 120 07:25 20.01.2020
480 Clouds 31 1014 62 8000 4.1 90 06:48 20.01.2020
481 Clouds 32 1014 55 8000 3.6 100 06:27 20.01.2020
482 Clouds 31 1015 62 8000 4.1 110 05:42 20.01.2020
483 Clouds 31 1015 70 7000 3.1 100 05:22 20.01.2020
484 Rain 30 1015 74 5000 2.6 80 04:42 20.01.2020
485 Mist 29 1015 74 4000 2.1 120 02:57 20.01.2020
486 Mist 27 1014 88 3000 2.6 100 01:54 20.01.2020
487 Mist 27 1013 94 1000 1.5 60 01:35 20.01.2020
488 Mist 27 1013 94 1500 2.1 70 00:44 20.01.2020
489 Mist 26 1013 94 5000 1.5 50 00:23 20.01.2020
490 Clouds 27 1013 94 7000 2.1 50 23:39 19.01.2020
491 Clouds 27 1013 94 7000 2.1 50 23:20 19.01.2020
492 Clouds 27 1013 94 7000 2.1 50 23:20 19.01.2020
493 Clouds 27 1012 88 7000 3.81 188 22:57 19.01.2020
494 Clouds 27 1012 88 7000 3.81 188 22:38 19.01.2020
495 Clouds 26 1012 88 7000 3.81 188 22:20 19.01.2020
496 Clouds 26 1012 88 7000 3.81 188 21:56 19.01.2020
497 Clouds 26 1012 88 8000 2.1 190 21:38 19.01.2020
498 Clouds 27 1012 88 8000 2.1 190 21:20 19.01.2020
499 Clouds 28 1012 83 8000 2.1 190 20:57 19.01.2020
500 Clouds 26 1013 88 8000 2.6 200 20:39 19.01.2020
501 Clouds 27 1013 88 8000 2.6 200 20:20 19.01.2020
502 Clouds 27 1013 83 8000 2.1 200 19:57 19.01.2020
503 Clouds 28 1013 88 8000 1 180 19:39 19.01.2020
504 Clouds 28 1013 88 8000 1 180 19:20 19.01.2020
505 Clouds 27 1013 83 8000 1 180 18:56 19.01.2020
506 Clouds 27 1013 83 8000 1 170 18:37 19.01.2020
507 Clouds 27 1013 83 8000 1 170 18:19 19.01.2020
508 Clouds 27 1013 83 8000 1.5 190 17:58 19.01.2020
509 Clouds 27 1013 83 8000 2.1 180 17:39 19.01.2020
510 Clouds 28 1013 83 8000 2.1 180 17:20 19.01.2020
511 Clouds 28 1013 79 8000 2.1 190 16:58 19.01.2020
512 Clouds 28 1013 79 8000 3.1 170 16:38 19.01.2020
513 Clouds 29 1013 79 8000 3.1 170 16:19 19.01.2020
514 Clouds 29 1012 74 8000 2.1 160 15:58 19.01.2020
515 Clouds 29 1012 66 8000 1.5 170 15:37 19.01.2020
516 Clouds 29 1012 66 8000 1.5 170 15:19 19.01.2020
517 Clouds 29 1012 66 8000 1 140 14:57 19.01.2020
518 Clouds 29 1012 62 8000 5.88 181 14:38 19.01.2020
519 Clouds 29 1012 62 8000 5.88 181 14:38 19.01.2020
520 Clouds 30 1012 62 8000 5.91 195 14:18 19.01.2020
521 Clouds 30 1012 62 8000 5.91 195 14:18 19.01.2020
522 Clouds 30 1011 58 8000 1.5 110 13:56 19.01.2020
523 Clouds 30 1011 55 8000 1.5 110 13:37 19.01.2020
524 Clouds 31 1011 55 8000 1.5 110 13:19 19.01.2020
525 Clouds 31 1011 58 8000 1.5 110 12:54 19.01.2020
526 Clouds 31 1011 55 8000 1.5 110 12:36 19.01.2020
527 Clouds 32 1011 55 8000 1.5 110 12:18 19.01.2020
528 Clouds 32 1010 52 8000 3.1 120 11:39 19.01.2020
529 Clouds 33 1010 52 8000 3.1 120 11:20 19.01.2020
530 Clouds 33 1010 52 8000 2.6 120 10:56 19.01.2020
531 Clouds 33 1010 52 8000 2.6 120 10:56 19.01.2020
532 Clouds 33 1010 52 8000 2.6 110 10:37 19.01.2020
533 Clouds 33 1010 52 8000 2.6 110 10:19 19.01.2020
534 Clouds 33 1010 52 8000 3.1 120 09:45 19.01.2020
535 Clouds 33 1010 52 8000 3.1 120 09:45 19.01.2020
536 Clouds 33 1010 55 8000 3.1 120 09:27 19.01.2020
537 Clouds 33 1011 52 8000 4.1 100 08:58 19.01.2020
538 Clouds 32 1011 52 8000 1.5 140 08:39 19.01.2020
539 Clouds 33 1011 52 8000 1.5 140 08:21 19.01.2020
540 Clouds 33 1013 59 8000 2.1 0 07:42 19.01.2020
541 Clouds 33 1013 59 8000 2.1 0 07:22 19.01.2020
542 Clouds 33 1013 66 8000 1.5 60 06:51 19.01.2020
543 Clear 32 1014 74 6000 1 0 05:41 19.01.2020
544 Mist 28 1014 88 3000 2.1 100 02:44 19.01.2020
545 Mist 27 1013 94 3000 2.1 90 02:21 19.01.2020
546 Mist 27 1013 94 3000 2.1 110 01:25 19.01.2020
547 Mist 27 1013 94 3000 2.1 110 01:25 19.01.2020
548 Clouds 27 1012 94 8000 2.6 110 00:46 19.01.2020
549 Clouds 27 1012 88 8000 1 170 00:28 19.01.2020
550 Clouds 26 1012 88 8000 1 170 23:56 18.01.2020
551 Clouds 27 1012 88 8000 2.1 210 23:38 18.01.2020
552 Clouds 27 1012 88 8000 2.1 210 23:18 18.01.2020
553 Clouds 27 1011 88 7000 2.1 200 22:55 18.01.2020
554 Clouds 26 1011 88 7000 2.6 200 22:36 18.01.2020
555 Clouds 26 1011 88 7000 2.6 200 22:18 18.01.2020
556 Clouds 27 1011 88 7000 1.5 180 21:56 18.01.2020
557 Clouds 27 1011 88 6000 2.1 200 21:36 18.01.2020
558 Clouds 27 1011 88 6000 2.1 200 21:18 18.01.2020
559 Clouds 27 1012 88 6000 2.1 190 20:41 18.01.2020
560 Clouds 27 1012 88 6000 2.1 190 20:20 18.01.2020
561 Clouds 27 1012 83 7000 2.6 180 19:54 18.01.2020
562 Clouds 27 1012 83 7000 2.6 190 19:36 18.01.2020
563 Clouds 27 1012 83 7000 2.6 190 19:18 18.01.2020
564 Clouds 27 1012 83 7000 2.6 180 18:40 18.01.2020
565 Clouds 27 1012 83 7000 2.6 180 18:40 18.01.2020
566 Clouds 27 1012 83 7000 2.6 180 18:21 18.01.2020
567 Clouds 28 1013 83 6000 2.6 190 17:41 18.01.2020
568 Clouds 28 1013 83 6000 2.6 190 17:21 18.01.2020
569 Clouds 28 1013 83 6000 2.1 180 16:57 18.01.2020
570 Clouds 28 1012 83 6000 2.1 160 16:39 18.01.2020
571 Clouds 28 1012 83 6000 2.1 160 16:21 18.01.2020
572 Clouds 28 1012 83 6000 2.1 190 15:56 18.01.2020
573 Clouds 29 1012 83 6000 3.1 210 15:38 18.01.2020
574 Clouds 29 1012 83 6000 3.1 210 15:20 18.01.2020
575 Clouds 29 1011 83 6000 3.1 210 14:41 18.01.2020
576 Clouds 30 1011 83 6000 3.1 210 14:20 18.01.2020
577 Mist 30 1011 70 5000 4.1 210 13:58 18.01.2020
578 Mist 30 1010 66 5000 3.1 260 13:37 18.01.2020
579 Mist 30 1010 66 5000 3.1 260 13:18 18.01.2020
580 Haze 31 1010 55 5000 0.5 0 12:43 18.01.2020
581 Clouds 31 1010 52 6000 1.5 110 12:22 18.01.2020
582 Clouds 31 1010 52 6000 1.5 110 12:22 18.01.2020
583 Clouds 32 1009 52 7000 2.1 110 11:58 18.01.2020
584 Clouds 33 1009 52 8000 2.1 110 11:40 18.01.2020
585 Clouds 33 1009 52 8000 2.1 110 11:20 18.01.2020
586 Clouds 33 1009 52 8000 2.6 110 10:43 18.01.2020
587 Clouds 33 1009 52 8000 2.6 130 10:21 18.01.2020
588 Clouds 34 1009 49 8000 2.6 150 09:55 18.01.2020
589 Clouds 33 1009 52 7000 1.5 0 09:37 18.01.2020
590 Clouds 33 1010 55 7000 1.5 0 08:59 18.01.2020
591 Clouds 33 1010 55 8000 2.6 100 08:41 18.01.2020
592 Clouds 33 1010 55 8000 2.6 100 08:20 18.01.2020
593 Clouds 33 1010 55 8000 2.6 100 08:20 18.01.2020
594 Clouds 33 1011 52 8000 3.6 120 07:56 18.01.2020
595 Clouds 33 1011 59 8000 1 90 07:37 18.01.2020
596 Clouds 33 1012 62 7000 2.6 120 06:48 18.01.2020
597 Clouds 32 1012 66 7000 2.6 80 06:22 18.01.2020
598 Clouds 31 1013 66 7000 2.1 140 05:31 18.01.2020
599 Mist 30 1014 88 3000 2.1 100 03:46 18.01.2020
600 Mist 27 1013 94 2000 2.6 110 02:21 18.01.2020
601 Mist 27 1012 94 3000 1.5 120 01:36 18.01.2020
602 Mist 25 1012 94 4000 1.5 120 00:38 18.01.2020
603 Mist 25 1012 94 4000 1.5 120 00:19 18.01.2020
604 Mist 25 1012 94 5000 1.5 110 23:45 17.01.2020
605 Mist 26 1012 94 5000 1 120 23:21 17.01.2020
606 Clouds 26 1011 88 6000 3.79 171 22:59 17.01.2020
607 Clouds 27 1011 88 7000 0.5 130 22:40 17.01.2020
608 Clouds 27 1011 88 7000 0.5 130 22:19 17.01.2020
609 Clouds 27 1011 88 7000 3.79 171 21:42 17.01.2020
610 Clouds 27 1011 88 7000 3.79 171 21:24 17.01.2020
611 Clouds 27 1012 88 8000 1 190 20:59 17.01.2020
612 Clouds 26 1012 88 8000 1 170 20:40 17.01.2020
613 Clouds 27 1012 88 8000 1 170 20:20 17.01.2020
614 Clouds 27 1012 88 8000 1 170 20:20 17.01.2020
615 Clouds 27 1012 83 8000 1.5 180 19:57 17.01.2020
616 Clouds 27 1013 83 8000 1 190 19:38 17.01.2020
617 Clouds 27 1013 83 8000 1 190 19:19 17.01.2020
618 Clouds 27 1013 78 8000 2.1 190 18:57 17.01.2020
619 Clouds 27 1013 78 8000 2.1 180 18:37 17.01.2020
620 Clouds 27 1013 78 8000 2.1 180 18:19 17.01.2020
621 Clouds 28 1013 74 7000 2.1 170 17:39 17.01.2020
622 Clouds 28 1013 74 7000 2.1 170 17:21 17.01.2020
623 Clouds 28 1013 74 7000 1.5 160 16:44 17.01.2020
624 Clouds 28 1013 74 7000 2.6 210 16:21 17.01.2020
625 Clouds 28 1013 74 7000 2.6 200 15:58 17.01.2020
626 Clouds 28 1013 74 7000 2.6 200 15:58 17.01.2020
627 Clouds 28 1013 70 7000 2.6 250 15:40 17.01.2020
628 Clouds 28 1013 70 7000 2.6 250 15:22 17.01.2020
629 Clouds 29 1012 66 7000 2.6 240 14:43 17.01.2020
630 Clouds 30 1012 70 7000 3.6 250 14:24 17.01.2020
631 Clouds 30 1012 66 7000 3.6 260 13:45 17.01.2020
632 Clouds 30 1011 66 7000 3.6 260 13:23 17.01.2020
633 Clouds 30 1011 66 7000 3.6 250 12:48 17.01.2020
634 Clouds 31 1011 46 8000 2.1 120 12:24 17.01.2020
635 Clouds 32 1011 43 8000 2.1 140 11:56 17.01.2020
636 Clouds 32 1010 41 8000 2.6 140 11:37 17.01.2020
637 Clouds 33 1010 41 8000 2.6 140 11:18 17.01.2020
638 Clouds 34 1010 41 8000 2.6 170 10:41 17.01.2020
639 Clouds 34 1010 41 8000 2.6 170 10:41 17.01.2020
640 Clouds 34 1010 41 8000 2.6 170 10:22 17.01.2020
641 Clouds 34 1010 44 8000 3.1 110 09:56 17.01.2020
642 Clouds 34 1010 44 8000 3.6 110 09:37 17.01.2020
643 Clouds 34 1010 44 8000 3.6 110 09:18 17.01.2020
644 Clouds 34 1011 44 7000 2.6 110 08:42 17.01.2020
645 Clouds 34 1011 46 7000 3.1 130 08:23 17.01.2020
646 Clouds 33 1012 52 7000 2.1 180 07:51 17.01.2020
647 Clouds 33 1013 55 7000 0.5 0 07:31 17.01.2020
648 Clouds 33 1013 59 7000 1.5 240 06:57 17.01.2020
649 Clouds 32 1014 66 7000 2.1 210 06:37 17.01.2020
650 Clouds 32 1015 70 7000 1.5 0 05:27 17.01.2020
651 Rain 30 1013 71 0 3.06 201 03:38 17.01.2020
652 Rain 28 1013 75 0 3.06 201 02:44 17.01.2020
653 Rain 26 1012 78 0 3.35 190 01:46 17.01.2020
654 Rain 25 1013 91 0 3.35 190 01:27 17.01.2020
655 Clear 25 1011 79 0 2.91 188 00:43 17.01.2020
656 Clouds 25 1012 94 9000 2.91 188 00:20 17.01.2020
657 Clouds 26 1012 94 9000 2.91 188 23:42 16.01.2020
658 Clouds 25 1012 94 9000 2.91 188 23:24 16.01.2020
659 Clouds 26 1011 88 9000 1 110 22:43 16.01.2020
660 Clouds 26 1011 88 9000 1 110 22:22 16.01.2020
661 Clouds 26 1011 83 9000 1.5 140 21:57 16.01.2020
662 Clouds 26 1012 83 9000 1.5 160 21:39 16.01.2020
663 Clouds 26 1012 83 9000 1.5 160 21:19 16.01.2020
664 Clouds 25 1012 88 9000 2.1 160 20:59 16.01.2020
665 Clouds 25 1012 88 9000 2.1 170 20:39 16.01.2020
666 Clouds 27 1012 88 9000 2.1 170 20:20 16.01.2020
667 Clouds 27 1012 88 9000 2.1 180 19:56 16.01.2020
668 Clouds 27 1012 88 9000 2.1 180 19:56 16.01.2020
669 Clouds 27 1013 88 9000 3.1 190 19:38 16.01.2020
670 Clouds 27 1013 88 9000 3.1 190 19:38 16.01.2020
671 Clouds 27 1013 88 9000 3.1 190 19:20 16.01.2020
672 Clouds 26 1013 88 9000 3.6 190 18:55 16.01.2020
673 Clouds 26 1013 88 9000 3.1 190 18:37 16.01.2020
674 Clouds 26 1013 88 9000 3.1 190 18:37 16.01.2020
675 Clouds 26 1013 88 9000 3.1 190 18:18 16.01.2020
676 Clouds 27 1013 83 8000 3.1 180 17:44 16.01.2020
677 Clouds 28 1013 78 8000 3.1 190 17:23 16.01.2020
678 Clouds 28 1013 78 8000 2.6 190 16:57 16.01.2020
679 Clouds 28 1013 78 8000 2.6 180 16:39 16.01.2020
680 Clouds 27 1013 78 8000 2.6 180 16:20 16.01.2020
681 Clouds 27 1013 78 8000 3.6 190 15:44 16.01.2020
682 Clouds 27 1013 78 8000 3.6 190 15:44 16.01.2020
683 Clouds 28 1013 78 8000 2.6 190 15:24 16.01.2020
684 Clouds 28 1013 78 8000 2.6 190 15:24 16.01.2020
685 Clouds 28 1012 74 8000 3.1 200 14:59 16.01.2020
686 Clouds 28 1012 70 8000 4.1 200 14:41 16.01.2020
687 Clouds 29 1012 70 8000 4.1 200 14:22 16.01.2020
688 Clouds 30 1012 62 8000 3.6 230 13:45 16.01.2020
689 Clouds 30 1011 58 8000 4.1 250 13:26 16.01.2020
690 Clouds 30 1011 58 8000 3.1 240 12:48 16.01.2020
691 Clouds 30 1011 46 8000 1.5 120 12:29 16.01.2020
692 Clouds 32 1010 43 8000 3.1 120 11:59 16.01.2020
693 Clouds 32 1010 43 8000 2.6 150 11:41 16.01.2020
694 Clouds 32 1010 43 8000 2.6 150 11:41 16.01.2020
695 Clouds 33 1010 43 8000 2.6 150 11:23 16.01.2020
696 Clouds 33 1010 41 8000 2.6 120 10:55 16.01.2020
697 Clouds 34 1010 44 8000 2.1 180 10:36 16.01.2020
698 Clouds 34 1010 44 8000 2.1 180 10:18 16.01.2020
699 Clouds 34 1010 44 8000 2.6 0 09:42 16.01.2020
700 Clouds 34 1010 46 8000 2.1 200 09:24 16.01.2020
701 Clouds 34 1010 49 8000 2.6 120 08:56 16.01.2020
702 Clouds 34 1011 52 8000 2.6 40 08:36 16.01.2020
703 Clouds 33 1011 52 8000 2.6 40 08:18 16.01.2020
704 Clouds 32 1012 55 8000 1.5 190 07:42 16.01.2020
705 Clouds 32 1012 55 8000 1.5 190 07:23 16.01.2020
706 Clouds 34 1012 59 8000 2.6 110 06:50 16.01.2020
707 Clouds 32 1013 66 8000 1.5 140 06:32 16.01.2020
708 Clouds 32 1013 70 7000 4.31 183 05:47 16.01.2020
709 Clouds 30 1014 79 6000 1 100 04:46 16.01.2020
710 Mist 29 1014 88 4500 1.5 70 03:29 16.01.2020
711 Mist 28 1014 94 5000 1.5 50 02:44 16.01.2020
712 Mist 26 1012 94 3000 2.1 330 01:28 16.01.2020
713 Clouds 26 1012 88 8000 1 20 00:41 16.01.2020
714 Clouds 26 1012 88 8000 1 20 00:19 16.01.2020
715 Clouds 26 1011 88 8000 1 50 23:40 15.01.2020
716 Clouds 26 1011 88 8000 1 50 23:20 15.01.2020
717 Clouds 26 1011 88 8000 1 50 23:19 15.01.2020
718 Clouds 26 1011 88 8000 5.38 179 22:56 15.01.2020
719 Clouds 26 1011 88 8000 1.5 190 22:36 15.01.2020
720 Clouds 26 1011 88 8000 1.5 190 22:18 15.01.2020
721 Clouds 27 1011 88 8000 2.6 180 21:55 15.01.2020
722 Clouds 27 1011 88 8000 2.6 170 21:36 15.01.2020
723 Clouds 27 1011 88 8000 2.6 170 21:18 15.01.2020
724 Clouds 27 1011 88 8000 2.6 170 21:18 15.01.2020
725 Clouds 27 1011 83 8000 1.5 170 20:54 15.01.2020
726 Clouds 27 1011 88 8000 2.6 170 20:36 15.01.2020
727 Clouds 27 1011 88 8000 2.6 170 20:18 15.01.2020
728 Clouds 27 1012 88 8000 2.6 190 19:54 15.01.2020
729 Clouds 27 1012 88 8000 3.1 190 19:36 15.01.2020
730 Clouds 27 1012 88 8000 3.1 190 19:18 15.01.2020
731 Clouds 26 1012 88 8000 2.6 180 18:54 15.01.2020
732 Clouds 26 1012 83 8000 2.6 180 18:36 15.01.2020
733 Clouds 27 1012 83 8000 2.6 180 18:18 15.01.2020
734 Clouds 27 1012 78 8000 2.6 170 17:40 15.01.2020
735 Clouds 28 1012 78 8000 2.6 170 17:21 15.01.2020
736 Clouds 27 1012 78 8000 1.5 180 16:56 15.01.2020
737 Clouds 27 1012 78 8000 1.5 180 16:38 15.01.2020
738 Clouds 27 1012 78 8000 1.5 180 16:20 15.01.2020
739 Clouds 28 1012 74 8000 2.1 190 15:43 15.01.2020
740 Clouds 28 1012 66 8000 3.1 240 15:21 15.01.2020
741 Clouds 28 1011 66 8000 3.1 220 14:55 15.01.2020
742 Clouds 28 1011 58 8000 2.6 260 14:37 15.01.2020
743 Clouds 28 1011 58 8000 2.6 260 14:37 15.01.2020
744 Clouds 30 1011 58 8000 2.6 260 14:18 15.01.2020
745 Clouds 30 1010 62 8000 2.6 260 13:41 15.01.2020
746 Clouds 30 1010 62 8000 2.6 260 13:23 15.01.2020
747 Clouds 30 1010 55 8000 6.22 192 12:55 15.01.2020
748 Clouds 30 1010 52 8000 2.1 120 12:37 15.01.2020
749 Clouds 31 1010 52 8000 2.1 120 12:18 15.01.2020
750 Clouds 32 1010 46 9000 2.6 110 11:38 15.01.2020
751 Clouds 32 1010 46 9000 2.6 110 11:20 15.01.2020
752 Clouds 32 1009 43 9000 2.1 140 10:48 15.01.2020
753 Clouds 33 1009 43 9000 2.6 130 10:29 15.01.2020
754 Clouds 33 1009 43 9000 3.1 120 09:59 15.01.2020
755 Clouds 33 1010 43 9000 2.6 90 09:41 15.01.2020
756 Clouds 33 1010 43 9000 2.6 90 09:21 15.01.2020
757 Clouds 34 1010 46 9000 3.6 100 08:44 15.01.2020
758 Clouds 33 1010 49 9000 3.1 110 08:26 15.01.2020
759 Clouds 32 1011 49 9000 2.6 170 07:54 15.01.2020
760 Clouds 32 1012 55 9000 2.6 100 07:33 15.01.2020
761 Clouds 32 1012 58 9000 2.1 0 06:54 15.01.2020
762 Clouds 32 1013 62 9000 2.1 0 06:28 15.01.2020
763 Clouds 30 1014 74 9000 0.5 0 04:57 15.01.2020
764 Mist 28 1014 94 3500 1.5 70 03:20 15.01.2020
765 Mist 27 1012 100 5000 1 30 01:48 15.01.2020
766 Clouds 26 1012 94 7000 1.5 40 01:21 15.01.2020
767 Clouds 26 1011 88 9000 3.08 175 00:37 15.01.2020
768 Clouds 26 1011 88 9000 3.08 175 00:19 15.01.2020
769 Clouds 26 1011 88 9000 3.08 175 23:46 14.01.2020
770 Clouds 26 1010 88 9000 1 170 23:27 14.01.2020
771 Clouds 26 1010 88 9000 1 170 22:57 14.01.2020
772 Clouds 26 1010 88 9000 1 160 22:39 14.01.2020
773 Clouds 26 1010 88 9000 1 160 22:18 14.01.2020
774 Clouds 27 1010 94 9000 0.5 170 21:56 14.01.2020
775 Clouds 27 1011 88 9000 1.5 170 21:37 14.01.2020
776 Clouds 27 1011 88 9000 1.5 170 21:19 14.01.2020
777 Clouds 27 1011 88 9000 2.1 160 20:42 14.01.2020
778 Clouds 27 1011 88 9000 2.1 160 20:42 14.01.2020
779 Clouds 27 1011 88 9000 2.1 160 20:22 14.01.2020
780 Clouds 27 1011 88 9000 2.1 160 19:57 14.01.2020
781 Clouds 27 1012 88 9000 2.1 170 19:38 14.01.2020
782 Clouds 27 1012 88 9000 2.1 170 19:20 14.01.2020
783 Clouds 27 1012 88 9000 2.1 170 19:20 14.01.2020
784 Clouds 27 1012 88 9000 2.1 190 18:58 14.01.2020
785 Clouds 26 1011 88 9000 2.6 180 18:39 14.01.2020
786 Clouds 26 1011 88 9000 2.6 180 18:19 14.01.2020
787 Clouds 26 1012 83 9000 2.1 190 17:39 14.01.2020
788 Clouds 27 1012 83 9000 2.1 190 17:19 14.01.2020
789 Clouds 27 1012 83 9000 1.5 190 16:57 14.01.2020
790 Clouds 28 1011 83 9000 1.5 180 16:38 14.01.2020
791 Clouds 27 1011 83 9000 1.5 180 16:20 14.01.2020
792 Clouds 27 1011 83 9000 2.1 200 15:54 14.01.2020
793 Clouds 27 1011 74 9000 2.1 200 15:36 14.01.2020
794 Clouds 28 1011 74 9000 2.1 200 15:18 14.01.2020
795 Clouds 28 1010 74 9000 3.1 210 14:41 14.01.2020
796 Clouds 29 1010 74 9000 3.1 210 14:20 14.01.2020
797 Clouds 29 1010 70 9000 3.1 210 13:42 14.01.2020
798 Clouds 29 1009 66 9000 3.1 230 13:20 14.01.2020
799 Clouds 30 1009 62 9000 2.6 280 12:57 14.01.2020
800 Clouds 30 1009 62 9000 2.6 310 12:39 14.01.2020
801 Clouds 30 1009 62 9000 2.6 310 12:20 14.01.2020
802 Clouds 30 1009 62 9000 2.6 310 12:20 14.01.2020
803 Clouds 31 1009 59 9000 2.6 270 11:42 14.01.2020
804 Clouds 31 1009 59 9000 2.6 270 11:22 14.01.2020
805 Clouds 32 1009 46 8000 2.1 110 10:57 14.01.2020
806 Clouds 33 1009 46 8000 1 200 10:38 14.01.2020
807 Clouds 33 1009 46 8000 1 200 10:19 14.01.2020
808 Clouds 33 1009 49 8000 2.1 140 09:56 14.01.2020
809 Clouds 33 1009 49 8000 1 100 09:37 14.01.2020
810 Clouds 33 1009 49 8000 1 100 09:19 14.01.2020
811 Clouds 33 1010 49 8000 2.1 170 08:41 14.01.2020
812 Clouds 33 1010 49 8000 2.1 170 08:41 14.01.2020
813 Clouds 33 1010 49 8000 2.1 170 08:22 14.01.2020
814 Clouds 33 1010 52 8000 3.1 160 07:53 14.01.2020
815 Clouds 32 1011 55 8000 1.5 140 07:25 14.01.2020
816 Clouds 32 1012 59 7000 3.1 160 06:44 14.01.2020
817 Clouds 32 1013 62 7000 4.25 179 05:59 14.01.2020
818 Clouds 30 1014 74 7000 2.6 160 04:51 14.01.2020
819 Clouds 30 1014 78 6000 1.5 150 03:47 14.01.2020
820 Mist 28 1013 88 4500 3.6 110 02:39 14.01.2020
821 Mist 26 1012 88 4000 3.6 110 01:21 14.01.2020
822 Mist 26 1012 94 4500 3.1 90 00:48 14.01.2020
823 Clouds 26 1011 94 6000 2.6 80 00:22 14.01.2020
824 Clouds 26 1011 100 7000 2.1 50 23:44 13.01.2020
825 Clouds 27 1011 94 8000 2.1 70 23:19 13.01.2020
826 Clouds 26 1011 94 8000 1 110 22:57 13.01.2020
827 Clouds 26 1010 94 8000 0.5 140 22:39 13.01.2020
828 Clouds 27 1010 94 8000 0.5 140 22:20 13.01.2020
829 Clouds 27 1010 88 8000 1.5 130 21:55 13.01.2020
830 Clouds 27 1010 94 8000 1.5 190 21:37 13.01.2020
831 Clouds 27 1010 94 8000 1.5 190 21:18 13.01.2020
832 Clouds 27 1011 88 8000 1.5 180 20:56 13.01.2020
833 Clouds 27 1011 88 8000 1.5 170 20:38 13.01.2020
834 Clouds 27 1011 88 8000 1.5 170 20:19 13.01.2020
835 Clouds 27 1011 88 8000 1.5 200 19:41 13.01.2020
836 Clouds 27 1011 88 8000 1.5 200 19:21 13.01.2020
837 Clouds 28 1011 88 8000 1.5 200 18:58 13.01.2020
838 Clouds 28 1011 83 8000 1.5 180 18:40 13.01.2020
839 Clouds 27 1011 83 8000 1.5 180 18:19 13.01.2020
840 Clouds 27 1011 83 8000 1.5 180 18:19 13.01.2020
841 Clouds 27 1011 83 8000 1.5 180 18:19 13.01.2020
842 Clouds 27 1011 83 8000 1.5 180 18:19 13.01.2020
843 Clouds 27 1011 83 8000 1.5 190 17:58 13.01.2020
844 Clouds 27 1011 83 8000 2.1 200 17:39 13.01.2020
845 Clouds 27 1011 83 8000 2.1 200 17:21 13.01.2020
846 Rain 28 1010 74 0 4.32 194 16:43 13.01.2020
847 Rain 27 1010 73 0 4.32 194 16:24 13.01.2020
848 Rain 27 1010 72 0 4.32 194 15:59 13.01.2020
849 Rain 28 1010 72 0 4.32 194 15:41 13.01.2020
850 Rain 28 1010 71 0 4.32 194 15:21 13.01.2020
851 Rain 28 1009 71 0 4.32 194 14:54 13.01.2020
852 Rain 27 1009 71 0 4.32 194 14:36 13.01.2020
853 Clouds 29 1009 71 0 5.95 200 14:18 13.01.2020
854 Clouds 29 1008 69 0 5.95 200 13:40 13.01.2020
855 Clouds 29 1008 68 0 5.95 200 13:22 13.01.2020
856 Clouds 30 1008 55 9000 1.5 30 12:58 13.01.2020
857 Clouds 30 1008 55 9000 1.5 30 12:40 13.01.2020
858 Clouds 31 1008 55 9000 1.5 30 12:21 13.01.2020
859 Clouds 31 1008 55 9000 2.1 90 11:40 13.01.2020
860 Clouds 31 1008 55 9000 2.1 90 11:20 13.01.2020
861 Clouds 31 1008 55 9000 2.1 90 11:20 13.01.2020
862 Clouds 31 1008 55 9000 2.1 90 11:20 13.01.2020
863 Clouds 32 1008 55 9000 2.1 110 10:58 13.01.2020
864 Clouds 33 1008 55 9000 2.6 90 10:39 13.01.2020
865 Clouds 33 1008 55 9000 2.6 90 10:39 13.01.2020
866 Clouds 32 1008 55 9000 2.6 90 10:20 13.01.2020
867 Clouds 33 1008 55 9000 3.1 120 09:59 13.01.2020
868 Clouds 32 1008 55 9000 3.1 120 09:40 13.01.2020
869 Clouds 32 1008 55 9000 3.1 120 09:21 13.01.2020
870 Clouds 32 1009 55 9000 4.1 110 08:41 13.01.2020
871 Clouds 32 1009 55 9000 4.1 110 08:20 13.01.2020
872 Clouds 32 1009 58 9000 4.6 110 07:48 13.01.2020
873 Clouds 31 1010 62 9000 4.6 100 07:27 13.01.2020
874 Clouds 31 1011 70 9000 4.6 80 06:43 13.01.2020
875 Clouds 31 1011 70 9000 4.1 100 06:21 13.01.2020
876 Clouds 31 1012 79 8000 3.1 120 05:27 13.01.2020
877 Clouds 28 1012 88 8000 4.1 110 03:55 13.01.2020
878 Clouds 28 1012 88 8000 4.1 100 03:24 13.01.2020
879 Clouds 27 1012 83 8000 1.5 90 02:45 13.01.2020
880 Clouds 26 1011 88 9000 2.5 163 02:26 13.01.2020
881 Clouds 26 1010 88 9000 2.64 209 01:20 13.01.2020
882 Rain 25 1010 100 8000 2.6 180 00:41 13.01.2020
883 Rain 25 1010 100 8000 2.6 180 00:22 13.01.2020
884 Rain 26 1009 94 3000 5.7 90 23:42 12.01.2020
885 Rain 26 1009 94 3000 5.7 90 23:23 12.01.2020
886 Clouds 27 1009 83 8000 2.1 70 22:58 12.01.2020
887 Clouds 27 1009 83 8000 2.1 70 22:58 12.01.2020
888 Clouds 28 1009 83 8000 1.5 120 22:39 12.01.2020
889 Clouds 28 1009 83 8000 1.5 120 22:21 12.01.2020
890 Clouds 28 1009 83 8000 4.14 192 21:56 12.01.2020
891 Clouds 28 1009 83 9000 2.1 190 21:38 12.01.2020
892 Clouds 28 1009 83 9000 2.1 190 21:19 12.01.2020
893 Clouds 28 1009 83 9000 2.6 190 20:56 12.01.2020
894 Clouds 28 1009 83 9000 2.6 190 20:56 12.01.2020
895 Clouds 28 1009 83 9000 1.5 180 20:37 12.01.2020
896 Clouds 28 1009 83 9000 1.5 180 20:19 12.01.2020
897 Clouds 28 1009 83 9000 1.5 180 19:55 12.01.2020
898 Clouds 28 1010 83 9000 2.6 180 19:37 12.01.2020
899 Clouds 29 1010 83 9000 2.6 180 19:18 12.01.2020
900 Clouds 29 1010 83 9000 2.6 180 19:18 12.01.2020
901 Clouds 28 1010 83 9000 2.1 180 18:56 12.01.2020
902 Clouds 29 1010 83 9000 3.1 170 18:38 12.01.2020
903 Clouds 29 1010 83 9000 3.1 170 18:19 12.01.2020
904 Clouds 29 1010 79 9000 2.6 170 17:42 12.01.2020
905 -273 0 0 0 0 0 17:22 12.01.2020
906 Clouds 28 1010 78 9000 1.5 180 16:58 12.01.2020
907 Clouds 28 1010 83 9000 2.1 180 16:39 12.01.2020
908 Clouds 28 1010 83 9000 2.1 180 16:20 12.01.2020
909 Clouds 28 1010 79 9000 2.6 190 15:55 12.01.2020
910 Clouds 28 1009 79 9000 2.1 190 15:37 12.01.2020
911 Clouds 28 1009 79 9000 2.1 190 15:19 12.01.2020
912 Clouds 28 1009 74 9000 2.6 190 14:42 12.01.2020
913 Clouds 30 1009 74 9000 2.6 190 14:23 12.01.2020
914 Clouds 30 1008 70 9000 3.6 210 13:56 12.01.2020
915 Clouds 30 1008 66 9000 3.6 210 13:38 12.01.2020
916 Clouds 30 1008 66 9000 3.6 210 13:20 12.01.2020
917 Clouds 30 1007 62 9000 3.1 200 12:44 12.01.2020
918 Clouds 31 1007 49 9000 2.1 140 12:21 12.01.2020
919 Clouds 32 1007 49 9000 2.1 170 11:59 12.01.2020
920 Clouds 32 1007 49 9000 3.1 130 11:40 12.01.2020
921 Clouds 32 1007 49 9000 3.1 130 11:22 12.01.2020
922 Clouds 33 1006 49 9000 4.1 100 10:56 12.01.2020
923 Clouds 33 1006 52 9000 3.6 80 10:37 12.01.2020
924 Clouds 34 1006 52 9000 3.6 80 10:18 12.01.2020
925 Clouds 34 1007 49 9000 2.6 110 09:41 12.01.2020
926 Clouds 34 1007 49 9000 2.6 110 09:21 12.01.2020
927 Clouds 34 1007 49 9000 2.6 130 08:47 12.01.2020
928 Clouds 34 1008 52 9000 3.6 100 08:21 12.01.2020
929 Clouds 34 1008 52 9000 3.6 100 08:21 12.01.2020
930 Clouds 34 1008 55 9000 2.6 100 07:45 12.01.2020
931 Clouds 34 1009 59 9000 3.1 120 07:25 12.01.2020
932 Clouds 34 1010 55 9000 2.6 110 06:50 12.01.2020
933 Clouds 33 1011 62 9000 2.6 100 06:32 12.01.2020
934 Clouds 33 1011 62 9000 2.6 130 05:49 12.01.2020
935 Clouds 31 1012 70 9000 2.6 150 04:52 12.01.2020
936 Clouds 30 1012 83 7000 3.1 120 03:29 12.01.2020
937 Mist 28 1012 88 4900 3.1 110 02:43 12.01.2020
938 Mist 28 1011 94 3000 3.1 110 02:22 12.01.2020
939 Mist 27 1011 94 3000 2.1 110 01:30 12.01.2020
940 Mist 27 1010 94 5000 2.1 120 00:44 12.01.2020
941 Clouds 27 1010 94 6000 2.6 100 00:21 12.01.2020
942 Clouds 27 1010 94 7000 1.5 110 23:56 11.01.2020
943 Clouds 27 1010 88 8000 1.5 110 23:37 11.01.2020
944 Clouds 27 1010 88 8000 1.5 110 23:18 11.01.2020
945 Clouds 27 1009 88 8000 1.5 110 22:56 11.01.2020
946 Clouds 27 1009 88 8000 1.5 120 22:37 11.01.2020
947 Clouds 27 1009 88 8000 1.5 120 22:18 11.01.2020
948 Clouds 27 1009 88 8000 1.5 160 21:42 11.01.2020
949 Clouds 27 1009 88 8000 1.5 160 21:18 11.01.2020
950 Clouds 27 1009 94 8000 1.5 170 20:55 11.01.2020
951 Clouds 27 1010 88 8000 2.6 200 20:36 11.01.2020
952 Clouds 27 1010 88 8000 2.6 200 20:18 11.01.2020
953 Clouds 28 1010 88 8000 2.1 210 19:54 11.01.2020
954 Clouds 28 1010 88 8000 2.1 210 19:36 11.01.2020
955 Clouds 28 1010 88 8000 2.1 210 19:18 11.01.2020
956 Clouds 28 1010 83 8000 3.6 200 18:39 11.01.2020
957 Clouds 28 1010 83 8000 3.6 200 18:20 11.01.2020
958 Clouds 28 1010 83 8000 3.6 200 18:20 11.01.2020
959 Clouds 28 1010 88 8000 4.1 200 17:58 11.01.2020
960 Clouds 28 1010 88 8000 4.1 200 17:58 11.01.2020
961 Clouds 28 1010 83 8000 3.6 190 17:40 11.01.2020
962 Clouds 28 1010 83 8000 3.6 190 17:20 11.01.2020
963 Clouds 28 1010 83 8000 2.6 190 16:55 11.01.2020
964 Clouds 28 1010 83 8000 2.6 190 16:55 11.01.2020
965 Clouds 28 1010 78 8000 2.6 190 16:36 11.01.2020
966 Clouds 28 1010 78 8000 2.6 190 16:36 11.01.2020
967 Clouds 29 1010 78 8000 2.6 190 16:18 11.01.2020
968 Clouds 29 1010 78 8000 2.6 200 15:41 11.01.2020
969 Clouds 29 1010 78 8000 2.6 200 15:22 11.01.2020
970 Clouds 29 1009 70 8000 3.1 200 14:58 11.01.2020
971 Clouds 29 1009 70 8000 2.6 200 14:39 11.01.2020
972 Clouds 30 1009 70 8000 2.6 200 14:21 11.01.2020
973 Clouds 30 1009 62 8000 2.6 170 13:41 11.01.2020
974 Clouds 30 1009 62 8000 2.6 170 13:21 11.01.2020
975 Clouds 30 1008 62 7000 2.6 170 12:59 11.01.2020
976 Clouds 30 1008 62 7000 3.6 190 12:41 11.01.2020
977 Clouds 30 1008 62 7000 3.6 190 12:41 11.01.2020
978 Clouds 30 1008 62 7000 3.6 190 12:23 11.01.2020
979 Clouds 31 1008 52 7000 2.1 140 11:48 11.01.2020
980 Clouds 32 1008 55 7000 1.5 160 11:26 11.01.2020
981 Clouds 33 1007 52 7000 2.1 140 10:55 11.01.2020
982 Clouds 33 1007 52 7000 2.6 130 10:36 11.01.2020
983 Clouds 34 1007 52 7000 2.6 130 10:18 11.01.2020
984 Clouds 35 1008 49 8000 1.5 150 09:39 11.01.2020
985 Clouds 34 1008 49 8000 1.5 150 09:20 11.01.2020
986 Clouds 34 1008 49 8000 1.5 150 09:20 11.01.2020
987 Clouds 35 1008 52 8000 1.5 0 08:42 11.01.2020
988 Clouds 35 1008 52 8000 1.5 0 08:22 11.01.2020
989 Clouds 33 1009 59 8000 3.6 120 07:44 11.01.2020
990 Clouds 33 1009 59 8000 3.6 120 07:25 11.01.2020
991 Clouds 33 1010 59 8000 2.1 160 06:51 11.01.2020
992 Clouds 32 1011 70 8000 2.1 110 05:48 11.01.2020
993 Clouds 31 1012 74 6000 2.6 130 04:47 11.01.2020
994 Mist 31 1012 83 5000 3.1 130 04:28 11.01.2020
995 Mist 28 1012 88 3500 2.6 110 02:49 11.01.2020
996 Mist 28 1011 83 3000 2.6 120 02:27 11.01.2020
997 Mist 26 1011 88 3500 3.6 110 01:43 11.01.2020
998 Mist 26 1010 88 3500 3.1 100 01:19 11.01.2020
999 Mist 27 1010 88 5000 2.1 100 00:38 11.01.2020
1000 Clouds 27 1010 94 8000 2.1 100 23:59 10.01.2020
1001 Clouds 27 1010 94 8000 2.1 100 23:40 10.01.2020
1002 Clouds 27 1010 94 8000 2.1 100 23:21 10.01.2020
1003 Clouds 28 1009 83 8000 2.1 110 22:57 10.01.2020
1004 Clouds 28 1009 83 8000 1.5 140 22:39 10.01.2020
1005 Clouds 28 1009 83 8000 1.5 140 22:20 10.01.2020
1006 Clouds 28 1009 83 8000 2.1 150 21:55 10.01.2020
1007 Clouds 28 1009 83 8000 1.5 160 21:36 10.01.2020
1008 Clouds 28 1009 83 8000 1.5 160 21:18 10.01.2020
1009 Clouds 28 1010 83 8000 2.1 170 20:42 10.01.2020
1010 Clouds 28 1010 83 8000 2.1 170 20:24 10.01.2020
1011 Clouds 28 1010 83 8000 2.1 170 20:24 10.01.2020
1012 Clouds 27 1010 88 8000 2.1 210 19:55 10.01.2020
1013 Clouds 28 1010 88 8000 2.1 200 19:37 10.01.2020
1014 Clouds 28 1010 88 8000 2.1 200 19:19 10.01.2020
1015 Clouds 29 1010 79 8000 3.1 190 18:41 10.01.2020
1016 Clouds 29 1010 79 8000 3.1 190 18:19 10.01.2020
1017 Clouds 29 1010 79 8000 3.1 190 18:19 10.01.2020
1018 Clouds 29 1010 74 8000 2.6 180 17:57 10.01.2020
1019 Clouds 28 1010 74 8000 2.1 190 17:38 10.01.2020
1020 Clouds 29 1010 74 8000 2.1 190 17:20 10.01.2020
1021 Clouds 29 1010 74 8000 2.1 190 17:20 10.01.2020
1022 Clouds 30 1010 74 8000 3.1 190 16:55 10.01.2020
1023 Clouds 30 1010 74 8000 3.1 190 16:37 10.01.2020
1024 Clouds 29 1010 74 8000 3.1 190 16:19 10.01.2020
1025 Clouds 29 1010 70 7000 3.1 190 15:55 10.01.2020
1026 Clouds 29 1010 66 7000 2.6 190 15:36 10.01.2020
1027 Clouds 29 1010 66 7000 2.6 190 15:36 10.01.2020
1028 Clouds 29 1010 66 7000 2.6 190 15:18 10.01.2020
1029 Clouds 30 1009 55 7000 2.6 260 14:42 10.01.2020
1030 Clouds 31 1009 55 8000 2.6 280 14:20 10.01.2020
1031 Clouds 31 1009 55 8000 2.6 280 13:59 10.01.2020
1032 Clouds 31 1009 55 8000 2.6 310 13:41 10.01.2020
1033 Clouds 31 1009 55 8000 2.6 310 13:23 10.01.2020
1034 Clouds 31 1008 49 8000 2.6 310 12:58 10.01.2020
1035 Clouds 32 1008 43 8000 4.12 208 12:38 10.01.2020
1036 Clouds 32 1008 43 8000 4.12 208 12:19 10.01.2020
1037 Clouds 33 1008 41 9000 1 0 11:54 10.01.2020
1038 Clouds 32 1008 41 9000 1 0 11:36 10.01.2020
1039 Clouds 33 1008 41 9000 1 0 11:18 10.01.2020
1040 Clouds 33 1007 44 9000 1.5 60 10:42 10.01.2020
1041 Clouds 33 1007 44 9000 1.5 60 10:24 10.01.2020
1042 Clouds 34 1007 39 9000 2.1 100 09:56 10.01.2020
1043 Clouds 34 1007 39 9000 1.5 80 09:37 10.01.2020
1044 Clouds 34 1007 39 9000 1.5 80 09:19 10.01.2020
1045 Clouds 35 1008 41 9000 2.1 140 08:41 10.01.2020
1046 Clouds 34 1008 41 9000 2.1 140 08:22 10.01.2020
1047 Clouds 35 1009 41 8000 4.1 110 07:44 10.01.2020
1048 Clouds 34 1009 46 8000 3.1 60 07:24 10.01.2020
1049 Clouds 34 1010 46 8000 3.6 110 06:45 10.01.2020
1050 Clouds 34 1011 46 8000 2.1 100 06:25 10.01.2020
1051 Clouds 34 1011 46 8000 2.1 0 05:46 10.01.2020
1052 Mist 31 1012 62 5000 3.1 80 03:37 10.01.2020
1053 Mist 30 1012 62 5000 3.1 80 03:18 10.01.2020
1054 Clouds 29 1011 69 6000 2.6 60 02:39 10.01.2020
1055 Clouds 27 1011 74 7000 1.5 360 01:38 10.01.2020
1056 Clouds 27 1011 74 7000 1.5 360 01:19 10.01.2020
1057 Clouds 27 1010 83 9000 1.5 20 00:39 10.01.2020
1058 Clouds 27 1010 78 9000 2.53 280 23:58 09.01.2020
1059 Clouds 27 1010 78 9000 2.53 280 23:38 09.01.2020
1060 Clouds 27 1010 78 9000 2.6 236 23:20 09.01.2020
1061 Clouds 27 1010 78 9000 2.6 236 22:57 09.01.2020
1062 Clouds 27 1010 78 9000 2.6 236 22:38 09.01.2020
1063 Clouds 27 1010 78 9000 2.6 236 22:19 09.01.2020
1064 Clouds 28 1010 74 9000 2.6 140 21:57 09.01.2020
1065 Clouds 28 1010 74 9000 2.6 236 21:37 09.01.2020
1066 Clouds 28 1010 74 9000 2.6 236 21:37 09.01.2020
1067 Clouds 28 1010 74 9000 2.6 236 21:37 09.01.2020
1068 Clouds 28 1010 74 9000 2.6 236 21:37 09.01.2020
1069 Clouds 28 1010 74 9000 2.6 236 21:37 09.01.2020
1070 Clouds 28 1010 74 9000 2.6 236 21:19 09.01.2020
1071 Clouds 27 1010 62 9000 2.6 236 20:56 09.01.2020
1072 Clouds 27 1010 62 9000 2.6 236 20:38 09.01.2020
1073 Clouds 28 1010 65 9000 1.34 223 20:19 09.01.2020
1074 Clouds 29 1010 65 9000 2.1 50 19:56 09.01.2020
1075 Clouds 29 1010 66 9000 1 320 19:37 09.01.2020
1076 Clouds 29 1010 66 9000 1 320 19:18 09.01.2020
1077 Clouds 28 1010 62 9000 1.34 223 18:54 09.01.2020
1078 Clouds 29 1010 58 9000 1.34 223 18:36 09.01.2020
1079 Clouds 29 1010 58 9000 1.34 223 18:18 09.01.2020
1080 Clouds 29 1010 58 9000 1.34 223 17:41 09.01.2020
1081 Clouds 30 1010 69 9000 1 0 17:18 09.01.2020
1082 Clouds 30 1010 58 10000 1.5 260 16:47 09.01.2020
1083 Clouds 30 1010 55 10000 2.1 250 16:23 09.01.2020
1084 Clouds 30 1010 55 10000 2.1 250 16:23 09.01.2020
1085 Clouds 30 1010 55 10000 2.1 250 16:23 09.01.2020
1086 Clouds 30 1010 52 10000 2.1 260 15:56 09.01.2020
1087 Clouds 30 1010 52 10000 2.1 260 15:56 09.01.2020
1088 Clouds 30 1010 52 10000 2.1 260 15:56 09.01.2020
1089 Clouds 29 1010 55 10000 2.1 230 15:38 09.01.2020
1090 Clouds 29 1010 55 10000 2.1 230 15:18 09.01.2020
1091 Clouds 30 1010 55 10000 2.6 220 14:41 09.01.2020
1092 Clouds 31 1010 49 10000 1.5 320 14:21 09.01.2020
1093 Clouds 31 1009 49 10000 1.5 280 13:57 09.01.2020
1094 Clouds 32 1009 49 10000 2.1 310 13:39 09.01.2020
1095 Clouds 31 1009 49 10000 2.1 310 13:20 09.01.2020
1096 Clouds 32 1009 46 10000 2.6 330 12:58 09.01.2020
1097 Clouds 32 1009 46 10000 2.6 330 12:58 09.01.2020
1098 Clouds 31 1008 46 10000 2.1 310 12:38 09.01.2020
1099 Clouds 32 1008 46 10000 2.1 310 12:19 09.01.2020
1100 Clouds 32 1008 41 10000 1.5 100 11:55 09.01.2020
1101 Clouds 33 1009 41 10000 1.5 90 11:37 09.01.2020
1102 Clouds 33 1009 41 10000 1.5 90 11:19 09.01.2020
1103 Clouds 34 1009 39 10000 1 0 10:42 09.01.2020
1104 Clouds 34 1008 41 10000 2.6 10 10:22 09.01.2020
1105 Clouds 35 1008 41 10000 2.1 0 09:49 09.01.2020
1106 Clouds 34 1009 39 10000 4.1 80 09:26 09.01.2020
1107 Clouds 34 1009 41 10000 3.1 70 09:00 09.01.2020
1108 Clouds 34 1009 41 10000 3.1 70 08:40 09.01.2020
1109 Clouds 34 1010 41 10000 4.1 80 08:22 09.01.2020
1110 Clouds 34 1010 44 10000 4.1 80 07:57 09.01.2020
1111 Clouds 34 1011 41 9000 4.1 80 07:38 09.01.2020
1112 Clouds 35 1011 41 9000 4.1 80 07:19 09.01.2020
1113 Clouds 35 1012 44 9000 3.1 70 06:38 09.01.2020
1114 Clouds 35 1012 44 9000 3.1 70 06:18 09.01.2020
1115 Clouds 34 1013 49 9000 3.1 80 05:40 09.01.2020
1116 Clouds 32 1013 62 8000 3.6 20 04:42 09.01.2020
1117 Clouds 32 1013 62 8000 3.6 20 04:42 09.01.2020
1118 Clouds 30 1012 78 6000 2.1 350 03:28 09.01.2020
1119 Clouds 30 1012 78 6000 2.1 350 02:47 09.01.2020
1120 Clouds 27 1012 78 6000 2.6 350 01:56 09.01.2020
1121 Clouds 27 1012 83 6000 2.1 340 01:34 09.01.2020
1122 Clear 27 1012 78 7000 2.1 340 00:40 09.01.2020
1123 Clear 26 1011 83 7000 1.5 320 00:19 09.01.2020
1124 Clear 26 1011 88 6000 1 0 23:41 08.01.2020
1125 Clear 26 1011 88 6000 1 0 23:23 08.01.2020
1126 Clear 26 1011 83 6000 1 0 22:56 08.01.2020
1127 Clear 27 1011 83 6000 1.5 150 22:38 08.01.2020
1128 Clear 27 1011 83 6000 1.5 150 22:19 08.01.2020
1129 Clear 27 1011 83 7000 0.62 286 21:55 08.01.2020
1130 Clear 27 1011 83 8000 0.62 286 21:37 08.01.2020
1131 Clear 27 1011 83 8000 0.62 286 21:18 08.01.2020
1132 Clear 26 1011 78 8000 2.1 120 20:56 08.01.2020
1133 Clear 27 1011 74 8000 1.5 110 20:37 08.01.2020
1134 Clouds 27 1011 74 8000 1.5 110 20:19 08.01.2020
1135 Clouds 28 1012 65 9000 2.1 110 19:39 08.01.2020
1136 Clouds 28 1012 65 9000 2.1 110 19:20 08.01.2020
1137 Clouds 28 1012 65 9000 2.6 130 18:58 08.01.2020
1138 Clouds 28 1012 65 9000 2.6 130 18:58 08.01.2020
1139 Clouds 27 1012 65 9000 2.6 130 18:39 08.01.2020
1140 Clouds 28 1012 62 9000 2.1 130 18:19 08.01.2020
1141 Clouds 28 1012 62 9000 2.1 130 18:19 08.01.2020
1142 Clouds 29 1012 58 9000 2.1 150 17:58 08.01.2020
1143 Clouds 29 1012 58 9000 1.5 350 17:39 08.01.2020
1144 Clouds 29 1012 58 9000 1.5 350 17:20 08.01.2020
1145 Clouds 29 1011 55 9000 2.6 350 16:57 08.01.2020
1146 Clouds 29 1011 55 9000 2.6 350 16:57 08.01.2020
1147 Clouds 29 1011 51 9000 2.6 350 16:38 08.01.2020
1148 Clouds 29 1011 51 9000 2.6 350 16:19 08.01.2020
1149 Clouds 30 1011 52 9000 3.6 350 15:45 08.01.2020
1150 Clouds 30 1011 52 9000 2.1 360 15:22 08.01.2020
1151 Clouds 30 1011 52 9000 3.1 350 14:59 08.01.2020
1152 Clouds 30 1010 48 9000 3.1 350 14:40 08.01.2020
1153 Clouds 30 1010 48 9000 3.1 350 14:21 08.01.2020
1154 Clouds 30 1010 48 9000 2.1 20 13:42 08.01.2020
1155 Clouds 31 1010 46 9000 2.1 360 13:22 08.01.2020
1156 Clouds 30 1010 48 9000 2.1 30 12:55 08.01.2020
1157 Clouds 30 1010 48 9000 2.1 30 12:55 08.01.2020
1158 Clouds 31 1009 46 9000 2.1 70 12:37 08.01.2020
1159 Clouds 32 1009 46 9000 2.1 70 12:18 08.01.2020
1160 Clouds 32 1009 46 9000 2.1 70 12:18 08.01.2020
1161 Clouds 31 1009 43 9000 2.1 90 11:48 08.01.2020
1162 Clouds 33 1009 43 10000 2.6 80 11:19 08.01.2020
1163 Clouds 33 1009 43 10000 3.6 120 10:59 08.01.2020
1164 Clouds 33 1009 43 10000 3.6 120 10:40 08.01.2020
1165 Clouds 33 1009 41 10000 3.1 100 10:21 08.01.2020
1166 Clouds 33 1009 38 10000 4.1 90 09:43 08.01.2020
1167 Clouds 34 1009 38 10000 4.1 100 09:21 08.01.2020
1168 Clouds 35 1009 36 10000 5.1 110 08:59 08.01.2020
1169 Clouds 35 1009 36 10000 5.1 110 08:41 08.01.2020
1170 Clouds 34 1010 38 10000 5.1 90 08:22 08.01.2020
1171 Clouds 33 1010 38 9000 5.7 90 07:58 08.01.2020
1172 Clouds 34 1010 38 9000 5.7 90 07:39 08.01.2020
1173 Clouds 34 1011 41 9000 5.1 80 07:18 08.01.2020
1174 Clouds 34 1012 41 8000 4.6 90 06:41 08.01.2020
1175 Clouds 33 1013 49 7000 6.2 80 05:56 08.01.2020
1176 Clouds 32 1014 52 7000 3.6 90 05:26 08.01.2020
1177 Mist 31 1014 66 5000 2.1 190 04:36 08.01.2020
1178 Mist 28 1014 78 3500 1.5 140 02:46 08.01.2020
1179 Mist 27 1014 88 3000 1.5 120 02:28 08.01.2020
1180 Mist 26 1013 88 2000 2.1 130 01:56 08.01.2020
1181 Mist 25 1013 94 2000 2.1 90 01:30 08.01.2020
1182 Mist 25 1012 88 3000 2.6 110 00:51 08.01.2020
1183 Mist 25 1012 88 4000 2.6 110 00:22 08.01.2020
1184 Mist 25 1012 88 5000 2.6 100 23:46 07.01.2020
1185 Clouds 25 1012 88 7000 2.6 120 23:21 07.01.2020
1186 Clouds 25 1012 88 7000 2.6 120 23:21 07.01.2020
1187 Mist 25 1011 94 4000 1.5 90 22:41 07.01.2020
1188 Clouds 25 1011 83 7000 2.84 194 22:21 07.01.2020
1189 Clouds 25 1011 83 7000 2.84 194 21:59 07.01.2020
1190 Clouds 25 1011 83 7000 2.84 194 21:41 07.01.2020
1191 Clouds 26 1011 78 7000 2.84 194 21:21 07.01.2020
1192 Clouds 26 1012 74 8000 2.84 194 20:57 07.01.2020
1193 Clouds 26 1012 74 8000 2.84 194 20:39 07.01.2020
1194 Clouds 26 1012 74 8000 2.84 194 20:39 07.01.2020
1195 Clouds 26 1012 78 8000 3.36 176 20:21 07.01.2020
1196 Clouds 27 1012 69 8000 1 140 19:56 07.01.2020
1197 Clouds 27 1013 69 9000 1.5 130 19:37 07.01.2020
1198 Clouds 26 1013 69 9000 1.5 130 19:19 07.01.2020
1199 Clouds 26 1013 69 9000 1.5 130 19:19 07.01.2020
1200 Clouds 26 1013 69 9000 1.5 130 19:19 07.01.2020
1201 Clouds 27 1012 69 9000 1.5 130 18:55 07.01.2020
1202 Clouds 27 1012 69 9000 1.5 180 18:37 07.01.2020
1203 Clouds 27 1012 69 9000 1.5 180 18:18 07.01.2020
1204 Clouds 27 1013 69 9000 1.5 200 17:41 07.01.2020
1205 Clouds 27 1013 65 9000 1.5 160 17:23 07.01.2020
1206 Clouds 28 1013 58 9000 2.1 160 16:58 07.01.2020
1207 Clouds 28 1012 61 9000 2.1 200 16:38 07.01.2020
1208 Clouds 28 1012 61 9000 2.1 200 16:19 07.01.2020
1209 Clouds 28 1012 54 9000 2.6 200 15:59 07.01.2020
1210 Clouds 28 1012 54 9000 2.6 200 15:41 07.01.2020
1211 Clouds 28 1012 45 9000 3.1 310 15:23 07.01.2020
1212 Clouds 29 1011 43 9000 2.1 350 14:56 07.01.2020
1213 Clouds 29 1011 40 9000 1.5 20 14:37 07.01.2020
1214 Clouds 30 1011 40 9000 1.5 20 14:19 07.01.2020
1215 Clouds 30 1011 40 9000 1 30 13:40 07.01.2020
1216 Clouds 29 1010 40 9000 1 100 13:19 07.01.2020
1217 Clouds 30 1010 38 9000 2.1 130 12:42 07.01.2020
1218 Clouds 30 1010 36 9000 2.6 120 12:21 07.01.2020
1219 Clouds 31 1010 33 10000 3.1 130 11:58 07.01.2020
1220 Clouds 32 1010 34 10000 2.6 120 11:38 07.01.2020
1221 Clouds 32 1010 34 10000 2.6 120 11:38 07.01.2020
1222 Clouds 33 1010 34 10000 2.6 120 11:20 07.01.2020
1223 Clouds 34 1009 30 9000 2.6 70 10:42 07.01.2020
1224 Clouds 34 1009 30 9000 2.6 70 10:42 07.01.2020
1225 Clouds 35 1009 32 10000 4.1 100 10:24 07.01.2020
1226 Clouds 35 1009 30 10000 4.1 110 09:59 07.01.2020
1227 Clouds 35 1010 28 10000 3.1 130 09:38 07.01.2020
1228 Clouds 36 1010 28 10000 3.1 130 09:20 07.01.2020
1229 Clouds 36 1010 30 10000 3.6 120 08:46 07.01.2020
1230 Clouds 35 1010 34 10000 4.1 110 08:26 07.01.2020
1231 Clouds 35 1010 34 10000 4.1 110 08:26 07.01.2020
1232 Clouds 34 1011 36 9000 4.1 80 07:54 07.01.2020
1233 Clouds 34 1012 41 9000 3.6 60 07:28 07.01.2020
1234 Clouds 34 1013 46 8000 3.6 100 06:54 07.01.2020
1235 Clouds 33 1013 43 8000 2.6 120 06:34 07.01.2020
1236 Clouds 33 1014 46 8000 4.1 110 05:55 07.01.2020
1237 Clear 31 1014 62 7000 1.5 80 04:41 07.01.2020
1238 Mist 30 1015 74 5000 1.5 120 03:29 07.01.2020
1239 Mist 27 1014 78 3500 2.6 110 02:22 07.01.2020
1240 Mist 26 1013 83 2500 1.5 100 01:54 07.01.2020
1241 Mist 25 1013 88 2500 1.5 120 01:30 07.01.2020
1242 Mist 24 1012 94 3000 1 0 00:37 07.01.2020
1243 Mist 24 1012 94 3000 1 0 00:18 07.01.2020
1244 Mist 25 1012 88 4000 1.5 100 23:55 06.01.2020
1245 Mist 25 1012 88 5000 0.5 0 23:36 06.01.2020
1246 Mist 25 1012 88 5000 0.5 0 23:18 06.01.2020
1247 Mist 24 1012 88 5000 1 0 22:42 06.01.2020
1248 Mist 25 1011 83 5000 2.1 120 22:22 06.01.2020
1249 Clear 25 1012 83 7000 1 0 21:56 06.01.2020
1250 Clear 25 1012 83 10000 2.6 120 21:38 06.01.2020
1251 Clear 25 1012 83 10000 2.6 120 21:20 06.01.2020
1252 Clear 25 1012 74 10000 2.6 100 20:56 06.01.2020
1253 Clear 26 1012 74 10000 2.1 110 20:37 06.01.2020
1254 Clear 26 1012 74 10000 2.1 110 20:19 06.01.2020
1255 Clear 26 1012 65 10000 2.1 120 19:55 06.01.2020
1256 Clear 26 1012 65 10000 2.1 110 19:37 06.01.2020
1257 Clear 26 1012 65 10000 2.1 110 19:18 06.01.2020
1258 Clear 26 1012 65 10000 2.1 130 18:45 06.01.2020
1259 Clear 27 1013 69 10000 2.1 140 18:21 06.01.2020
1260 Clear 27 1013 61 10000 1.76 174 17:40 06.01.2020
1261 Clear 27 1013 61 10000 3.22 187 17:20 06.01.2020
1262 Clear 27 1013 61 10000 3.22 187 17:20 06.01.2020
1263 Clear 28 1013 58 10000 1.5 290 16:59 06.01.2020
1264 Clear 28 1013 58 10000 1.5 290 16:41 06.01.2020
1265 Clear 28 1013 55 10000 1.5 290 16:23 06.01.2020
1266 Clear 28 1013 55 10000 3.1 270 15:59 06.01.2020
1267 Clear 28 1012 48 10000 3.1 290 15:37 06.01.2020
1268 Clear 28 1012 48 10000 3.1 290 15:37 06.01.2020
1269 Clear 29 1012 48 10000 3.1 290 15:18 06.01.2020
1270 Clear 29 1012 48 10000 3.1 290 15:18 06.01.2020
1271 Clear 29 1012 45 10000 1.5 330 14:42 06.01.2020
1272 Clear 31 1012 48 10000 3.22 187 14:22 06.01.2020
1273 Clear 30 1012 45 10000 2.1 110 13:59 06.01.2020
1274 Clear 30 1011 48 10000 2.1 120 13:39 06.01.2020
1275 Clear 30 1011 48 10000 2.1 120 13:21 06.01.2020
1276 Clear 30 1011 48 10000 2.1 140 12:56 06.01.2020
1277 Clear 31 1011 46 10000 2.6 130 12:37 06.01.2020
1278 Clear 32 1011 46 10000 2.6 130 12:19 06.01.2020
1279 Clear 32 1011 46 10000 2.6 130 12:19 06.01.2020
1280 Clear 32 1010 43 10000 2.6 130 11:43 06.01.2020
1281 Clear 32 1010 43 10000 2.6 130 11:43 06.01.2020
1282 Clouds 32 1010 41 10000 2.6 130 11:24 06.01.2020
1283 Clouds 33 1010 41 10000 2.6 40 10:59 06.01.2020
1284 Clouds 33 1010 38 10000 3.1 50 10:40 06.01.2020
1285 Clouds 33 1010 38 10000 3.1 50 10:20 06.01.2020
1286 Clouds 34 1010 41 10000 2.1 0 09:39 06.01.2020
1287 Clouds 34 1010 41 10000 2.1 120 09:21 06.01.2020
1288 Clouds 34 1011 41 10000 3.6 40 08:52 06.01.2020
1289 Clouds 35 1011 38 10000 2.6 30 08:34 06.01.2020
1290 Clouds 34 1012 43 10000 3.1 120 07:57 06.01.2020
1291 Clouds 34 1013 43 10000 4.1 120 07:37 06.01.2020
1292 Clouds 34 1014 41 10000 3.6 90 06:47 06.01.2020
1293 Clouds 34 1014 43 9000 5.1 120 06:27 06.01.2020
1294 Clouds 32 1015 43 9000 4.6 120 05:48 06.01.2020
1295 Clouds 32 1016 45 8000 4.6 110 04:53 06.01.2020
1296 Clouds 31 1016 48 8000 4.1 100 04:20 06.01.2020
1297 Clouds 30 1015 65 6000 3.6 120 02:58 06.01.2020
1298 Mist 27 1015 74 5000 2.1 110 02:24 06.01.2020
1299 Mist 25 1015 83 5000 1.5 100 01:45 06.01.2020
1300 Clouds 25 1014 88 7000 0.79 69 01:27 06.01.2020
1301 Clouds 24 1014 83 8000 0.48 41 00:44 06.01.2020
1302 Clouds 24 1013 78 10000 1 60 00:24 06.01.2020
1303 Clouds 24 1013 78 10000 0.48 41 23:43 05.01.2020
1304 Clouds 24 1013 78 10000 0.48 41 23:43 05.01.2020
1305 Clouds 24 1013 78 10000 1.5 50 23:23 05.01.2020
1306 Clouds 24 1013 78 10000 1.5 50 23:23 05.01.2020
1307 Clouds 24 1012 78 10000 1.5 60 22:58 05.01.2020
1308 Clouds 24 1012 78 10000 1.5 70 22:39 05.01.2020
1309 Clouds 24 1012 78 10000 1.5 70 22:20 05.01.2020
1310 Clouds 25 1012 74 10000 1.5 50 21:55 05.01.2020
1311 Clouds 24 1012 78 10000 1.03 114 21:37 05.01.2020
1312 Clouds 25 1012 78 10000 1.03 114 21:19 05.01.2020
1313 Clouds 25 1013 83 10000 1.03 114 20:55 05.01.2020
1314 Clouds 25 1013 74 10000 1.03 114 20:37 05.01.2020
1315 Clouds 25 1013 74 10000 1.04 181 20:19 05.01.2020
1316 Clouds 25 1013 69 10000 1.04 181 19:56 05.01.2020
1317 Clouds 26 1013 69 10000 1.5 40 19:37 05.01.2020
1318 Clouds 26 1013 69 10000 1.5 40 19:19 05.01.2020
1319 Clouds 26 1013 74 10000 1.5 40 18:54 05.01.2020
1320 Clouds 26 1013 74 10000 1.04 181 18:36 05.01.2020
1321 Clouds 26 1013 74 10000 1.04 181 18:18 05.01.2020
1322 Clouds 26 1013 69 10000 2.1 150 17:55 05.01.2020
1323 Clouds 26 1013 69 10000 2.1 150 17:55 05.01.2020
1324 Clouds 26 1013 69 10000 2.1 150 17:55 05.01.2020
1325 Clouds 26 1013 69 10000 2.1 150 17:55 05.01.2020
1326 Clouds 27 1013 65 10000 1 0 17:37 05.01.2020
1327 Clouds 27 1013 65 10000 1 0 17:18 05.01.2020
1328 Clouds 27 1013 58 10000 1.5 330 16:54 05.01.2020
1329 Clouds 28 1013 61 10000 1.5 50 16:36 05.01.2020
1330 Clouds 27 1013 61 10000 1.5 50 16:18 05.01.2020
1331 Clouds 28 1013 55 10000 1.5 360 15:36 05.01.2020
1332 Clouds 29 1013 55 10000 1.5 360 15:18 05.01.2020
1333 Clouds 28 1013 54 10000 1.5 360 14:54 05.01.2020
1334 Clouds 28 1013 51 10000 1 0 14:36 05.01.2020
1335 Clouds 30 1013 51 10000 1 0 14:18 05.01.2020
1336 Clouds 30 1012 51 10000 1 0 13:39 05.01.2020
1337 Clouds 30 1012 51 10000 0.5 0 13:21 05.01.2020
1338 Clouds 30 1012 48 10000 2.1 80 12:57 05.01.2020
1339 Clouds 30 1012 48 10000 2.1 80 12:57 05.01.2020
1340 Clouds 31 1012 46 10000 2.1 120 12:39 05.01.2020
1341 Clouds 31 1012 46 10000 2.1 120 12:21 05.01.2020
1342 Clouds 31 1012 46 10000 2.1 120 12:21 05.01.2020
1343 Clouds 31 1011 46 10000 2.1 100 11:55 05.01.2020
1344 Clouds 32 1011 46 10000 2.1 90 11:37 05.01.2020
1345 Clouds 32 1011 46 10000 2.1 90 11:19 05.01.2020
1346 Clouds 32 1011 46 10000 2.1 90 11:19 05.01.2020
1347 Clouds 32 1011 46 10000 2.1 90 11:19 05.01.2020
1348 Clouds 33 1011 43 10000 2.6 70 10:42 05.01.2020
1349 Clouds 33 1011 43 10000 1.5 0 10:20 05.01.2020
1350 Clouds 34 1011 43 10000 3.1 70 09:59 05.01.2020
1351 Clouds 34 1011 43 10000 3.1 70 09:41 05.01.2020
1352 Clouds 34 1011 43 10000 3.1 70 09:41 05.01.2020
1353 Clouds 33 1011 43 10000 3.6 100 09:21 05.01.2020
1354 Clouds 34 1011 43 10000 4.1 90 08:45 05.01.2020
1355 Clouds 33 1012 43 10000 3.6 100 08:25 05.01.2020
1356 Clouds 33 1012 43 10000 4.6 90 07:50 05.01.2020
1357 Clear 32 1013 46 10000 5.1 110 07:29 05.01.2020
1358 Clear 32 1014 46 10000 5.1 80 06:57 05.01.2020
1359 Clear 32 1015 48 10000 4.6 120 05:53 05.01.2020
1360 Clear 31 1015 51 10000 5.7 100 05:28 05.01.2020
1361 Clear 30 1015 54 10000 6.7 110 04:24 05.01.2020
1362 Clear 31 1015 54 10000 5.7 100 03:45 05.01.2020
1363 Clouds 30 1014 58 8000 3.6 110 02:41 05.01.2020
1364 Clouds 28 1014 65 8000 3.1 120 02:19 05.01.2020
1365 Clouds 26 1014 73 8000 2.6 110 01:39 05.01.2020
1366 Clouds 26 1013 73 7000 4.1 110 01:18 05.01.2020
1367 Clouds 26 1013 73 9000 3.1 110 00:40 05.01.2020
1368 Clouds 25 1012 73 9000 2.6 110 00:21 05.01.2020
1369 Clouds 25 1012 73 9000 2.6 110 00:21 05.01.2020
1370 Clouds 25 1012 73 9000 2.6 120 23:59 04.01.2020
1371 Clouds 25 1012 73 9000 2.1 120 23:39 04.01.2020
1372 Clouds 25 1012 73 9000 2.1 120 23:18 04.01.2020
1373 Clouds 25 1012 73 9000 1.5 100 22:39 04.01.2020
1374 Clouds 25 1012 73 9000 1.5 100 22:39 04.01.2020
1375 Clouds 25 1012 73 10000 1.5 80 22:21 04.01.2020
1376 Clouds 26 1012 74 10000 2.1 70 21:57 04.01.2020
1377 Clear 26 1012 69 10000 1 120 21:38 04.01.2020
1378 Clear 26 1012 69 10000 1 120 21:19 04.01.2020
1379 Clear 26 1012 69 10000 1 120 21:19 04.01.2020
1380 Clouds 26 1012 74 10000 1 0 20:56 04.01.2020
1381 Clouds 26 1012 74 10000 2.1 80 20:37 04.01.2020
1382 Clouds 26 1012 74 10000 2.1 80 20:19 04.01.2020
1383 Clouds 26 1012 74 10000 2.6 90 19:42 04.01.2020
1384 Clouds 27 1013 65 10000 1.5 130 19:23 04.01.2020
1385 Clouds 27 1013 65 10000 1.5 140 18:58 04.01.2020
1386 Clouds 27 1013 61 10000 1.5 90 18:39 04.01.2020
1387 Clouds 27 1013 61 10000 1.5 90 18:20 04.01.2020
1388 Clouds 27 1013 65 10000 1 60 17:57 04.01.2020
1389 Clouds 27 1013 65 10000 1 60 17:57 04.01.2020
1390 Clouds 27 1013 61 10000 1.5 60 17:39 04.01.2020
1391 Clouds 28 1013 61 10000 1.5 60 17:21 04.01.2020
1392 Clouds 28 1013 62 10000 1.5 60 16:42 04.01.2020
1393 Clouds 28 1013 58 10000 1 0 16:24 04.01.2020
1394 Clear 28 1013 51 10000 2.1 340 15:57 04.01.2020
1395 Clear 28 1013 51 10000 2.1 340 15:57 04.01.2020
1396 Clear 28 1013 51 10000 1.5 340 15:39 04.01.2020
1397 Clear 28 1013 51 10000 1.5 340 15:19 04.01.2020
1398 Clear 29 1012 51 10000 1.5 350 14:57 04.01.2020
1399 Clear 28 1012 51 10000 1.5 350 14:39 04.01.2020
1400 Clear 30 1012 55 10000 1 40 14:19 04.01.2020
1401 Clear 30 1012 55 10000 1 40 14:19 04.01.2020
1402 Clear 30 1011 51 10000 1.5 60 13:55 04.01.2020
1403 Clear 30 1011 48 10000 2.1 70 13:36 04.01.2020
1404 Clear 31 1011 48 10000 2.1 70 13:18 04.01.2020
1405 Clear 30 1011 48 10000 2.1 110 12:41 04.01.2020
1406 Clear 31 1010 43 10000 3.1 110 12:20 04.01.2020
1407 Clear 32 1010 43 10000 3.1 90 11:58 04.01.2020
1408 Clear 32 1010 43 10000 3.1 90 11:39 04.01.2020
1409 Clear 32 1010 43 10000 3.1 90 11:39 04.01.2020
1410 Clouds 32 1010 46 10000 2.6 110 11:19 04.01.2020
1411 Clouds 33 1010 41 10000 4.1 80 10:42 04.01.2020
1412 Clouds 33 1010 43 10000 3.6 80 10:23 04.01.2020
1413 Clouds 34 1010 46 10000 3.6 120 09:59 04.01.2020
1414 Clouds 33 1010 46 10000 3.6 120 09:41 04.01.2020
1415 Clouds 33 1010 46 10000 4.1 80 09:21 04.01.2020
1416 Clouds 33 1011 46 10000 4.6 80 08:41 04.01.2020
1417 Clouds 32 1011 46 10000 4.1 100 08:21 04.01.2020
1418 Clouds 33 1012 46 10000 4.6 110 07:44 04.01.2020
1419 Clouds 32 1013 49 10000 4.6 110 07:20 04.01.2020
1420 Clouds 32 1014 49 10000 4.6 80 06:33 04.01.2020
1421 Clouds 31 1015 52 10000 5.1 70 05:22 04.01.2020
1422 Clouds 31 1015 52 10000 4.6 90 04:42 04.01.2020
1423 Clouds 31 1015 55 10000 4.6 100 04:24 04.01.2020
1424 Clouds 30 1015 61 10000 4.1 90 03:18 04.01.2020
1425 Clouds 27 1014 74 9000 1.84 29 02:21 04.01.2020
1426 Clouds 26 1014 73 9000 1.84 29 01:55 04.01.2020
1427 Clouds 25 1014 78 9000 1.84 29 01:32 04.01.2020
1428 Clouds 25 1013 73 10000 1.86 43 00:46 04.01.2020
1429 Clouds 24 1013 78 10000 1 80 00:26 04.01.2020
1430 Clouds 24 1013 83 10000 1.5 50 23:48 03.01.2020
1431 Clouds 25 1013 78 10000 1.86 43 23:25 03.01.2020
1432 Clouds 24 1013 78 10000 1.55 130 22:54 03.01.2020
1433 Clouds 25 1013 78 10000 1.55 130 22:36 03.01.2020
1434 Clouds 25 1013 78 10000 1.55 130 22:18 03.01.2020
1435 Clouds 25 1013 74 10000 1.55 130 21:54 03.01.2020
1436 Clouds 25 1013 78 10000 1.55 130 21:36 03.01.2020
1437 Clouds 25 1013 78 10000 1.55 130 21:18 03.01.2020
1438 Clouds 25 1013 78 10000 1.55 130 20:41 03.01.2020
1439 Clouds 26 1013 78 10000 1.96 122 20:19 03.01.2020
1440 Clouds 26 1014 74 10000 2.06 165 19:57 03.01.2020
1441 Clouds 26 1014 69 10000 0.5 150 19:39 03.01.2020
1442 Clouds 26 1014 69 10000 0.5 150 19:21 03.01.2020
1443 Clouds 26 1014 74 10000 2.06 165 18:44 03.01.2020
1444 Clouds 26 1014 74 10000 2.06 165 18:44 03.01.2020
1445 Clouds 26 1014 69 10000 1.5 50 18:26 03.01.2020
1446 Clouds 26 1014 69 10000 1.5 80 17:56 03.01.2020
1447 Clouds 27 1014 69 10000 1.5 60 17:38 03.01.2020
1448 Clouds 27 1014 69 10000 1.5 60 17:19 03.01.2020
1449 Clouds 28 1014 65 10000 2.1 70 16:42 03.01.2020
1450 Clouds 29 1014 58 10000 2.6 60 16:24 03.01.2020
1451 Clouds 28 1014 58 10000 1.5 50 15:57 03.01.2020
1452 Clouds 29 1014 58 10000 2.1 50 15:39 03.01.2020
1453 Clouds 29 1014 58 10000 2.1 50 15:18 03.01.2020
1454 Clouds 29 1013 62 10000 1.5 60 14:38 03.01.2020
1455 Clouds 30 1013 62 10000 1.5 60 14:19 03.01.2020
1456 Clouds 30 1013 55 10000 2.1 40 13:44 03.01.2020
1457 Clouds 31 1013 55 10000 2.1 50 13:24 03.01.2020
1458 Clouds 31 1013 52 10000 2.6 80 13:00 03.01.2020
1459 Clouds 31 1012 46 10000 3.1 100 12:39 03.01.2020
1460 Clouds 31 1012 46 10000 3.1 100 12:21 03.01.2020
1461 Clouds 31 1012 46 10000 4.1 100 11:47 03.01.2020
1462 Clouds 32 1012 43 10000 4.6 110 11:23 03.01.2020
1463 Clouds 33 1012 43 10000 4.1 100 10:46 03.01.2020
1464 Clouds 33 1012 43 10000 4.6 100 10:27 03.01.2020
1465 Clouds 33 1013 43 10000 4.6 80 09:58 03.01.2020
1466 Clouds 33 1013 43 10000 4.6 80 09:40 03.01.2020
1467 Clouds 34 1013 43 10000 4.6 110 09:22 03.01.2020
1468 Clouds 35 1013 43 10000 3.6 110 08:57 03.01.2020
1469 Clouds 34 1014 46 10000 5.1 70 08:38 03.01.2020
1470 Clouds 33 1014 46 10000 5.1 70 08:19 03.01.2020
1471 Clouds 34 1014 43 10000 4.1 90 07:40 03.01.2020
1472 Clouds 34 1014 43 10000 4.1 90 07:40 03.01.2020
1473 Clouds 33 1015 46 10000 5.1 100 07:18 03.01.2020
1474 Clouds 33 1016 49 10000 4.6 120 06:50 03.01.2020
1475 Clouds 32 1016 52 10000 3.6 110 06:32 03.01.2020
1476 Clouds 32 1017 49 10000 3.6 90 05:46 03.01.2020
1477 Clouds 29 1017 58 10000 1.5 100 04:23 03.01.2020
1478 Clouds 27 1017 69 8000 1.5 330 02:57 03.01.2020
1479 Clouds 27 1017 65 8000 1 0 02:33 03.01.2020
1480 Clouds 26 1016 65 8000 1.5 330 01:44 03.01.2020
1481 Clouds 25 1015 78 10000 1 0 00:50 03.01.2020
1482 Clouds 24 1015 78 10000 1.52 2 00:31 03.01.2020
1483 Clouds 24 1015 78 10000 1.52 2 23:56 02.01.2020
1484 Clouds 25 1015 73 10000 1 0 23:38 02.01.2020
1485 Clouds 25 1015 73 10000 1 0 23:19 02.01.2020
1486 Clouds 25 1015 73 10000 2.35 45 22:45 02.01.2020
1487 Clouds 25 1015 73 10000 2.1 30 22:22 02.01.2020
1488 Clouds 25 1015 73 10000 1.5 50 22:00 02.01.2020
1489 Clouds 25 1015 73 10000 1.5 50 21:41 02.01.2020
1490 Clouds 25 1015 83 10000 2.35 45 21:23 02.01.2020
1491 Clouds 25 1015 83 10000 2.1 360 20:59 02.01.2020
1492 Clouds 25 1015 83 10000 2.1 360 20:39 02.01.2020
1493 Clouds 25 1015 74 10000 1.5 350 20:21 02.01.2020
1494 Clouds 25 1016 74 10000 2.1 340 19:55 02.01.2020
1495 Clouds 26 1016 74 10000 1.5 340 19:37 02.01.2020
1496 Clouds 26 1016 74 10000 1.5 340 19:19 02.01.2020
1497 Clouds 26 1016 69 10000 1 0 18:57 02.01.2020
1498 Clouds 26 1016 69 10000 1 0 18:38 02.01.2020
1499 Clouds 26 1016 69 10000 1 0 18:20 02.01.2020
1500 Clouds 26 1016 65 10000 2.1 350 17:56 02.01.2020
1501 Clouds 27 1017 65 10000 1.5 340 17:36 02.01.2020
1502 Clouds 27 1017 65 10000 1.5 340 17:18 02.01.2020
1503 Clouds 27 1017 65 10000 1 0 16:56 02.01.2020
1504 Clouds 27 1017 65 10000 1.5 350 16:38 02.01.2020
1505 Clouds 28 1017 65 10000 1.5 350 16:19 02.01.2020
1506 Clouds 29 1016 62 10000 2.1 350 15:44 02.01.2020
1507 Clouds 29 1016 62 10000 2.1 350 15:24 02.01.2020
1508 Clouds 29 1016 62 10000 2.1 350 14:58 02.01.2020
1509 Clouds 28 1016 58 10000 1.5 340 14:37 02.01.2020
1510 Clouds 30 1015 62 10000 1.5 340 14:19 02.01.2020
1511 Clouds 30 1015 62 10000 1.5 340 13:58 02.01.2020
1512 Clouds 31 1015 51 10000 1.5 80 13:38 02.01.2020
1513 Clouds 31 1015 48 10000 1 0 12:59 02.01.2020
1514 Clouds 31 1014 46 10000 2.1 70 12:40 02.01.2020
1515 Clouds 31 1014 46 10000 2.1 70 12:20 02.01.2020
1516 Clouds 32 1014 46 10000 3.1 70 11:41 02.01.2020
1517 Clouds 33 1014 46 10000 3.1 70 11:21 02.01.2020
1518 Clouds 32 1014 46 10000 3.6 50 10:45 02.01.2020
1519 Clouds 32 1014 46 10000 3.6 40 10:27 02.01.2020
1520 Clouds 32 1014 46 10000 3.6 70 09:56 02.01.2020
1521 Clouds 32 1014 46 10000 4.6 80 09:35 02.01.2020
1522 Clouds 32 1015 46 10000 4.1 90 08:53 02.01.2020
1523 Clouds 33 1015 46 10000 6.7 100 08:32 02.01.2020
1524 Clouds 32 1016 48 10000 5.7 90 07:58 02.01.2020
1525 Clouds 33 1016 46 10000 6.7 80 07:31 02.01.2020
1526 Clouds 32 1017 49 10000 4.6 100 06:57 02.01.2020
1527 Clouds 32 1018 48 10000 7.2 110 06:39 02.01.2020
1528 Clouds 31 1019 51 10000 6.2 90 05:38 02.01.2020
1529 Clouds 30 1020 58 10000 3.6 60 04:34 02.01.2020
1530 Clouds 29 1020 69 10000 2.6 80 03:23 02.01.2020
1531 Clouds 27 1019 73 10000 3.1 60 02:20 02.01.2020
1532 Clouds 26 1018 73 10000 3.1 30 01:48 02.01.2020
1533 Clouds 25 1018 73 10000 2.1 350 01:19 02.01.2020
1534 Clouds 25 1017 73 10000 2.1 10 00:36 02.01.2020
1535 Clouds 25 1017 73 10000 2.1 10 00:18 02.01.2020
1536 Clouds 25 1017 78 10000 2.1 20 23:40 01.01.2020
1537 Clouds 25 1017 78 10000 2.6 30 23:20 01.01.2020
1538 Clouds 25 1016 78 10000 3.1 30 22:38 01.01.2020
1539 Clouds 25 1016 78 10000 3.1 30 22:20 01.01.2020
1540 Clouds 25 1016 73 10000 1.5 40 21:57 01.01.2020
1541 Clouds 26 1016 69 10000 2.1 100 21:38 01.01.2020
1542 Clouds 26 1016 69 10000 2.1 100 21:20 01.01.2020
1543 Clouds 26 1016 69 10000 2.6 40 20:56 01.01.2020
1544 Clouds 26 1016 69 10000 2.6 40 20:56 01.01.2020
1545 -273 0 0 0 0 0 20:38 01.01.2020
1546 Clouds 26 1016 69 10000 3.1 30 20:38 01.01.2020
1547 Clouds 26 1016 69 10000 3.1 30 20:19 01.01.2020
1548 Clouds 26 1016 69 10000 3.1 30 20:19 01.01.2020
1549 Clouds 26 1017 65 10000 4.1 20 19:55 01.01.2020
1550 Clouds 26 1017 65 10000 4.1 20 19:55 01.01.2020
1551 Clouds 26 1017 65 10000 4.1 20 19:55 01.01.2020
1552 Clouds 26 1017 65 10000 4.1 20 19:55 01.01.2020
1553 Clouds 26 1016 65 10000 3.1 10 19:37 01.01.2020
1554 Clouds 26 1016 65 10000 3.1 10 19:19 01.01.2020
1555 Clouds 27 1017 61 10000 4.1 20 18:55 01.01.2020
1556 Clouds 27 1017 61 10000 3.6 20 18:36 01.01.2020
1557 Clouds 27 1017 61 10000 3.6 20 18:18 01.01.2020
1558 Clouds 27 1017 58 10000 4.6 20 17:56 01.01.2020
1559 Clouds 28 1017 58 10000 4.6 20 17:38 01.01.2020
1560 Clouds 28 1017 58 10000 4.6 20 17:18 01.01.2020
1561 Clouds 28 1017 58 10000 4.6 20 16:41 01.01.2020
1562 Clouds 28 1017 61 10000 2.6 350 16:22 01.01.2020
1563 Clouds 29 1017 61 10000 2.6 360 15:58 01.01.2020
1564 Clouds 28 1017 61 10000 2.6 360 15:40 01.01.2020
1565 Clouds 28 1017 54 10000 2.1 360 15:21 01.01.2020
1566 Clouds 28 1017 51 10000 2.1 10 14:58 01.01.2020
1567 Clouds 28 1017 51 10000 2.1 10 14:40 01.01.2020
1568 Clouds 28 1016 48 10000 2.1 360 14:21 01.01.2020
1569 Clouds 29 1016 48 10000 2.1 360 14:21 01.01.2020
1570 Clouds 29 1016 51 10000 1 30 13:56 01.01.2020
1571 Clouds 29 1015 48 10000 1.5 20 13:37 01.01.2020
1572 Clouds 29 1015 48 10000 1.5 20 13:37 01.01.2020
1573 Clouds 29 1015 48 10000 1.5 20 13:37 01.01.2020
1574 Clouds 29 1015 48 10000 1.5 20 13:18 01.01.2020
1575 Clouds 29 1015 48 10000 2.1 20 12:55 01.01.2020
1576 Clouds 30 1014 48 10000 1.5 50 12:37 01.01.2020
1577 Clouds 31 1014 48 10000 1.5 50 12:18 01.01.2020
1578 Clouds 31 1014 45 10000 2.1 70 11:43 01.01.2020
1579 Clouds 31 1014 45 10000 2.1 70 11:22 01.01.2020
1580 Clouds 31 1014 43 10000 2.6 80 10:58 01.01.2020
1581 Clouds 32 1014 43 10000 4.1 80 10:40 01.01.2020
1582 Clouds 32 1014 43 10000 4.1 80 10:20 01.01.2020
1583 Clouds 32 1014 43 10000 4.6 90 09:55 01.01.2020
1584 Clouds 33 1014 43 10000 5.7 70 09:36 01.01.2020
1585 Clouds 33 1014 43 10000 5.7 70 09:18 01.01.2020
1586 Clouds 33 1014 43 10000 5.7 90 08:54 01.01.2020
1587 Clouds 33 1015 46 10000 5.1 110 08:36 01.01.2020
1588 Clouds 33 1015 46 10000 5.1 110 08:18 01.01.2020
1589 Clouds 32 1015 46 10000 5.7 80 07:45 01.01.2020
1590 Clouds 31 1016 45 10000 5.7 100 07:26 01.01.2020
1591 Clouds 33 1017 48 10000 5.1 100 06:44 01.01.2020
1592 Clouds 32 1017 48 10000 6.2 90 06:19 01.01.2020
1593 Clouds 29 1018 55 10000 6.7 100 04:38 01.01.2020
1594 Clouds 29 1018 62 10000 5.7 100 03:41 01.01.2020
1595 Clouds 29 1018 65 10000 4.6 90 03:22 01.01.2020
1596 Clouds 29 1018 65 10000 4.6 90 03:22 01.01.2020
1597 Clouds 29 1018 69 10000 4.6 100 02:55 01.01.2020
1598 Clouds 28 1017 69 10000 4.6 100 02:32 01.01.2020
1599 Clouds 26 1017 69 10000 3.6 100 01:45 01.01.2020
1600 Clouds 25 1016 73 10000 2.6 110 01:24 01.01.2020
1601 Clouds 25 1016 73 10000 3.6 110 00:56 01.01.2020
1602 Clouds 25 1015 73 10000 3.1 110 00:37 01.01.2020
1603 Clouds 25 1015 73 10000 3.1 110 00:18 01.01.2020
1604 Clouds 25 1015 78 10000 2.1 110 23:39 31.12.2019
1605 Clouds 25 1015 78 10000 2.1 110 23:19 31.12.2019
1606 Clouds 25 1015 74 10000 2.1 100 22:57 31.12.2019
1607 Clouds 25 1015 74 10000 1.5 80 22:38 31.12.2019
1608 Clouds 25 1015 74 10000 1.5 80 22:18 31.12.2019
1609 Clouds 25 1015 74 10000 2.1 50 21:54 31.12.2019
1610 Clouds 26 1015 74 10000 2.1 50 21:36 31.12.2019
1611 Clouds 26 1015 74 10000 2.1 50 21:18 31.12.2019
1612 Clouds 26 1016 74 10000 2.1 60 20:40 31.12.2019
1613 Clouds 27 1016 74 10000 2.1 60 20:21 31.12.2019
1614 Clouds 27 1016 69 10000 2.6 70 19:58 31.12.2019
1615 Clouds 27 1016 69 10000 2.6 70 19:40 31.12.2019
1616 Clouds 27 1016 69 10000 2.6 70 19:22 31.12.2019
1617 Clouds 27 1016 65 10000 2.6 60 18:57 31.12.2019
1618 Clouds 28 1016 62 10000 2.6 70 18:38 31.12.2019
1619 Clouds 28 1016 62 10000 2.6 70 18:19 31.12.2019
1620 Clouds 28 1016 62 10000 2.1 50 17:56 31.12.2019
1621 Clouds 28 1016 62 10000 2.1 50 17:56 31.12.2019
1622 Clouds 28 1016 62 10000 2.1 360 17:36 31.12.2019
1623 Clouds 28 1016 62 10000 2.1 360 17:18 31.12.2019
1624 Clouds 28 1016 62 10000 2.1 360 17:18 31.12.2019
1625 Clouds 28 1016 62 10000 2.1 350 16:56 31.12.2019
1626 Clouds 28 1016 58 10000 2.1 350 16:37 31.12.2019
1627 Clouds 28 1016 58 10000 2.1 350 16:18 31.12.2019
1628 Clouds 28 1016 62 10000 2.1 30 15:56 31.12.2019
1629 Clouds 29 1015 58 10000 2.1 30 15:38 31.12.2019
1630 Clouds 29 1015 58 10000 2.1 30 15:19 31.12.2019
1631 Clouds 29 1015 58 10000 1.5 40 14:55 31.12.2019
1632 Clouds 29 1015 58 10000 1.5 40 14:37 31.12.2019
1633 Clouds 29 1015 58 10000 1.5 40 14:18 31.12.2019
1634 Clouds 29 1014 58 10000 1.5 50 13:56 31.12.2019
1635 Clouds 30 1014 52 10000 1.5 50 13:38 31.12.2019
1636 Clouds 30 1014 52 10000 1.5 50 13:19 31.12.2019
1637 Clouds 30 1013 52 10000 1.5 60 12:55 31.12.2019
1638 Clouds 30 1013 52 10000 2.6 70 12:37 31.12.2019
1639 Clouds 30 1013 52 10000 2.6 70 12:18 31.12.2019
1640 Clouds 31 1013 49 10000 3.6 70 11:55 31.12.2019
1641 Clouds 31 1013 49 10000 4.1 60 11:36 31.12.2019
1642 Clouds 32 1013 49 10000 4.1 60 11:18 31.12.2019
1643 Clouds 33 1013 46 10000 4.1 80 10:55 31.12.2019
1644 Clouds 33 1013 46 10000 4.1 80 10:37 31.12.2019
1645 Clouds 33 1013 46 10000 4.1 80 10:19 31.12.2019
1646 Clouds 33 1013 49 10000 4.6 70 09:56 31.12.2019
1647 Clouds 34 1013 46 10000 3.6 80 09:38 31.12.2019
1648 Clouds 33 1013 46 10000 3.6 80 09:18 31.12.2019
1649 Clouds 33 1013 46 10000 3.6 80 09:18 31.12.2019
1650 Clouds 34 1013 46 10000 5.1 50 08:42 31.12.2019
1651 Clouds 33 1014 46 10000 5.1 70 08:22 31.12.2019
1652 Clouds 33 1014 46 10000 4.6 80 07:56 31.12.2019
1653 Clouds 32 1015 46 10000 5.7 60 07:37 31.12.2019
1654 Clouds 32 1015 46 10000 5.7 60 07:18 31.12.2019
1655 Clouds 32 1016 49 10000 5.7 90 06:29 31.12.2019
1656 Clouds 31 1017 51 9000 3.6 120 04:55 31.12.2019
1657 Clouds 29 1017 54 8000 3.1 100 04:25 31.12.2019
1658 Clouds 28 1017 57 7000 1.5 30 02:58 31.12.2019
1659 Mist 27 1016 69 5000 2.1 350 02:21 31.12.2019
1660 Mist 27 1016 69 5000 2.1 350 02:21 31.12.2019
1661 Mist 26 1016 69 4000 1 360 01:50 31.12.2019
1662 Mist 25 1015 78 3000 1.5 340 01:31 31.12.2019
1663 Mist 24 1015 73 3000 2.1 330 00:49 31.12.2019
1664 Clouds 24 1014 73 7000 1.5 350 00:26 31.12.2019
1665 Clouds 24 1014 83 7000 3.56 48 23:59 30.12.2019
1666 Clouds 24 1014 83 7000 3.56 48 23:41 30.12.2019
1667 Clouds 24 1014 88 8000 3.56 48 23:23 30.12.2019
1668 Clouds 24 1014 78 8000 2.53 53 22:59 30.12.2019
1669 Clouds 24 1014 78 8000 2.53 53 22:41 30.12.2019
1670 Clouds 24 1014 78 8000 2.53 53 22:22 30.12.2019
1671 Clouds 24 1013 78 8000 2.53 53 21:57 30.12.2019
1672 Clouds 24 1013 78 8000 2.53 53 21:57 30.12.2019
1673 Clouds 24 1013 78 8000 2.53 53 21:39 30.12.2019
1674 Clouds 25 1014 78 8000 2.53 53 21:20 30.12.2019
1675 Clouds 25 1014 73 8000 1.5 150 20:59 30.12.2019
1676 Clouds 25 1014 73 8000 1.5 150 20:41 30.12.2019
1677 Clouds 25 1014 73 8000 1.31 105 20:20 30.12.2019
1678 Clouds 25 1014 73 9000 1.31 105 19:59 30.12.2019
1679 Clouds 25 1014 73 10000 2.1 60 19:39 30.12.2019
1680 Clouds 26 1014 73 10000 2.1 60 19:19 30.12.2019
1681 Clouds 26 1014 69 10000 2.1 60 18:59 30.12.2019
1682 Clouds 26 1014 69 10000 2.1 60 18:40 30.12.2019
1683 Clouds 26 1014 61 10000 2.1 60 18:20 30.12.2019
1684 Clouds 26 1014 61 10000 2.1 60 18:20 30.12.2019
1685 Clouds 27 1014 58 10000 2.6 360 17:57 30.12.2019
1686 Clouds 27 1014 58 10000 2.6 360 17:39 30.12.2019
1687 Clear 27 1014 58 10000 2.6 360 17:19 30.12.2019
1688 Clear 27 1014 58 10000 2.6 360 16:58 30.12.2019
1689 Clear 27 1014 54 10000 2.1 340 16:37 30.12.2019
1690 Clear 28 1014 54 10000 2.1 340 16:19 30.12.2019
1691 Clear 28 1014 54 10000 2.6 320 15:56 30.12.2019
1692 Clear 28 1014 48 10000 2.1 330 15:37 30.12.2019
1693 Clear 28 1014 48 10000 2.1 330 15:18 30.12.2019
1694 Clear 29 1013 54 10000 0.87 71 14:43 30.12.2019
1695 Clear 29 1013 51 10000 2.6 320 14:20 30.12.2019
1696 Clear 29 1013 48 10000 2.6 330 13:58 30.12.2019
1697 Clear 29 1012 51 10000 3.1 330 13:40 30.12.2019
1698 Clear 30 1012 51 10000 3.1 330 13:21 30.12.2019
1699 Clear 30 1012 48 10000 2.6 300 12:56 30.12.2019
1700 Clear 30 1012 48 10000 2.6 290 12:37 30.12.2019
1701 Clear 31 1012 48 10000 2.6 290 12:18 30.12.2019
1702 Clear 31 1012 48 10000 2.6 320 11:42 30.12.2019
1703 Clear 32 1011 46 10000 2.6 320 11:20 30.12.2019
1704 Clear 33 1011 46 10000 3.1 320 10:58 30.12.2019
1705 Clear 32 1011 46 10000 3.1 320 10:40 30.12.2019
1706 Clear 32 1011 46 10000 3.1 320 10:40 30.12.2019
1707 Clear 33 1011 46 10000 3.1 320 10:18 30.12.2019
1708 Clear 33 1011 43 10000 3.6 300 09:42 30.12.2019
1709 Clear 34 1012 41 10000 3.1 320 09:20 30.12.2019
1710 Clear 34 1012 41 10000 1.5 0 08:56 30.12.2019
1711 Clear 34 1012 41 10000 2.6 90 08:37 30.12.2019
1712 Clear 33 1012 41 10000 2.6 90 08:18 30.12.2019
1713 Clear 33 1014 38 10000 2.6 50 07:41 30.12.2019
1714 Clear 33 1014 43 10000 2.1 40 06:58 30.12.2019
1715 Clear 32 1015 43 10000 3.1 70 06:23 30.12.2019
1716 Clear 31 1016 48 9000 3.1 120 04:23 30.12.2019
1717 Clear 30 1015 51 8000 3.1 110 03:39 30.12.2019
1718 Clear 28 1015 57 8000 1.5 80 02:41 30.12.2019
1719 Clear 26 1015 61 8000 2.78 78 02:20 30.12.2019
1720 Clear 25 1014 69 8000 2.78 78 01:25 30.12.2019
1721 Clear 25 1013 65 8000 2.1 120 00:46 30.12.2019
1722 Clear 24 1013 65 8000 3.1 110 00:23 30.12.2019
1723 Clear 25 1012 65 8000 2.6 110 23:40 29.12.2019
1724 Clear 25 1012 65 8000 2.6 110 23:22 29.12.2019
1725 Clear 25 1012 65 8000 2.1 110 22:56 29.12.2019
1726 Clear 25 1012 65 8000 2.1 110 22:38 29.12.2019
1727 Clear 25 1012 65 8000 2.1 110 22:19 29.12.2019
1728 Clear 25 1012 65 8000 1.5 120 21:45 29.12.2019
1729 Clear 25 1012 73 8000 1.5 130 21:21 29.12.2019
1730 Clear 25 1012 73 8000 1.5 130 21:21 29.12.2019
1731 Clear 26 1012 69 8000 1.5 110 20:59 29.12.2019
1732 Clear 26 1012 69 8000 1.5 110 20:39 29.12.2019
1733 Clear 26 1013 69 8000 1.5 110 20:21 29.12.2019
1734 Clear 26 1013 69 9000 1.5 110 19:59 29.12.2019
1735 Clear 26 1013 69 9000 1.5 110 19:40 29.12.2019
1736 Clear 26 1013 69 9000 2.1 130 19:21 29.12.2019
1737 Clear 26 1013 69 9000 2.1 130 19:21 29.12.2019
1738 Clear 27 1013 65 9000 3.1 140 18:58 29.12.2019
1739 Clear 27 1013 58 9000 1.5 10 18:39 29.12.2019
1740 Clear 27 1013 58 9000 1.5 10 18:20 29.12.2019
1741 Clear 27 1013 54 9000 1.5 340 17:58 29.12.2019
1742 Clear 28 1013 61 9000 1 340 17:39 29.12.2019
1743 Clear 27 1013 61 9000 1 340 17:20 29.12.2019
1744 Clear 28 1013 54 9000 2.1 330 16:57 29.12.2019
1745 Clear 28 1013 54 9000 2.6 320 16:38 29.12.2019
1746 Clear 28 1013 54 9000 2.6 320 16:20 29.12.2019
1747 Clear 28 1013 58 9000 1.8 205 15:58 29.12.2019
1748 Clear 28 1013 58 9000 1.8 205 15:39 29.12.2019
1749 Clear 28 1013 54 9000 1.8 205 15:20 29.12.2019
1750 Clear 28 1012 54 9000 1.5 10 14:58 29.12.2019
1751 Clear 28 1012 51 9000 1.5 360 14:39 29.12.2019
1752 Clear 29 1012 51 9000 1.5 360 14:18 29.12.2019
1753 Clear 29 1012 51 9000 1.5 360 14:18 29.12.2019
1754 Clear 29 1012 51 9000 2.1 340 13:58 29.12.2019
1755 Clear 29 1011 55 9000 2.1 330 13:39 29.12.2019
1756 Clear 30 1011 55 9000 2.1 330 13:21 29.12.2019
1757 Clear 30 1011 51 9000 2.6 330 12:46 29.12.2019
1758 Clear 30 1011 48 9000 2.6 340 12:27 29.12.2019
1759 Clear 31 1010 48 9000 3.1 340 11:59 29.12.2019
1760 Clouds 32 1010 46 10000 3.1 320 11:40 29.12.2019
1761 Clouds 32 1010 46 10000 3.1 320 11:20 29.12.2019
1762 Clouds 32 1010 46 10000 3.1 320 11:20 29.12.2019
1763 Clouds 32 1010 40 10000 2.6 90 10:55 29.12.2019
1764 Clouds 33 1010 40 10000 2.6 30 10:37 29.12.2019
1765 Clouds 33 1010 40 10000 2.6 30 10:18 29.12.2019
1766 Clouds 33 1010 40 10000 2.6 30 10:18 29.12.2019
1767 Clouds 32 1010 43 10000 3.1 30 09:41 29.12.2019
1768 Clouds 32 1010 43 10000 1.5 0 09:22 29.12.2019
1769 Clouds 32 1010 41 10000 2.1 60 08:48 29.12.2019
1770 Clouds 32 1011 43 10000 1.5 0 08:28 29.12.2019
1771 Clouds 33 1011 43 10000 2.6 90 07:58 29.12.2019
1772 Clouds 33 1012 45 10000 2.6 120 07:31 29.12.2019
1773 Clouds 33 1012 45 10000 2.6 120 07:31 29.12.2019
1774 Clouds 32 1013 45 10000 3.6 80 06:57 29.12.2019
1775 Clouds 31 1013 48 10000 3.6 50 06:27 29.12.2019
1776 Clouds 31 1014 48 10000 3.6 60 05:54 29.12.2019
1777 Clear 30 1015 54 9000 3.6 100 04:37 29.12.2019
1778 Clear 29 1015 58 9000 2.6 110 03:59 29.12.2019
1779 Clear 29 1014 61 8000 4.1 110 03:21 29.12.2019
1780 Clouds 27 1014 65 8000 2.1 120 02:21 29.12.2019
1781 Clouds 26 1013 73 7000 2.1 100 01:40 29.12.2019
1782 Rain 25 1013 78 7000 1.5 90 01:21 29.12.2019
1783 Rain 24 1012 78 8000 2.1 120 00:42 29.12.2019
1784 Clouds 24 1012 78 9000 2.1 110 00:23 29.12.2019
1785 Clouds 24 1012 78 9000 2.1 110 00:23 29.12.2019
1786 Clouds 24 1012 78 9000 1.5 110 23:44 28.12.2019
1787 Clouds 24 1012 73 9000 2.1 110 23:18 28.12.2019
1788 Clear 25 1011 73 7000 2.6 50 22:39 28.12.2019
1789 Clouds 25 1012 73 10000 1.5 110 22:21 28.12.2019
1790 Clouds 25 1012 73 10000 1.5 130 21:58 28.12.2019
1791 Clouds 25 1012 73 10000 1.5 130 21:39 28.12.2019
1792 Clouds 25 1012 73 10000 0.48 11 21:21 28.12.2019
1793 Clouds 26 1012 73 10000 0.48 11 20:57 28.12.2019
1794 Clouds 26 1012 74 10000 1.5 120 20:38 28.12.2019
1795 Clouds 26 1012 74 10000 1.5 120 20:20 28.12.2019
1796 Clouds 26 1013 69 10000 0.5 0 19:58 28.12.2019
1797 Clouds 26 1013 74 10000 2.1 110 19:39 28.12.2019
1798 Clouds 26 1013 74 10000 2.1 110 19:20 28.12.2019
1799 Clouds 27 1013 65 10000 2.6 100 18:57 28.12.2019
1800 Clouds 28 1013 61 10000 2.6 90 18:39 28.12.2019
1801 Clouds 28 1013 61 10000 2.6 90 18:18 28.12.2019
1802 Clouds 28 1013 61 10000 2.1 120 17:54 28.12.2019
1803 Clouds 28 1013 61 10000 2.1 70 17:36 28.12.2019
1804 Clouds 28 1013 61 10000 2.1 70 17:18 28.12.2019
1805 Clouds 27 1013 58 10000 1 0 16:46 28.12.2019
1806 Clouds 28 1014 58 10000 1.5 20 16:25 28.12.2019
1807 Clouds 29 1013 61 10000 1.5 10 15:44 28.12.2019
1808 Clouds 28 1013 54 10000 1.5 40 15:24 28.12.2019
1809 Clouds 29 1013 58 9000 1.5 20 14:58 28.12.2019
1810 Rain 29 1013 65 9000 1 0 14:38 28.12.2019
1811 Rain 29 1013 65 9000 1 0 14:20 28.12.2019
1812 Rain 29 1012 58 9000 1.5 60 13:43 28.12.2019
1813 Clouds 29 1012 51 9000 1.5 100 13:23 28.12.2019
1814 Clouds 29 1011 51 9000 1 90 12:59 28.12.2019
1815 Clouds 29 1011 51 9000 1 90 12:41 28.12.2019
1816 Clouds 29 1011 51 10000 2.1 110 12:22 28.12.2019
1817 Clouds 30 1011 51 10000 2.6 120 11:55 28.12.2019
1818 Clouds 30 1011 45 10000 3.6 110 11:37 28.12.2019
1819 Clouds 31 1011 45 10000 3.6 110 11:18 28.12.2019
1820 Clouds 31 1011 45 10000 3.6 110 11:18 28.12.2019
1821 Clouds 31 1011 48 10000 3.1 110 10:43 28.12.2019
1822 Clouds 31 1011 46 10000 3.6 120 10:20 28.12.2019
1823 Clouds 31 1011 48 10000 4.1 110 09:56 28.12.2019
1824 Clouds 31 1011 51 10000 4.1 120 09:38 28.12.2019
1825 Clouds 31 1011 51 10000 4.1 120 09:19 28.12.2019
1826 Clouds 31 1011 48 10000 4.1 80 08:43 28.12.2019
1827 Clouds 31 1012 51 10000 4.1 80 08:25 28.12.2019
1828 Clouds 31 1012 51 10000 4.1 100 07:49 28.12.2019
1829 Clouds 31 1012 51 10000 6.2 80 07:27 28.12.2019
1830 Clouds 30 1013 48 10000 5.7 90 06:21 28.12.2019
1831 Clouds 28 1014 61 9000 3.1 110 03:59 28.12.2019
1832 Clouds 29 1014 61 9000 3.1 110 03:38 28.12.2019
1833 Clouds 28 1014 65 8000 3.6 110 02:48 28.12.2019
1834 Clouds 26 1013 69 8000 2.1 110 01:59 28.12.2019
1835 Clouds 26 1013 73 8000 2.1 90 01:29 28.12.2019
1836 Clouds 27 1012 69 8000 3.6 120 00:54 28.12.2019
1837 Clouds 26 1011 69 8000 3.6 120 00:36 28.12.2019
1838 Clouds 26 1011 69 8000 3.6 120 00:18 28.12.2019
1839 Clouds 27 1012 69 8000 4.1 100 23:42 27.12.2019
1840 Clouds 27 1012 74 8000 4.6 100 23:19 27.12.2019
1841 Clouds 27 1011 74 8000 4.1 90 22:57 27.12.2019
1842 Clouds 27 1011 74 7000 3.1 80 22:38 27.12.2019
1843 Clouds 27 1011 74 7000 3.1 80 22:38 27.12.2019
1844 Clouds 27 1011 74 7000 3.1 80 22:20 27.12.2019
1845 Mist 27 1011 94 5000 2.1 70 21:54 27.12.2019
1846 Mist 27 1011 94 5000 1.5 110 21:36 27.12.2019
1847 Mist 27 1011 94 5000 1.5 110 21:18 27.12.2019
1848 Clouds 28 1011 88 6000 1 100 20:40 27.12.2019
1849 Clouds 28 1012 88 7000 1.86 215 20:21 27.12.2019
1850 Clouds 28 1012 88 7000 1.5 40 19:42 27.12.2019
1851 Clouds 28 1012 88 7000 2.1 40 19:20 27.12.2019
1852 Clouds 27 1012 88 8000 2.1 50 18:59 27.12.2019
1853 Clouds 28 1012 78 8000 1.5 60 18:38 27.12.2019
1854 Clouds 28 1012 78 8000 1.5 60 18:20 27.12.2019
1855 Clouds 27 1012 78 8000 1 80 17:57 27.12.2019
1856 Clouds 28 1012 78 8000 1.86 215 17:38 27.12.2019
1857 Clouds 27 1012 78 8000 3.21 208 17:19 27.12.2019
1858 Clouds 27 1012 69 8000 2.1 150 16:56 27.12.2019
1859 Clouds 27 1012 65 8000 1.5 160 16:37 27.12.2019
1860 Clouds 28 1012 65 8000 1.5 160 16:19 27.12.2019
1861 Clouds 28 1012 65 8000 2.1 140 15:43 27.12.2019
1862 Clouds 28 1011 58 8000 2.1 120 15:20 27.12.2019
1863 Clouds 28 1011 58 8000 2.6 110 14:57 27.12.2019
1864 Clouds 30 1011 55 9000 2.6 100 14:38 27.12.2019
1865 Clouds 30 1011 55 9000 2.6 100 14:20 27.12.2019
1866 Clouds 30 1011 51 9000 2.1 100 13:48 27.12.2019
1867 Clouds 30 1010 51 9000 2.1 130 13:25 27.12.2019
1868 Clouds 30 1010 52 9000 2.1 110 12:58 27.12.2019
1869 Clouds 31 1009 48 9000 2.6 100 12:39 27.12.2019
1870 Clouds 31 1009 48 9000 2.6 100 12:21 27.12.2019
1871 Clouds 31 1009 46 9000 4.1 110 11:43 27.12.2019
1872 Clouds 31 1009 46 9000 4.1 110 11:43 27.12.2019
1873 Clouds 32 1009 41 9000 4.1 100 11:23 27.12.2019
1874 Clouds 33 1009 41 9000 4.6 100 10:55 27.12.2019
1875 Clouds 34 1009 43 9000 5.1 110 10:36 27.12.2019
1876 Clouds 34 1009 43 9000 5.1 110 10:18 27.12.2019
1877 Clouds 33 1009 43 9000 4.1 100 09:42 27.12.2019
1878 Clouds 34 1009 49 9000 4.6 90 09:21 27.12.2019
1879 Clouds 33 1010 46 9000 4.6 90 08:55 27.12.2019
1880 Clouds 34 1010 49 9000 4.6 120 08:35 27.12.2019
1881 Clouds 33 1010 49 9000 4.1 100 07:50 27.12.2019
1882 Clouds 33 1011 55 9000 5.1 110 07:31 27.12.2019
1883 Clouds 32 1012 62 9000 3.6 60 06:36 27.12.2019
1884 Clouds 30 1014 74 7000 3.6 60 04:59 27.12.2019
1885 Mist 28 1014 83 4000 1.5 140 03:26 27.12.2019
1886 Mist 27 1013 88 3000 2.1 70 01:59 27.12.2019
1887 Mist 27 1012 94 3000 0.5 70 01:24 27.12.2019
1888 Mist 26 1012 94 5000 1.24 243 00:58 27.12.2019
1889 Mist 26 1012 94 5000 1.24 243 00:40 27.12.2019
1890 Clouds 25 1012 88 8000 1.5 90 00:21 27.12.2019
1891 Clouds 26 1011 88 8000 1 120 23:41 26.12.2019
1892 Clouds 26 1011 88 8000 1 120 23:22 26.12.2019
1893 Clouds 27 1011 88 8000 1 150 22:45 26.12.2019
1894 Clouds 26 1011 83 8000 1.5 140 22:23 26.12.2019
1895 Clouds 27 1011 83 8000 1.5 140 21:59 26.12.2019
1896 Clouds 27 1011 83 8000 2.6 236 21:38 26.12.2019
1897 Clouds 27 1011 83 8000 2.6 236 21:20 26.12.2019
1898 Clouds 27 1011 83 8000 1.5 160 20:46 26.12.2019
1899 Clouds 27 1011 83 8000 1 180 20:23 26.12.2019
1900 Clouds 27 1011 83 8000 1 180 20:23 26.12.2019
1901 Clouds 26 1011 78 8000 4.16 213 19:59 26.12.2019
1902 Clouds 27 1011 78 8000 1.5 180 19:39 26.12.2019
1903 Clouds 27 1011 78 8000 1.5 180 19:21 26.12.2019
1904 Clouds 27 1011 78 8000 1.5 150 18:57 26.12.2019
1905 Clouds 26 1012 78 8000 4.16 213 18:38 26.12.2019
1906 Clouds 26 1012 78 8000 4.16 213 18:19 26.12.2019
1907 Clouds 26 1012 74 9000 4.16 213 17:43 26.12.2019
1908 Clouds 27 1012 62 9000 1.5 310 17:22 26.12.2019
1909 Clouds 28 1012 62 10000 1.5 300 16:58 26.12.2019
1910 Clouds 28 1012 62 10000 1.5 300 16:40 26.12.2019
1911 Clouds 27 1012 62 10000 2.1 300 16:21 26.12.2019
1912 Clouds 28 1012 74 10000 5.58 195 15:41 26.12.2019
1913 -273 0 0 0 0 0 15:22 26.12.2019
1914 Clouds 28 1012 70 10000 5.58 195 14:59 26.12.2019
1915 Clouds 28 1012 70 10000 5.58 195 14:39 26.12.2019
1916 Clouds 30 1011 66 10000 1.5 110 14:20 26.12.2019
1917 Clouds 30 1011 62 10000 1.5 20 13:43 26.12.2019
1918 Clouds 30 1011 55 10000 1.5 360 13:21 26.12.2019
1919 Clouds 30 1010 66 10000 1 0 12:58 26.12.2019
1920 Clouds 30 1010 62 10000 2.1 50 12:37 26.12.2019
1921 Clouds 31 1010 62 10000 2.1 50 12:19 26.12.2019
1922 Clouds 31 1010 55 10000 2.6 50 11:56 26.12.2019
1923 Clouds 31 1010 52 10000 1 0 11:37 26.12.2019
1924 Clouds 32 1010 52 10000 1 0 11:19 26.12.2019
1925 Clouds 33 1010 55 10000 1.5 300 10:41 26.12.2019
1926 Clouds 33 1010 55 10000 1.5 300 10:18 26.12.2019
1927 Clouds 33 1010 55 10000 2.1 340 09:45 26.12.2019
1928 Clouds 32 1010 55 10000 3.1 320 09:26 26.12.2019
1929 Clouds 32 1010 58 10000 3.1 310 08:42 26.12.2019
1930 Clouds 32 1010 55 10000 2.6 0 08:24 26.12.2019
1931 Clouds 32 1011 55 9000 3.1 130 07:52 26.12.2019
1932 Clouds 32 1011 59 9000 2.6 140 07:26 26.12.2019
1933 Clouds 32 1012 62 9000 2.1 120 06:52 26.12.2019
1934 Clouds 31 1012 62 9000 2.6 120 06:31 26.12.2019
1935 Clouds 32 1013 62 9000 2.1 160 05:45 26.12.2019
1936 Clouds 31 1013 66 9000 1.5 0 04:48 26.12.2019
1937 Clouds 31 1013 74 9000 2.1 180 04:29 26.12.2019
1938 Mist 29 1013 88 4000 1.5 110 02:54 26.12.2019
1939 Mist 29 1012 88 3800 1 0 02:32 26.12.2019
1940 Mist 27 1012 94 4000 1 80 01:46 26.12.2019
1941 Clouds 26 1012 94 8000 1.5 110 01:26 26.12.2019
1942 Clouds 26 1011 88 8000 1.5 160 00:48 26.12.2019
1943 Clouds 26 1011 88 8000 2.65 192 00:24 26.12.2019
1944 Clouds 26 1011 88 8000 2.65 192 00:24 26.12.2019
1945 Clouds 26 1011 94 8000 2.65 192 23:58 25.12.2019
1946 Clouds 26 1011 94 8000 2.65 192 23:38 25.12.2019
1947 Clouds 26 1011 94 8000 3.37 205 23:20 25.12.2019
1948 Clouds 26 1011 94 8000 3.37 205 22:57 25.12.2019
1949 Clouds 26 1010 94 8000 3.37 205 22:38 25.12.2019
1950 Clouds 26 1010 94 8000 3.37 205 22:19 25.12.2019
1951 Clouds 26 1010 94 9000 3.37 205 21:57 25.12.2019
1952 Clouds 26 1010 88 9000 3.37 205 21:39 25.12.2019
1953 Clouds 26 1010 88 9000 3.37 205 21:19 25.12.2019
1954 Clouds 26 1010 94 9000 1.5 210 20:41 25.12.2019
1955 Clouds 26 1010 94 9000 1.5 210 20:41 25.12.2019
1956 Clouds 27 1010 88 9000 2.1 190 20:21 25.12.2019
1957 Clouds 27 1011 88 9000 2.1 190 19:59 25.12.2019
1958 Clouds 27 1011 88 9000 2.1 190 19:41 25.12.2019
1959 Clouds 27 1011 88 9000 2.6 190 19:21 25.12.2019
1960 Clouds 27 1011 83 9000 3.1 190 18:40 25.12.2019
1961 Clouds 27 1011 88 9000 2.6 180 18:21 25.12.2019
1962 Clouds 28 1011 83 9000 2.6 170 17:58 25.12.2019
1963 Clouds 27 1011 83 9000 2.6 210 17:39 25.12.2019
1964 Clouds 27 1011 83 9000 2.6 210 17:18 25.12.2019
1965 Clouds 27 1011 78 9000 2.6 200 16:54 25.12.2019
1966 Clouds 28 1011 74 9000 2.6 170 16:36 25.12.2019
1967 Clouds 28 1011 74 9000 2.6 170 16:18 25.12.2019
1968 Clouds 28 1011 74 9000 2.6 140 15:41 25.12.2019
1969 Clouds 28 1011 70 9000 1.5 130 15:23 25.12.2019
1970 Clouds 28 1011 62 9000 5.09 197 14:59 25.12.2019
1971 Clouds 28 1011 62 9000 5.09 197 14:41 25.12.2019
1972 Clouds 28 1010 66 9000 1.5 170 14:23 25.12.2019
1973 Clouds 29 1010 66 9000 2.1 210 13:58 25.12.2019
1974 Clouds 29 1010 58 9000 1.5 200 13:39 25.12.2019
1975 Clouds 29 1010 58 9000 1.5 200 13:19 25.12.2019
1976 Clouds 30 1010 55 9000 1.5 140 12:43 25.12.2019
1977 Clouds 31 1009 52 9000 2.1 120 12:22 25.12.2019
1978 Clouds 31 1009 52 9000 2.1 120 11:58 25.12.2019
1979 Clouds 32 1009 55 9000 1.5 120 11:39 25.12.2019
1980 Clouds 32 1009 55 9000 1.5 120 11:20 25.12.2019
1981 Clouds 32 1009 49 9000 3.5 196 10:39 25.12.2019
1982 Clouds 32 1009 49 9000 3.5 196 10:39 25.12.2019
1983 Clouds 32 1009 49 9000 3.5 196 10:21 25.12.2019
1984 Clouds 33 1009 55 9000 3.5 196 09:51 25.12.2019
1985 Clouds 33 1009 55 9000 1.5 310 09:33 25.12.2019
1986 Clouds 33 1009 55 9000 1.5 200 08:52 25.12.2019
1987 Clouds 33 1010 55 9000 2.1 330 08:32 25.12.2019
1988 Clouds 33 1010 52 9000 1 300 07:59 25.12.2019
1989 Clouds 33 1011 55 9000 2.6 350 07:40 25.12.2019
1990 Clouds 33 1011 55 9000 2.6 350 07:21 25.12.2019
1991 Clouds 32 1012 59 9000 2.1 340 06:24 25.12.2019
1992 Clouds 32 1013 62 9000 4.03 195 05:44 25.12.2019
1993 Clouds 31 1014 70 8000 2.1 230 04:40 25.12.2019
1994 Clouds 31 1014 70 8000 1.5 200 04:20 25.12.2019
1995 Clouds 30 1014 79 8000 1.5 150 03:43 25.12.2019
1996 Mist 29 1013 100 2000 2.4 251 02:57 25.12.2019
1997 Mist 27 1013 100 2000 1.5 120 02:28 25.12.2019
1998 Mist 26 1012 100 5000 2.1 110 01:36 25.12.2019
1999 Mist 26 1012 100 5000 2.1 110 01:18 25.12.2019
2000 Clouds 26 1012 100 6000 1.5 120 00:40 25.12.2019
2001 Clouds 26 1011 100 8000 1.5 90 00:22 25.12.2019
2002 Clouds 26 1011 94 10000 2.86 231 23:39 24.12.2019
2003 Clouds 26 1011 94 10000 3.22 200 23:20 24.12.2019
2004 Clouds 26 1011 94 10000 1 110 22:42 24.12.2019
2005 Clouds 26 1010 94 10000 1.5 150 22:23 24.12.2019
2006 Clouds 26 1011 88 10000 1.5 130 21:57 24.12.2019
2007 Clouds 25 1011 88 10000 1.5 120 21:37 24.12.2019
2008 Clouds 26 1011 88 10000 1.5 120 21:19 24.12.2019
2009 Clouds 26 1011 83 10000 2.1 130 20:41 24.12.2019
2010 Clouds 26 1011 88 10000 2.1 150 20:20 24.12.2019
2011 Clouds 26 1012 83 10000 1.5 130 19:47 24.12.2019
2012 Clouds 26 1012 88 10000 2.1 200 19:22 24.12.2019
2013 Clouds 26 1012 88 10000 2.1 200 19:22 24.12.2019
2014 Clouds 26 1012 83 10000 2.6 210 18:59 24.12.2019
2015 Clouds 26 1012 83 10000 2.6 210 18:40 24.12.2019
2016 Clouds 26 1012 83 10000 2.1 210 18:18 24.12.2019
2017 Clouds 26 1012 78 10000 1.5 210 17:43 24.12.2019
2018 Clouds 27 1012 78 10000 1.5 190 17:22 24.12.2019
2019 Clouds 27 1012 78 10000 3.1 200 16:58 24.12.2019
2020 Clouds 27 1012 83 10000 3.1 210 16:39 24.12.2019
2021 Clouds 27 1012 83 10000 3.1 210 16:20 24.12.2019
2022 Clouds 27 1012 83 10000 3.6 210 15:57 24.12.2019
2023 Clouds 27 1012 83 10000 3.1 210 15:37 24.12.2019
2024 Clouds 28 1012 83 10000 3.1 210 15:19 24.12.2019
2025 Clouds 28 1012 78 10000 3.6 210 14:57 24.12.2019
2026 Clouds 28 1012 78 10000 3.6 210 14:39 24.12.2019
2027 Clouds 29 1012 70 10000 3.6 210 14:21 24.12.2019
2028 Clouds 29 1011 62 10000 3.6 230 13:56 24.12.2019
2029 Clouds 30 1010 51 10000 4.75 190 13:37 24.12.2019
2030 Clouds 30 1010 51 10000 4.75 190 13:37 24.12.2019
2031 Clouds 29 1010 51 10000 4.74 193 13:19 24.12.2019
2032 Clouds 29 1010 46 10000 1.5 120 12:55 24.12.2019
2033 Clouds 30 1010 41 10000 1.5 120 12:36 24.12.2019
2034 Clouds 30 1010 41 10000 1.5 120 12:18 24.12.2019
2035 Clouds 31 1010 43 10000 2.1 150 11:55 24.12.2019
2036 Clouds 31 1010 43 10000 2.1 150 11:55 24.12.2019
2037 Clouds 32 1010 41 10000 2.6 130 11:37 24.12.2019
2038 Clouds 32 1010 41 10000 2.6 130 11:37 24.12.2019
2039 Clouds 32 1010 41 10000 2.6 130 11:37 24.12.2019
2040 Clouds 32 1010 41 10000 2.6 130 11:18 24.12.2019
2041 Clouds 33 1009 41 10000 3.1 110 10:56 24.12.2019
2042 Clouds 33 1009 38 10000 3.6 130 10:37 24.12.2019
2043 Clouds 34 1009 38 10000 3.6 130 10:19 24.12.2019
2044 Clouds 34 1009 41 10000 3.6 80 09:55 24.12.2019
2045 Clouds 34 1009 44 10000 1.5 140 09:36 24.12.2019
2046 Clouds 34 1009 44 10000 1.5 140 09:18 24.12.2019
2047 Clouds 34 1010 44 10000 3.6 130 08:44 24.12.2019
2048 Clouds 33 1010 46 10000 3.6 130 08:20 24.12.2019
2049 Clouds 33 1011 49 9000 3.6 130 07:45 24.12.2019
2050 Clouds 34 1011 52 9000 3.1 90 07:25 24.12.2019
2051 Clouds 34 1011 52 9000 3.1 90 07:25 24.12.2019
2052 Clouds 33 1012 55 9000 3.1 120 06:58 24.12.2019
2053 Clouds 33 1012 52 9000 3.1 90 06:38 24.12.2019
2054 Clouds 33 1012 52 9000 3.1 90 06:18 24.12.2019
2055 Clouds 32 1013 59 9000 2.1 140 05:20 24.12.2019
2056 Clouds 33 1014 66 9000 2.6 170 04:44 24.12.2019
2057 Clouds 31 1014 79 7000 0.5 0 03:50 24.12.2019
2058 Mist 30 1014 83 5000 1 0 03:18 24.12.2019
2059 Mist 27 1014 88 4000 1.5 100 02:21 24.12.2019
2060 Mist 26 1013 94 3000 1.5 80 01:50 24.12.2019
2061 Mist 25 1013 94 3000 2.1 60 01:20 24.12.2019
2062 Mist 25 1013 94 4000 1.01 203 00:43 24.12.2019
2063 Mist 25 1012 94 4000 1 50 00:23 24.12.2019
2064 Mist 25 1012 100 4000 1.01 203 23:56 23.12.2019
2065 Mist 25 1012 94 5000 1.01 203 23:37 23.12.2019
2066 Mist 25 1012 94 5000 1.86 211 23:19 23.12.2019
2067 Clouds 26 1011 88 9000 2.1 100 22:55 23.12.2019
2068 Clouds 26 1011 88 9000 2.1 100 22:55 23.12.2019
2069 Clouds 26 1011 94 10000 1.86 211 22:36 23.12.2019
2070 Clouds 26 1011 94 10000 1.86 211 22:36 23.12.2019
2071 Clouds 26 1011 94 10000 1.86 211 22:36 23.12.2019
2072 Clouds 26 1011 94 10000 1.86 211 22:18 23.12.2019
2073 Clouds 26 1011 88 10000 1.86 211 21:55 23.12.2019
2074 Clouds 25 1011 88 10000 1.86 211 21:36 23.12.2019
2075 Clouds 25 1011 88 10000 1.86 211 21:36 23.12.2019
2076 Clouds 25 1011 88 10000 1.86 211 21:18 23.12.2019
2077 Clouds 25 1011 88 10000 1 190 20:56 23.12.2019
2078 Clouds 25 1011 88 10000 1 190 20:56 23.12.2019
2079 Clouds 25 1011 88 10000 0.5 180 20:38 23.12.2019
2080 Clouds 25 1011 88 10000 0.5 180 20:18 23.12.2019
2081 Clouds 25 1012 83 10000 3.47 229 19:55 23.12.2019
2082 Clouds 25 1012 83 10000 3.47 229 19:55 23.12.2019
2083 Clouds 26 1012 83 10000 3.47 229 19:37 23.12.2019
2084 Clouds 25 1012 83 10000 3.47 229 19:18 23.12.2019
2085 Clouds 26 1012 78 10000 1 170 18:55 23.12.2019
2086 Clouds 26 1012 78 10000 1 170 18:37 23.12.2019
2087 Clouds 26 1012 78 10000 1 170 18:18 23.12.2019
2088 Clouds 26 1012 78 10000 2.1 200 17:55 23.12.2019
2089 Clouds 26 1012 78 10000 2.1 200 17:37 23.12.2019
2090 Clouds 26 1012 78 10000 2.1 200 17:18 23.12.2019
2091 Clouds 27 1012 74 10000 2.1 190 16:42 23.12.2019
2092 Clouds 27 1012 69 10000 2.1 180 16:19 23.12.2019
2093 Clouds 27 1012 65 10000 1 0 15:58 23.12.2019
2094 Clouds 27 1012 62 10000 2.1 190 15:38 23.12.2019
2095 Clouds 27 1012 62 10000 2.1 190 15:20 23.12.2019
2096 Clouds 28 1012 58 10000 1.5 240 14:58 23.12.2019
2097 Clouds 28 1011 52 10000 2.1 260 14:39 23.12.2019
2098 Clouds 29 1011 52 10000 2.1 260 14:21 23.12.2019
2099 Clouds 29 1011 48 10000 1 0 13:58 23.12.2019
2100 Clouds 29 1011 48 10000 1 0 13:40 23.12.2019
2101 Clouds 29 1010 48 10000 1 130 13:21 23.12.2019
2102 Clouds 28 1010 51 10000 3.71 187 12:55 23.12.2019
2103 Clouds 29 1010 52 10000 1.5 170 12:37 23.12.2019
2104 Clouds 30 1010 52 10000 1.5 170 12:19 23.12.2019
2105 Clouds 30 1010 43 10000 2.1 130 11:44 23.12.2019
2106 Clouds 31 1009 43 10000 1.5 80 11:25 23.12.2019
2107 Clouds 32 1009 43 10000 2.6 100 10:57 23.12.2019
2108 Clouds 33 1009 41 10000 3.1 130 10:39 23.12.2019
2109 Clouds 33 1009 41 10000 3.1 130 10:20 23.12.2019
2110 Clouds 33 1009 41 10000 3.1 130 10:20 23.12.2019
2111 Clouds 33 1009 44 10000 1 0 09:59 23.12.2019
2112 Clouds 34 1009 44 10000 1 0 09:39 23.12.2019
2113 Clouds 34 1009 44 10000 1 0 09:20 23.12.2019
2114 Clouds 34 1010 46 9000 1.5 0 08:55 23.12.2019
2115 Clouds 33 1010 46 9000 2.1 70 08:37 23.12.2019
2116 Clouds 34 1010 46 9000 2.1 70 08:19 23.12.2019
2117 Clouds 34 1010 49 9000 1.5 0 07:43 23.12.2019
2118 Clouds 33 1011 49 9000 2.1 80 07:20 23.12.2019
2119 Clouds 33 1012 52 9000 1 0 06:51 23.12.2019
2120 Clouds 33 1012 52 9000 2.6 130 06:24 23.12.2019
2121 Clouds 34 1013 59 8000 1.5 180 05:49 23.12.2019
2122 Clouds 32 1013 62 8000 1.5 0 05:22 23.12.2019
2123 Clouds 31 1014 70 8000 2.1 160 04:20 23.12.2019
2124 Mist 29 1014 83 4000 2.1 120 02:55 23.12.2019
2125 Mist 28 1013 88 3000 1.17 241 02:28 23.12.2019
2126 Mist 25 1013 94 3000 2.1 130 01:55 23.12.2019
2127 Mist 25 1012 94 3000 1.5 100 01:36 23.12.2019
2128 Mist 26 1012 94 3000 1.5 100 01:18 23.12.2019
2129 Clear 25 1011 100 8000 1.5 50 00:35 23.12.2019
2130 Clear 25 1011 94 8000 1 50 23:57 22.12.2019
2131 Clear 25 1011 94 8000 0.5 60 23:39 22.12.2019
2132 Clear 25 1011 94 8000 0.5 60 23:20 22.12.2019
2133 Clear 25 1011 88 8000 3.78 237 22:57 22.12.2019
2134 Clear 25 1010 88 8000 3.78 237 22:38 22.12.2019
2135 Clear 26 1010 88 8000 3.78 237 22:19 22.12.2019
2136 Clear 25 1010 88 8000 3.78 237 21:56 22.12.2019
2137 Clear 25 1010 88 8000 3.78 237 21:56 22.12.2019
2138 Clear 26 1010 88 8000 1.5 180 21:38 22.12.2019
2139 Clear 25 1010 88 8000 1.5 180 21:38 22.12.2019
2140 Clear 26 1010 88 8000 1.5 180 21:20 22.12.2019
2141 Clear 26 1011 83 8000 2.1 170 20:55 22.12.2019
2142 Clear 26 1011 88 8000 1.5 170 20:37 22.12.2019
2143 Clear 26 1011 88 8000 1.5 170 20:37 22.12.2019
2144 Clear 26 1011 88 8000 1.5 170 20:18 22.12.2019
2145 Clear 26 1011 88 8000 1.5 180 19:40 22.12.2019
2146 Clear 26 1011 83 8000 2.6 210 19:21 22.12.2019
2147 Clear 26 1011 83 8000 2.6 200 18:58 22.12.2019
2148 Clear 27 1012 78 8000 3.1 190 18:38 22.12.2019
2149 Clear 27 1012 78 8000 3.1 190 18:19 22.12.2019
2150 Clear 26 1012 78 8000 3.1 180 17:55 22.12.2019
2151 Clear 26 1011 83 8000 2.1 190 17:37 22.12.2019
2152 Clouds 26 1011 83 8000 2.1 190 17:18 22.12.2019
2153 Clouds 27 1011 69 9000 2.1 160 16:42 22.12.2019
2154 Clouds 27 1011 69 9000 1.5 170 16:23 22.12.2019
2155 Clouds 29 1011 62 9000 2.6 240 15:58 22.12.2019
2156 Clouds 29 1011 62 9000 2.6 240 15:39 22.12.2019
2157 Clouds 29 1011 62 9000 2.6 280 15:21 22.12.2019
2158 Clouds 29 1011 66 9000 2.1 200 14:59 22.12.2019
2159 Clouds 29 1011 66 9000 2.1 210 14:38 22.12.2019
2160 Clouds 29 1011 66 9000 2.1 210 14:19 22.12.2019
2161 Clouds 30 1010 62 9000 3.1 240 13:56 22.12.2019
2162 Clouds 30 1010 58 9000 3.1 240 13:38 22.12.2019
2163 Clouds 30 1010 58 9000 3.1 240 13:19 22.12.2019
2164 Clouds 29 1010 55 9000 3.1 250 12:57 22.12.2019
2165 Clouds 30 1010 49 9000 1.5 340 12:38 22.12.2019
2166 Clouds 31 1010 49 9000 1.5 340 12:19 22.12.2019
2167 Clouds 31 1009 43 10000 0.5 220 11:57 22.12.2019
2168 Clouds 32 1009 38 10000 3.03 240 11:38 22.12.2019
2169 Clouds 33 1009 38 10000 5.07 213 11:19 22.12.2019
2170 Clouds 33 1009 41 10000 1.5 360 10:57 22.12.2019
2171 Clouds 33 1009 41 10000 1.5 360 10:57 22.12.2019
2172 Clouds 34 1009 41 10000 3.1 10 10:38 22.12.2019
2173 Clouds 33 1009 41 10000 3.1 10 10:19 22.12.2019
2174 Clouds 34 1009 41 10000 2.6 170 09:57 22.12.2019
2175 Clouds 35 1009 41 10000 2.1 60 09:39 22.12.2019
2176 Clouds 35 1009 41 10000 2.1 60 09:39 22.12.2019
2177 Clouds 35 1009 41 10000 2.1 60 09:20 22.12.2019
2178 Clouds 35 1010 38 10000 2.6 100 08:42 22.12.2019
2179 Clouds 34 1010 43 10000 2.6 100 08:22 22.12.2019
2180 Clouds 34 1010 49 10000 2.6 80 07:43 22.12.2019
2181 Clouds 34 1011 49 10000 2.6 80 07:21 22.12.2019
2182 Clouds 34 1012 52 10000 2.6 80 06:52 22.12.2019
2183 Clouds 34 1012 58 10000 2.6 80 06:25 22.12.2019
2184 Clouds 33 1014 62 10000 4.43 187 05:32 22.12.2019
2185 Clouds 32 1014 66 10000 0.39 7 04:46 22.12.2019
2186 Clouds 31 1014 66 10000 0.39 7 04:25 22.12.2019
2187 Mist 28 1014 88 3000 2.1 120 02:45 22.12.2019
2188 Mist 27 1013 94 2500 2.1 120 02:20 22.12.2019
2189 Mist 26 1012 94 3500 1.5 70 01:31 22.12.2019
2190 Clouds 25 1012 94 7000 1.5 40 00:54 22.12.2019
2191 Clouds 25 1012 88 8000 2.1 110 00:36 22.12.2019
2192 Clouds 25 1012 88 8000 2.1 110 00:18 22.12.2019
2193 Clouds 25 1011 88 8000 1.5 120 23:40 21.12.2019
2194 Clouds 25 1011 94 8000 2.74 232 23:21 21.12.2019
2195 Clouds 25 1011 88 8000 2.74 232 22:47 21.12.2019
2196 Clouds 25 1011 88 8000 2.74 232 22:20 21.12.2019
2197 Clouds 25 1011 83 8000 1.5 190 21:58 21.12.2019
2198 Clouds 25 1011 83 8000 1.5 190 21:40 21.12.2019
2199 Clouds 26 1011 83 8000 2.1 200 21:21 21.12.2019
2200 Clouds 26 1011 88 8000 1.5 200 20:59 21.12.2019
2201 Clouds 26 1011 88 8000 1.5 200 20:41 21.12.2019
2202 Clouds 26 1011 83 8000 1.5 180 20:22 21.12.2019
2203 Clouds 27 1012 83 9000 2.1 170 19:59 21.12.2019
2204 Clouds 27 1012 83 9000 2.6 170 19:41 21.12.2019
2205 Clouds 27 1012 83 9000 2.6 170 19:20 21.12.2019
2206 Clouds 27 1012 78 9000 2.1 180 18:56 21.12.2019
2207 Clouds 27 1012 78 9000 2.6 190 18:38 21.12.2019
2208 Clouds 27 1012 78 9000 2.6 190 18:20 21.12.2019
2209 Clouds 27 1012 83 9000 1.5 180 17:55 21.12.2019
2210 Clouds 27 1012 83 9000 2.6 160 17:37 21.12.2019
2211 Clouds 28 1012 83 9000 2.6 160 17:18 21.12.2019
2212 Clouds 28 1012 74 9000 2.65 184 16:41 21.12.2019
2213 Clouds 28 1012 74 9000 2.65 184 16:19 21.12.2019
2214 Clouds 29 1012 70 10000 2.65 184 15:58 21.12.2019
2215 Clouds 28 1012 66 10000 2.1 270 15:39 21.12.2019
2216 Clouds 28 1012 66 10000 2.1 270 15:20 21.12.2019
2217 Clouds 29 1012 66 10000 2.1 270 14:59 21.12.2019
2218 Clouds 29 1012 66 10000 2.1 270 14:40 21.12.2019
2219 Clouds 30 1011 62 10000 2.1 260 14:22 21.12.2019
2220 Clouds 30 1011 66 10000 2.1 240 13:57 21.12.2019
2221 Clouds 29 1011 52 10000 1 220 13:38 21.12.2019
2222 Clouds 29 1011 52 10000 1 220 13:18 21.12.2019
2223 Clouds 30 1010 49 10000 2.1 120 12:56 21.12.2019
2224 Clouds 30 1010 46 10000 2.6 130 12:37 21.12.2019
2225 Clouds 31 1010 46 10000 2.6 130 12:19 21.12.2019
2226 Clouds 32 1010 43 10000 2.6 140 11:45 21.12.2019
2227 Clouds 32 1010 43 10000 1.5 100 11:26 21.12.2019
2228 Clouds 33 1009 46 10000 2.1 100 10:57 21.12.2019
2229 Clouds 33 1009 43 10000 1.5 20 10:39 21.12.2019
2230 Clouds 33 1009 43 10000 1.5 20 10:21 21.12.2019
2231 Clouds 34 1009 41 10000 3.6 50 09:56 21.12.2019
2232 Clouds 34 1009 41 10000 3.6 50 09:56 21.12.2019
2233 Clouds 34 1009 43 10000 3.6 130 09:38 21.12.2019
2234 Clouds 34 1009 43 10000 3.6 130 09:19 21.12.2019
2235 Clouds 34 1010 46 10000 2.6 50 08:46 21.12.2019
2236 Clouds 35 1010 49 10000 2.6 100 08:26 21.12.2019
2237 Clouds 33 1010 49 10000 2.6 110 07:46 21.12.2019
2238 Clouds 34 1011 55 10000 3.1 110 07:23 21.12.2019
2239 Clouds 33 1011 55 10000 3.1 110 07:23 21.12.2019
2240 Clouds 33 1011 52 10000 3.1 110 06:46 21.12.2019
2241 Clouds 34 1012 55 9000 4.1 100 06:28 21.12.2019
2242 Clouds 34 1012 55 9000 3.6 100 05:55 21.12.2019
2243 Clouds 33 1013 62 9000 1.5 0 04:58 21.12.2019
2244 Clouds 32 1014 70 6000 1 0 03:59 21.12.2019
2245 Mist 31 1014 79 4500 0.5 0 03:37 21.12.2019
2246 Mist 28 1013 83 4500 1.5 90 02:19 21.12.2019
2247 Mist 27 1013 88 4500 1 0 01:41 21.12.2019
2248 Mist 26 1012 88 5000 2.1 70 01:22 21.12.2019
2249 Clouds 25 1012 88 7000 1.5 11 00:37 21.12.2019
2250 Clouds 25 1012 88 7000 1.5 11 00:18 21.12.2019
2251 Clouds 26 1011 88 7000 1.5 11 23:38 20.12.2019
2252 Clouds 26 1011 88 7000 0.43 24 23:19 20.12.2019
2253 Clouds 26 1011 88 7000 0.43 24 22:43 20.12.2019
2254 Clouds 25 1011 88 7000 0.43 24 22:22 20.12.2019
2255 Clouds 26 1010 78 7000 1 80 21:59 20.12.2019
2256 Clouds 26 1010 78 7000 1 80 21:40 20.12.2019
2257 Clouds 26 1011 83 7000 0.5 50 21:20 20.12.2019
2258 Clouds 26 1011 83 7000 0.43 24 20:56 20.12.2019
2259 Clouds 26 1011 83 7000 0.5 0 20:36 20.12.2019
2260 Clouds 26 1011 83 7000 0.5 0 20:18 20.12.2019
2261 Clouds 26 1011 78 7000 1.39 216 19:42 20.12.2019
2262 Clouds 27 1012 74 7000 1.39 216 19:20 20.12.2019
2263 Clouds 27 1012 74 7000 0.5 0 18:58 20.12.2019
2264 Clouds 27 1012 74 8000 1.39 216 18:39 20.12.2019
2265 Clouds 28 1012 74 8000 1.39 216 18:21 20.12.2019
2266 Clouds 27 1012 69 9000 1.39 216 17:54 20.12.2019
2267 Clouds 27 1012 69 9000 1.39 216 17:36 20.12.2019
2268 Clouds 28 1012 69 9000 3.36 186 17:18 20.12.2019
2269 Clouds 28 1012 69 9000 3.36 186 17:18 20.12.2019
2270 Clouds 28 1012 62 9000 3.36 186 16:40 20.12.2019
2271 Clouds 28 1012 62 9000 3.36 186 16:20 20.12.2019
2272 Clouds 28 1012 66 9000 3.36 186 15:57 20.12.2019
2273 Clouds 28 1012 62 9000 3.36 186 15:39 20.12.2019
2274 Clouds 28 1012 62 9000 3.36 186 15:20 20.12.2019
2275 Clouds 28 1012 66 9000 3.36 186 14:59 20.12.2019
2276 Clouds 29 1011 66 9000 3.36 186 14:40 20.12.2019
2277 Clouds 30 1011 66 9000 2.67 193 14:22 20.12.2019
2278 Clouds 30 1011 62 9000 2.67 193 13:55 20.12.2019
2279 Clouds 31 1011 55 9000 1 0 13:36 20.12.2019
2280 Clouds 31 1011 55 9000 1 0 13:18 20.12.2019
2281 Clouds 30 1010 55 9000 3.6 80 12:41 20.12.2019
2282 Clouds 31 1010 55 9000 3.6 80 12:19 20.12.2019
2283 Clouds 32 1010 52 9000 3.6 90 11:59 20.12.2019
2284 Clouds 31 1009 52 9000 3.6 110 11:40 20.12.2019
2285 Clouds 31 1009 52 9000 3.6 110 11:40 20.12.2019
2286 Clouds 32 1009 52 9000 3.6 110 11:21 20.12.2019
2287 Clouds 32 1009 49 10000 4.1 120 10:59 20.12.2019
2288 Clouds 32 1009 49 10000 3.6 100 10:41 20.12.2019
2289 Clouds 33 1009 49 10000 3.6 100 10:20 20.12.2019
2290 Clouds 33 1009 49 10000 4.1 110 09:56 20.12.2019
2291 Clouds 34 1009 49 10000 3.6 120 09:38 20.12.2019
2292 Clouds 34 1009 49 10000 3.6 120 09:19 20.12.2019
2293 Clouds 34 1009 49 10000 4.6 80 08:43 20.12.2019
2294 Clouds 34 1009 49 10000 4.6 80 08:24 20.12.2019
2295 Clouds 33 1010 46 10000 5.1 80 07:59 20.12.2019
2296 Clouds 34 1010 46 10000 4.6 80 07:40 20.12.2019
2297 Clouds 34 1010 46 10000 4.6 80 07:19 20.12.2019
2298 Clouds 34 1011 49 10000 5.1 80 06:51 20.12.2019
2299 Clouds 34 1012 52 10000 4.1 90 06:31 20.12.2019
2300 Clouds 34 1012 55 9000 3.1 70 05:53 20.12.2019
2301 Clouds 33 1013 58 8000 2.6 70 05:34 20.12.2019
2302 Clouds 32 1013 70 8000 1 0 04:33 20.12.2019
2303 Mist 31 1013 78 3000 2.6 80 03:30 20.12.2019
2304 Mist 31 1013 88 3000 1 0 02:42 20.12.2019
2305 Mist 27 1012 88 3000 1.5 100 01:47 20.12.2019
2306 Mist 26 1012 94 3000 2.1 110 01:29 20.12.2019
2307 Rain 25 1011 94 9000 2.1 100 00:42 20.12.2019
2308 Rain 25 1011 94 9000 2.1 100 00:20 20.12.2019
2309 Rain 25 1011 94 9000 1.5 100 23:43 19.12.2019
2310 Rain 26 1010 88 9000 1 0 23:24 19.12.2019
2311 Rain 26 1010 88 9000 2.75 199 22:59 19.12.2019
2312 Rain 26 1010 88 9000 2.75 199 22:59 19.12.2019
2313 Rain 26 1010 88 9000 2.75 199 22:36 19.12.2019
2314 Rain 26 1010 88 9000 2.75 199 22:18 19.12.2019
2315 Clouds 26 1010 88 10000 1.5 120 21:55 19.12.2019
2316 Clouds 26 1010 78 10000 2.1 120 21:37 19.12.2019
2317 Clouds 27 1010 78 10000 2.1 120 21:18 19.12.2019
2318 Clouds 27 1010 83 10000 2.6 120 20:55 19.12.2019
2319 Clouds 26 1010 83 10000 2.1 120 20:36 19.12.2019
2320 Clouds 26 1010 83 10000 2.1 120 20:18 19.12.2019
2321 Clouds 27 1011 83 10000 3.34 190 19:54 19.12.2019
2322 Clouds 27 1011 78 10000 3.34 190 19:36 19.12.2019
2323 Clouds 27 1011 78 10000 3.34 190 19:18 19.12.2019
2324 Clouds 27 1011 78 10000 2.1 130 18:41 19.12.2019
2325 Clouds 28 1011 78 10000 2.1 130 18:21 19.12.2019
2326 Clouds 27 1011 74 10000 2.1 140 17:57 19.12.2019
2327 Clouds 27 1012 66 10000 2.1 140 17:38 19.12.2019
2328 Clouds 27 1012 66 10000 2.1 140 17:38 19.12.2019
2329 Clouds 28 1012 66 10000 2.1 140 17:19 19.12.2019
2330 Clouds 28 1012 66 10000 2.1 120 16:57 19.12.2019
2331 Clouds 28 1012 62 10000 2.1 340 16:38 19.12.2019
2332 Clouds 28 1012 62 10000 2.1 340 16:20 19.12.2019
2333 Clouds 28 1012 62 10000 2.1 340 16:20 19.12.2019
2334 Clouds 29 1011 58 10000 1.5 350 15:58 19.12.2019
2335 Clouds 29 1011 58 10000 3.15 186 15:39 19.12.2019
2336 Clouds 29 1011 58 10000 3.15 186 15:19 19.12.2019
2337 Clouds 30 1011 58 10000 3.15 186 14:57 19.12.2019
2338 Clouds 29 1011 55 10000 3.15 186 14:39 19.12.2019
2339 Clouds 30 1011 55 10000 3.76 154 14:18 19.12.2019
2340 Clouds 30 1010 58 10000 3.76 154 13:54 19.12.2019
2341 Clouds 30 1010 52 10000 3.76 154 13:36 19.12.2019
2342 Clouds 30 1010 52 10000 4.85 165 13:18 19.12.2019
2343 Clouds 30 1010 55 10000 4.85 165 12:54 19.12.2019
2344 Clouds 31 1010 52 10000 1.5 130 12:36 19.12.2019
2345 Clouds 31 1010 52 10000 1.5 130 12:18 19.12.2019
2346 Clouds 31 1010 52 10000 1.5 130 12:18 19.12.2019
2347 Clouds 32 1009 49 10000 3.6 90 11:42 19.12.2019
2348 Clouds 33 1009 49 10000 3.6 90 11:20 19.12.2019
2349 Clouds 33 1009 49 10000 3.6 90 11:20 19.12.2019
2350 Clouds 33 1009 49 10000 3.6 90 11:20 19.12.2019
2351 Clouds 33 1009 49 10000 3.6 90 10:59 19.12.2019
2352 Clouds 33 1009 46 10000 3.1 100 10:38 19.12.2019
2353 Clouds 33 1009 46 10000 3.1 100 10:20 19.12.2019
2354 Clouds 33 1009 46 10000 3.1 100 10:20 19.12.2019
2355 Clouds 34 1009 44 10000 3.1 120 09:57 19.12.2019
2356 Clouds 34 1009 44 10000 2.6 0 09:38 19.12.2019
2357 Clouds 34 1009 44 10000 2.6 0 09:19 19.12.2019
2358 Clouds 34 1009 44 10000 2.6 0 09:19 19.12.2019
2359 Clouds 34 1010 44 10000 2.6 110 08:55 19.12.2019
2360 Clouds 34 1010 44 10000 2.6 110 08:55 19.12.2019
2361 Clouds 35 1010 46 10000 2.6 0 08:37 19.12.2019
2362 Clouds 34 1010 46 10000 2.6 0 08:18 19.12.2019
2363 Clouds 34 1011 44 10000 3.1 120 07:54 19.12.2019
2364 Clouds 34 1011 46 10000 2.6 70 07:36 19.12.2019
2365 Clouds 34 1011 46 10000 2.6 70 07:18 19.12.2019
2366 Clouds 34 1013 49 10000 2.6 70 06:42 19.12.2019
2367 Clouds 34 1013 49 10000 2.6 70 06:23 19.12.2019
2368 Clouds 34 1013 52 10000 2.1 80 05:45 19.12.2019
2369 Clouds 33 1014 55 10000 2.6 0 05:20 19.12.2019
2370 Clear 31 1015 70 7000 1.5 80 03:54 19.12.2019
2371 Clear 29 1014 83 6000 2.1 120 02:29 19.12.2019
2372 Mist 26 1013 88 4000 2.1 120 01:26 19.12.2019
2373 Clear 25 1012 88 6000 3.1 110 00:59 19.12.2019
2374 Clouds 25 1012 88 10000 1 100 00:39 19.12.2019
2375 Clouds 25 1012 88 10000 1 100 00:19 19.12.2019
2376 Clouds 25 1012 88 10000 1.5 60 23:45 18.12.2019
2377 Clouds 25 1012 83 10000 1.95 245 23:19 18.12.2019
2378 Clouds 25 1012 78 10000 2.1 120 22:58 18.12.2019
2379 Clouds 26 1012 78 10000 1.5 100 22:39 18.12.2019
2380 Clouds 26 1012 78 10000 1.5 100 22:39 18.12.2019
2381 Clouds 26 1012 78 10000 1.5 100 22:21 18.12.2019
2382 Clouds 26 1012 74 10000 1.5 120 21:58 18.12.2019
2383 Clouds 26 1012 74 10000 1.95 245 21:40 18.12.2019
2384 Clouds 26 1012 74 10000 1.95 245 21:20 18.12.2019
2385 Clouds 26 1012 74 10000 1.95 245 21:20 18.12.2019
2386 Clouds 26 1012 74 10000 1.5 20 20:57 18.12.2019
2387 Clouds 26 1012 69 10000 2.1 350 20:38 18.12.2019
2388 Clouds 27 1012 69 10000 2.1 350 20:20 18.12.2019
2389 Clouds 26 1013 69 10000 3.18 199 19:56 18.12.2019
2390 Clouds 26 1013 69 10000 2.1 190 19:38 18.12.2019
2391 Clouds 26 1013 69 10000 2.1 190 19:18 18.12.2019
2392 Clouds 27 1013 69 10000 2.1 190 18:54 18.12.2019
2393 Clouds 27 1013 74 10000 1.5 160 18:36 18.12.2019
2394 Clouds 27 1013 74 10000 1.5 160 18:18 18.12.2019
2395 Clouds 27 1013 65 10000 1.5 160 17:55 18.12.2019
2396 Clouds 27 1013 69 10000 2.1 150 17:37 18.12.2019
2397 Clouds 28 1013 69 10000 2.1 150 17:18 18.12.2019
2398 Clouds 29 1013 65 10000 1 180 16:42 18.12.2019
2399 Clouds 29 1013 65 10000 1 180 16:42 18.12.2019
2400 Clouds 28 1013 62 10000 1.5 150 16:23 18.12.2019
2401 Clouds 28 1013 62 10000 3.14 164 15:57 18.12.2019
2402 Clouds 28 1013 62 10000 3.14 164 15:39 18.12.2019
2403 Clouds 28 1013 62 10000 3.14 164 15:21 18.12.2019
2404 Clouds 29 1013 58 10000 3.14 164 14:56 18.12.2019
2405 Clouds 29 1012 58 10000 0.5 0 14:36 18.12.2019
2406 Clouds 30 1012 58 10000 0.5 0 14:18 18.12.2019
2407 Clouds 30 1012 55 10000 2.6 130 13:54 18.12.2019
2408 Clouds 30 1012 55 10000 2.1 80 13:36 18.12.2019
2409 Clouds 30 1012 55 10000 2.1 80 13:18 18.12.2019
2410 Clouds 30 1012 55 10000 2.1 80 13:18 18.12.2019
2411 Clouds 31 1011 49 10000 2.1 120 12:40 18.12.2019
2412 Clouds 31 1011 49 10000 2.1 120 12:40 18.12.2019
2413 Clouds 31 1011 49 10000 2.1 120 12:21 18.12.2019
2414 Clouds 31 1011 49 10000 1.5 100 11:57 18.12.2019
2415 Clouds 32 1010 52 10000 2.1 120 11:39 18.12.2019
2416 Clouds 32 1010 52 10000 2.1 120 11:20 18.12.2019
2417 Clouds 33 1010 46 10000 2.6 140 10:57 18.12.2019
2418 Clouds 34 1010 46 10000 2.1 110 10:39 18.12.2019
2419 Clouds 33 1010 46 10000 2.1 110 10:20 18.12.2019
2420 Clouds 33 1010 46 10000 2.1 110 10:20 18.12.2019
2421 Clouds 34 1010 49 10000 4.6 100 09:57 18.12.2019
2422 Clouds 34 1010 46 10000 4.1 90 09:20 18.12.2019
2423 Clouds 34 1011 46 10000 5.1 70 08:42 18.12.2019
2424 Clouds 34 1011 49 10000 4.1 80 08:24 18.12.2019
2425 Clouds 34 1011 52 10000 5.7 80 07:57 18.12.2019
2426 Clouds 34 1012 52 10000 5.7 80 07:39 18.12.2019
2427 Clouds 34 1012 52 10000 5.7 80 07:19 18.12.2019
2428 Clear 33 1012 52 10000 5.1 80 06:51 18.12.2019
2429 Clear 33 1013 52 10000 5.1 100 06:23 18.12.2019
2430 Clear 33 1014 52 10000 5.1 90 05:34 18.12.2019
2431 Clouds 32 1014 52 10000 3.6 120 03:46 18.12.2019
2432 Clouds 30 1014 62 9000 3.1 90 02:44 18.12.2019
2433 Clouds 27 1014 69 9000 2.6 120 02:26 18.12.2019
2434 Clouds 26 1013 74 9000 2.1 120 01:43 18.12.2019
2435 Clouds 25 1013 78 9000 2.6 120 01:25 18.12.2019
2436 Clouds 25 1012 83 9000 1.63 31 00:42 18.12.2019
2437 Clouds 25 1012 83 9000 1.63 31 00:24 18.12.2019
2438 Clouds 25 1011 83 9000 1.63 31 23:58 17.12.2019
2439 Clouds 25 1011 74 9000 1.5 70 23:39 17.12.2019
2440 Clear 25 1011 74 9000 1.5 70 23:21 17.12.2019
2441 Clear 25 1011 78 9000 2.1 50 22:57 17.12.2019
2442 Clear 26 1011 83 9000 2.33 306 22:38 17.12.2019
2443 Clear 26 1011 83 9000 2.33 306 22:19 17.12.2019
2444 Clear 26 1011 78 9000 2.33 306 21:57 17.12.2019
2445 Clear 26 1011 78 9000 1.5 100 21:38 17.12.2019
2446 Clear 26 1011 78 9000 1.5 100 21:38 17.12.2019
2447 Clear 26 1011 78 9000 1.5 100 21:20 17.12.2019
2448 Clear 26 1011 78 9000 2.1 120 20:58 17.12.2019
2449 Clear 26 1011 65 9000 1 110 20:39 17.12.2019
2450 Clouds 26 1011 65 9000 1 110 20:18 17.12.2019
2451 Clouds 27 1012 61 9000 1 0 19:56 17.12.2019
2452 Clouds 27 1012 69 9000 0.6 270 19:38 17.12.2019
2453 Clouds 27 1012 69 9000 0.6 270 19:19 17.12.2019
2454 Clouds 27 1012 69 9000 1.5 20 18:55 17.12.2019
2455 Clouds 27 1012 65 9000 3.6 350 18:37 17.12.2019
2456 Clouds 27 1012 65 9000 3.6 350 18:19 17.12.2019
2457 Clouds 27 1012 58 9000 2.1 350 17:42 17.12.2019
2458 Clouds 27 1012 58 9000 2.1 350 17:42 17.12.2019
2459 Clouds 27 1012 58 9000 2.1 350 17:21 17.12.2019
2460 Clouds 28 1012 55 9000 3.1 360 16:57 17.12.2019
2461 Clouds 28 1012 58 10000 2.1 10 16:38 17.12.2019
2462 Clouds 28 1012 58 10000 2.1 10 16:19 17.12.2019
2463 Clouds 28 1012 55 10000 2.6 350 15:59 17.12.2019
2464 Clouds 29 1012 52 10000 2.6 320 15:37 17.12.2019
2465 Clouds 29 1012 52 10000 2.6 320 15:19 17.12.2019
2466 Clouds 29 1012 52 10000 3.1 330 14:56 17.12.2019
2467 Clouds 29 1012 55 10000 3.1 330 14:37 17.12.2019
2468 Clouds 30 1012 55 10000 3.1 330 14:18 17.12.2019
2469 Clouds 30 1012 55 10000 3.1 330 14:18 17.12.2019
2470 Clouds 30 1012 55 10000 3.1 350 13:56 17.12.2019
2471 Clouds 30 1011 52 10000 1.5 70 13:38 17.12.2019
2472 Clouds 30 1011 52 10000 1.5 70 13:18 17.12.2019
2473 Clouds 29 1011 52 10000 2.1 80 12:55 17.12.2019
2474 Clouds 29 1010 49 10000 2.6 80 12:37 17.12.2019
2475 Clouds 29 1010 49 10000 2.6 80 12:18 17.12.2019
2476 Clouds 30 1010 49 10000 3.1 70 11:54 17.12.2019
2477 Clouds 32 1010 46 10000 3.1 80 11:36 17.12.2019
2478 Clouds 34 1010 46 10000 3.6 80 11:18 17.12.2019
2479 Clouds 33 1010 46 10000 3.6 80 10:54 17.12.2019
2480 Clouds 32 1010 44 10000 3.1 90 10:36 17.12.2019
2481 Clouds 33 1010 44 10000 3.1 90 10:18 17.12.2019
2482 Clouds 35 1010 44 10000 4.1 60 09:42 17.12.2019
2483 Clouds 35 1010 44 10000 4.1 60 09:21 17.12.2019
2484 Clouds 35 1010 44 10000 4.1 60 09:21 17.12.2019
2485 Clouds 33 1011 46 10000 4.6 60 08:56 17.12.2019
2486 Clouds 34 1011 44 10000 4.6 120 08:38 17.12.2019
2487 Clouds 34 1011 44 10000 4.6 120 08:38 17.12.2019
2488 Clouds 34 1011 44 10000 4.6 120 08:38 17.12.2019
2489 Clouds 33 1011 44 10000 4.6 120 08:20 17.12.2019
2490 Clouds 33 1011 44 10000 5.1 120 07:55 17.12.2019
2491 Clouds 33 1012 44 10000 4.6 80 07:36 17.12.2019
2492 Clouds 32 1012 44 10000 4.6 80 07:18 17.12.2019
2493 Clouds 34 1013 43 10000 2.1 40 06:35 17.12.2019
2494 Clouds 34 1013 41 9000 4.1 60 05:56 17.12.2019
2495 Clouds 34 1014 43 9000 2.6 70 05:36 17.12.2019
2496 Clouds 31 1014 55 9000 2.1 360 04:33 17.12.2019
2497 Clouds 30 1014 69 6000 3.1 360 02:45 17.12.2019
2498 Clouds 26 1013 78 6000 2.6 350 01:56 17.12.2019
2499 Clouds 25 1013 74 6000 2.1 340 01:18 17.12.2019
2500 Clouds 25 1012 78 7000 1 0 00:38 17.12.2019
2501 Clouds 25 1012 78 7000 1 0 00:38 17.12.2019
2502 Clouds 25 1012 78 7000 1 0 00:38 17.12.2019
2503 Clouds 25 1012 78 7000 1 0 00:38 17.12.2019
2504 Clouds 25 1012 78 7000 1 0 00:38 17.12.2019
2505 Clouds 25 1012 78 7000 1 0 00:20 17.12.2019
2506 Clouds 25 1012 83 8000 1.85 349 23:42 16.12.2019
2507 Clouds 25 1012 83 8000 0.41 82 23:19 16.12.2019
2508 Clouds 25 1011 78 8000 0.41 82 22:58 16.12.2019
2509 Clouds 25 1011 83 9000 1 30 22:37 16.12.2019
2510 Clouds 25 1011 83 9000 1 30 22:19 16.12.2019
2511 Clouds 25 1011 83 9000 1 30 22:19 16.12.2019
2512 Clouds 25 1011 83 9000 2.1 350 21:56 16.12.2019
2513 Clouds 25 1011 78 9000 1.5 350 21:37 16.12.2019
2514 Clouds 25 1011 78 9000 1.5 350 21:19 16.12.2019
2515 Clouds 25 1012 78 9000 1.5 20 20:57 16.12.2019
2516 Clouds 26 1012 74 9000 0.41 82 20:38 16.12.2019
2517 Clouds 26 1012 74 9000 0.41 82 20:38 16.12.2019
2518 Clouds 26 1012 74 9000 0.58 261 20:19 16.12.2019
2519 Clouds 26 1012 74 10000 0.58 261 19:56 16.12.2019
2520 Clouds 26 1013 74 10000 1.5 70 19:37 16.12.2019
2521 Clouds 27 1013 74 10000 1.5 70 19:19 16.12.2019
2522 Clouds 27 1013 69 10000 1 0 18:56 16.12.2019
2523 Clouds 27 1013 69 10000 1 0 18:56 16.12.2019
2524 Clouds 27 1013 69 10000 2.1 40 18:38 16.12.2019
2525 Clouds 27 1013 69 10000 2.1 40 18:19 16.12.2019
2526 Clouds 27 1013 69 10000 1.5 40 17:57 16.12.2019
2527 Clouds 27 1013 65 10000 2.1 30 17:38 16.12.2019
2528 Clouds 28 1013 65 10000 2.1 30 17:20 16.12.2019
2529 Clouds 28 1013 65 10000 1.5 40 16:56 16.12.2019
2530 Clouds 28 1013 65 10000 0.93 335 16:38 16.12.2019
2531 Clouds 28 1013 65 10000 0.93 335 16:19 16.12.2019
2532 Clouds 28 1013 65 10000 1 0 15:57 16.12.2019
2533 Clouds 27 1013 62 10000 1.5 50 15:38 16.12.2019
2534 Clouds 28 1013 62 10000 1.5 50 15:20 16.12.2019
2535 Clouds 29 1013 62 10000 2.1 50 14:55 16.12.2019
2536 Clouds 28 1012 62 10000 2.1 40 14:37 16.12.2019
2537 Clouds 28 1012 62 10000 2.1 40 14:37 16.12.2019
2538 Clouds 29 1012 62 10000 2.1 40 14:18 16.12.2019
2539 Clouds 31 1012 58 10000 2.1 30 13:56 16.12.2019
2540 Clouds 31 1012 55 10000 1.5 80 13:37 16.12.2019
2541 Clouds 31 1012 55 10000 1.5 80 13:19 16.12.2019
2542 Clouds 29 1011 55 10000 2.1 110 12:56 16.12.2019
2543 Clouds 29 1011 52 10000 2.6 120 12:38 16.12.2019
2544 Clouds 30 1011 52 10000 2.6 120 12:18 16.12.2019
2545 Clouds 30 1011 49 10000 3.6 90 11:55 16.12.2019
2546 Clouds 31 1010 49 10000 3.6 90 11:37 16.12.2019
2547 Clouds 33 1010 49 10000 3.6 90 11:19 16.12.2019
2548 Clouds 32 1010 52 10000 4.1 90 10:40 16.12.2019
2549 Clouds 32 1010 52 10000 4.1 90 10:40 16.12.2019
2550 Clouds 32 1010 52 10000 4.1 90 10:22 16.12.2019
2551 Clouds 33 1010 46 10000 3.1 100 09:59 16.12.2019
2552 Clouds 33 1010 46 10000 4.1 120 09:41 16.12.2019
2553 Clouds 33 1010 46 10000 4.1 120 09:23 16.12.2019
2554 Clouds 33 1011 49 10000 3.6 90 08:40 16.12.2019
2555 Clouds 33 1011 49 10000 3.6 90 08:20 16.12.2019
2556 Clouds 33 1011 49 10000 4.6 90 07:53 16.12.2019
2557 Clouds 32 1012 49 10000 5.1 90 07:31 16.12.2019
2558 Clouds 32 1012 49 10000 5.7 90 06:57 16.12.2019
2559 Clouds 32 1013 49 10000 5.1 90 06:39 16.12.2019
2560 Clouds 32 1013 49 10000 5.1 80 06:18 16.12.2019
2561 Clear 32 1014 55 9000 4.1 110 05:41 16.12.2019
2562 Clear 31 1014 55 9000 4.1 110 05:22 16.12.2019
2563 Clear 29 1013 61 7000 3.1 360 03:28 16.12.2019
2564 Clouds 26 1012 69 7000 2.1 340 01:46 16.12.2019
2565 Clouds 24 1011 78 8000 2.6 330 00:57 16.12.2019
2566 Clouds 24 1011 73 8000 2.1 340 00:38 16.12.2019
2567 Clouds 24 1011 73 8000 2.1 340 00:19 16.12.2019
2568 Clouds 24 1011 78 9000 2.6 350 23:44 15.12.2019
2569 Clouds 24 1011 78 9000 2.6 350 23:25 15.12.2019
2570 Clouds 24 1011 78 10000 2.6 340 22:57 15.12.2019
2571 Clouds 24 1011 73 10000 2.1 330 22:38 15.12.2019
2572 Clouds 24 1011 73 10000 2.1 330 22:38 15.12.2019
2573 Clouds 24 1011 73 10000 2.1 330 22:19 15.12.2019
2574 Clouds 25 1011 69 10000 2.1 340 21:58 15.12.2019
2575 Clouds 25 1011 73 10000 2.1 340 21:38 15.12.2019
2576 Clouds 25 1011 73 10000 2.1 340 21:20 15.12.2019
2577 Clouds 25 1011 69 10000 1.5 330 20:58 15.12.2019
2578 Clouds 26 1012 69 10000 2.1 340 20:39 15.12.2019
2579 Clouds 26 1012 69 10000 2.1 340 20:39 15.12.2019
2580 Clouds 26 1012 69 10000 2.1 340 20:21 15.12.2019
2581 Clouds 26 1012 65 10000 1.5 360 19:58 15.12.2019
2582 Clouds 26 1012 69 10000 2.1 340 19:40 15.12.2019
2583 Clouds 26 1012 69 10000 2.1 340 19:20 15.12.2019
2584 Clouds 26 1012 74 10000 2.54 63 18:57 15.12.2019
2585 Clouds 26 1013 65 10000 2.54 63 18:39 15.12.2019
2586 Clouds 26 1013 65 10000 2.54 63 18:19 15.12.2019
2587 Clouds 26 1013 65 10000 2.54 63 18:19 15.12.2019
2588 Clouds 27 1013 69 10000 2.67 72 17:56 15.12.2019
2589 Clouds 27 1013 61 10000 2.67 72 17:37 15.12.2019
2590 Clouds 27 1013 61 10000 2.97 64 17:19 15.12.2019
2591 Clouds 27 1013 61 10000 2.97 64 16:57 15.12.2019
2592 Clouds 27 1013 61 10000 3.12 66 16:39 15.12.2019
2593 Clouds 27 1013 61 10000 3.12 66 16:20 15.12.2019
2594 Clouds 28 1013 61 10000 3.12 66 15:55 15.12.2019
2595 Clouds 28 1013 61 10000 3.12 66 15:55 15.12.2019
2596 Clouds 28 1012 58 10000 1.5 120 15:37 15.12.2019
2597 Clouds 28 1012 58 10000 1.5 120 15:18 15.12.2019
2598 Clouds 28 1012 62 10000 1.5 120 14:55 15.12.2019
2599 Clouds 28 1012 62 10000 1.5 120 14:55 15.12.2019
2600 Clouds 27 1012 58 10000 2.1 120 14:36 15.12.2019
2601 Clouds 28 1012 58 10000 2.1 120 14:18 15.12.2019
2602 Clouds 29 1012 55 10000 2.1 120 13:55 15.12.2019
2603 Clouds 29 1011 55 10000 2.6 110 13:37 15.12.2019
2604 Clouds 29 1011 55 10000 2.6 110 13:18 15.12.2019
2605 Clouds 29 1011 55 10000 2.6 110 13:18 15.12.2019
2606 Clouds 30 1011 55 10000 2.6 110 12:56 15.12.2019
2607 Clouds 30 1011 52 10000 3.1 110 12:38 15.12.2019
2608 Clouds 30 1011 52 10000 3.1 110 12:19 15.12.2019
2609 Clouds 30 1011 46 10000 1.5 0 11:38 15.12.2019
2610 Clouds 33 1011 46 10000 1.5 0 11:20 15.12.2019
2611 Clouds 32 1011 46 10000 2.6 70 10:58 15.12.2019
2612 Clouds 34 1011 46 10000 3.6 70 10:40 15.12.2019
2613 Clouds 34 1011 46 10000 3.6 70 10:20 15.12.2019
2614 Clouds 34 1011 43 10000 2.1 80 09:59 15.12.2019
2615 Clouds 34 1011 46 10000 3.6 50 09:38 15.12.2019
2616 Clouds 34 1011 46 10000 3.6 50 09:20 15.12.2019
2617 Clouds 33 1011 46 10000 3.1 360 08:55 15.12.2019
2618 Clouds 33 1012 43 10000 2.1 0 08:37 15.12.2019
2619 Clouds 32 1012 43 10000 2.1 0 08:19 15.12.2019
2620 Clouds 32 1012 43 10000 2.1 0 07:53 15.12.2019
2621 Clouds 32 1013 41 9000 4.6 50 07:31 15.12.2019
2622 Clear 32 1014 43 9000 3.1 50 06:30 15.12.2019
2623 Clear 32 1015 45 9000 3.6 20 05:49 15.12.2019
2624 Clear 31 1015 45 9000 3.6 20 05:22 15.12.2019
2625 Clear 30 1015 48 9000 3.1 10 04:22 15.12.2019
2626 Clear 28 1015 57 7000 2.1 340 02:55 15.12.2019
2627 Clouds 27 1015 64 6000 2.6 340 02:32 15.12.2019
2628 Clouds 24 1014 69 6000 2.6 340 01:41 15.12.2019
2629 Clouds 23 1014 69 6000 2.6 340 01:19 15.12.2019
2630 Clouds 23 1013 69 7000 2.6 330 00:51 15.12.2019
2631 Clouds 23 1013 69 9000 1.5 330 00:32 15.12.2019
2632 Clouds 23 1013 73 9000 2.1 340 23:54 14.12.2019
2633 Clouds 23 1013 73 9000 2.1 340 23:36 14.12.2019
2634 Clouds 23 1013 69 9000 1.5 340 23:18 14.12.2019
2635 Clouds 24 1013 69 9000 1 20 22:42 14.12.2019
2636 Clouds 24 1013 69 9000 1 20 22:42 14.12.2019
2637 Clouds 24 1013 69 9000 1 20 22:23 14.12.2019
2638 Clouds 24 1013 73 9000 1 330 21:58 14.12.2019
2639 Clouds 24 1013 73 9000 1.5 340 21:40 14.12.2019
2640 Clouds 24 1013 73 9000 1.5 340 21:20 14.12.2019
2641 Clouds 24 1013 73 9000 2.1 350 20:59 14.12.2019
2642 Clouds 24 1013 73 9000 2.1 340 20:41 14.12.2019
2643 Clouds 24 1013 73 9000 2.1 340 20:20 14.12.2019
2644 Clouds 24 1014 69 9000 2.6 360 19:57 14.12.2019
2645 Clouds 25 1014 65 10000 3.1 340 19:39 14.12.2019
2646 Clouds 24 1014 65 10000 3.1 340 19:20 14.12.2019
2647 Clouds 25 1014 61 10000 2.6 340 18:56 14.12.2019
2648 Clouds 25 1014 57 10000 2.6 330 18:38 14.12.2019
2649 Clouds 26 1014 57 10000 2.6 330 18:19 14.12.2019
2650 Clouds 25 1014 57 10000 2.6 320 17:44 14.12.2019
2651 Clouds 26 1014 57 10000 2.6 320 17:24 14.12.2019
2652 Clouds 26 1014 61 10000 2.1 330 16:59 14.12.2019
2653 Clouds 26 1014 54 10000 1.5 340 16:40 14.12.2019
2654 Clouds 27 1014 54 10000 1.5 340 16:19 14.12.2019
2655 Clouds 27 1014 54 10000 2.1 320 15:43 14.12.2019
2656 Clouds 27 1014 54 10000 2.1 330 15:25 14.12.2019
2657 Clouds 27 1014 51 10000 2.6 350 14:59 14.12.2019
2658 Clouds 28 1013 51 10000 2.6 340 14:39 14.12.2019
2659 Clouds 28 1013 51 10000 2.6 340 14:20 14.12.2019
2660 Clouds 28 1013 54 10000 1.5 330 13:57 14.12.2019
2661 Clouds 28 1013 58 10000 0.53 323 13:39 14.12.2019
2662 Clouds 28 1013 58 10000 0.73 6 13:19 14.12.2019
2663 Clouds 28 1012 51 10000 1.5 130 12:55 14.12.2019
2664 Clouds 29 1012 51 10000 2.6 130 12:37 14.12.2019
2665 Clouds 29 1012 51 10000 2.6 130 12:18 14.12.2019
2666 Clouds 30 1012 48 10000 3.1 120 11:55 14.12.2019
2667 Clouds 30 1012 48 10000 3.1 110 11:37 14.12.2019
2668 Clouds 32 1012 46 10000 2.6 90 11:18 14.12.2019
2669 Clouds 31 1012 46 10000 2.6 90 10:55 14.12.2019
2670 Clouds 32 1012 43 10000 5.1 100 10:37 14.12.2019
2671 Clouds 32 1012 43 10000 5.1 100 10:18 14.12.2019
2672 Clouds 32 1012 43 10000 4.6 70 09:40 14.12.2019
2673 Clouds 32 1012 43 10000 4.6 70 09:40 14.12.2019
2674 Clouds 33 1012 43 10000 4.6 70 09:20 14.12.2019
2675 Clouds 33 1012 43 10000 4.6 70 09:20 14.12.2019
2676 Clouds 32 1013 43 10000 6.2 70 08:44 14.12.2019
2677 Clouds 31 1013 45 10000 4.6 70 08:20 14.12.2019
2678 Clouds 32 1014 43 10000 4.1 50 07:57 14.12.2019
2679 Clouds 31 1015 45 10000 3.1 80 07:38 14.12.2019
2680 Clouds 32 1015 45 10000 3.1 80 07:19 14.12.2019
2681 Clouds 32 1015 45 10000 3.1 80 07:19 14.12.2019
2682 Clouds 32 1016 48 10000 2.6 70 06:39 14.12.2019
2683 Clouds 31 1017 48 10000 3.1 100 06:20 14.12.2019
2684 Clouds 30 1017 51 10000 2.6 50 05:22 14.12.2019
2685 Clouds 27 1017 64 8000 2.6 80 02:49 14.12.2019
2686 Clouds 25 1017 69 8000 2.6 30 02:22 14.12.2019
2687 Clouds 24 1016 73 7000 1.5 350 01:43 14.12.2019
2688 Clouds 23 1015 77 7000 3.1 350 00:50 14.12.2019
2689 Clouds 23 1015 73 8000 2.6 340 00:29 14.12.2019
2690 Clouds 23 1015 73 9000 2.6 330 23:58 13.12.2019
2691 Clouds 22 1014 78 9000 2.6 330 23:39 13.12.2019
2692 Clouds 22 1014 78 9000 2.6 330 23:19 13.12.2019
2693 Clouds 22 1014 78 9000 2.6 340 22:55 13.12.2019
2694 Clouds 23 1014 73 9000 3.6 340 22:36 13.12.2019
2695 Clouds 23 1014 73 9000 3.6 340 22:36 13.12.2019
2696 Clouds 23 1014 73 9000 3.6 340 22:18 13.12.2019
2697 Clouds 23 1014 78 9000 2.6 350 21:39 13.12.2019
2698 Clouds 23 1014 78 9000 2.6 350 21:21 13.12.2019
2699 Clouds 23 1015 69 9000 2.1 360 20:54 13.12.2019
2700 Clouds 24 1015 73 9000 1.5 360 20:36 13.12.2019
2701 Clear 24 1015 73 9000 1.5 360 20:18 13.12.2019
2702 Clear 24 1015 73 9000 1.5 360 19:56 13.12.2019
2703 Clear 24 1015 73 9000 2.1 30 19:36 13.12.2019
2704 Clear 24 1016 78 9000 2.1 60 19:18 13.12.2019
2705 Clear 25 1016 69 9000 2.1 60 18:41 13.12.2019
2706 Clear 25 1016 69 9000 2.1 60 18:19 13.12.2019
2707 Clear 25 1016 65 9000 2.1 70 17:57 13.12.2019
2708 Clear 25 1016 61 9000 2.1 80 17:39 13.12.2019
2709 Clear 25 1016 61 9000 2.1 80 17:18 13.12.2019
2710 Clouds 26 1016 57 10000 1.5 110 16:54 13.12.2019
2711 Clouds 26 1016 57 10000 2.1 110 16:36 13.12.2019
2712 Clouds 26 1016 57 10000 2.1 110 16:18 13.12.2019
2713 Clouds 25 1016 57 10000 2.12 57 15:40 13.12.2019
2714 Clouds 25 1016 57 10000 2.12 57 15:20 13.12.2019
2715 Clouds 25 1015 61 10000 2.12 57 14:55 13.12.2019
2716 Clouds 25 1015 58 10000 1.5 130 14:36 13.12.2019
2717 Clouds 26 1015 58 10000 1.5 130 14:18 13.12.2019
2718 Clouds 28 1014 51 10000 1.5 120 13:41 13.12.2019
2719 Clouds 28 1014 51 10000 1.5 120 13:21 13.12.2019
2720 Clouds 29 1013 45 10000 2.1 70 12:44 13.12.2019
2721 Clouds 29 1013 45 10000 2.1 70 12:23 13.12.2019
2722 Clouds 29 1013 45 10000 3.1 40 11:58 13.12.2019
2723 Clouds 30 1013 40 10000 3.6 50 11:40 13.12.2019
2724 Clouds 31 1013 40 10000 3.6 50 11:22 13.12.2019
2725 Clouds 31 1013 40 10000 3.6 20 10:55 13.12.2019
2726 Clouds 31 1013 40 10000 3.6 40 10:37 13.12.2019
2727 Clouds 31 1013 40 10000 3.6 40 10:19 13.12.2019
2728 Clouds 31 1013 40 9000 2.6 360 09:39 13.12.2019
2729 Clouds 31 1013 40 9000 2.6 360 09:20 13.12.2019
2730 Clouds 32 1014 40 9000 2.6 90 08:42 13.12.2019
2731 Clouds 32 1014 40 9000 2.6 90 08:24 13.12.2019
2732 Clouds 31 1014 40 9000 1.56 81 07:46 13.12.2019
2733 Clouds 32 1015 40 9000 3.6 100 07:23 13.12.2019
2734 Clouds 31 1015 40 9000 2.1 60 06:55 13.12.2019
2735 Clouds 31 1016 40 9000 3.1 30 06:29 13.12.2019
2736 Clouds 31 1016 45 9000 2.1 40 05:47 13.12.2019
2737 Clouds 31 1017 48 9000 2.1 20 05:28 13.12.2019
2738 Clouds 28 1017 48 9000 2.6 10 04:46 13.12.2019
2739 Clouds 28 1017 54 7000 1.5 120 03:47 13.12.2019
2740 Mist 26 1016 69 5000 2.6 340 02:34 13.12.2019
2741 Mist 24 1015 69 5000 1.5 330 01:47 13.12.2019
2742 Mist 21 1014 88 5000 2.91 349 00:57 13.12.2019
2743 Clear 21 1014 77 7000 2.91 349 00:37 13.12.2019
2744 Clear 21 1013 73 7000 2.6 50 23:59 12.12.2019
2745 Clear 21 1013 73 7000 2.6 50 23:59 12.12.2019
2746 Clear 21 1013 82 8000 2.91 349 23:39 12.12.2019
2747 Clear 21 1013 82 8000 3 10 23:21 12.12.2019
2748 Clear 21 1013 82 8000 3 10 22:56 12.12.2019
2749 Clear 21 1013 82 8000 3 10 22:56 12.12.2019
2750 Clear 22 1013 77 8000 3 10 22:37 12.12.2019
2751 Clear 22 1013 77 8000 3 10 22:19 12.12.2019
2752 Clear 22 1013 77 8000 3 10 21:55 12.12.2019
2753 Clear 22 1013 77 8000 3 10 21:36 12.12.2019
2754 Clear 22 1013 77 8000 3 10 21:36 12.12.2019
2755 Clear 22 1013 77 8000 3 10 21:18 12.12.2019
2756 Clear 23 1013 73 8000 3 10 20:55 12.12.2019
2757 Clear 23 1014 73 8000 1 0 20:37 12.12.2019
2758 Clouds 23 1014 73 8000 1 0 20:19 12.12.2019
2759 Clouds 23 1014 69 9000 1.5 40 19:42 12.12.2019
2760 Clouds 23 1014 69 9000 1.5 40 19:23 12.12.2019
2761 Clouds 23 1014 69 9000 2.1 40 18:58 12.12.2019
2762 Clouds 23 1015 69 9000 2.1 50 18:40 12.12.2019
2763 Clouds 23 1015 69 9000 2.1 50 18:40 12.12.2019
2764 Clouds 23 1015 69 9000 2.1 50 18:21 12.12.2019
2765 Clouds 24 1015 64 9000 2.1 50 17:58 12.12.2019
2766 Clouds 24 1015 64 9000 2.1 70 17:40 12.12.2019
2767 Clouds 24 1015 64 9000 2.1 70 17:21 12.12.2019
2768 Clouds 25 1015 57 9000 2.1 60 16:58 12.12.2019
2769 Clouds 25 1015 54 9000 2.6 70 16:40 12.12.2019
2770 Clouds 25 1015 54 9000 2.6 70 16:21 12.12.2019
2771 Clouds 25 1015 54 9000 1.5 80 15:57 12.12.2019
2772 Clouds 26 1014 54 9000 1.5 100 15:39 12.12.2019
2773 Clouds 26 1014 54 9000 1.5 100 15:18 12.12.2019
2774 Clouds 26 1014 51 9000 1 0 14:38 12.12.2019
2775 Clouds 26 1014 51 9000 1 0 14:38 12.12.2019
2776 Clouds 27 1014 51 9000 1 0 14:20 12.12.2019
2777 Clouds 27 1013 48 9000 2.6 110 13:58 12.12.2019
2778 Clouds 27 1013 48 9000 2.6 110 13:40 12.12.2019
2779 Clouds 27 1013 48 9000 2.6 110 13:21 12.12.2019
2780 Clouds 28 1012 48 9000 3.1 110 12:59 12.12.2019
2781 Clouds 29 1012 45 9000 3.1 110 12:40 12.12.2019
2782 Clouds 29 1012 45 9000 3.1 110 12:22 12.12.2019
2783 Clouds 30 1011 42 9000 3.1 110 11:57 12.12.2019
2784 Clouds 30 1011 42 9000 3.6 100 11:38 12.12.2019
2785 Clear 29 1011 42 9000 3.6 100 11:19 12.12.2019
2786 Clear 30 1011 42 9000 3.1 120 10:56 12.12.2019
2787 Clear 30 1011 38 9000 4.1 80 10:38 12.12.2019
2788 Clear 30 1011 38 9000 4.1 80 10:20 12.12.2019
2789 Clear 31 1011 38 9000 3.1 130 09:55 12.12.2019
2790 Clear 32 1011 38 9000 3.1 100 09:37 12.12.2019
2791 Clear 32 1011 38 9000 2.6 130 09:18 12.12.2019
2792 Clear 32 1011 38 9000 2.6 130 08:43 12.12.2019
2793 Clear 31 1012 38 9000 4.1 110 08:25 12.12.2019
2794 Clouds 31 1012 37 9000 3.1 110 07:49 12.12.2019
2795 Clouds 31 1013 40 9000 3.6 80 07:26 12.12.2019
2796 Clouds 31 1014 40 9000 4.1 80 06:55 12.12.2019
2797 Clouds 30 1015 40 9000 3.1 0 06:35 12.12.2019
2798 Clouds 31 1016 42 7000 2.1 360 05:42 12.12.2019
2799 Clouds 29 1016 42 7000 2.1 10 04:54 12.12.2019
2800 Clouds 28 1016 54 7000 1 0 03:50 12.12.2019
2801 Clouds 26 1015 69 7000 2.1 350 02:40 12.12.2019
2802 Clear 24 1015 69 7000 2.1 350 02:21 12.12.2019
2803 Clear 22 1015 77 7000 3.1 340 01:46 12.12.2019
2804 Clear 22 1014 77 8000 2.1 350 01:28 12.12.2019
2805 Clouds 21 1013 73 9000 2.1 350 00:47 12.12.2019
2806 Clouds 21 1013 77 10000 2.1 20 00:20 12.12.2019
2807 Clouds 21 1013 68 10000 1.5 100 23:45 11.12.2019
2808 Clear 21 1013 68 10000 1.5 100 23:21 11.12.2019
2809 Clear 22 1013 68 10000 2.6 100 22:58 11.12.2019
2810 Clear 22 1013 68 10000 2.6 110 22:39 11.12.2019
2811 Clear 22 1013 68 10000 2.6 110 22:20 11.12.2019
2812 Clear 22 1012 68 10000 3.1 90 21:59 11.12.2019
2813 Clear 22 1013 68 9000 2.1 70 21:39 11.12.2019
2814 Clear 22 1013 68 9000 2.1 70 21:20 11.12.2019
2815 Clear 22 1013 73 9000 2.6 50 20:56 11.12.2019
2816 Clear 22 1013 73 9000 2.6 50 20:56 11.12.2019
2817 Clear 22 1013 73 8000 1.5 70 20:38 11.12.2019
2818 Clouds 22 1013 73 8000 1.5 70 20:19 11.12.2019
2819 Clouds 23 1014 73 8000 2.1 80 19:58 11.12.2019
2820 Clouds 22 1014 73 8000 2.97 72 19:39 11.12.2019
2821 Clouds 23 1014 73 8000 2.97 72 19:19 11.12.2019
2822 Clouds 23 1014 69 10000 3.1 120 18:42 11.12.2019
2823 Clouds 23 1014 69 10000 3.1 120 18:22 11.12.2019
2824 Clouds 23 1014 64 10000 2.1 140 17:57 11.12.2019
2825 Clouds 24 1014 60 10000 2.97 72 17:39 11.12.2019
2826 Clouds 24 1014 60 10000 2.1 308 17:19 11.12.2019
2827 Clouds 24 1014 53 10000 2.6 10 16:58 11.12.2019
2828 Clouds 24 1014 57 10000 2.1 10 16:40 11.12.2019
2829 Clouds 24 1014 57 10000 2.1 10 16:22 11.12.2019
2830 Clouds 25 1014 54 10000 2.1 10 15:59 11.12.2019
2831 Clouds 25 1014 54 10000 2.1 10 15:59 11.12.2019
2832 Clouds 25 1013 54 10000 2.6 350 15:40 11.12.2019
2833 Clouds 25 1013 54 10000 2.6 350 15:22 11.12.2019
2834 Clouds 25 1013 54 10000 3.1 340 14:56 11.12.2019
2835 Clouds 26 1013 54 10000 3.1 340 14:38 11.12.2019
2836 Clouds 26 1013 54 10000 3.1 340 14:20 11.12.2019
2837 Clouds 26 1012 54 10000 2.6 320 13:55 11.12.2019
2838 Clouds 26 1012 47 10000 3.1 340 13:37 11.12.2019
2839 Clouds 26 1012 47 10000 3.1 340 13:18 11.12.2019
2840 Clouds 27 1012 47 10000 0.5 0 12:55 11.12.2019
2841 Clouds 27 1011 45 10000 2.1 120 12:37 11.12.2019
2842 Clouds 27 1011 45 10000 2.1 120 12:18 11.12.2019
2843 Clouds 29 1011 42 10000 3.1 120 11:57 11.12.2019
2844 Clouds 29 1011 37 10000 3.1 110 11:37 11.12.2019
2845 Clouds 29 1011 37 10000 3.1 110 11:37 11.12.2019
2846 Clouds 30 1011 37 10000 3.1 110 11:18 11.12.2019
2847 Clouds 31 1010 40 10000 2.6 90 10:44 11.12.2019
2848 Clouds 31 1010 40 10000 2.6 90 10:26 11.12.2019
2849 Clouds 31 1011 40 10000 1 0 09:59 11.12.2019
2850 Clouds 31 1011 40 10000 2.6 40 09:38 11.12.2019
2851 Clouds 31 1011 40 10000 2.6 40 09:38 11.12.2019
2852 Clouds 31 1011 40 10000 2.6 40 09:20 11.12.2019
2853 Clouds 31 1011 37 10000 3.1 110 08:57 11.12.2019
2854 Clouds 31 1011 40 10000 2.6 60 08:37 11.12.2019
2855 Clouds 31 1011 40 10000 2.6 60 08:19 11.12.2019
2856 Clouds 31 1013 39 10000 2.6 120 07:45 11.12.2019
2857 Clouds 30 1013 39 10000 2.6 120 07:25 11.12.2019
2858 Clouds 31 1013 45 10000 2.1 310 06:47 11.12.2019
2859 Clouds 31 1014 45 10000 2.1 110 06:25 11.12.2019
2860 Clouds 30 1015 48 9000 2.1 10 05:58 11.12.2019
2861 Clouds 30 1015 47 9000 2.1 310 05:37 11.12.2019
2862 Clouds 27 1015 54 8000 2.1 310 04:57 11.12.2019
2863 Clouds 28 1015 60 8000 1 290 03:49 11.12.2019
2864 Mist 26 1015 73 5000 2.6 330 02:40 11.12.2019
2865 Mist 21 1014 68 5000 1 0 01:23 11.12.2019
2866 Clear 21 1013 68 7000 0.5 0 00:46 11.12.2019
2867 Clear 20 1013 72 7000 2.6 357 00:21 11.12.2019
2868 Clear 20 1013 77 7000 2.6 357 23:46 10.12.2019
2869 Clear 20 1013 77 7000 2.6 357 23:27 10.12.2019
2870 Clear 21 1012 68 7000 2.1 90 22:57 10.12.2019
2871 Clear 21 1012 82 7000 2.03 14 22:39 10.12.2019
2872 Clear 21 1012 82 7000 2.03 14 22:21 10.12.2019
2873 Clear 21 1012 77 7000 2.03 14 21:55 10.12.2019
2874 Clear 21 1012 68 9000 2.03 14 21:37 10.12.2019
2875 Clear 22 1012 68 9000 2.03 14 21:18 10.12.2019
2876 Clear 22 1012 73 9000 2.03 14 20:56 10.12.2019
2877 Clear 22 1012 73 9000 2.03 14 20:56 10.12.2019
2878 Clear 22 1013 73 9000 2.1 120 20:37 10.12.2019
2879 Clouds 22 1013 73 9000 2.1 120 20:18 10.12.2019
2880 Clouds 22 1013 60 10000 1.5 60 19:44 10.12.2019
2881 Clouds 22 1013 60 10000 1.5 60 19:26 10.12.2019
2882 Clouds 23 1013 60 10000 2.6 360 18:59 10.12.2019
2883 Clouds 23 1013 60 10000 2.6 360 18:39 10.12.2019
2884 Clouds 23 1013 60 10000 2.6 360 18:20 10.12.2019
2885 Clouds 23 1013 60 10000 2.1 360 17:55 10.12.2019
2886 Clouds 23 1013 57 10000 1.5 360 17:37 10.12.2019
2887 Clouds 24 1013 57 10000 1.5 360 17:19 10.12.2019
2888 Clouds 24 1013 57 10000 2.6 340 16:43 10.12.2019
2889 Clouds 24 1013 57 10000 2.6 340 16:20 10.12.2019
2890 Clouds 24 1013 57 10000 2.6 340 16:20 10.12.2019
2891 Clouds 24 1013 53 10000 2.6 350 15:55 10.12.2019
2892 Clouds 24 1013 50 10000 2.1 350 15:37 10.12.2019
2893 Clouds 24 1013 50 10000 2.1 350 15:18 10.12.2019
2894 Clouds 24 1013 50 10000 2.1 350 15:18 10.12.2019
2895 Clouds 24 1013 50 10000 2.1 350 15:18 10.12.2019
2896 Clouds 25 1012 50 10000 2.6 340 14:55 10.12.2019
2897 Clouds 25 1012 47 10000 2.6 320 14:36 10.12.2019
2898 Clouds 25 1012 47 10000 2.6 320 14:18 10.12.2019
2899 Clouds 26 1012 47 10000 2.6 330 13:56 10.12.2019
2900 Clouds 25 1012 47 10000 2.6 330 13:56 10.12.2019
2901 Clouds 26 1012 50 10000 3.1 320 13:37 10.12.2019
2902 Clouds 26 1012 50 10000 3.1 320 13:18 10.12.2019
2903 Clouds 26 1011 44 10000 3.1 10 12:40 10.12.2019
2904 Clouds 27 1011 44 10000 3.1 10 12:21 10.12.2019
2905 Clouds 28 1011 42 10000 2.6 90 11:42 10.12.2019
2906 Clouds 28 1011 42 10000 2.6 90 11:23 10.12.2019
2907 Clouds 29 1011 39 10000 1.5 80 10:56 10.12.2019
2908 Clouds 29 1011 39 10000 2.6 50 10:37 10.12.2019
2909 Clouds 29 1011 39 10000 2.6 50 10:19 10.12.2019
2910 Clouds 30 1011 39 10000 2.6 50 09:55 10.12.2019
2911 Clouds 29 1011 42 10000 2.1 50 09:37 10.12.2019
2912 Clouds 29 1011 42 10000 2.1 50 09:18 10.12.2019
2913 Clouds 29 1012 39 10000 2.1 120 08:42 10.12.2019
2914 Clear 29 1012 39 10000 2.1 120 08:23 10.12.2019
2915 Clear 28 1013 39 10000 2.1 0 07:58 10.12.2019
2916 Clear 28 1014 37 10000 3.1 60 07:40 10.12.2019
2917 Clear 30 1014 37 10000 3.1 60 07:22 10.12.2019
2918 Clear 30 1014 39 10000 2.6 0 06:46 10.12.2019
2919 Clear 30 1015 39 10000 2.1 110 06:19 10.12.2019
2920 Clear 29 1016 42 10000 2.1 0 05:53 10.12.2019
2921 Clouds 26 1016 47 10000 1.5 0 04:52 10.12.2019
2922 Clouds 25 1016 56 8000 1.5 20 03:37 10.12.2019
2923 Clouds 24 1016 64 7000 2.6 350 02:45 10.12.2019
2924 Mist 21 1015 72 5000 2.6 340 01:44 10.12.2019
2925 Mist 20 1015 72 5000 2.6 330 01:20 10.12.2019
2926 Clouds 20 1015 72 6000 2.6 340 00:41 10.12.2019
2927 Clouds 20 1015 72 6000 2.6 340 00:21 10.12.2019
2928 Clouds 20 1014 72 6000 2.6 330 23:41 09.12.2019
2929 Clear 20 1014 72 6000 2.6 330 23:22 09.12.2019
2930 Clear 20 1014 77 6000 1 0 22:58 09.12.2019
2931 Clear 20 1014 77 8000 2.1 320 22:39 09.12.2019
2932 Clear 20 1014 77 8000 2.1 320 22:19 09.12.2019
2933 Clear 21 1014 77 9000 1 0 21:56 09.12.2019
2934 Clear 21 1014 72 9000 3.74 329 21:38 09.12.2019
2935 Clear 21 1014 72 9000 3.74 329 21:18 09.12.2019
2936 Clear 21 1015 72 9000 3.74 329 20:56 09.12.2019
2937 Clear 21 1015 72 9000 3.74 329 20:56 09.12.2019
2938 Clear 21 1015 77 9000 3.74 329 20:38 09.12.2019
2939 Clouds 21 1015 77 9000 3.66 50 20:20 09.12.2019
2940 Clouds 21 1015 73 9000 3.66 50 19:55 09.12.2019
2941 Clouds 21 1015 73 9000 3.66 50 19:37 09.12.2019
2942 Clouds 21 1015 73 9000 3.66 50 19:19 09.12.2019
2943 Clouds 22 1016 68 9000 1 50 18:56 09.12.2019
2944 Clouds 22 1016 64 9000 1.5 50 18:37 09.12.2019
2945 Clouds 22 1016 64 9000 1.5 50 18:19 09.12.2019
2946 Clouds 22 1016 68 9000 3.66 50 17:57 09.12.2019
2947 Clouds 23 1016 64 9000 2.6 80 17:38 09.12.2019
2948 Clouds 23 1016 64 9000 2.6 80 17:19 09.12.2019
2949 Clouds 24 1016 60 8000 2.1 140 16:56 09.12.2019
2950 Clouds 24 1016 57 8000 1 120 16:37 09.12.2019
2951 Clouds 24 1016 57 8000 1 120 16:18 09.12.2019
2952 -273 0 0 0 0 0 15:55 09.12.2019
2953 Clouds 24 1016 60 8000 4.62 61 15:54 09.12.2019
2954 Clouds 24 1016 57 9000 1.5 150 15:36 09.12.2019
2955 Clouds 23 1016 57 9000 1.5 150 15:18 09.12.2019
2956 Clouds 23 1015 53 9000 4.62 61 14:41 09.12.2019
2957 Clouds 24 1015 53 9000 0.89 59 14:18 09.12.2019
2958 Clouds 24 1015 53 9000 1.5 90 13:56 09.12.2019
2959 Clouds 25 1015 53 9000 1.5 10 13:37 09.12.2019
2960 Clear 26 1015 53 9000 1.5 10 13:19 09.12.2019
2961 Clear 26 1014 50 9000 2.6 110 12:55 09.12.2019
2962 Clear 26 1014 47 9000 3.1 70 12:37 09.12.2019
2963 Clear 26 1014 47 9000 3.1 70 12:18 09.12.2019
2964 Clear 27 1013 44 9000 3.1 50 11:55 09.12.2019
2965 Clouds 28 1013 47 10000 3.1 70 11:36 09.12.2019
2966 Clouds 28 1013 47 10000 3.1 70 11:18 09.12.2019
2967 Clouds 28 1013 42 10000 2.1 20 10:39 09.12.2019
2968 Clouds 28 1013 42 10000 2.1 20 10:39 09.12.2019
2969 Clouds 28 1013 42 10000 2.1 20 10:20 09.12.2019
2970 Clouds 28 1013 42 10000 2.6 60 09:56 09.12.2019
2971 Clouds 29 1013 42 10000 3.1 0 09:37 09.12.2019
2972 Clouds 28 1013 42 10000 3.1 0 09:19 09.12.2019
2973 Clouds 29 1014 42 9000 3.6 80 08:40 09.12.2019
2974 Clouds 27 1014 42 9000 3.6 80 08:22 09.12.2019
2975 Clouds 27 1014 42 9000 3.1 110 07:52 09.12.2019
2976 Clear 27 1015 39 9000 5.1 60 07:34 09.12.2019
2977 Clear 28 1016 42 9000 3.1 100 06:59 09.12.2019
2978 Clear 28 1016 44 9000 2.1 20 06:32 09.12.2019
2979 Clear 27 1017 44 9000 2.1 10 05:51 09.12.2019
2980 Clear 26 1017 44 9000 2.1 0 05:24 09.12.2019
2981 Clear 24 1018 50 8000 1 0 04:28 09.12.2019
2982 Clear 23 1018 72 6000 2.1 350 02:35 09.12.2019
2983 Clouds 21 1017 72 6000 2.1 320 01:47 09.12.2019
2984 Clouds 19 1017 72 7000 1 300 00:59 09.12.2019
2985 Clouds 19 1017 77 8000 1.5 320 00:34 09.12.2019
2986 Clouds 19 1017 72 8000 1.5 320 23:57 08.12.2019
2987 Clear 19 1016 72 8000 2.1 310 23:37 08.12.2019
2988 Clear 19 1016 72 8000 2.1 310 23:19 08.12.2019
2989 Clear 20 1016 68 9000 2.6 300 22:56 08.12.2019
2990 Clear 20 1016 68 9000 2.1 310 22:38 08.12.2019
2991 Clear 20 1016 68 9000 2.1 310 22:18 08.12.2019
2992 Clear 20 1016 72 9000 2.1 310 21:56 08.12.2019
2993 Clear 20 1016 72 9000 0.5 0 21:37 08.12.2019
2994 Clear 20 1016 72 9000 0.5 0 21:19 08.12.2019
2995 Clear 20 1016 72 9000 0.5 0 21:19 08.12.2019
2996 Clear 21 1016 60 9000 0.5 0 20:55 08.12.2019
2997 Clear 21 1017 64 9000 2.43 358 20:37 08.12.2019
2998 Clear 21 1017 64 9000 3.78 9 20:19 08.12.2019
2999 Clear 21 1017 64 9000 3.78 9 19:55 08.12.2019
3000 Clear 21 1017 60 9000 3.78 9 19:37 08.12.2019
3001 Clear 21 1017 60 9000 3.78 9 19:18 08.12.2019
3002 Clear 21 1018 64 9000 3.78 9 18:54 08.12.2019
3003 Clear 21 1018 64 9000 3.78 9 18:54 08.12.2019
3004 Clear 21 1018 64 9000 1.5 60 18:36 08.12.2019
3005 Clear 21 1018 64 9000 1.5 60 18:18 08.12.2019
3006 Clear 22 1018 60 9000 1.5 80 17:54 08.12.2019
3007 Clear 22 1018 64 9000 1.5 70 17:36 08.12.2019
3008 Clear 22 1018 64 9000 1.5 70 17:18 08.12.2019
3009 Clear 22 1018 64 9000 1.5 70 17:18 08.12.2019
3010 Clear 22 1018 64 9000 5.15 48 16:55 08.12.2019
3011 Clear 22 1018 64 9000 5.15 48 16:37 08.12.2019
3012 Clear 22 1018 64 9000 5.15 48 16:18 08.12.2019
3013 Clear 23 1018 56 9000 1 0 15:37 08.12.2019
3014 Clear 23 1018 56 9000 1 0 15:18 08.12.2019
3015 Clear 23 1018 56 9000 1.5 100 14:57 08.12.2019
3016 Clear 23 1018 56 9000 1.5 100 14:57 08.12.2019
3017 Clear 24 1017 53 9000 2.1 110 14:37 08.12.2019
3018 Clouds 25 1017 53 9000 2.1 110 14:19 08.12.2019
3019 Clouds 25 1017 53 9000 2.1 110 14:19 08.12.2019
3020 Clouds 25 1017 53 10000 2.1 120 13:41 08.12.2019
3021 Clouds 25 1017 53 10000 2.1 120 13:41 08.12.2019
3022 Clouds 25 1017 53 10000 2.1 120 13:22 08.12.2019
3023 Clouds 25 1016 50 10000 3.6 120 12:59 08.12.2019
3024 Clouds 25 1016 41 10000 3.1 30 12:40 08.12.2019
3025 Clouds 25 1016 41 10000 3.1 30 12:20 08.12.2019
3026 Clouds 26 1016 39 10000 4.6 10 11:58 08.12.2019
3027 Clouds 27 1015 41 10000 5.1 30 11:37 08.12.2019
3028 Clouds 27 1015 41 10000 5.1 30 11:19 08.12.2019
3029 Clouds 28 1015 39 10000 5.7 20 10:55 08.12.2019
3030 Clouds 28 1015 39 10000 3.1 10 10:37 08.12.2019
3031 Clouds 28 1015 39 10000 3.1 10 10:19 08.12.2019
3032 Clouds 28 1015 39 9000 3.6 360 09:55 08.12.2019
3033 Clouds 28 1015 39 9000 3.6 10 09:36 08.12.2019
3034 Clouds 29 1015 39 9000 3.6 10 09:18 08.12.2019
3035 Clouds 28 1016 41 9000 2.6 0 08:41 08.12.2019
3036 Clouds 27 1016 41 9000 2.6 0 08:23 08.12.2019
3037 Clouds 27 1016 41 9000 1.5 0 07:49 08.12.2019
3038 Clouds 27 1017 41 9000 3.1 10 07:21 08.12.2019
3039 Clouds 27 1018 44 9000 1.5 0 06:59 08.12.2019
3040 Clouds 27 1018 47 9000 2.1 30 06:39 08.12.2019
3041 Clouds 27 1018 47 9000 2.1 30 06:19 08.12.2019
3042 Clouds 24 1019 47 9000 2.1 0 05:23 08.12.2019
3043 Clouds 24 1020 49 9000 1.5 0 04:23 08.12.2019
3044 Clear 24 1020 56 9000 1 0 03:38 08.12.2019
3045 Clear 22 1019 59 9000 2.1 40 02:42 08.12.2019
3046 Clear 20 1019 59 9000 2.1 40 02:20 08.12.2019
3047 Clear 20 1018 67 9000 2.1 50 01:35 08.12.2019
3048 Clear 19 1018 67 9000 2.6 50 00:52 08.12.2019
3049 -273 0 0 0 0 0 00:23 08.12.2019
3050 Clear 19 1017 63 10000 2.6 360 23:57 07.12.2019
3051 Clear 19 1016 63 10000 2.1 340 23:36 07.12.2019
3052 Clear 20 1016 63 10000 2.1 340 23:18 07.12.2019
3053 Clear 20 1016 59 10000 2.1 350 22:54 07.12.2019
3054 Clear 20 1016 55 10000 1.5 360 22:36 07.12.2019
3055 Clear 20 1016 55 10000 1.5 360 22:18 07.12.2019
3056 Clear 20 1016 55 10000 2.1 10 21:55 07.12.2019
3057 Clear 20 1016 59 10000 2.1 30 21:36 07.12.2019
3058 Clear 20 1016 59 10000 2.1 30 21:18 07.12.2019
3059 Clear 21 1017 59 10000 2.6 40 20:38 07.12.2019
3060 Clear 21 1017 59 10000 2.6 40 20:20 07.12.2019
3061 Clear 21 1017 52 10000 2.6 20 19:57 07.12.2019
3062 Clear 21 1017 59 10000 3.1 20 19:39 07.12.2019
3063 Clear 21 1017 59 10000 3.1 20 19:21 07.12.2019
3064 Clear 21 1017 52 10000 2.1 10 18:58 07.12.2019
3065 Clear 22 1018 49 10000 2.1 10 18:39 07.12.2019
3066 Clear 22 1018 49 10000 2.1 10 18:18 07.12.2019
3067 Clear 22 1018 49 10000 2.6 360 17:55 07.12.2019
3068 Clear 22 1018 49 10000 2.6 10 17:37 07.12.2019
3069 Clear 22 1018 49 10000 2.6 10 17:18 07.12.2019
3070 Clear 23 1018 49 10000 3.1 10 16:55 07.12.2019
3071 Clear 23 1018 52 10000 3.1 30 16:36 07.12.2019
3072 Clear 23 1018 52 10000 3.1 30 16:18 07.12.2019
3073 Clear 23 1017 49 10000 3.1 40 15:40 07.12.2019
3074 Clear 23 1017 49 10000 3.1 40 15:40 07.12.2019
3075 Clear 23 1017 49 10000 3.1 40 15:22 07.12.2019
3076 Clear 24 1017 47 10000 3.6 20 14:43 07.12.2019
3077 Clouds 24 1017 47 10000 3.6 20 14:20 07.12.2019
3078 Clouds 24 1017 46 10000 2.6 30 13:59 07.12.2019
3079 Clouds 24 1016 41 10000 2.6 60 13:39 07.12.2019
3080 Clouds 24 1016 41 10000 2.6 60 13:19 07.12.2019
3081 Clouds 25 1016 41 10000 4.1 20 12:55 07.12.2019
3082 Clouds 25 1015 38 10000 3.6 20 12:36 07.12.2019
3083 Clouds 26 1015 38 10000 3.6 20 12:18 07.12.2019
3084 Clouds 27 1015 39 10000 3.1 40 11:41 07.12.2019
3085 Clouds 27 1015 39 10000 3.1 40 11:41 07.12.2019
3086 Clouds 27 1015 39 10000 3.1 40 11:41 07.12.2019
3087 Clouds 27 1015 39 10000 3.1 40 11:23 07.12.2019
3088 Clouds 28 1015 39 10000 3.6 20 10:55 07.12.2019
3089 Clouds 28 1015 36 10000 4.1 60 10:36 07.12.2019
3090 Clouds 28 1015 36 10000 4.1 60 10:18 07.12.2019
3091 Clouds 28 1015 39 10000 4.1 40 09:39 07.12.2019
3092 Clouds 27 1015 39 10000 4.1 40 09:21 07.12.2019
3093 Clouds 27 1015 39 10000 4.1 20 08:45 07.12.2019
3094 Clouds 27 1015 39 10000 3.1 30 08:25 07.12.2019
3095 Clear 27 1016 41 10000 3.6 70 07:52 07.12.2019
3096 Clear 27 1016 39 10000 3.6 70 07:29 07.12.2019
3097 Clear 26 1017 41 10000 3.1 40 06:53 07.12.2019
3098 Clear 26 1018 41 10000 3.6 20 06:26 07.12.2019
3099 Clear 26 1018 44 10000 3.6 20 05:47 07.12.2019
3100 Clear 24 1019 43 10000 3.1 10 04:44 07.12.2019
3101 Clear 23 1020 46 10000 2.6 80 03:50 07.12.2019
3102 Clear 20 1019 52 10000 3.6 80 02:23 07.12.2019
3103 Clouds 19 1018 59 10000 2.6 70 01:42 07.12.2019
3104 Clouds 19 1018 59 10000 2.6 70 01:24 07.12.2019
3105 Clouds 19 1018 63 10000 1.5 60 00:22 07.12.2019
3106 Clouds 19 1017 63 10000 2.6 60 23:59 06.12.2019
3107 Clouds 19 1017 68 10000 2.1 60 23:40 06.12.2019
3108 Clear 20 1017 68 10000 2.1 60 23:20 06.12.2019
3109 Clear 20 1017 68 10000 2.6 30 22:39 06.12.2019
3110 Clear 20 1017 68 10000 2.6 30 22:39 06.12.2019
3111 Clear 20 1017 68 10000 2.6 30 22:21 06.12.2019
3112 Clear 20 1017 63 10000 2.1 40 21:59 06.12.2019
3113 Clear 21 1017 63 10000 2.6 50 21:41 06.12.2019
3114 Clear 21 1017 63 10000 2.6 50 21:20 06.12.2019
3115 Clear 21 1017 64 10000 1.5 40 20:56 06.12.2019
3116 Clear 21 1017 63 10000 2.1 50 20:38 06.12.2019
3117 Clear 21 1017 63 10000 2.1 50 20:19 06.12.2019
3118 Clear 21 1018 60 10000 2.6 20 19:42 06.12.2019
3119 Clear 21 1018 60 10000 2.6 20 19:24 06.12.2019
3120 Clear 22 1018 60 10000 2.6 20 18:59 06.12.2019
3121 Clear 21 1018 60 10000 2.1 50 18:40 06.12.2019
3122 Clear 22 1018 60 10000 2.1 50 18:21 06.12.2019
3123 Clear 22 1018 56 10000 1.5 90 17:58 06.12.2019
3124 Clear 23 1018 53 10000 4.1 30 17:40 06.12.2019
3125 Clouds 23 1018 53 10000 4.1 30 17:21 06.12.2019
3126 Clouds 23 1018 53 10000 2.6 40 16:56 06.12.2019
3127 Clouds 23 1018 53 10000 3.6 30 16:37 06.12.2019
3128 Clouds 24 1018 53 10000 3.6 30 16:18 06.12.2019
3129 Clouds 24 1018 49 10000 3.1 50 15:41 06.12.2019
3130 Clouds 24 1018 49 10000 3.1 50 15:22 06.12.2019
3131 Clouds 24 1018 53 10000 3.6 40 14:57 06.12.2019
3132 Clouds 25 1017 53 10000 2.6 30 14:39 06.12.2019
3133 Clear 25 1017 53 10000 2.6 30 14:19 06.12.2019
3134 Clear 25 1017 50 10000 2.1 40 13:46 06.12.2019
3135 Clear 25 1017 50 10000 2.1 40 13:46 06.12.2019
3136 Clear 25 1016 47 10000 2.1 90 13:26 06.12.2019
3137 Clear 26 1016 44 10000 2.6 120 12:56 06.12.2019
3138 Clear 26 1016 39 10000 4.1 20 12:38 06.12.2019
3139 Clear 27 1016 39 10000 4.1 20 12:20 06.12.2019
3140 Clear 28 1015 39 10000 4.1 40 11:42 06.12.2019
3141 Clear 28 1015 39 10000 4.1 40 11:23 06.12.2019
3142 Clear 28 1015 34 10000 5.1 60 10:55 06.12.2019
3143 Clear 28 1015 37 10000 3.6 20 10:37 06.12.2019
3144 Clear 28 1015 37 10000 3.6 20 10:18 06.12.2019
3145 Clear 29 1015 37 10000 3.1 30 09:55 06.12.2019
3146 Clear 28 1015 37 10000 3.1 360 09:36 06.12.2019
3147 Clear 28 1015 37 10000 3.1 360 09:18 06.12.2019
3148 Clear 29 1016 37 10000 4.6 30 08:40 06.12.2019
3149 Clouds 28 1016 37 10000 4.6 30 08:21 06.12.2019
3150 Clouds 27 1017 39 10000 3.1 10 07:38 06.12.2019
3151 Clouds 28 1017 39 10000 3.1 10 07:20 06.12.2019
3152 Clouds 29 1017 41 10000 3.6 40 06:48 06.12.2019
3153 Clouds 29 1018 41 10000 3.1 40 06:24 06.12.2019
3154 Clouds 28 1019 41 10000 3.1 20 05:46 06.12.2019
3155 Clouds 22 1020 56 10000 3.6 90 02:20 06.12.2019
3156 Clouds 21 1019 64 9000 1 0 01:43 06.12.2019
3157 Clouds 20 1019 68 10000 2.6 40 00:50 06.12.2019
3158 Clouds 20 1018 63 10000 3.6 30 00:23 06.12.2019
3159 Clouds 20 1018 63 10000 3.1 20 23:51 05.12.2019
3160 Clouds 20 1018 63 10000 3.1 20 23:51 05.12.2019
3161 Clouds 20 1018 72 10000 3.1 20 23:20 05.12.2019
3162 Clouds 20 1017 68 10000 3.6 20 22:58 05.12.2019
3163 Clouds 20 1017 72 10000 2.1 30 22:38 05.12.2019
3164 Clouds 20 1017 72 10000 2.1 30 22:19 05.12.2019
3165 Clouds 20 1017 68 10000 2.1 70 21:56 05.12.2019
3166 Clouds 21 1017 63 10000 2.1 70 21:37 05.12.2019
3167 Clouds 21 1017 63 10000 2.1 70 21:19 05.12.2019
3168 Clouds 21 1017 60 10000 3.1 40 20:55 05.12.2019
3169 Clouds 21 1017 60 10000 3.1 40 20:36 05.12.2019
3170 Clouds 21 1017 60 10000 3.1 30 20:18 05.12.2019
3171 Clouds 21 1017 60 10000 3.1 30 20:18 05.12.2019
3172 Clouds 22 1018 56 10000 4.1 30 19:40 05.12.2019
3173 Clouds 22 1018 56 10000 4.1 30 19:21 05.12.2019
3174 Clouds 22 1018 56 10000 4.1 30 18:58 05.12.2019
3175 Clouds 22 1018 56 10000 4.1 30 18:58 05.12.2019
3176 Clouds 22 1018 49 10000 4.6 30 18:38 05.12.2019
3177 Clouds 23 1018 49 10000 4.6 30 18:20 05.12.2019
3178 Clouds 23 1018 49 10000 4.6 30 18:20 05.12.2019
3179 Clouds 23 1018 49 10000 5.1 20 17:41 05.12.2019
3180 Clouds 23 1018 56 10000 3.1 30 17:20 05.12.2019
3181 Clouds 23 1018 53 10000 3.6 30 16:59 05.12.2019
3182 Clouds 23 1018 56 10000 3.6 40 16:40 05.12.2019
3183 Clouds 23 1018 56 10000 3.6 40 16:21 05.12.2019
3184 Clouds 24 1018 49 10000 4.1 40 15:58 05.12.2019
3185 Clouds 24 1018 56 10000 3.1 50 15:39 05.12.2019
3186 Clouds 24 1018 56 10000 3.1 50 15:20 05.12.2019
3187 Clouds 24 1018 60 10000 3.6 40 14:56 05.12.2019
3188 Clouds 24 1018 60 10000 3.6 40 14:56 05.12.2019
3189 Clouds 24 1017 53 10000 1.5 70 14:38 05.12.2019
3190 Clouds 25 1017 53 10000 1.5 70 14:19 05.12.2019
3191 Clouds 25 1017 50 10000 2.1 110 13:57 05.12.2019
3192 Clouds 25 1017 47 10000 2.1 120 13:39 05.12.2019
3193 Clouds 25 1017 47 10000 2.1 120 13:20 05.12.2019
3194 Clouds 26 1016 44 10000 2.1 50 12:57 05.12.2019
3195 Clouds 26 1016 44 10000 3.1 30 12:38 05.12.2019
3196 Clouds 26 1016 44 10000 3.1 30 12:20 05.12.2019
3197 Clouds 27 1015 39 10000 3.6 60 11:40 05.12.2019
3198 Clouds 28 1015 39 10000 3.6 60 11:22 05.12.2019
3199 Clouds 28 1015 39 10000 3.6 60 10:58 05.12.2019
3200 Clouds 28 1015 39 10000 3.6 60 10:40 05.12.2019
3201 Clouds 28 1015 39 10000 3.1 70 10:19 05.12.2019
3202 Clouds 28 1015 39 10000 3.6 50 09:55 05.12.2019
3203 Clouds 28 1015 39 10000 3.6 360 09:37 05.12.2019
3204 Clouds 27 1015 39 10000 3.6 360 09:18 05.12.2019
3205 Clouds 27 1015 39 10000 3.6 40 08:39 05.12.2019
3206 Clouds 28 1015 39 10000 3.6 40 08:21 05.12.2019
3207 Clear 28 1016 39 10000 3.6 30 07:59 05.12.2019
3208 Clear 27 1017 39 10000 3.1 60 07:39 05.12.2019
3209 Clear 27 1017 39 10000 3.1 60 07:20 05.12.2019
3210 Clear 28 1017 41 10000 3.6 50 06:46 05.12.2019
3211 Clear 27 1018 47 10000 3.6 70 06:23 05.12.2019
3212 Clear 29 1018 47 10000 4.6 50 05:49 05.12.2019
3213 Clear 26 1019 47 9000 3.6 80 05:24 05.12.2019
3214 Clear 24 1019 47 9000 2.6 100 04:28 05.12.2019
3215 Clear 25 1019 56 9000 2.6 60 03:31 05.12.2019
3216 Clear 25 1019 56 9000 2.6 60 03:31 05.12.2019
3217 Clear 25 1019 56 9000 2.6 30 02:40 05.12.2019
3218 Clear 22 1018 60 9000 3.1 30 02:21 05.12.2019
3219 Clear 21 1018 60 9000 2.6 350 01:49 05.12.2019
3220 Clear 20 1017 77 9000 1.5 360 01:21 05.12.2019
3221 Clear 20 1017 77 10000 1.5 40 00:38 05.12.2019
3222 Clear 20 1017 77 10000 1.5 40 00:19 05.12.2019
3223 Clear 20 1016 77 10000 2.1 50 23:45 04.12.2019
3224 Clear 20 1016 77 10000 1.5 50 23:22 04.12.2019
3225 Clear 20 1016 77 10000 1.5 50 23:22 04.12.2019
3226 Clear 20 1016 72 10000 2.6 60 22:57 04.12.2019
3227 Clear 20 1016 72 10000 3.6 60 22:37 04.12.2019
3228 Clear 20 1016 72 10000 3.6 60 22:19 04.12.2019
3229 Clear 20 1016 72 10000 3.1 60 21:56 04.12.2019
3230 Clear 21 1016 68 10000 3.1 60 21:37 04.12.2019
3231 Clear 21 1016 68 10000 3.1 60 21:18 04.12.2019
3232 Clear 21 1016 68 10000 3.1 60 21:18 04.12.2019
3233 Clear 21 1016 68 10000 2.6 60 20:56 04.12.2019
3234 Clear 22 1016 68 10000 2.6 50 20:38 04.12.2019
3235 Clear 22 1016 68 10000 2.6 50 20:19 04.12.2019
3236 Clear 22 1017 68 10000 2.1 80 19:41 04.12.2019
3237 Clear 23 1017 64 10000 8.34 60 19:22 04.12.2019
3238 Clear 23 1017 64 10000 2.1 40 18:59 04.12.2019
3239 Clear 23 1017 64 10000 2.1 40 18:40 04.12.2019
3240 Clear 23 1017 68 10000 2.6 50 18:22 04.12.2019
3241 Clear 23 1017 64 10000 2.6 60 17:58 04.12.2019
3242 Clear 23 1017 56 10000 2.6 90 17:38 04.12.2019
3243 Clear 24 1017 56 10000 2.6 90 17:18 04.12.2019
3244 Clear 24 1017 64 10000 2.6 50 16:41 04.12.2019
3245 Clear 24 1017 60 10000 3.1 50 16:21 04.12.2019
3246 Clear 24 1017 64 10000 2.6 40 15:59 04.12.2019
3247 Clear 24 1017 64 10000 2.6 40 15:41 04.12.2019
3248 Clear 25 1016 64 10000 3.1 50 15:21 04.12.2019
3249 Clear 25 1016 60 10000 2.6 50 14:59 04.12.2019
3250 Clear 25 1016 60 10000 2.6 50 14:41 04.12.2019
3251 Clouds 25 1016 57 10000 2.1 80 14:21 04.12.2019
3252 Clouds 25 1015 53 10000 2.1 110 13:56 04.12.2019
3253 Clouds 26 1015 53 10000 2.6 120 13:36 04.12.2019
3254 Clouds 26 1015 53 10000 2.6 120 13:18 04.12.2019
3255 Clouds 26 1014 50 10000 2.6 120 12:41 04.12.2019
3256 Clouds 26 1014 47 10000 2.6 80 12:23 04.12.2019
3257 Clouds 28 1014 44 10000 3.1 70 11:44 04.12.2019
3258 Clouds 29 1014 44 10000 3.1 80 11:26 04.12.2019
3259 Clouds 28 1013 44 10000 3.1 70 10:58 04.12.2019
3260 Clouds 28 1013 39 10000 2.1 20 10:40 04.12.2019
3261 Clouds 28 1013 39 10000 2.1 20 10:21 04.12.2019
3262 Clouds 29 1013 39 10000 5.1 50 09:44 04.12.2019
3263 Clouds 29 1013 44 10000 2.6 30 09:24 04.12.2019
3264 Clouds 29 1013 44 10000 2.6 30 09:24 04.12.2019
3265 Clouds 29 1014 42 9000 3.6 40 08:44 04.12.2019
3266 Clouds 28 1014 44 9000 3.6 60 08:26 04.12.2019
3267 Clouds 28 1015 47 9000 3.6 10 07:59 04.12.2019
3268 Clouds 28 1015 47 9000 2.6 50 07:40 04.12.2019
3269 Clouds 28 1015 47 9000 2.6 50 07:22 04.12.2019
3270 Clouds 29 1017 50 9000 2.6 160 06:32 04.12.2019
3271 Clouds 29 1018 53 9000 2.1 0 05:47 04.12.2019
3272 Clouds 25 1018 57 10000 3.6 70 04:39 04.12.2019
3273 Clouds 25 1018 60 10000 3.1 70 03:52 04.12.2019
3274 Clouds 22 1017 72 10000 3.6 20 01:53 04.12.2019
3275 Clouds 21 1016 77 10000 3.1 40 00:48 04.12.2019
3276 Clouds 21 1016 77 10000 4.6 40 00:22 04.12.2019
3277 Clouds 21 1016 72 10000 3.6 30 23:55 03.12.2019
3278 Clouds 21 1015 77 10000 2.6 30 23:36 03.12.2019
3279 Clouds 22 1015 77 10000 2.6 30 23:18 03.12.2019
3280 Clouds 22 1015 77 10000 2.6 50 22:39 03.12.2019
3281 Clouds 22 1015 77 10000 2.6 50 22:18 03.12.2019
3282 Clouds 22 1015 73 10000 2.1 60 21:57 03.12.2019
3283 Clouds 22 1015 73 10000 3.1 70 21:37 03.12.2019
3284 Clouds 22 1015 73 10000 3.1 70 21:18 03.12.2019
3285 Clouds 23 1015 68 10000 3.1 50 20:54 03.12.2019
3286 Clouds 23 1016 64 10000 3.1 60 20:36 03.12.2019
3287 Clouds 23 1016 64 10000 3.1 60 20:18 03.12.2019
3288 Clouds 24 1016 68 10000 3.6 60 19:54 03.12.2019
3289 Clouds 24 1016 68 10000 2.6 60 19:36 03.12.2019
3290 Clouds 24 1016 68 10000 2.6 60 19:18 03.12.2019
3291 Clouds 24 1016 69 10000 2.1 60 18:55 03.12.2019
3292 Clouds 24 1016 69 10000 2.1 80 18:36 03.12.2019
3293 Clouds 24 1016 69 10000 2.1 80 18:18 03.12.2019
3294 Clouds 25 1016 64 10000 2.1 50 17:39 03.12.2019
3295 Clouds 25 1016 64 10000 2.1 50 17:18 03.12.2019
3296 Clouds 25 1016 64 10000 2.6 60 16:58 03.12.2019
3297 Clouds 25 1016 64 10000 2.6 60 16:58 03.12.2019
3298 Clouds 25 1016 64 10000 2.6 60 16:58 03.12.2019
3299 Clouds 25 1016 69 10000 2.6 50 16:39 03.12.2019
3300 Clouds 25 1016 69 10000 2.6 50 16:20 03.12.2019
3301 Clouds 25 1016 69 10000 2.6 50 16:20 03.12.2019
3302 Clouds 25 1016 65 10000 3.1 50 15:57 03.12.2019
3303 Clouds 26 1016 65 10000 2.1 50 15:38 03.12.2019
3304 Clouds 26 1016 65 10000 2.1 50 15:19 03.12.2019
3305 Clouds 26 1015 61 10000 1.5 120 14:43 03.12.2019
3306 Clouds 27 1015 57 10000 2.1 120 14:20 03.12.2019
3307 Clouds 27 1014 54 10000 1.5 100 13:57 03.12.2019
3308 Clouds 27 1014 51 10000 1.5 50 13:37 03.12.2019
3309 Clouds 27 1014 51 10000 1.5 50 13:19 03.12.2019
3310 Clouds 27 1014 54 10000 2.1 40 12:41 03.12.2019
3311 Clouds 27 1013 54 10000 3.1 40 12:19 03.12.2019
3312 Clouds 27 1013 54 10000 3.1 40 12:19 03.12.2019
3313 Clouds 28 1013 51 10000 3.1 20 11:59 03.12.2019
3314 Clouds 29 1012 48 10000 3.1 30 11:39 03.12.2019
3315 Clouds 30 1012 48 10000 3.1 30 11:21 03.12.2019
3316 Clouds 30 1012 45 10000 3.6 30 10:59 03.12.2019
3317 Clouds 30 1012 45 10000 2.6 330 10:41 03.12.2019
3318 Clouds 30 1012 45 10000 2.6 330 10:20 03.12.2019
3319 Clouds 30 1012 48 10000 3.6 340 09:46 03.12.2019
3320 Clouds 30 1012 48 10000 3.6 340 09:46 03.12.2019
3321 Clouds 29 1012 51 10000 4.6 340 09:25 03.12.2019
3322 Clouds 31 1013 48 10000 4.6 330 08:59 03.12.2019
3323 Clouds 31 1013 48 10000 4.6 330 08:40 03.12.2019
3324 Clouds 30 1013 48 10000 4.1 310 08:22 03.12.2019
3325 Clouds 30 1013 51 10000 4.1 340 07:54 03.12.2019
3326 Clouds 31 1014 48 10000 2.6 130 07:30 03.12.2019
3327 Clouds 30 1015 51 10000 4.1 40 06:59 03.12.2019
3328 Clouds 30 1015 51 10000 2.6 300 06:21 03.12.2019
3329 Clouds 31 1016 51 10000 2.6 30 05:56 03.12.2019
3330 Clouds 27 1016 54 10000 3.6 100 04:48 03.12.2019
3331 Clouds 28 1016 60 10000 4.1 90 03:24 03.12.2019
3332 Clouds 28 1016 60 10000 4.1 100 02:58 03.12.2019
3333 Clouds 27 1016 60 10000 4.1 100 02:40 03.12.2019
3334 Clouds 25 1016 64 10000 5.1 100 02:21 03.12.2019
3335 Clouds 24 1015 69 10000 2.6 70 01:41 03.12.2019
3336 Clouds 24 1014 73 10000 3.1 70 01:21 03.12.2019
3337 Clouds 24 1014 73 10000 3.1 70 01:21 03.12.2019
3338 Clouds 23 1014 73 10000 2.1 60 00:44 03.12.2019
3339 Clouds 23 1013 73 10000 3.1 70 00:25 03.12.2019
3340 Clouds 23 1013 73 10000 2.1 90 23:44 02.12.2019
3341 Clouds 24 1013 73 10000 2.1 90 23:23 02.12.2019
3342 Clear 24 1013 69 10000 2.1 100 22:59 02.12.2019
3343 Clear 24 1013 69 10000 2.1 100 22:39 02.12.2019
3344 Clear 24 1013 69 10000 2.1 100 22:21 02.12.2019
3345 Clear 24 1013 69 10000 3.1 80 21:57 02.12.2019
3346 Clear 24 1013 64 10000 3.1 80 21:36 02.12.2019
3347 Clear 25 1013 64 10000 3.1 80 21:18 02.12.2019
3348 Clouds 25 1013 64 10000 3.6 90 20:55 02.12.2019
3349 Clouds 25 1013 64 10000 3.6 90 20:55 02.12.2019
3350 Clouds 25 1013 61 10000 4.6 90 20:37 02.12.2019
3351 Clouds 25 1013 61 10000 4.6 90 20:37 02.12.2019
3352 Clouds 25 1013 61 10000 4.6 90 20:18 02.12.2019
3353 Clouds 26 1014 61 10000 4.6 100 19:42 02.12.2019
3354 Clouds 26 1014 65 10000 4.1 100 19:21 02.12.2019
3355 Clouds 26 1014 61 10000 4.6 100 18:56 02.12.2019
3356 Clouds 26 1014 61 10000 4.6 90 18:37 02.12.2019
3357 Clouds 26 1014 61 10000 4.6 90 18:18 02.12.2019
3358 Clouds 27 1014 57 10000 6.2 90 17:41 02.12.2019
3359 Clouds 27 1014 57 10000 7.2 80 17:21 02.12.2019
3360 Clouds 28 1014 54 10000 6.7 80 16:59 02.12.2019
3361 Clouds 27 1014 54 10000 6.2 90 16:39 02.12.2019
3362 Clouds 27 1014 54 10000 6.2 90 16:39 02.12.2019
3363 Clouds 28 1014 54 10000 6.2 90 16:19 02.12.2019
3364 Clouds 28 1014 58 10000 5.7 90 15:57 02.12.2019
3365 Clouds 28 1013 54 10000 5.7 100 15:38 02.12.2019
3366 Clouds 28 1013 54 10000 5.7 100 15:20 02.12.2019
3367 Clouds 29 1013 54 10000 7.2 90 14:55 02.12.2019
3368 Clouds 29 1013 55 10000 4.1 90 14:37 02.12.2019
3369 Clouds 29 1013 55 10000 4.1 90 14:19 02.12.2019
3370 Clouds 29 1013 55 10000 4.1 90 14:19 02.12.2019
3371 Clouds 30 1012 55 10000 1.5 160 13:55 02.12.2019
3372 Clouds 30 1012 55 10000 1.5 160 13:55 02.12.2019
3373 Clouds 30 1012 55 10000 2.1 140 13:36 02.12.2019
3374 Clouds 30 1012 55 10000 2.1 140 13:18 02.12.2019
3375 Clouds 30 1011 55 10000 2.1 130 12:42 02.12.2019
3376 Clouds 30 1011 55 10000 2.1 130 12:42 02.12.2019
3377 Clouds 30 1011 55 10000 2.1 130 12:21 02.12.2019
3378 Clouds 30 1011 52 10000 3.1 130 11:57 02.12.2019
3379 Clouds 31 1011 52 10000 3.6 120 11:38 02.12.2019
3380 Clouds 31 1011 52 10000 3.6 120 11:19 02.12.2019
3381 Clouds 32 1010 46 10000 4.6 0 10:57 02.12.2019
3382 Clouds 32 1010 46 10000 3.6 100 10:38 02.12.2019
3383 Clouds 33 1010 46 10000 3.6 100 10:20 02.12.2019
3384 Clouds 32 1010 46 10000 4.1 110 09:42 02.12.2019
3385 Clouds 33 1011 46 10000 4.6 60 09:19 02.12.2019
3386 Clouds 33 1011 46 10000 4.6 60 09:19 02.12.2019
3387 Clouds 32 1011 46 10000 4.1 90 08:59 02.12.2019
3388 Clouds 32 1011 46 10000 4.1 90 08:40 02.12.2019
3389 Clouds 32 1011 46 10000 3.6 80 08:22 02.12.2019
3390 Clouds 32 1012 46 10000 4.6 70 07:45 02.12.2019
3391 Clouds 32 1012 46 10000 4.6 70 07:45 02.12.2019
3392 Clouds 32 1012 46 10000 4.1 90 07:25 02.12.2019
3393 Clouds 31 1013 52 10000 4.6 50 06:59 02.12.2019
3394 Clear 33 1013 48 10000 6.7 90 06:39 02.12.2019
3395 Clear 31 1014 52 10000 6.7 60 05:36 02.12.2019
3396 Clear 31 1014 52 10000 7.2 80 04:55 02.12.2019
3397 Clouds 30 1014 61 10000 5.7 80 02:58 02.12.2019
3398 Clouds 29 1014 69 10000 4.1 80 02:38 02.12.2019
3399 Clouds 27 1013 74 10000 2.6 70 01:45 02.12.2019
3400 Clouds 27 1013 74 10000 1.5 100 01:18 02.12.2019
3401 Clouds 26 1012 74 10000 1.5 120 00:33 02.12.2019
3402 Clouds 26 1012 74 10000 4.18 44 23:57 01.12.2019
3403 Clouds 26 1011 74 10000 1.5 70 23:39 01.12.2019
3404 Clouds 26 1011 74 10000 1.5 70 23:20 01.12.2019
3405 Clouds 27 1011 78 10000 2.1 100 22:56 01.12.2019
3406 Clouds 27 1011 74 10000 2.1 120 22:38 01.12.2019
3407 Clouds 27 1011 74 10000 2.1 120 22:18 01.12.2019
3408 Clouds 27 1011 69 10000 2.6 80 21:56 01.12.2019
3409 Clouds 27 1011 69 10000 3.6 60 21:38 01.12.2019
3410 Clouds 27 1011 69 10000 3.6 60 21:38 01.12.2019
3411 Clouds 27 1011 69 10000 3.6 60 21:18 01.12.2019
3412 Clouds 27 1011 74 10000 1.5 70 20:56 01.12.2019
3413 Clouds 27 1011 74 10000 3.64 23 20:37 01.12.2019
3414 Clouds 27 1011 74 10000 3.96 58 20:19 01.12.2019
3415 Clouds 27 1012 78 10000 3.96 58 19:55 01.12.2019
3416 Clouds 28 1012 78 10000 3.96 58 19:36 01.12.2019
3417 Clouds 27 1012 78 10000 3.96 58 19:18 01.12.2019
3418 Clouds 27 1012 78 10000 3.96 58 19:18 01.12.2019
3419 Clouds 28 1012 74 10000 3.96 58 18:55 01.12.2019
3420 Clouds 28 1012 74 10000 3.96 58 18:55 01.12.2019
3421 Clouds 28 1012 70 10000 3.96 58 18:36 01.12.2019
3422 Clouds 28 1012 70 10000 3.96 58 18:18 01.12.2019
3423 Clouds 28 1012 74 10000 3.96 58 17:55 01.12.2019
3424 Clouds 28 1012 70 10000 3.96 58 17:37 01.12.2019
3425 Clouds 28 1012 70 10000 4.62 68 17:19 01.12.2019
3426 Clouds 29 1012 70 10000 4.62 68 16:43 01.12.2019
3427 Clouds 29 1012 70 10000 4.62 68 16:23 01.12.2019
3428 Clouds 29 1012 66 10000 1.5 90 15:53 01.12.2019
3429 Clouds 29 1012 70 10000 4.62 68 15:33 01.12.2019
3430 Clouds 29 1011 70 10000 4.62 68 14:58 01.12.2019
3431 Clouds 29 1011 70 10000 4.62 68 14:58 01.12.2019
3432 Clouds 29 1011 70 10000 4.62 68 14:58 01.12.2019
3433 Clouds 29 1011 70 10000 4.62 68 14:37 01.12.2019
3434 Clouds 29 1011 70 10000 2.09 353 14:19 01.12.2019
3435 Clouds 30 1011 66 10000 2.09 353 13:40 01.12.2019
3436 Clouds 30 1011 62 10000 1 140 13:21 01.12.2019
3437 Clouds 30 1010 62 10000 2.6 130 12:47 01.12.2019
3438 Clouds 31 1010 52 10000 2.6 70 12:19 01.12.2019
3439 Clouds 31 1010 52 10000 2.6 40 11:43 01.12.2019
3440 Clouds 31 1010 52 10000 2.6 40 11:43 01.12.2019
3441 Clouds 33 1010 49 10000 4.1 50 11:24 01.12.2019
3442 Clouds 33 1009 49 10000 4.1 20 10:45 01.12.2019
3443 Clouds 33 1009 49 10000 2.1 40 10:22 01.12.2019
3444 Clouds 33 1009 52 10000 3.1 360 09:59 01.12.2019
3445 Clouds 33 1009 52 10000 3.1 360 09:40 01.12.2019
3446 Clouds 33 1010 52 10000 2.6 40 09:21 01.12.2019
3447 Clouds 34 1010 52 10000 3.1 20 08:48 01.12.2019
3448 Clouds 33 1010 55 10000 2.6 340 08:21 01.12.2019
3449 Clouds 33 1011 52 10000 3.1 20 07:52 01.12.2019
3450 Clouds 33 1011 52 10000 3.1 50 07:31 01.12.2019
3451 Clouds 33 1012 55 10000 3.1 60 06:57 01.12.2019
3452 Clouds 33 1012 52 10000 2.6 10 06:35 01.12.2019
3453 Clouds 32 1013 59 10000 3.1 90 05:49 01.12.2019
3454 Clouds 32 1014 58 10000 3.1 70 04:52 01.12.2019
3455 Clouds 31 1014 66 10000 2.1 60 03:31 01.12.2019
3456 Clouds 30 1013 74 10000 1 0 02:37 01.12.2019
3457 Clouds 29 1013 74 10000 1 0 02:18 01.12.2019
3458 Clouds 28 1013 78 9000 1.5 360 01:52 01.12.2019
3459 Clouds 27 1012 78 9000 3.97 345 01:25 01.12.2019
3460 Clouds 26 1012 74 9000 1 0 00:42 01.12.2019
3461 Clouds 26 1012 78 10000 1 30 00:24 01.12.2019
3462 Clouds 26 1011 78 10000 2.6 20 23:43 30.11.2019
3463 Clouds 27 1011 83 10000 2.1 30 23:24 30.11.2019
3464 Clouds 27 1011 78 10000 1.5 50 22:56 30.11.2019
3465 Clouds 27 1011 78 10000 1 50 22:38 30.11.2019
3466 Clouds 27 1011 78 10000 1 50 22:19 30.11.2019
3467 Clouds 27 1011 78 10000 1 50 22:19 30.11.2019
3468 Clouds 27 1011 78 10000 1.5 40 21:43 30.11.2019
3469 Clouds 27 1011 78 10000 1.5 40 21:24 30.11.2019
3470 Clouds 27 1011 78 10000 1.5 50 20:56 30.11.2019
3471 Clouds 27 1011 78 10000 1.86 353 20:38 30.11.2019
3472 Clouds 27 1011 78 10000 1.86 353 20:38 30.11.2019
3473 Clouds 27 1011 78 10000 2.73 76 20:19 30.11.2019
3474 Clouds 27 1011 74 10000 1.5 70 19:55 30.11.2019
3475 Clouds 27 1011 74 10000 1.5 70 19:37 30.11.2019
3476 Clouds 28 1011 74 10000 1.5 70 19:19 30.11.2019
3477 Clouds 28 1011 69 10000 2.73 76 18:56 30.11.2019
3478 Clouds 28 1012 66 10000 1 80 18:37 30.11.2019
3479 Clouds 28 1012 66 10000 1 80 18:19 30.11.2019
3480 Clouds 28 1012 66 10000 2.1 70 17:57 30.11.2019
3481 Clouds 28 1012 66 10000 1.5 80 17:38 30.11.2019
3482 Clouds 28 1012 66 10000 1.5 80 17:19 30.11.2019
3483 Clouds 28 1012 66 10000 3.33 94 16:56 30.11.2019
3484 Clouds 29 1012 66 10000 3.33 94 16:37 30.11.2019
3485 Clouds 29 1012 66 10000 3.33 94 16:18 30.11.2019
3486 Clouds 29 1011 62 10000 1.5 110 15:42 30.11.2019
3487 Clouds 29 1011 58 10000 1.5 100 15:19 30.11.2019
3488 Clouds 29 1012 58 10000 1.5 110 14:56 30.11.2019
3489 Clouds 29 1011 58 10000 2.1 110 14:38 30.11.2019
3490 Clouds 31 1011 58 10000 2.1 110 14:19 30.11.2019
3491 Clouds 31 1011 58 10000 2.1 120 13:57 30.11.2019
3492 Clouds 31 1011 58 10000 2.1 120 13:37 30.11.2019
3493 Clouds 31 1011 58 10000 2.1 120 13:19 30.11.2019
3494 Clouds 32 1011 55 10000 2.6 110 12:45 30.11.2019
3495 Clouds 32 1010 55 10000 3.6 110 12:27 30.11.2019
3496 Clouds 31 1010 52 10000 3.6 120 11:45 30.11.2019
3497 Clouds 32 1010 52 10000 4.6 110 11:20 30.11.2019
3498 Clouds 32 1009 52 10000 4.6 130 10:58 30.11.2019
3499 Clouds 32 1009 52 10000 4.1 110 10:39 30.11.2019
3500 Clouds 32 1009 52 10000 4.1 110 10:20 30.11.2019
3501 Clouds 32 1009 52 10000 4.6 70 09:47 30.11.2019
3502 Clouds 32 1010 49 10000 4.6 60 09:29 30.11.2019
3503 Clouds 33 1010 52 10000 4.6 40 08:45 30.11.2019
3504 Clouds 33 1010 52 10000 4.1 60 08:24 30.11.2019
3505 Clouds 33 1011 52 10000 3.1 100 07:59 30.11.2019
3506 Clouds 33 1011 55 10000 4.1 70 07:41 30.11.2019
3507 Clouds 33 1011 55 10000 4.1 70 07:22 30.11.2019
3508 Clouds 33 1013 52 10000 4.6 60 06:30 30.11.2019
3509 Clouds 32 1013 52 10000 5.1 70 05:58 30.11.2019
3510 Clouds 30 1014 58 10000 1 0 03:56 30.11.2019
3511 Clouds 30 1014 58 10000 0.5 0 03:18 30.11.2019
3512 Clouds 29 1014 61 10000 1.5 60 02:25 30.11.2019
3513 Clouds 27 1013 65 10000 2.1 360 01:50 30.11.2019
3514 Clouds 26 1013 69 10000 3.18 23 01:24 30.11.2019
3515 Clouds 26 1012 73 10000 2.89 30 00:38 30.11.2019
3516 Clouds 26 1012 73 10000 2.89 30 00:20 30.11.2019
3517 Clouds 26 1012 69 10000 3.1 330 23:44 29.11.2019
3518 Clouds 26 1012 69 10000 3.1 330 23:44 29.11.2019
3519 Clouds 26 1012 69 10000 2.1 360 23:23 29.11.2019
3520 Clouds 26 1012 69 10000 2.1 360 23:23 29.11.2019
3521 Clouds 26 1012 69 10000 2.6 340 22:48 29.11.2019
3522 Clouds 26 1011 69 10000 4.11 50 22:26 29.11.2019
3523 Clouds 26 1012 74 10000 4.11 50 21:55 29.11.2019
3524 Clouds 26 1011 69 10000 1.5 80 21:36 29.11.2019
3525 Clouds 26 1011 69 10000 1.5 80 21:18 29.11.2019
3526 Clouds 27 1012 69 10000 4.11 50 20:40 29.11.2019
3527 Clouds 27 1012 65 10000 1.5 80 20:22 29.11.2019
3528 Clouds 27 1012 65 10000 2.6 60 19:59 29.11.2019
3529 Clouds 27 1012 65 10000 2.6 60 19:41 29.11.2019
3530 Clouds 27 1012 65 10000 2.6 60 19:41 29.11.2019
3531 Clouds 28 1012 61 10000 3.1 30 19:21 29.11.2019
3532 Clouds 28 1012 58 10000 3.1 10 18:59 29.11.2019
3533 Clouds 28 1012 58 10000 3.1 10 18:40 29.11.2019
3534 Clouds 28 1012 62 10000 2.1 10 18:22 29.11.2019
3535 Clouds 28 1012 62 10000 2.6 340 17:47 29.11.2019
3536 Clouds 28 1013 58 10000 2.1 340 17:28 29.11.2019
3537 Clouds 28 1013 58 10000 1 350 16:59 29.11.2019
3538 Clouds 28 1013 58 10000 1 350 16:59 29.11.2019
3539 Clouds 28 1013 58 10000 1 350 16:41 29.11.2019
3540 Clouds 29 1013 58 10000 2.1 10 16:20 29.11.2019
3541 Clouds 29 1013 55 10000 2.1 10 15:43 29.11.2019
3542 Clouds 29 1013 58 10000 5.72 58 15:24 29.11.2019
3543 Clouds 29 1013 55 10000 1.5 10 14:59 29.11.2019
3544 Clouds 29 1012 58 10000 1.5 40 14:40 29.11.2019
3545 Clouds 30 1012 58 10000 1.5 40 14:21 29.11.2019
3546 Clouds 29 1012 58 10000 2.1 20 13:55 29.11.2019
3547 Clouds 29 1012 58 10000 2.1 70 13:37 29.11.2019
3548 Clouds 29 1012 58 10000 2.1 70 13:19 29.11.2019
3549 Clouds 29 1011 58 10000 2.1 80 12:41 29.11.2019
3550 Clouds 29 1011 58 10000 2.1 80 12:41 29.11.2019
3551 Clouds 29 1011 58 10000 3.1 70 12:23 29.11.2019
3552 Clouds 30 1011 52 10000 3.6 60 11:55 29.11.2019
3553 Clouds 30 1011 52 10000 3.6 30 11:37 29.11.2019
3554 Clouds 32 1011 52 10000 3.6 30 11:18 29.11.2019
3555 Clouds 32 1011 52 10000 2.6 40 10:57 29.11.2019
3556 Clouds 33 1011 49 10000 3.6 40 10:38 29.11.2019
3557 Clouds 32 1011 49 10000 3.6 40 10:19 29.11.2019
3558 Clouds 32 1011 49 10000 3.1 100 09:56 29.11.2019
3559 Clouds 33 1011 52 10000 4.1 360 09:38 29.11.2019
3560 Clouds 32 1011 52 10000 4.1 360 09:19 29.11.2019
3561 Clouds 32 1012 49 10000 3.6 50 08:41 29.11.2019
3562 Clouds 32 1012 49 10000 3.6 50 08:23 29.11.2019
3563 Clouds 32 1012 46 10000 3.1 10 07:59 29.11.2019
3564 Clouds 32 1012 46 10000 3.1 10 07:40 29.11.2019
3565 Clouds 32 1013 49 10000 3.6 20 07:22 29.11.2019
3566 Clouds 33 1013 52 10000 4.1 50 06:43 29.11.2019
3567 Clouds 32 1014 52 10000 3.6 80 05:48 29.11.2019
3568 Clouds 31 1015 55 10000 3.6 30 05:25 29.11.2019
3569 Clouds 30 1015 58 10000 4.6 50 04:35 29.11.2019
3570 Clouds 29 1015 61 10000 5.1 50 03:22 29.11.2019
3571 Clouds 28 1014 61 10000 4.6 70 02:32 29.11.2019
3572 Clouds 27 1013 65 10000 5.1 90 01:57 29.11.2019
3573 Clouds 27 1013 65 10000 5.1 90 01:57 29.11.2019
3574 Clouds 26 1013 65 10000 4.6 90 01:26 29.11.2019
3575 Clouds 26 1012 69 10000 4.6 90 00:45 29.11.2019
3576 Clouds 26 1012 69 10000 4.1 90 00:21 29.11.2019
3577 Clouds 26 1012 69 10000 4.1 100 23:57 28.11.2019
3578 Clouds 26 1012 69 10000 3.6 110 23:38 28.11.2019
3579 Clouds 26 1012 69 10000 3.6 110 23:20 28.11.2019
3580 Clouds 26 1011 69 10000 2.6 110 22:40 28.11.2019
3581 Clouds 26 1011 69 10000 2.6 110 22:21 28.11.2019
3582 Clouds 26 1011 69 10000 2.6 110 22:21 28.11.2019
3583 Clouds 27 1011 74 10000 2.1 130 21:59 28.11.2019
3584 Clouds 26 1011 74 10000 2.1 130 21:41 28.11.2019
3585 Clouds 26 1011 74 10000 2.1 80 21:20 28.11.2019
3586 Clouds 27 1012 69 10000 2.1 70 20:57 28.11.2019
3587 Clouds 27 1012 65 10000 2.1 70 20:39 28.11.2019
3588 Clouds 27 1012 65 10000 2.1 70 20:20 28.11.2019
3589 Clouds 28 1012 65 10000 2.1 40 19:56 28.11.2019
3590 Clouds 28 1012 65 10000 1.5 50 19:36 28.11.2019
3591 Clouds 28 1012 65 10000 1.5 50 19:18 28.11.2019
3592 Clouds 28 1012 65 10000 2.6 50 18:56 28.11.2019
3593 Clouds 28 1012 65 10000 3.1 70 18:38 28.11.2019
3594 Clouds 28 1012 65 10000 3.1 70 18:18 28.11.2019
3595 Clouds 28 1012 65 10000 3.1 70 17:42 28.11.2019
3596 -273 0 0 0 0 0 17:24 28.11.2019
3597 Clouds 30 1012 62 10000 3.6 50 16:59 28.11.2019
3598 Clouds 30 1012 62 10000 3.6 50 16:59 28.11.2019
3599 Clouds 31 1012 58 10000 4.1 70 16:40 28.11.2019
3600 Clouds 31 1012 58 10000 4.1 70 16:19 28.11.2019
3601 Clouds 31 1012 58 10000 4.1 70 16:19 28.11.2019
3602 -273 0 0 0 0 0 15:56 28.11.2019
3603 Clouds 30 1012 55 10000 3.6 60 15:37 28.11.2019
3604 Clouds 30 1012 55 10000 3.6 60 15:19 28.11.2019
3605 Clouds 30 1011 58 10000 2.6 70 14:42 28.11.2019
3606 Clouds 32 1011 62 10000 1.5 60 14:24 28.11.2019
3607 Clouds 32 1011 58 10000 7.26 63 13:59 28.11.2019
3608 Clouds 32 1011 58 10000 7.26 63 13:41 28.11.2019
3609 Clouds 32 1010 55 10000 2.1 130 13:22 28.11.2019
3610 Clouds 32 1010 52 10000 2.1 70 12:49 28.11.2019
3611 Clouds 33 1010 52 10000 2.1 80 12:29 28.11.2019
3612 Clouds 33 1009 49 10000 3.1 70 11:59 28.11.2019
3613 Clouds 33 1009 49 10000 4.1 50 11:41 28.11.2019
3614 Clouds 34 1009 49 10000 4.1 50 11:21 28.11.2019
3615 Clouds 34 1009 49 10000 4.1 40 10:59 28.11.2019
3616 Clouds 33 1009 49 10000 4.1 40 10:41 28.11.2019
3617 Clouds 34 1009 49 10000 3.1 40 10:20 28.11.2019
3618 Clouds 33 1009 49 10000 3.6 40 09:42 28.11.2019
3619 Clouds 34 1009 49 10000 3.6 80 09:24 28.11.2019
3620 Clouds 34 1010 49 10000 3.6 0 08:59 28.11.2019
3621 Clouds 34 1010 49 10000 3.6 0 08:40 28.11.2019
3622 Clouds 33 1010 49 10000 4.6 60 08:21 28.11.2019
3623 Clouds 33 1010 52 10000 5.7 80 07:43 28.11.2019
3624 Clouds 33 1011 52 10000 5.7 50 07:25 28.11.2019
3625 Clouds 34 1012 52 10000 6.7 50 06:57 28.11.2019
3626 Clouds 33 1012 49 10000 6.2 80 06:36 28.11.2019
3627 Clouds 33 1013 52 10000 6.7 60 05:53 28.11.2019
3628 Clouds 32 1013 52 10000 4.6 70 05:18 28.11.2019
3629 Clouds 32 1013 52 10000 4.6 70 05:18 28.11.2019
3630 Clouds 32 1013 52 10000 4.6 70 05:18 28.11.2019
3631 Clouds 28 1014 65 10000 4.6 80 02:51 28.11.2019
3632 Clouds 28 1013 69 10000 4.6 90 01:57 28.11.2019
3633 Clouds 27 1012 74 10000 3.6 90 00:49 28.11.2019
3634 Clouds 27 1011 83 10000 1 0 00:25 28.11.2019
3635 Clouds 27 1011 74 10000 1.5 80 23:56 27.11.2019
3636 Clouds 27 1011 74 10000 7.64 62 23:38 27.11.2019
3637 Clouds 27 1011 74 10000 5.79 54 23:19 27.11.2019
3638 Clouds 28 1011 74 10000 1.5 30 22:39 27.11.2019
3639 Clouds 28 1011 74 10000 1.5 30 22:20 27.11.2019
3640 Clouds 28 1010 74 10000 1 40 21:56 27.11.2019
3641 Clouds 28 1011 78 10000 2.1 40 21:38 27.11.2019
3642 Clouds 28 1011 78 10000 2.1 40 21:19 27.11.2019
3643 Clouds 28 1011 78 10000 2.1 30 20:59 27.11.2019
3644 Clouds 28 1011 78 10000 2.1 30 20:59 27.11.2019
3645 Clouds 28 1011 78 10000 2.1 30 20:40 27.11.2019
3646 Clouds 28 1011 74 10000 2.1 40 20:21 27.11.2019
3647 Clouds 30 1011 70 10000 2.6 50 19:58 27.11.2019
3648 Clouds 30 1011 66 10000 3.1 50 19:40 27.11.2019
3649 Clouds 30 1011 66 10000 3.1 50 19:22 27.11.2019
3650 Clouds 29 1011 62 10000 3.1 20 18:59 27.11.2019
3651 Clouds 29 1011 62 10000 2.6 360 18:38 27.11.2019
3652 Clouds 29 1011 62 10000 2.6 360 18:19 27.11.2019
3653 Clouds 29 1011 66 10000 2.1 10 17:58 27.11.2019
3654 Clouds 30 1011 66 10000 2.6 350 17:40 27.11.2019
3655 Clouds 30 1011 66 10000 2.6 350 17:20 27.11.2019
3656 Clouds 30 1012 62 10000 2.1 360 16:57 27.11.2019
3657 Clouds 31 1012 62 10000 2.1 360 16:38 27.11.2019
3658 Clouds 31 1012 62 10000 2.1 360 16:20 27.11.2019
3659 Clouds 31 1012 62 10000 2.6 340 15:57 27.11.2019
3660 Clouds 31 1011 55 10000 2.1 10 15:38 27.11.2019
3661 Clouds 31 1011 55 10000 2.1 10 15:20 27.11.2019
3662 Clouds 32 1011 55 10000 2.88 54 14:57 27.11.2019
3663 Clouds 32 1011 55 10000 0.5 40 14:39 27.11.2019
3664 Clouds 32 1011 55 10000 0.5 40 14:21 27.11.2019
3665 Clouds 32 1011 55 10000 0.61 40 13:56 27.11.2019
3666 Clouds 32 1010 55 10000 1.5 60 13:38 27.11.2019
3667 Clouds 32 1010 55 10000 1.5 60 13:19 27.11.2019
3668 Clouds 32 1010 55 10000 1.5 60 13:19 27.11.2019
3669 Clouds 32 1010 55 10000 1 0 12:54 27.11.2019
3670 Clouds 32 1010 55 10000 2.1 80 12:36 27.11.2019
3671 Clouds 32 1010 55 10000 1.5 60 12:18 27.11.2019
3672 Clouds 32 1009 52 10000 0.5 0 11:38 27.11.2019
3673 Clouds 33 1009 52 10000 3.1 60 11:19 27.11.2019
3674 Clouds 33 1009 52 10000 3.1 60 10:55 27.11.2019
3675 Clouds 33 1009 52 10000 3.1 30 10:37 27.11.2019
3676 Clouds 33 1009 52 10000 3.1 30 10:19 27.11.2019
3677 Clouds 33 1009 52 10000 4.1 60 09:42 27.11.2019
3678 Clouds 33 1009 52 10000 4.1 60 09:24 27.11.2019
3679 Clouds 34 1010 52 10000 3.1 30 08:43 27.11.2019
3680 Clouds 34 1010 52 10000 3.1 30 08:23 27.11.2019
3681 Clouds 34 1010 52 10000 3.1 30 08:23 27.11.2019
3682 Clouds 32 1010 49 10000 3.6 90 07:58 27.11.2019
3683 Clouds 33 1011 52 10000 4.6 100 07:39 27.11.2019
3684 Clouds 32 1011 52 10000 4.6 100 07:20 27.11.2019
3685 Clouds 32 1011 52 10000 4.6 100 07:20 27.11.2019
3686 Clouds 34 1012 52 10000 2.6 20 06:40 27.11.2019
3687 Clouds 32 1013 55 10000 2.1 360 06:20 27.11.2019
3688 Clouds 32 1013 58 10000 2.1 50 05:26 27.11.2019
3689 Clouds 31 1013 58 10000 3.1 30 04:56 27.11.2019
3690 Clouds 31 1013 58 10000 3.1 90 04:36 27.11.2019
3691 Clear 31 1014 58 10000 2.6 70 03:48 27.11.2019
3692 Clear 29 1013 66 10000 2.6 50 03:21 27.11.2019
3693 Clear 30 1013 62 10000 3.1 70 02:48 27.11.2019
3694 Clouds 27 1012 78 10000 0.5 70 01:26 27.11.2019
3695 Clouds 26 1011 74 10000 0.5 0 00:42 27.11.2019
3696 Clouds 26 1011 74 10000 0.5 0 00:23 27.11.2019
3697 Clouds 26 1011 74 10000 2.6 30 23:42 26.11.2019
3698 Clouds 26 1011 74 10000 2.6 30 23:24 26.11.2019
3699 Clouds 26 1011 74 10000 2.1 20 22:55 26.11.2019
3700 Clouds 27 1010 74 10000 2.6 20 22:36 26.11.2019
3701 Clouds 27 1010 74 10000 2.6 20 22:18 26.11.2019
3702 Clouds 27 1010 74 10000 2.6 40 21:39 26.11.2019
3703 Clouds 27 1010 74 10000 2.6 40 21:21 26.11.2019
3704 Clouds 27 1011 74 10000 2.6 60 20:57 26.11.2019
3705 Clouds 27 1011 65 10000 3.1 40 20:39 26.11.2019
3706 Clouds 27 1011 65 10000 3.1 40 20:19 26.11.2019
3707 Clouds 28 1011 65 10000 3.1 20 19:56 26.11.2019
3708 Clouds 28 1011 65 10000 2.1 10 19:38 26.11.2019
3709 Clouds 28 1011 65 10000 2.1 10 19:19 26.11.2019
3710 Clouds 28 1012 69 10000 2.1 340 18:58 26.11.2019
3711 Clouds 28 1012 66 10000 3.1 350 18:39 26.11.2019
3712 Clouds 28 1012 62 10000 2.1 40 18:21 26.11.2019
3713 Clouds 28 1012 62 10000 2.1 40 17:59 26.11.2019
3714 Clouds 28 1012 62 10000 1 50 17:40 26.11.2019
3715 Clouds 29 1012 66 10000 3.99 42 17:21 26.11.2019
3716 Clouds 29 1012 66 10000 3.99 42 16:57 26.11.2019
3717 Clouds 29 1012 58 10000 1 50 16:37 26.11.2019
3718 Clouds 29 1012 58 10000 1 50 16:19 26.11.2019
3719 Clouds 29 1012 58 10000 3.99 42 15:59 26.11.2019
3720 Clouds 29 1012 58 10000 3.99 42 15:59 26.11.2019
3721 Clouds 29 1012 58 10000 1.5 110 15:38 26.11.2019
3722 Clouds 29 1012 58 10000 1.5 110 15:20 26.11.2019
3723 Clouds 30 1012 58 10000 0.5 120 14:50 26.11.2019
3724 Clouds 30 1011 58 10000 2.1 120 14:26 26.11.2019
3725 Clouds 30 1011 52 10000 2.1 120 13:57 26.11.2019
3726 Clouds 31 1010 48 10000 2.1 80 13:38 26.11.2019
3727 Clouds 31 1010 48 10000 2.1 80 13:19 26.11.2019
3728 Clouds 30 1010 48 10000 3.6 30 12:39 26.11.2019
3729 Clouds 32 1009 46 10000 4.1 20 12:20 26.11.2019
3730 Clouds 32 1009 46 10000 4.1 20 11:58 26.11.2019
3731 Clouds 31 1009 46 10000 3.6 20 11:39 26.11.2019
3732 Clouds 33 1009 43 10000 2.1 30 11:20 26.11.2019
3733 Clouds 33 1009 43 10000 2.1 30 10:58 26.11.2019
3734 Clouds 33 1009 43 10000 4.1 20 10:40 26.11.2019
3735 Clouds 33 1009 43 10000 4.1 20 10:20 26.11.2019
3736 Clouds 33 1009 43 10000 4.1 20 10:20 26.11.2019
3737 Clouds 33 1009 43 10000 3.6 50 09:56 26.11.2019
3738 Clouds 33 1009 43 10000 3.1 360 09:37 26.11.2019
3739 Clouds 32 1009 43 10000 3.1 360 09:18 26.11.2019
3740 Clouds 33 1010 41 10000 3.6 80 08:43 26.11.2019
3741 Clouds 32 1010 43 10000 3.6 120 08:22 26.11.2019
3742 Clouds 33 1012 46 10000 3.1 30 07:44 26.11.2019
3743 Clouds 33 1012 46 10000 3.1 30 07:25 26.11.2019
3744 Clouds 33 1012 43 10000 4.1 50 06:55 26.11.2019
3745 Clouds 33 1013 43 10000 2.6 30 06:30 26.11.2019
3746 Clouds 32 1014 45 10000 2.1 60 05:41 26.11.2019
3747 Clouds 29 1015 54 10000 3.1 10 03:59 26.11.2019
3748 Clouds 27 1014 65 10000 3.1 350 02:26 26.11.2019
3749 Clouds 26 1013 64 10000 2.1 350 01:32 26.11.2019
3750 Clouds 25 1013 69 10000 2.1 20 00:50 26.11.2019
3751 Clouds 25 1013 69 10000 2.6 10 00:25 26.11.2019
3752 Clouds 25 1012 69 10000 2.1 70 23:40 25.11.2019
3753 Clouds 25 1012 69 10000 2.1 70 23:20 25.11.2019
3754 Clouds 25 1012 69 10000 2.6 30 22:58 25.11.2019
3755 Clouds 25 1012 64 10000 3.1 20 22:38 25.11.2019
3756 Clouds 25 1012 64 10000 3.1 20 22:18 25.11.2019
3757 Clouds 25 1012 73 10000 1.5 40 21:58 25.11.2019
3758 -273 0 0 0 0 0 21:39 25.11.2019
3759 Clouds 26 1012 65 10000 1.5 70 21:20 25.11.2019
3760 Clouds 26 1012 73 10000 1 70 20:56 25.11.2019
3761 Clouds 26 1013 69 10000 1.5 60 20:37 25.11.2019
3762 Clouds 26 1013 69 10000 1.5 60 20:19 25.11.2019
3763 Clouds 26 1013 69 10000 2.6 60 19:55 25.11.2019
3764 Clouds 27 1013 65 10000 3.1 50 19:37 25.11.2019
3765 Clouds 27 1014 65 10000 2.1 60 19:18 25.11.2019
3766 Clouds 27 1013 65 10000 3.1 50 19:18 25.11.2019
3767 Clouds 27 1014 65 10000 2.1 60 18:56 25.11.2019
3768 Clouds 27 1014 65 10000 3.1 40 18:38 25.11.2019
3769 Clouds 27 1014 65 10000 3.1 40 18:38 25.11.2019
3770 Clouds 27 1014 61 10000 3.6 20 18:19 25.11.2019
3771 Clouds 27 1014 61 10000 3.6 20 17:56 25.11.2019
3772 Clouds 27 1013 65 10000 2.6 40 17:37 25.11.2019
3773 Clouds 28 1014 61 10000 2.1 70 17:18 25.11.2019
3774 Clouds 28 1014 61 10000 2.1 70 16:55 25.11.2019
3775 Clouds 28 1014 62 10000 2.1 80 16:37 25.11.2019
3776 Clouds 28 1014 62 10000 2.1 80 16:18 25.11.2019
3777 Clouds 29 1013 55 10000 2.1 90 15:41 25.11.2019
3778 Clouds 29 1013 55 10000 2.1 90 15:20 25.11.2019
3779 Clouds 29 1013 55 10000 1.5 100 14:57 25.11.2019
3780 Clouds 29 1012 55 10000 1.5 120 14:39 25.11.2019
3781 Clouds 31 1012 55 10000 1.5 120 14:20 25.11.2019
3782 Clouds 31 1011 52 10000 2.6 120 13:40 25.11.2019
3783 Clouds 30 1011 52 10000 2.6 120 13:21 25.11.2019
3784 Clouds 31 1011 52 10000 2.6 120 12:59 25.11.2019
3785 Clouds 31 1011 52 10000 2.6 120 12:59 25.11.2019
3786 Clouds 30 1011 49 10000 2.6 110 12:40 25.11.2019
3787 Clouds 32 1011 49 10000 2.6 110 12:21 25.11.2019
3788 Clouds 32 1010 49 10000 2.1 110 11:57 25.11.2019
3789 Clouds 31 1010 46 10000 2.6 70 11:38 25.11.2019
3790 Clouds 33 1010 46 10000 2.6 70 11:19 25.11.2019
3791 Clouds 33 1010 46 10000 3.1 60 10:44 25.11.2019
3792 Clouds 33 1010 43 10000 3.1 60 10:26 25.11.2019
3793 Clouds 32 1010 43 10000 2.1 80 09:56 25.11.2019
3794 Clouds 33 1010 43 10000 2.6 20 09:38 25.11.2019
3795 Clouds 33 1010 43 10000 2.6 20 09:20 25.11.2019
3796 Clouds 32 1011 46 10000 2.6 0 08:40 25.11.2019
3797 Clouds 33 1011 46 10000 2.6 0 08:21 25.11.2019
3798 Clouds 33 1012 43 10000 4.1 40 07:42 25.11.2019
3799 Clouds 33 1012 43 10000 4.1 40 07:24 25.11.2019
3800 Clouds 34 1013 46 10000 3.1 70 06:48 25.11.2019
3801 Clouds 34 1014 46 10000 3.6 70 06:21 25.11.2019
3802 Clouds 34 1014 46 10000 3.6 70 06:21 25.11.2019
3803 Clouds 33 1014 48 10000 4.6 70 05:39 25.11.2019
3804 Clouds 31 1014 48 10000 6.7 70 04:52 25.11.2019
3805 Clouds 29 1015 58 8000 2.6 20 02:52 25.11.2019
3806 Clouds 27 1014 65 7000 2.6 340 02:20 25.11.2019
3807 Clouds 26 1013 69 9000 1 60 01:40 25.11.2019
3808 Clouds 25 1013 69 9000 1 60 01:21 25.11.2019
3809 Clouds 25 1012 73 9000 3.8 353 00:23 25.11.2019
3810 Clouds 25 1012 69 10000 1.5 330 23:58 24.11.2019
3811 Clouds 25 1011 69 10000 1.5 340 23:38 24.11.2019
3812 Clouds 25 1011 73 10000 2.1 340 23:19 24.11.2019
3813 Clouds 25 1011 73 10000 2.1 340 22:54 24.11.2019
3814 Clouds 25 1011 69 10000 2.6 360 22:36 24.11.2019
3815 Clouds 25 1011 69 10000 2.6 360 22:18 24.11.2019
3816 Clouds 25 1011 69 10000 2.6 360 22:18 24.11.2019
3817 Clouds 25 1011 69 10000 2.6 340 21:42 24.11.2019
3818 Clouds 26 1011 65 10000 1.5 360 21:21 24.11.2019
3819 Clouds 26 1012 69 10000 2.75 3 20:59 24.11.2019
3820 Clouds 26 1012 69 10000 2.75 3 20:59 24.11.2019
3821 Clouds 26 1012 65 10000 2.75 3 20:40 24.11.2019
3822 Clouds 26 1012 65 10000 1.99 43 20:20 24.11.2019
3823 Clouds 26 1012 65 10000 1.99 43 20:20 24.11.2019
3824 Clouds 27 1012 65 10000 1 70 19:57 24.11.2019
3825 Clear 27 1012 61 10000 1.5 50 19:39 24.11.2019
3826 Clear 27 1012 61 10000 1.5 50 19:21 24.11.2019
3827 Clear 26 1013 61 10000 1.5 50 18:59 24.11.2019
3828 Clear 26 1013 61 10000 1.5 50 18:59 24.11.2019
3829 Clear 27 1013 61 10000 2.1 50 18:38 24.11.2019
3830 Clear 27 1013 61 10000 1.5 20 18:20 24.11.2019
3831 Clear 27 1013 61 10000 1.5 20 17:58 24.11.2019
3832 Clear 27 1013 54 10000 2.1 350 17:40 24.11.2019
3833 Clear 27 1013 54 10000 2.1 350 17:21 24.11.2019
3834 Clear 28 1014 51 10000 2.1 320 16:58 24.11.2019
3835 Clear 28 1014 54 10000 1.55 346 16:39 24.11.2019
3836 Clear 28 1014 54 10000 1.55 346 16:21 24.11.2019
3837 Clear 28 1014 51 10000 2.1 30 15:46 24.11.2019
3838 Clear 28 1013 51 10000 2.1 10 15:27 24.11.2019
3839 Clear 29 1013 48 10000 2.6 340 14:59 24.11.2019
3840 Clear 29 1012 51 10000 0.5 0 14:39 24.11.2019
3841 Clear 28 1012 51 10000 0.5 0 14:19 24.11.2019
3842 Clear 28 1012 54 10000 1.24 282 13:56 24.11.2019
3843 Clear 29 1011 48 10000 1.24 282 13:37 24.11.2019
3844 Clear 28 1011 48 10000 0.81 287 13:19 24.11.2019
3845 Clear 29 1011 45 10000 1.5 100 12:42 24.11.2019
3846 Clear 30 1010 45 10000 2.1 70 12:20 24.11.2019
3847 Clear 30 1010 45 10000 2.1 70 11:59 24.11.2019
3848 Clear 30 1010 40 10000 3.1 110 11:37 24.11.2019
3849 Clear 30 1010 40 10000 3.1 110 11:37 24.11.2019
3850 Clouds 32 1010 40 10000 2.6 120 11:19 24.11.2019
3851 Clouds 33 1010 40 10000 2.6 120 10:47 24.11.2019
3852 Clouds 33 1010 38 10000 3.6 90 10:29 24.11.2019
3853 Clouds 34 1010 38 10000 4.1 110 09:59 24.11.2019
3854 Clear 34 1010 36 10000 4.1 100 09:38 24.11.2019
3855 Clear 33 1010 36 10000 4.1 100 09:19 24.11.2019
3856 Clear 34 1010 36 10000 1.5 0 08:56 24.11.2019
3857 Clear 34 1011 36 10000 3.1 100 08:36 24.11.2019
3858 Clear 34 1011 36 10000 3.1 100 08:18 24.11.2019
3859 Clear 33 1011 36 10000 2.6 0 07:45 24.11.2019
3860 Clear 33 1012 35 10000 3.6 80 07:20 24.11.2019
3861 Clear 34 1013 35 10000 3.1 60 06:21 24.11.2019
3862 Clear 30 1014 43 10000 4.1 60 04:49 24.11.2019
3863 Clear 30 1014 51 10000 2.1 60 03:41 24.11.2019
3864 Clouds 29 1013 65 10000 1.5 70 02:32 24.11.2019
3865 Clouds 25 1012 78 10000 2.1 60 01:41 24.11.2019
3866 Clouds 24 1012 78 10000 2.1 60 01:22 24.11.2019
3867 Clouds 24 1012 78 10000 2.1 60 01:22 24.11.2019
3868 Clouds 24 1012 78 10000 2.1 70 00:48 24.11.2019
3869 Clouds 23 1011 78 10000 2.6 60 00:24 24.11.2019
3870 Clouds 23 1011 73 10000 2.1 70 23:54 23.11.2019
3871 Clouds 24 1011 69 10000 3.1 90 23:36 23.11.2019
3872 Clouds 24 1011 69 10000 3.1 80 23:18 23.11.2019
3873 Clouds 24 1011 69 10000 3.1 80 22:54 23.11.2019
3874 Clouds 24 1011 69 10000 2.6 80 22:36 23.11.2019
3875 Clouds 24 1011 69 10000 2.6 80 22:18 23.11.2019
3876 Clouds 24 1011 65 10000 1.5 90 21:42 23.11.2019
3877 Clouds 25 1011 65 10000 1.12 44 21:22 23.11.2019
3878 Clouds 24 1011 73 10000 1.12 44 20:58 23.11.2019
3879 Clouds 25 1012 73 10000 1.12 44 20:37 23.11.2019
3880 Clouds 25 1012 73 10000 2.39 59 20:18 23.11.2019
3881 Clouds 25 1012 69 10000 1.5 70 19:55 23.11.2019
3882 Clouds 25 1012 65 10000 2.39 59 19:37 23.11.2019
3883 Clouds 25 1012 65 10000 2.39 59 19:18 23.11.2019
3884 Clouds 26 1012 69 10000 2.39 59 18:40 23.11.2019
3885 Clouds 26 1013 69 10000 2.39 59 18:21 23.11.2019
3886 Clouds 26 1013 69 10000 2.39 59 17:56 23.11.2019
3887 Clouds 26 1013 58 10000 2.39 59 17:38 23.11.2019
3888 Clouds 26 1013 61 10000 2 111 17:19 23.11.2019
3889 Clouds 26 1013 61 10000 2 111 16:56 23.11.2019
3890 Clouds 26 1013 61 10000 1.5 210 16:37 23.11.2019
3891 Clouds 26 1013 61 10000 1.5 210 16:37 23.11.2019
3892 Clouds 26 1013 61 10000 1.5 210 16:19 23.11.2019
3893 Clouds 27 1012 51 10000 2.1 150 15:56 23.11.2019
3894 Clouds 27 1012 51 10000 2.1 150 15:38 23.11.2019
3895 Clouds 28 1012 51 10000 2.1 150 15:18 23.11.2019
3896 Clouds 28 1012 51 10000 1.5 120 14:43 23.11.2019
3897 Clouds 29 1012 51 10000 1.5 120 14:22 23.11.2019
3898 Clouds 29 1011 51 10000 1.32 195 13:59 23.11.2019
3899 Clouds 29 1011 45 10000 1 90 13:40 23.11.2019
3900 Clouds 29 1011 45 10000 1 90 13:19 23.11.2019
3901 Clouds 30 1011 40 10000 2.6 320 12:44 23.11.2019
3902 Clouds 30 1011 40 10000 2.6 320 12:24 23.11.2019
3903 Clouds 31 1010 38 10000 3.1 310 11:58 23.11.2019
3904 Clouds 32 1010 38 10000 2.6 320 11:40 23.11.2019
3905 Clouds 32 1010 33 10000 2.1 60 11:18 23.11.2019
3906 Clouds 32 1010 36 10000 3.1 60 10:43 23.11.2019
3907 Clouds 33 1010 36 10000 3.1 60 10:21 23.11.2019
3908 Clouds 33 1010 38 10000 3.6 30 09:41 23.11.2019
3909 Clouds 33 1010 38 10000 3.6 30 09:19 23.11.2019
3910 Clouds 32 1011 36 10000 3.6 50 08:42 23.11.2019
3911 Clouds 32 1011 36 10000 3.6 50 08:19 23.11.2019
3912 Clouds 32 1011 36 10000 4.1 40 07:52 23.11.2019
3913 Clouds 32 1012 41 10000 2.1 20 07:34 23.11.2019
3914 Clouds 34 1013 43 10000 2.6 80 06:43 23.11.2019
3915 Clouds 34 1014 43 10000 3.1 90 06:19 23.11.2019
3916 Clouds 34 1014 48 10000 3.1 90 05:46 23.11.2019
3917 Clouds 33 1014 48 10000 3.1 90 05:27 23.11.2019
3918 Clouds 30 1014 48 10000 3.6 80 04:44 23.11.2019
3919 Clouds 30 1015 55 10000 2.6 80 04:26 23.11.2019
3920 Clouds 29 1014 65 10000 1.5 80 02:39 23.11.2019
3921 Clouds 26 1013 73 10000 4.63 337 01:42 23.11.2019
3922 Clouds 25 1013 78 10000 4.44 340 00:54 23.11.2019
3923 Clouds 25 1013 78 10000 4.44 340 00:54 23.11.2019
3924 Clouds 24 1013 83 10000 1 40 00:36 23.11.2019
3925 Clouds 24 1012 78 10000 1.5 70 00:18 23.11.2019
3926 Clouds 24 1012 78 10000 1.5 70 00:18 23.11.2019
3927 Clouds 24 1012 78 10000 1.5 70 00:18 23.11.2019
3928 Clouds 24 1012 78 10000 1 40 23:38 22.11.2019
3929 Clouds 24 1012 78 10000 2.1 60 23:20 22.11.2019
3930 Clouds 24 1012 78 10000 2.1 60 22:57 22.11.2019
3931 Clouds 24 1012 78 10000 2.1 60 22:57 22.11.2019
3932 Clouds 24 1012 78 10000 1.5 60 22:38 22.11.2019
3933 Clouds 24 1012 78 10000 1.5 60 22:19 22.11.2019
3934 Clouds 25 1012 78 10000 1.5 60 21:57 22.11.2019
3935 Clouds 25 1012 74 10000 1.5 60 21:38 22.11.2019
3936 Clouds 25 1012 74 10000 1.5 60 21:18 22.11.2019
3937 Clouds 26 1012 74 10000 1.5 60 20:42 22.11.2019
3938 Clouds 27 1012 69 10000 1 100 20:22 22.11.2019
3939 Clouds 27 1012 69 10000 2.84 76 19:54 22.11.2019
3940 Clouds 27 1013 69 10000 2.84 76 19:36 22.11.2019
3941 Clouds 27 1013 69 10000 2.84 76 19:18 22.11.2019
3942 Clouds 27 1013 61 10000 2.84 76 18:39 22.11.2019
3943 Clouds 27 1013 61 10000 2.84 76 18:21 22.11.2019
3944 Clouds 28 1013 61 10000 2.6 320 17:43 22.11.2019
3945 Clouds 28 1013 61 10000 2.1 310 17:24 22.11.2019
3946 Clouds 28 1013 61 10000 1.5 30 16:58 22.11.2019
3947 Clouds 28 1013 61 10000 2.36 325 16:40 22.11.2019
3948 Clouds 28 1013 61 10000 2.36 325 16:21 22.11.2019
3949 Clouds 27 1013 61 10000 1 30 15:40 22.11.2019
3950 Clouds 27 1013 61 10000 2.36 325 15:22 22.11.2019
3951 Clouds 28 1013 61 10000 2.36 325 14:55 22.11.2019
3952 Clouds 28 1013 61 10000 2.36 325 14:55 22.11.2019
3953 Clouds 28 1012 61 10000 2.36 325 14:37 22.11.2019
3954 Clouds 28 1012 61 10000 2.47 273 14:19 22.11.2019
3955 Clouds 29 1012 51 10000 1.5 120 13:39 22.11.2019
3956 Clouds 29 1012 51 10000 1.5 120 13:20 22.11.2019
3957 Clouds 30 1011 51 10000 1.5 110 12:59 22.11.2019
3958 Clouds 30 1011 51 10000 1.5 80 12:40 22.11.2019
3959 Clouds 30 1011 51 10000 1.5 80 12:40 22.11.2019
3960 Clouds 30 1011 51 10000 1.5 80 12:20 22.11.2019
3961 Clouds 31 1011 48 10000 2.6 90 11:59 22.11.2019
3962 Clouds 31 1011 45 10000 3.1 100 11:38 22.11.2019
3963 Clouds 31 1011 45 10000 3.1 100 11:19 22.11.2019
3964 Clouds 31 1011 45 10000 3.1 100 11:19 22.11.2019
3965 Clouds 32 1011 43 10000 3.6 110 10:57 22.11.2019
3966 Clouds 32 1011 43 10000 3.1 120 10:39 22.11.2019
3967 Clouds 32 1011 43 10000 3.1 120 10:21 22.11.2019
3968 Clouds 33 1011 43 10000 3.1 140 09:55 22.11.2019
3969 Clouds 33 1011 40 10000 3.6 90 09:37 22.11.2019
3970 Clouds 32 1011 40 10000 3.6 90 09:18 22.11.2019
3971 Clouds 33 1011 38 10000 4.1 70 08:42 22.11.2019
3972 Clouds 32 1011 43 10000 3.6 100 08:22 22.11.2019
3973 Clouds 33 1011 43 10000 3.6 60 07:44 22.11.2019
3974 Clouds 33 1012 45 10000 4.1 50 07:22 22.11.2019
3975 Clouds 34 1013 43 10000 4.1 80 06:49 22.11.2019
3976 Clouds 33 1013 46 10000 3.1 90 06:29 22.11.2019
3977 Clouds 32 1014 45 10000 3.6 80 05:44 22.11.2019
3978 Clouds 30 1015 54 10000 1.5 0 04:18 22.11.2019
3979 Clouds 29 1015 65 10000 2.1 60 02:47 22.11.2019
3980 Clouds 28 1014 69 10000 2.1 50 02:28 22.11.2019
3981 Clouds 25 1014 78 10000 1.5 60 01:45 22.11.2019
3982 Clouds 25 1014 73 10000 1.5 70 01:19 22.11.2019
3983 Clouds 25 1013 78 10000 4.28 41 00:49 22.11.2019
3984 Clouds 25 1013 78 10000 4.28 41 00:23 22.11.2019
3985 Clouds 25 1013 78 10000 0.5 40 23:44 21.11.2019
3986 Clouds 25 1012 78 10000 2.1 40 23:26 21.11.2019
3987 Clouds 25 1012 78 10000 2.1 50 22:58 21.11.2019
3988 Clouds 25 1012 78 10000 1.5 60 22:38 21.11.2019
3989 Clouds 25 1012 78 10000 1.5 60 22:20 21.11.2019
3990 Clouds 25 1012 78 10000 2.1 60 21:56 21.11.2019
3991 Clouds 25 1012 78 10000 1.5 70 21:37 21.11.2019
3992 Clouds 25 1012 78 10000 1.5 70 21:18 21.11.2019
3993 Clouds 25 1012 78 10000 1.5 60 20:57 21.11.2019
3994 Clouds 25 1013 83 10000 2.1 70 20:38 21.11.2019
3995 Clouds 26 1013 83 10000 2.1 70 20:19 21.11.2019
3996 Clouds 25 1013 83 10000 2.1 70 19:58 21.11.2019
3997 Clouds 25 1013 83 10000 2.1 70 19:58 21.11.2019
3998 Clouds 25 1013 83 10000 1.5 70 19:38 21.11.2019
3999 Clouds 25 1013 83 10000 1.5 70 19:20 21.11.2019
4000 Clouds 26 1013 74 10000 1.5 50 18:55 21.11.2019
4001 Clouds 26 1013 69 10000 2.1 120 18:37 21.11.2019
4002 Clouds 26 1013 69 10000 2.1 120 18:18 21.11.2019
4003 Clouds 27 1014 65 10000 1.5 120 17:41 21.11.2019
4004 Clouds 27 1014 65 10000 1.5 120 17:22 21.11.2019
4005 Clouds 27 1014 65 10000 2.1 120 16:59 21.11.2019
4006 Clouds 28 1014 65 10000 1.5 110 16:40 21.11.2019
4007 Clouds 28 1014 65 10000 1.5 110 16:21 21.11.2019
4008 Clouds 28 1014 58 10000 1.5 100 15:56 21.11.2019
4009 Clouds 28 1013 58 10000 1.5 100 15:37 21.11.2019
4010 Clouds 28 1013 58 10000 1.5 100 15:19 21.11.2019
4011 Clouds 28 1013 62 10000 1.5 60 14:39 21.11.2019
4012 Clouds 29 1013 62 10000 1.5 60 14:21 21.11.2019
4013 Clouds 30 1012 58 10000 2.1 80 13:59 21.11.2019
4014 Clouds 30 1012 58 10000 2.1 90 13:38 21.11.2019
4015 Clouds 30 1012 58 10000 2.1 90 13:19 21.11.2019
4016 Clouds 31 1012 55 10000 3.1 110 12:43 21.11.2019
4017 Clouds 31 1011 55 10000 3.6 110 12:24 21.11.2019
4018 Clouds 31 1011 48 10000 4.1 110 11:56 21.11.2019
4019 Clouds 31 1011 52 10000 4.1 100 11:38 21.11.2019
4020 Clouds 31 1011 52 10000 4.1 100 11:38 21.11.2019
4021 Clouds 31 1011 52 10000 4.1 100 11:20 21.11.2019
4022 Clouds 31 1011 52 10000 4.1 100 11:20 21.11.2019
4023 Clouds 32 1011 52 10000 4.6 100 10:44 21.11.2019
4024 Clouds 32 1011 46 10000 5.1 110 10:25 21.11.2019
4025 Clouds 32 1011 46 10000 5.1 110 10:25 21.11.2019
4026 Clouds 32 1011 46 10000 4.1 90 09:59 21.11.2019
4027 Clouds 33 1011 46 10000 4.1 90 09:41 21.11.2019
4028 Clouds 33 1011 46 10000 4.6 110 09:23 21.11.2019
4029 Clouds 32 1011 46 10000 5.7 100 08:55 21.11.2019
4030 Clouds 32 1011 46 10000 3.6 80 08:37 21.11.2019
4031 Clouds 32 1011 46 10000 3.6 80 08:18 21.11.2019
4032 Clouds 32 1012 46 10000 5.1 70 07:39 21.11.2019
4033 Clouds 33 1012 46 10000 5.1 70 07:18 21.11.2019
4034 Clouds 33 1013 46 10000 4.1 80 06:45 21.11.2019
4035 Clouds 33 1013 48 10000 4.1 70 06:24 21.11.2019
4036 Clouds 32 1014 52 10000 4.1 60 05:27 21.11.2019
4037 Clouds 30 1015 58 10000 4.1 70 03:25 21.11.2019
4038 Clouds 28 1014 69 10000 3.1 120 02:35 21.11.2019
4039 Clouds 26 1014 73 10000 3.1 120 01:52 21.11.2019
4040 Clouds 25 1013 73 10000 2.1 120 01:21 21.11.2019
4041 Clouds 25 1013 78 10000 2.1 110 00:41 21.11.2019
4042 Clouds 24 1013 73 10000 2.1 110 00:20 21.11.2019
4043 Clouds 25 1012 73 10000 2.1 90 23:51 20.11.2019
4044 Clouds 25 1012 83 10000 1.5 60 23:23 20.11.2019
4045 Clouds 25 1012 83 10000 2.1 40 22:58 20.11.2019
4046 Clouds 26 1012 73 10000 2.1 50 22:40 20.11.2019
4047 Clouds 26 1012 73 10000 2.1 50 22:20 20.11.2019
4048 Clouds 26 1012 73 10000 2.1 60 21:59 20.11.2019
4049 Clouds 25 1012 73 10000 2.1 50 21:40 20.11.2019
4050 Clouds 25 1012 73 10000 2.1 50 21:21 20.11.2019
4051 Clouds 26 1012 69 10000 2.6 90 20:58 20.11.2019
4052 Clouds 26 1012 69 10000 3.1 70 20:40 20.11.2019
4053 Clouds 27 1012 69 10000 3.1 70 20:21 20.11.2019
4054 Clouds 27 1013 65 10000 3.6 90 19:57 20.11.2019
4055 Clouds 26 1013 74 10000 3.1 70 19:37 20.11.2019
4056 Clouds 25 1013 74 10000 3.1 70 19:19 20.11.2019
4057 Clouds 27 1013 74 10000 3.1 60 18:59 20.11.2019
4058 Clouds 27 1013 69 10000 3.1 70 18:39 20.11.2019
4059 Clouds 27 1013 69 10000 3.1 70 18:21 20.11.2019
4060 Clouds 27 1013 69 10000 2.1 70 17:57 20.11.2019
4061 Clouds 28 1013 69 10000 2.1 60 17:39 20.11.2019
4062 Clouds 28 1013 69 10000 2.1 60 17:20 20.11.2019
4063 Clouds 28 1013 61 10000 2.1 90 16:57 20.11.2019
4064 Clouds 28 1013 61 10000 1.5 90 16:38 20.11.2019
4065 Clouds 28 1013 61 10000 1.5 90 16:18 20.11.2019
4066 Clouds 28 1013 61 10000 2.1 70 15:42 20.11.2019
4067 Clouds 29 1013 58 10000 1.5 90 15:22 20.11.2019
4068 Clouds 30 1012 58 10000 2.1 90 14:59 20.11.2019
4069 Clouds 30 1012 58 10000 2.1 110 14:40 20.11.2019
4070 Clouds 30 1012 58 10000 2.1 110 14:40 20.11.2019
4071 Clouds 29 1012 58 10000 2.1 110 14:22 20.11.2019
4072 Clouds 30 1012 55 10000 2.1 110 13:58 20.11.2019
4073 Clouds 30 1012 55 10000 2.1 110 13:58 20.11.2019
4074 Clouds 30 1011 55 10000 1.5 100 13:39 20.11.2019
4075 Clouds 30 1011 55 10000 1.5 100 13:20 20.11.2019
4076 Clouds 30 1011 55 10000 2.1 120 12:55 20.11.2019
4077 Clouds 30 1010 55 10000 3.1 110 12:36 20.11.2019
4078 Clouds 30 1010 55 10000 3.1 110 12:18 20.11.2019
4079 Clouds 31 1010 52 10000 4.6 110 11:40 20.11.2019
4080 Clouds 32 1010 52 10000 4.6 110 11:21 20.11.2019
4081 Clouds 33 1010 52 10000 4.6 110 10:55 20.11.2019
4082 Clouds 33 1010 52 10000 3.6 90 10:37 20.11.2019
4083 Clouds 33 1010 52 10000 3.6 90 10:37 20.11.2019
4084 Clouds 33 1010 52 10000 3.6 90 10:19 20.11.2019
4085 Clouds 34 1010 52 10000 3.1 100 09:43 20.11.2019
4086 Clouds 33 1010 52 10000 4.1 50 09:21 20.11.2019
4087 Clouds 33 1010 52 10000 4.1 50 09:21 20.11.2019
4088 Clouds 33 1010 52 10000 3.6 80 08:56 20.11.2019
4089 Clouds 32 1011 49 10000 3.6 70 08:37 20.11.2019
4090 Clouds 32 1011 49 10000 3.6 70 08:19 20.11.2019
4091 Clouds 32 1011 55 10000 4.6 80 07:45 20.11.2019
4092 Clouds 33 1012 55 10000 5.1 100 07:25 20.11.2019
4093 Clouds 32 1012 52 10000 6.2 90 06:48 20.11.2019
4094 Clouds 31 1013 55 10000 4.6 90 06:21 20.11.2019
4095 Clouds 30 1014 55 10000 5.1 80 04:52 20.11.2019
4096 Clouds 30 1014 61 10000 2.6 110 03:30 20.11.2019
4097 Clouds 27 1014 69 10000 3.1 90 02:21 20.11.2019
4098 Clouds 26 1013 78 10000 2.1 60 01:32 20.11.2019
4099 Clouds 25 1012 78 10000 2.1 30 00:40 20.11.2019
4100 Clouds 25 1011 78 10000 2.1 60 23:52 19.11.2019
4101 Clouds 25 1011 73 10000 2.6 80 23:25 19.11.2019
4102 Clouds 25 1011 69 10000 2.1 90 22:57 19.11.2019
4103 Clouds 25 1011 69 10000 2.1 90 22:57 19.11.2019
4104 Clouds 26 1011 69 10000 3.1 90 22:39 19.11.2019
4105 Clouds 26 1011 69 10000 3.1 90 22:19 19.11.2019
4106 Clouds 26 1011 69 10000 3.1 90 22:19 19.11.2019
4107 Clouds 26 1011 65 10000 4.1 70 21:55 19.11.2019
4108 Clouds 26 1011 65 10000 4.1 90 21:37 19.11.2019
4109 Clouds 26 1011 65 10000 4.1 90 21:37 19.11.2019
4110 Clouds 26 1011 65 10000 4.1 90 21:19 19.11.2019
4111 Clouds 26 1011 65 10000 4.1 90 21:19 19.11.2019
4112 Clouds 26 1011 65 10000 2.6 100 20:55 19.11.2019
4113 Clouds 27 1012 65 10000 3.6 90 20:36 19.11.2019
4114 Clouds 28 1012 65 10000 3.6 90 20:18 19.11.2019
4115 Clouds 27 1012 69 10000 2.6 90 19:55 19.11.2019
4116 Clouds 27 1012 69 10000 1.5 90 19:37 19.11.2019
4117 Clouds 28 1012 69 10000 1.5 90 19:18 19.11.2019
4118 Clouds 28 1012 65 10000 2.1 110 18:41 19.11.2019
4119 Clouds 28 1012 65 10000 2.6 110 18:22 19.11.2019
4120 Clouds 27 1012 69 10000 1.5 80 17:59 19.11.2019
4121 Clouds 28 1012 65 10000 1.5 80 17:41 19.11.2019
4122 Clouds 28 1012 65 10000 1.5 80 17:41 19.11.2019
4123 Clouds 28 1012 65 10000 1.5 80 17:21 19.11.2019
4124 Clouds 28 1012 65 10000 2.1 60 16:59 19.11.2019
4125 Clouds 29 1012 65 10000 2.1 50 16:41 19.11.2019
4126 Clouds 29 1012 65 10000 2.1 50 16:21 19.11.2019
4127 Clouds 29 1012 65 10000 2.1 50 16:21 19.11.2019
4128 Clouds 28 1012 58 10000 1.5 80 15:47 19.11.2019
4129 Clouds 29 1012 58 10000 2.1 100 15:27 19.11.2019
4130 Clouds 30 1012 55 10000 1.5 110 14:58 19.11.2019
4131 Clouds 30 1011 55 10000 2.1 110 14:39 19.11.2019
4132 Clouds 30 1011 55 10000 2.1 110 14:21 19.11.2019
4133 Clouds 30 1011 55 10000 2.1 110 13:57 19.11.2019
4134 Clouds 31 1011 55 10000 2.1 120 13:38 19.11.2019
4135 Clouds 31 1011 55 10000 2.1 120 13:18 19.11.2019
4136 Clouds 31 1010 48 10000 2.6 120 12:39 19.11.2019
4137 Clouds 31 1010 48 10000 2.6 120 12:21 19.11.2019
4138 Clouds 31 1009 49 10000 4.6 110 11:56 19.11.2019
4139 Clouds 32 1009 49 10000 4.6 110 11:37 19.11.2019
4140 Clouds 32 1009 49 10000 4.6 110 11:37 19.11.2019
4141 Clouds 32 1009 49 10000 4.6 110 11:19 19.11.2019
4142 Clouds 32 1009 46 10000 4.1 110 10:44 19.11.2019
4143 Clouds 33 1009 38 10000 3.1 40 10:21 19.11.2019
4144 Clouds 33 1009 38 10000 3.6 360 09:45 19.11.2019
4145 Clouds 34 1009 34 10000 3.6 70 09:22 19.11.2019
4146 Clouds 34 1009 38 10000 4.1 40 08:59 19.11.2019
4147 Clouds 34 1009 38 10000 3.1 30 08:40 19.11.2019
4148 Clouds 34 1009 38 10000 3.1 30 08:22 19.11.2019
4149 Clouds 34 1010 41 10000 3.1 100 07:56 19.11.2019
4150 Clouds 34 1010 43 10000 4.6 120 07:37 19.11.2019
4151 Clouds 34 1010 43 10000 4.6 120 07:18 19.11.2019
4152 Clouds 35 1011 38 10000 3.6 70 06:42 19.11.2019
4153 Clouds 34 1011 41 10000 4.1 90 06:19 19.11.2019
4154 Clouds 32 1013 46 10000 3.1 80 05:19 19.11.2019
4155 Clouds 32 1013 48 10000 5.1 80 03:41 19.11.2019
4156 Clouds 31 1013 51 10000 5.7 80 03:19 19.11.2019
4157 Clouds 30 1013 58 8000 4.1 90 02:49 19.11.2019
4158 Clouds 28 1012 78 7000 2.6 120 01:49 19.11.2019
4159 Mist 27 1012 94 4000 3.6 70 00:49 19.11.2019
4160 Clouds 27 1011 94 8000 2.6 60 00:20 19.11.2019
4161 Clouds 27 1011 83 9000 1.5 20 23:40 18.11.2019
4162 Clouds 27 1011 83 9000 1.5 20 23:20 18.11.2019
4163 Clouds 27 1010 83 9000 1.89 11 22:47 18.11.2019
4164 Clouds 28 1010 78 9000 1.89 11 22:24 18.11.2019
4165 Clouds 27 1009 94 7000 1 310 21:59 18.11.2019
4166 Clouds 28 1010 74 9000 1.5 170 21:40 18.11.2019
4167 Clouds 28 1010 74 9000 1.5 170 21:40 18.11.2019
4168 Clouds 28 1010 74 9000 1.5 170 21:21 18.11.2019
4169 Rain 28 1010 78 9000 1.89 11 20:59 18.11.2019
4170 Clouds 27 1010 78 9000 1.89 11 20:41 18.11.2019
4171 Clouds 27 1010 78 9000 1.83 125 20:19 18.11.2019
4172 Clouds 27 1011 78 9000 1.83 125 19:58 18.11.2019
4173 Clouds 28 1011 78 9000 1.5 150 19:38 18.11.2019
4174 Clouds 28 1011 78 9000 1.5 150 19:20 18.11.2019
4175 Clouds 29 1011 74 9000 2.1 120 18:56 18.11.2019
4176 Clouds 29 1011 78 9000 1.83 125 18:38 18.11.2019
4177 Clouds 29 1011 78 9000 1.83 125 18:38 18.11.2019
4178 Clouds 29 1011 78 9000 1.83 125 18:19 18.11.2019
4179 Clouds 29 1011 74 9000 1.83 125 17:56 18.11.2019
4180 Clouds 29 1011 74 9000 1.83 125 17:56 18.11.2019
4181 Clouds 29 1011 70 9000 1.83 125 17:37 18.11.2019
4182 Clouds 29 1011 70 9000 0.36 203 17:18 18.11.2019
4183 Clouds 28 1011 70 9000 0.36 203 16:42 18.11.2019
4184 Clouds 29 1011 66 9000 0.36 203 16:24 18.11.2019
4185 Clouds 29 1011 66 9000 0.36 203 15:57 18.11.2019
4186 Clouds 29 1011 62 9000 2.6 310 15:39 18.11.2019
4187 Clouds 29 1011 62 9000 2.6 310 15:20 18.11.2019
4188 Clouds 30 1010 62 10000 2.1 310 14:44 18.11.2019
4189 Clouds 30 1010 62 10000 2.1 310 14:24 18.11.2019
4190 Clouds 30 1010 62 10000 2.1 290 13:59 18.11.2019
4191 Clouds 30 1010 62 10000 2.1 290 13:41 18.11.2019
4192 Clouds 30 1010 62 10000 2.1 270 13:23 18.11.2019
4193 Clouds 31 1009 59 10000 2.6 290 12:40 18.11.2019
4194 Clouds 31 1009 59 10000 2.6 290 12:20 18.11.2019
4195 Clouds 29 1009 59 10000 3.1 270 11:55 18.11.2019
4196 Clouds 30 1009 62 10000 3.1 220 11:37 18.11.2019
4197 Clouds 32 1009 62 10000 3.1 220 11:19 18.11.2019
4198 Clouds 32 1009 62 10000 3.1 220 11:19 18.11.2019
4199 Clouds 33 1009 59 10000 3.6 240 10:42 18.11.2019
4200 Clouds 33 1009 55 10000 3.1 210 10:23 18.11.2019
4201 Clouds 33 1009 44 10000 3.1 140 09:57 18.11.2019
4202 Clouds 33 1009 46 10000 2.6 130 09:38 18.11.2019
4203 Clouds 33 1009 46 10000 2.6 130 09:19 18.11.2019
4204 Clouds 33 1009 46 10000 2.6 130 09:19 18.11.2019
4205 Clouds 33 1009 44 10000 2.6 100 08:46 18.11.2019
4206 Clouds 34 1010 47 10000 2.6 0 08:22 18.11.2019
4207 Clouds 35 1010 50 10000 2.6 0 07:49 18.11.2019
4208 Clouds 34 1010 55 10000 2.1 0 07:31 18.11.2019
4209 Clouds 34 1011 52 10000 3.1 50 06:59 18.11.2019
4210 Clouds 34 1012 55 10000 3.1 50 06:41 18.11.2019
4211 Clouds 34 1012 55 10000 3.1 50 06:41 18.11.2019
4212 Clouds 33 1012 55 10000 3.1 50 06:21 18.11.2019
4213 Clouds 32 1013 59 10000 1.5 0 05:25 18.11.2019
4214 Clouds 32 1014 74 8000 2.1 80 03:30 18.11.2019
4215 Clouds 27 1012 94 8000 0.56 294 01:37 18.11.2019
4216 Clouds 26 1012 94 8000 1.15 194 00:53 18.11.2019
4217 Clouds 26 1011 88 10000 1.15 194 23:59 17.11.2019
4218 Clouds 26 1011 88 10000 1.15 194 23:59 17.11.2019
4219 Clouds 26 1011 88 10000 1.5 40 23:40 17.11.2019
4220 Clouds 26 1011 88 10000 1.5 40 23:21 17.11.2019
4221 Clouds 26 1011 88 10000 2.1 50 22:56 17.11.2019
4222 Clouds 26 1011 83 10000 2.1 50 22:38 17.11.2019
4223 Clouds 26 1011 83 10000 2.1 50 22:38 17.11.2019
4224 Clouds 26 1011 83 10000 2.1 50 22:38 17.11.2019
4225 Clouds 26 1011 83 10000 2.1 50 22:19 17.11.2019
4226 Clouds 26 1010 83 10000 2.05 231 21:42 17.11.2019
4227 Clouds 27 1010 78 10000 1 100 21:20 17.11.2019
4228 Clouds 27 1010 74 10000 2.05 231 20:58 17.11.2019
4229 Clouds 27 1010 83 10000 3.1 210 20:39 17.11.2019
4230 Clouds 27 1010 83 10000 3.1 210 20:20 17.11.2019
4231 Clouds 27 1010 78 10000 3.1 210 19:57 17.11.2019
4232 Clouds 27 1011 74 10000 2.6 200 19:39 17.11.2019
4233 Clouds 27 1011 74 10000 2.6 200 19:20 17.11.2019
4234 Clouds 27 1011 74 10000 2.1 200 18:56 17.11.2019
4235 Clouds 27 1011 74 10000 2.1 200 18:56 17.11.2019
4236 Clouds 27 1011 74 10000 1 150 18:38 17.11.2019
4237 Clouds 27 1011 74 10000 1 150 18:19 17.11.2019
4238 Clouds 27 1011 74 10000 1.5 200 17:58 17.11.2019
4239 Clouds 27 1011 74 10000 1.5 180 17:39 17.11.2019
4240 Clouds 27 1011 74 10000 1.5 180 17:20 17.11.2019
4241 Clouds 27 1011 69 10000 2.1 200 16:58 17.11.2019
4242 Clouds 27 1011 65 10000 1.5 200 16:40 17.11.2019
4243 Clouds 28 1011 65 10000 1.5 200 16:21 17.11.2019
4244 Clouds 28 1011 69 10000 1.5 200 15:55 17.11.2019
4245 Clouds 28 1011 69 10000 1.5 200 15:55 17.11.2019
4246 Clouds 28 1011 62 10000 2.1 180 15:37 17.11.2019
4247 Clouds 28 1011 62 10000 2.1 180 15:18 17.11.2019
4248 Clouds 28 1011 62 10000 2.6 170 14:55 17.11.2019
4249 Clouds 28 1011 62 10000 2.1 190 14:37 17.11.2019
4250 Clouds 28 1011 62 10000 2.1 190 14:37 17.11.2019
4251 Clouds 29 1011 62 10000 2.1 190 14:19 17.11.2019
4252 Clouds 29 1010 62 9000 3.1 200 13:55 17.11.2019
4253 Clouds 29 1010 62 9000 3.1 200 13:55 17.11.2019
4254 Clouds 29 1010 58 9000 2.1 220 13:37 17.11.2019
4255 Clouds 30 1010 58 9000 2.1 220 13:18 17.11.2019
4256 Clouds 30 1009 58 9000 2.6 210 12:41 17.11.2019
4257 Clouds 30 1009 58 9000 2.6 210 12:22 17.11.2019
4258 Clouds 30 1009 55 9000 3.6 210 11:56 17.11.2019
4259 Clouds 31 1009 52 9000 3.6 200 11:38 17.11.2019
4260 Clouds 31 1009 52 9000 3.6 200 11:20 17.11.2019
4261 Clouds 31 1009 52 9000 3.1 190 10:44 17.11.2019
4262 Clouds 32 1009 46 9000 3.6 160 10:23 17.11.2019
4263 Clouds 32 1009 52 9000 3.6 170 09:57 17.11.2019
4264 Clouds 32 1009 52 9000 3.6 170 09:57 17.11.2019
4265 Clouds 32 1009 52 10000 2.6 170 09:39 17.11.2019
4266 Clouds 32 1009 52 10000 2.6 170 09:20 17.11.2019
4267 Clouds 33 1009 46 10000 1 0 08:39 17.11.2019
4268 Clouds 33 1009 46 10000 1 0 08:20 17.11.2019
4269 Clouds 34 1010 46 10000 1 0 07:47 17.11.2019
4270 Clouds 34 1010 46 10000 1 0 07:24 17.11.2019
4271 Clouds 33 1011 49 10000 1.5 0 06:57 17.11.2019
4272 Clouds 33 1011 49 10000 1.5 0 06:57 17.11.2019
4273 Clouds 33 1011 52 10000 1.5 210 06:32 17.11.2019
4274 Clouds 33 1013 52 10000 1.5 0 05:40 17.11.2019
4275 Clouds 31 1013 62 10000 1 0 04:23 17.11.2019
4276 Clouds 32 1013 66 9000 1.5 0 03:45 17.11.2019
4277 Clouds 31 1013 74 8000 0.5 0 03:25 17.11.2019
4278 Clouds 30 1012 78 6000 0.14 286 02:27 17.11.2019
4279 Mist 27 1012 94 4900 2.6 325 01:37 17.11.2019
4280 Mist 26 1012 94 4900 2.77 324 00:54 17.11.2019
4281 Clear 26 1011 88 7000 1.5 70 00:22 17.11.2019
4282 Clear 26 1011 88 10000 1.5 60 23:46 16.11.2019
4283 Clear 26 1011 83 10000 1.5 90 23:20 16.11.2019
4284 Clear 26 1011 83 10000 2.31 303 22:59 16.11.2019
4285 Clear 27 1011 78 10000 1.5 0 22:40 16.11.2019
4286 Clear 27 1011 78 10000 1.5 0 22:19 16.11.2019
4287 Clear 26 1011 83 10000 2.31 303 21:42 16.11.2019
4288 Clouds 26 1011 78 10000 1.5 190 21:24 16.11.2019
4289 Clouds 26 1011 83 10000 2.31 303 20:59 16.11.2019
4290 Clouds 26 1011 83 10000 2.31 303 20:41 16.11.2019
4291 Clouds 27 1011 78 10000 2.1 190 20:20 16.11.2019
4292 Clouds 27 1011 83 10000 2.37 252 19:57 16.11.2019
4293 Clouds 27 1011 78 10000 2.1 190 19:39 16.11.2019
4294 Clouds 27 1011 78 10000 2.1 190 19:20 16.11.2019
4295 Clouds 27 1012 78 10000 1 170 18:45 16.11.2019
4296 Clouds 27 1012 74 10000 1.5 190 18:27 16.11.2019
4297 Clouds 27 1012 65 10000 2.1 180 17:56 16.11.2019
4298 Clouds 27 1012 69 10000 3.1 220 17:38 16.11.2019
4299 Clouds 27 1012 69 10000 3.1 220 17:19 16.11.2019
4300 Clouds 28 1012 65 10000 3.1 210 16:47 16.11.2019
4301 Clouds 28 1012 65 10000 2.6 210 16:29 16.11.2019
4302 Clouds 28 1012 66 10000 3.1 210 15:58 16.11.2019
4303 Clouds 29 1012 58 10000 2.6 250 15:39 16.11.2019
4304 Clouds 29 1012 58 10000 2.6 250 15:20 16.11.2019
4305 Clouds 29 1012 58 10000 2.6 250 15:20 16.11.2019
4306 Clouds 30 1012 58 10000 3.1 260 14:42 16.11.2019
4307 Clouds 30 1011 52 10000 2.1 340 14:22 16.11.2019
4308 Clouds 30 1011 52 10000 2.1 340 14:22 16.11.2019
4309 Clouds 30 1011 55 10000 2.1 10 13:58 16.11.2019
4310 Clouds 30 1010 52 10000 2.4 222 13:39 16.11.2019
4311 Clouds 30 1010 52 10000 2.4 222 13:20 16.11.2019
4312 Clouds 30 1010 52 10000 1.5 120 12:59 16.11.2019
4313 Clouds 30 1010 52 10000 1.5 120 12:41 16.11.2019
4314 Clouds 31 1010 52 10000 2.6 130 12:20 16.11.2019
4315 Clouds 31 1010 52 10000 2.6 130 12:20 16.11.2019
4316 Clouds 32 1010 49 10000 3.1 140 11:47 16.11.2019
4317 Clouds 32 1009 49 10000 3.1 120 11:28 16.11.2019
4318 Clouds 32 1009 49 10000 3.1 120 10:59 16.11.2019
4319 Clouds 33 1009 49 10000 1.5 130 10:41 16.11.2019
4320 Clouds 34 1009 49 10000 1.5 130 10:22 16.11.2019
4321 Clouds 33 1009 46 10000 2.6 110 09:56 16.11.2019
4322 Clouds 33 1009 46 10000 3.6 80 09:36 16.11.2019
4323 Clouds 33 1009 46 10000 3.6 80 09:18 16.11.2019
4324 Clouds 33 1010 49 10000 2.6 70 08:40 16.11.2019
4325 Clouds 32 1010 49 10000 2.6 70 08:20 16.11.2019
4326 Clouds 33 1010 49 10000 3.1 60 07:43 16.11.2019
4327 Clouds 34 1011 52 10000 3.1 70 07:22 16.11.2019
4328 Clouds 33 1011 49 10000 3.6 70 06:56 16.11.2019
4329 Clouds 33 1012 49 10000 3.1 90 06:34 16.11.2019
4330 Clouds 33 1013 58 10000 1.5 10 05:42 16.11.2019
4331 Clouds 31 1013 62 10000 2.6 30 04:20 16.11.2019
4332 Clouds 31 1014 69 10000 2.6 40 03:26 16.11.2019
4333 Clouds 28 1013 78 8000 1.5 70 02:21 16.11.2019
4334 Clouds 26 1012 83 7000 1 0 01:29 16.11.2019
4335 Clouds 25 1012 94 7000 2.52 46 00:46 16.11.2019
4336 Clouds 25 1012 94 10000 2.52 46 00:27 16.11.2019
4337 Clouds 24 1011 83 10000 2.52 46 23:40 15.11.2019
4338 Clouds 25 1011 83 10000 2.39 51 23:21 15.11.2019
4339 Clouds 25 1011 83 10000 2.39 51 22:58 15.11.2019
4340 Clouds 25 1011 83 10000 1.5 130 22:38 15.11.2019
4341 Clouds 25 1011 83 10000 1.5 130 22:18 15.11.2019
4342 Clouds 25 1011 83 10000 2.1 120 21:54 15.11.2019
4343 Clouds 25 1011 78 10000 1 90 21:36 15.11.2019
4344 Clouds 25 1011 78 10000 1 90 21:18 15.11.2019
4345 Clouds 26 1012 78 10000 2.39 51 20:54 15.11.2019
4346 Clouds 26 1012 78 10000 2.1 120 20:36 15.11.2019
4347 Clouds 26 1012 78 10000 2.1 120 20:18 15.11.2019
4348 Clouds 26 1012 78 10000 2.1 120 20:18 15.11.2019
4349 Clouds 27 1012 74 10000 1 120 19:56 15.11.2019
4350 Clouds 27 1012 74 10000 1 120 19:36 15.11.2019
4351 Clouds 27 1012 74 10000 1 120 19:18 15.11.2019
4352 Clouds 27 1012 74 10000 2.86 102 18:41 15.11.2019
4353 Clouds 27 1012 74 10000 2.86 102 18:23 15.11.2019
4354 Clouds 27 1013 65 10000 2.86 102 17:55 15.11.2019
4355 Clouds 27 1013 69 10000 2.86 102 17:37 15.11.2019
4356 Clouds 27 1013 69 10000 1.4 104 17:18 15.11.2019
4357 Clouds 28 1013 65 10000 2.1 130 16:40 15.11.2019
4358 Clouds 28 1013 65 10000 2.1 130 16:22 15.11.2019
4359 Clouds 28 1013 65 10000 2.1 120 15:57 15.11.2019
4360 Clouds 28 1013 62 10000 1.5 130 15:36 15.11.2019
4361 Clouds 28 1013 62 10000 1.5 130 15:18 15.11.2019
4362 Clouds 29 1012 62 10000 2.1 120 14:55 15.11.2019
4363 Clouds 29 1012 62 10000 2.1 120 14:55 15.11.2019
4364 Clouds 29 1012 62 9000 2.1 130 14:36 15.11.2019
4365 Clouds 29 1012 62 9000 2.1 130 14:18 15.11.2019
4366 Clouds 30 1011 58 9000 2.1 130 13:54 15.11.2019
4367 Clouds 30 1011 58 9000 2.1 130 13:54 15.11.2019
4368 Clouds 30 1011 55 9000 2.67 296 13:36 15.11.2019
4369 Clouds 30 1011 55 9000 2.05 276 13:18 15.11.2019
4370 Clouds 30 1011 55 9000 2.1 330 12:55 15.11.2019
4371 Clouds 30 1010 55 9000 2.1 10 12:36 15.11.2019
4372 Clouds 30 1010 55 9000 2.1 10 12:18 15.11.2019
4373 Clouds 30 1010 52 10000 2.1 110 11:39 15.11.2019
4374 Clouds 32 1010 52 10000 2.1 110 11:21 15.11.2019
4375 Clouds 32 1010 52 10000 3.1 110 10:57 15.11.2019
4376 Clouds 31 1010 52 10000 2.1 70 10:39 15.11.2019
4377 Clouds 31 1010 52 10000 2.1 70 10:20 15.11.2019
4378 Clouds 31 1010 52 10000 1 0 09:41 15.11.2019
4379 Clouds 31 1010 52 10000 1 0 09:20 15.11.2019
4380 Clouds 31 1010 52 10000 2.1 190 08:45 15.11.2019
4381 Clouds 32 1011 52 10000 3.1 0 08:25 15.11.2019
4382 Clouds 32 1011 52 10000 3.6 50 07:54 15.11.2019
4383 Clouds 32 1012 52 10000 3.1 80 07:36 15.11.2019
4384 Clouds 31 1012 52 10000 3.1 80 07:18 15.11.2019
4385 Clouds 31 1013 55 10000 2.6 0 06:34 15.11.2019
4386 Clouds 32 1013 52 10000 4.1 110 05:52 15.11.2019
4387 Clouds 32 1013 52 10000 4.1 110 05:52 15.11.2019
4388 Clouds 31 1014 55 10000 1.5 0 05:28 15.11.2019
4389 Clouds 31 1014 58 10000 2.1 120 04:42 15.11.2019
4390 Clouds 30 1014 65 9000 1.5 100 03:37 15.11.2019
4391 Clouds 29 1013 69 9000 2.1 30 02:27 15.11.2019
4392 Clouds 27 1013 69 9000 0.5 0 01:48 15.11.2019
4393 Clouds 26 1013 69 9000 1.5 90 01:24 15.11.2019
4394 Clouds 25 1012 78 10000 1.5 50 00:37 15.11.2019
4395 Clouds 26 1012 74 10000 2.1 90 23:58 14.11.2019
4396 Clouds 26 1011 69 10000 2.1 120 23:39 14.11.2019
4397 Clouds 27 1011 69 10000 2.1 120 23:21 14.11.2019
4398 Clouds 27 1011 78 10000 6.74 68 22:41 14.11.2019
4399 Clouds 26 1011 78 10000 6.74 68 22:22 14.11.2019
4400 Clouds 27 1011 74 10000 1.5 30 21:57 14.11.2019
4401 Clouds 27 1011 74 10000 1.5 50 21:39 14.11.2019
4402 Clouds 27 1011 74 10000 1.5 50 21:21 14.11.2019
4403 Clouds 27 1011 74 10000 2.1 340 20:43 14.11.2019
4404 Clouds 28 1011 74 10000 2.1 340 20:24 14.11.2019
4405 Clouds 28 1012 69 10000 2.1 10 20:00 14.11.2019
4406 Clouds 27 1012 74 10000 1.5 20 19:41 14.11.2019
4407 Clouds 27 1012 74 10000 2.1 40 19:19 14.11.2019
4408 Clouds 27 1012 74 10000 2.1 40 18:59 14.11.2019
4409 Clouds 28 1013 65 10000 1 40 18:41 14.11.2019
4410 Clouds 29 1013 65 10000 1 40 18:21 14.11.2019
4411 Clouds 28 1013 65 10000 3.1 50 17:56 14.11.2019
4412 Clouds 28 1013 65 10000 3.1 50 17:37 14.11.2019
4413 Clouds 28 1013 65 10000 3.6 40 17:19 14.11.2019
4414 Clouds 28 1013 65 10000 3.6 40 16:57 14.11.2019
4415 Clouds 28 1013 65 10000 3.1 50 16:37 14.11.2019
4416 Clouds 28 1013 65 10000 3.1 50 16:37 14.11.2019
4417 Clouds 28 1013 65 10000 3.1 50 16:18 14.11.2019
4418 Clouds 29 1013 62 10000 4.6 20 15:56 14.11.2019
4419 Clouds 29 1013 62 10000 4.6 20 15:56 14.11.2019
4420 Clouds 29 1013 62 10000 5.1 20 15:38 14.11.2019
4421 Clouds 29 1013 62 10000 5.1 20 15:38 14.11.2019
4422 Clouds 29 1013 62 10000 5.1 20 15:19 14.11.2019
4423 Clouds 29 1012 62 10000 5.1 20 14:44 14.11.2019
4424 Clouds 29 1012 66 10000 3.6 20 14:22 14.11.2019
4425 Clouds 29 1012 66 10000 4.1 20 13:57 14.11.2019
4426 Clouds 29 1011 66 10000 3.6 20 13:38 14.11.2019
4427 Clouds 30 1011 66 10000 3.6 20 13:19 14.11.2019
4428 Clouds 29 1011 66 10000 3.6 20 12:55 14.11.2019
4429 Clouds 30 1010 66 10000 4.1 10 12:36 14.11.2019
4430 Clouds 30 1010 66 10000 4.1 10 12:18 14.11.2019
4431 Clouds 30 1010 66 10000 4.6 20 11:39 14.11.2019
4432 Clouds 31 1010 66 10000 4.6 20 11:20 14.11.2019
4433 Clouds 31 1010 66 10000 4.6 20 11:20 14.11.2019
4434 Clouds 31 1010 66 10000 4.1 20 10:58 14.11.2019
4435 Clouds 31 1010 66 10000 5.7 20 10:39 14.11.2019
4436 Clouds 32 1010 66 10000 5.7 20 10:20 14.11.2019
4437 Clouds 32 1010 62 10000 3.6 70 09:56 14.11.2019
4438 Clouds 32 1010 62 10000 4.6 70 09:38 14.11.2019
4439 Clouds 30 1011 62 10000 3.6 80 09:19 14.11.2019
4440 Clouds 30 1011 62 10000 3.6 80 08:47 14.11.2019
4441 Clouds 30 1011 62 10000 3.6 80 08:47 14.11.2019
4442 Clouds 31 1011 62 10000 3.6 80 08:25 14.11.2019
4443 Clouds 31 1011 62 10000 3.6 60 07:45 14.11.2019
4444 Clouds 32 1012 59 10000 3.6 120 07:26 14.11.2019
4445 Clouds 31 1012 62 10000 3.6 100 06:56 14.11.2019
4446 Clouds 30 1013 66 9000 3.1 100 06:37 14.11.2019
4447 Clouds 30 1013 66 9000 3.1 100 06:18 14.11.2019
4448 Clouds 29 1015 65 0 5.78 73 04:40 14.11.2019
4449 Clouds 27 1014 83 10000 1.5 20 03:59 14.11.2019
4450 Clouds 27 1014 83 10000 1.5 20 02:43 14.11.2019
4451 Clouds 26 1013 83 10000 1 0 01:41 14.11.2019
4452 Clouds 26 1013 83 10000 1 0 01:20 14.11.2019
4453 Clouds 26 1012 83 10000 1.5 30 00:48 14.11.2019
4454 Clouds 26 1012 83 10000 1.5 10 00:25 14.11.2019
4455 Clouds 26 1012 83 10000 2.1 60 23:41 13.11.2019
4456 Clouds 26 1012 83 10000 2.1 60 23:21 13.11.2019
4457 Clouds 26 1012 83 10000 2.1 40 22:56 13.11.2019
4458 Clouds 26 1012 83 10000 2.1 40 22:38 13.11.2019
4459 Clouds 26 1012 83 10000 2.1 40 22:20 13.11.2019
4460 Clouds 26 1012 83 10000 2.1 40 21:55 13.11.2019
4461 Clouds 26 1012 83 10000 2.1 30 21:37 13.11.2019
4462 Clouds 26 1012 83 10000 2.1 30 21:37 13.11.2019
4463 Clouds 26 1012 83 10000 2.1 30 21:18 13.11.2019
4464 Clouds 26 1012 83 10000 2.1 40 20:55 13.11.2019
4465 Clouds 26 1012 83 10000 2.6 50 20:37 13.11.2019
4466 Clouds 27 1012 83 10000 2.6 50 20:18 13.11.2019
4467 Clouds 27 1013 83 10000 2.1 30 19:43 13.11.2019
4468 Clouds 27 1013 83 10000 2.6 50 19:20 13.11.2019
4469 Clouds 27 1013 83 10000 3.1 40 18:57 13.11.2019
4470 Clouds 27 1013 83 10000 3.6 30 18:39 13.11.2019
4471 Clouds 27 1013 83 10000 3.6 30 18:21 13.11.2019
4472 Clouds 27 1013 83 10000 2.6 40 17:58 13.11.2019
4473 Clouds 27 1013 83 10000 2.6 40 17:39 13.11.2019
4474 Clouds 27 1013 83 10000 2.6 40 17:21 13.11.2019
4475 Clouds 27 1014 83 10000 2.1 50 16:58 13.11.2019
4476 Clouds 28 1013 78 10000 3.1 40 16:39 13.11.2019
4477 Clouds 28 1013 78 10000 3.1 40 16:39 13.11.2019
4478 Clouds 28 1013 78 10000 3.1 40 16:39 13.11.2019
4479 Clouds 28 1013 78 10000 3.1 40 16:21 13.11.2019
4480 Clouds 28 1013 78 10000 4.1 40 15:58 13.11.2019
4481 Clouds 28 1013 78 10000 4.1 40 15:58 13.11.2019
4482 Clouds 28 1013 74 10000 4.1 50 15:39 13.11.2019
4483 Clouds 28 1013 74 10000 4.1 50 15:20 13.11.2019
4484 Clouds 28 1012 74 9000 4.6 40 14:42 13.11.2019
4485 Clouds 29 1012 74 9000 4.6 40 14:22 13.11.2019
4486 Clouds 29 1012 74 9000 5.7 20 13:57 13.11.2019
4487 Clouds 29 1011 69 9000 4.6 20 13:36 13.11.2019
4488 Clouds 29 1011 69 9000 4.6 20 13:18 13.11.2019
4489 Clouds 29 1011 66 9000 5.7 20 12:43 13.11.2019
4490 Clouds 30 1011 66 9000 5.7 20 12:25 13.11.2019
4491 Clouds 29 1010 66 9000 5.7 20 11:59 13.11.2019
4492 Clouds 30 1010 62 9000 6.2 20 11:39 13.11.2019
4493 Clouds 31 1010 62 9000 6.2 20 11:19 13.11.2019
4494 Clouds 31 1010 62 9000 6.2 20 11:19 13.11.2019
4495 Clouds 31 1010 62 9000 6.2 10 10:57 13.11.2019
4496 Clouds 32 1010 58 9000 5.7 10 10:39 13.11.2019
4497 Clouds 32 1010 58 9000 5.7 10 10:19 13.11.2019
4498 Clouds 32 1010 58 9000 5.7 10 10:19 13.11.2019
4499 Clouds 32 1010 58 9000 5.7 30 09:45 13.11.2019
4500 Clouds 32 1010 58 9000 5.1 30 09:22 13.11.2019
4501 Clouds 32 1010 62 9000 4.1 40 08:55 13.11.2019
4502 Clouds 32 1010 58 9000 4.1 30 08:36 13.11.2019
4503 Clouds 32 1010 58 9000 4.1 30 08:18 13.11.2019
4504 Clouds 32 1011 62 9000 4.6 40 07:42 13.11.2019
4505 Clouds 32 1011 59 9000 3.1 60 07:20 13.11.2019
4506 Clouds 32 1012 58 9000 2.6 60 06:43 13.11.2019
4507 Clouds 32 1012 55 9000 1.5 0 06:19 13.11.2019
4508 Clouds 32 1012 55 9000 1.5 0 06:19 13.11.2019
4509 Clouds 32 1012 55 9000 1.5 0 06:19 13.11.2019
4510 Clouds 32 1012 55 9000 1.5 0 06:19 13.11.2019
4511 Clouds 31 1013 55 9000 2.1 120 05:51 13.11.2019
4512 Clouds 31 1014 66 8000 2.6 50 05:30 13.11.2019
4513 Clouds 30 1014 70 8000 2.1 120 04:20 13.11.2019
4514 Clouds 27 1013 83 8000 2.1 110 01:54 13.11.2019
4515 Clouds 26 1012 88 8000 1.5 120 01:35 13.11.2019
4516 Clouds 26 1012 88 8000 1.5 120 00:43 13.11.2019
4517 Rain 25 1011 88 8000 2.6 110 23:58 12.11.2019
4518 Rain 26 1011 83 8000 3.1 100 23:40 12.11.2019
4519 Rain 26 1011 83 8000 3.1 100 23:40 12.11.2019
4520 Rain 26 1011 83 8000 3.1 100 23:20 12.11.2019
4521 Rain 26 1011 83 8000 3.1 80 22:43 12.11.2019
4522 Rain 27 1011 83 8000 2.1 90 22:20 12.11.2019
4523 Rain 27 1011 83 8000 1 110 21:58 12.11.2019
4524 Rain 27 1011 83 8000 2.1 110 21:39 12.11.2019
4525 Rain 27 1011 83 8000 2.1 110 21:21 12.11.2019
4526 Rain 27 1011 74 8000 2.1 130 20:56 12.11.2019
4527 Rain 28 1011 74 8000 2.6 120 20:37 12.11.2019
4528 Rain 28 1011 74 8000 2.6 120 20:37 12.11.2019
4529 Clear 28 1011 74 8000 2.6 120 20:18 12.11.2019
4530 Clear 28 1011 74 8000 2.6 120 20:18 12.11.2019
4531 Clouds 27 1011 74 10000 2.6 120 19:55 12.11.2019
4532 Clouds 27 1012 74 10000 3.1 110 19:37 12.11.2019
4533 Clouds 27 1012 74 10000 3.1 110 19:18 12.11.2019
4534 Clear 27 1012 78 6000 1.5 0 18:55 12.11.2019
4535 Clouds 28 1012 69 10000 3.6 110 18:36 12.11.2019
4536 Clouds 28 1012 69 10000 3.6 110 18:18 12.11.2019
4537 Clouds 28 1012 69 10000 4.1 110 17:55 12.11.2019
4538 Clouds 29 1012 66 10000 4.1 110 17:36 12.11.2019
4539 Clouds 29 1012 66 10000 4.1 110 17:36 12.11.2019
4540 Clouds 29 1012 66 10000 4.1 110 17:36 12.11.2019
4541 Clouds 29 1012 66 10000 4.1 110 17:36 12.11.2019
4542 Clouds 29 1012 66 10000 4.1 110 17:36 12.11.2019
4543 Clouds 29 1012 66 10000 4.1 110 17:18 12.11.2019
4544 Clouds 28 1011 62 10000 0.37 109 16:43 12.11.2019
4545 Clouds 28 1011 62 10000 0.37 109 16:24 12.11.2019
4546 Clouds 28 1011 65 10000 0.37 109 15:57 12.11.2019
4547 Clouds 28 1011 62 10000 1.5 180 15:37 12.11.2019
4548 Clouds 28 1011 62 10000 1.5 180 15:18 12.11.2019
4549 Clouds 29 1010 58 10000 2.1 170 14:42 12.11.2019
4550 Clouds 29 1010 58 10000 2.1 170 14:20 12.11.2019
4551 Clouds 29 1009 58 10000 2.1 160 13:58 12.11.2019
4552 Clouds 29 1009 58 10000 2.1 160 13:58 12.11.2019
4553 Clouds 30 1009 58 10000 1.5 200 13:39 12.11.2019
4554 Clouds 29 1009 58 10000 1.5 200 13:19 12.11.2019
4555 Clouds 30 1009 43 10000 2.6 300 12:58 12.11.2019
4556 Clouds 30 1008 43 10000 2.6 310 12:39 12.11.2019
4557 Clouds 30 1008 43 10000 2.6 310 12:39 12.11.2019
4558 Clouds 30 1008 43 10000 2.6 310 12:18 12.11.2019
4559 Clouds 32 1008 38 10000 4.1 310 11:43 12.11.2019
4560 Clouds 32 1008 38 10000 4.1 310 11:23 12.11.2019
4561 Clouds 33 1007 41 10000 3.1 320 10:57 12.11.2019
4562 Clouds 33 1007 41 10000 2.6 320 10:39 12.11.2019
4563 Clouds 33 1007 41 10000 2.6 320 10:21 12.11.2019
4564 Clouds 33 1007 41 10000 4.1 320 09:57 12.11.2019
4565 Clouds 34 1007 41 10000 3.6 310 09:38 12.11.2019
4566 Clouds 34 1007 41 10000 3.6 310 09:18 12.11.2019
4567 Clouds 33 1007 41 10000 2.6 360 08:46 12.11.2019
4568 Clouds 34 1009 41 10000 2.6 10 08:27 12.11.2019
4569 Clouds 33 1009 41 10000 2.6 10 07:42 12.11.2019
4570 Clouds 33 1009 38 10000 3.6 20 07:23 12.11.2019
4571 Clouds 33 1010 41 10000 3.6 20 06:48 12.11.2019
4572 Clouds 33 1010 43 10000 3.1 10 06:24 12.11.2019
4573 Clouds 32 1011 49 10000 2.1 90 05:52 12.11.2019
4574 Clouds 31 1012 45 10000 2.6 60 04:50 12.11.2019
4575 Clouds 32 1012 55 10000 2.1 60 03:53 12.11.2019
4576 Clouds 27 1011 61 10000 1.5 110 01:50 12.11.2019
4577 Clouds 27 1011 65 10000 2.42 4 01:23 12.11.2019
4578 Clouds 27 1010 65 10000 2.39 20 00:52 12.11.2019
4579 Clouds 27 1010 65 10000 2.39 20 00:32 12.11.2019
4580 Clouds 27 1010 69 10000 1 0 23:49 11.11.2019
4581 Clouds 27 1010 69 10000 1.5 150 23:25 11.11.2019
4582 Clouds 27 1009 74 10000 1 150 22:58 11.11.2019
4583 Clouds 27 1009 74 10000 1.5 150 22:38 11.11.2019
4584 Clouds 27 1009 74 10000 1.5 150 22:19 11.11.2019
4585 Clouds 27 1009 74 10000 1.5 120 21:57 11.11.2019
4586 Clouds 27 1009 74 10000 1.5 120 21:38 11.11.2019
4587 Clouds 27 1009 74 10000 1.5 120 21:20 11.11.2019
4588 Clouds 27 1010 74 10000 2.1 120 20:55 11.11.2019
4589 Clouds 27 1010 69 10000 2.6 120 20:36 11.11.2019
4590 Clouds 26 1010 69 10000 2.6 120 20:18 11.11.2019
4591 Clouds 27 1010 65 10000 2.29 358 19:41 11.11.2019
4592 Clouds 27 1010 57 10000 2.29 358 19:19 11.11.2019
4593 Clouds 26 1010 57 10000 2.29 358 18:56 11.11.2019
4594 Clouds 26 1010 61 10000 2.29 358 18:38 11.11.2019
4595 Clouds 26 1010 61 10000 2.29 358 18:19 11.11.2019
4596 Clouds 27 1010 61 10000 2.29 358 17:42 11.11.2019
4597 Clouds 27 1010 61 10000 1.5 150 17:24 11.11.2019
4598 Clouds 27 1010 54 10000 2.36 342 16:44 11.11.2019
4599 Clouds 27 1010 51 10000 2.1 310 16:24 11.11.2019
4600 Clouds 27 1010 51 10000 2.1 300 15:59 11.11.2019
4601 Clouds 27 1010 51 10000 2.1 300 15:40 11.11.2019
4602 Clouds 28 1010 48 10000 2.6 300 15:20 11.11.2019
4603 Clouds 28 1009 48 10000 2.1 300 14:45 11.11.2019
4604 Clouds 28 1009 48 10000 2.1 300 14:45 11.11.2019
4605 Clouds 29 1009 45 10000 2.6 290 14:25 11.11.2019
4606 Clouds 30 1008 48 10000 2.6 300 13:59 11.11.2019
4607 Clouds 30 1008 48 10000 3.1 300 13:38 11.11.2019
4608 Clouds 30 1008 48 10000 3.1 300 13:20 11.11.2019
4609 Clouds 30 1008 45 10000 2.6 310 12:58 11.11.2019
4610 Clouds 30 1008 45 10000 2.6 310 12:40 11.11.2019
4611 Clouds 31 1008 43 10000 2.6 330 12:21 11.11.2019
4612 Clouds 31 1007 43 10000 3.1 320 11:43 11.11.2019
4613 Clouds 31 1007 43 10000 3.1 330 11:22 11.11.2019
4614 Clouds 32 1007 40 9000 3.6 20 10:59 11.11.2019
4615 Clouds 32 1007 40 9000 3.6 20 10:41 11.11.2019
4616 Clouds 32 1007 40 9000 4.1 20 10:18 11.11.2019
4617 Clouds 32 1007 43 9000 4.6 40 09:56 11.11.2019
4618 Clouds 32 1007 43 9000 3.6 30 09:36 11.11.2019
4619 Clouds 32 1007 43 9000 3.6 30 09:18 11.11.2019
4620 Clouds 32 1007 43 9000 3.6 20 08:39 11.11.2019
4621 Clouds 32 1008 43 9000 3.6 30 08:20 11.11.2019
4622 Clouds 33 1008 43 9000 3.6 20 07:56 11.11.2019
4623 Clouds 33 1009 43 9000 3.6 30 07:37 11.11.2019
4624 Clouds 33 1009 43 9000 3.6 30 07:37 11.11.2019
4625 Clouds 33 1009 43 9000 3.6 30 07:18 11.11.2019
4626 Clouds 32 1009 38 9000 5.7 30 06:44 11.11.2019
4627 Clouds 32 1010 35 9000 4.6 10 06:21 11.11.2019
4628 Clouds 32 1010 43 8000 5.1 30 05:50 11.11.2019
4629 Clouds 29 1012 54 8000 1.5 0 04:29 11.11.2019
4630 Clouds 30 1012 61 8000 2.6 30 03:23 11.11.2019
4631 Clouds 26 1011 65 8000 2.6 30 02:20 11.11.2019
4632 Clouds 26 1011 69 8000 2.6 30 01:53 11.11.2019
4633 Clouds 25 1011 69 8000 2.6 40 01:33 11.11.2019
4634 Clouds 24 1010 64 8000 2.1 20 00:47 11.11.2019
4635 Clouds 23 1009 64 8000 2.6 10 23:59 10.11.2019
4636 Clouds 23 1009 64 8000 2.6 10 23:39 10.11.2019
4637 Clouds 23 1009 69 8000 2.1 50 23:20 10.11.2019
4638 Clouds 23 1009 69 8000 2.6 20 22:57 10.11.2019
4639 Clouds 23 1009 69 8000 2.6 20 22:38 10.11.2019
4640 Clouds 23 1009 69 8000 2.6 20 22:38 10.11.2019
4641 Clouds 24 1009 69 8000 2.1 20 22:20 10.11.2019
4642 Clouds 24 1009 69 8000 1.5 40 21:57 10.11.2019
4643 Clouds 24 1009 69 8000 1.5 40 21:39 10.11.2019
4644 Clouds 24 1009 69 8000 2.1 20 21:20 10.11.2019
4645 Clouds 25 1010 69 8000 1.5 30 20:43 10.11.2019
4646 Clouds 25 1010 69 8000 2.8 355 20:23 10.11.2019
4647 Clouds 25 1010 69 8000 2.8 355 19:57 10.11.2019
4648 Clouds 25 1010 69 8000 2.8 355 19:57 10.11.2019
4649 Clouds 25 1010 69 8000 2.8 355 19:38 10.11.2019
4650 Clouds 25 1010 69 8000 1.5 350 19:19 10.11.2019
4651 Clouds 25 1010 69 8000 1.5 350 19:19 10.11.2019
4652 Clouds 25 1010 69 8000 1.5 350 19:19 10.11.2019
4653 Clouds 25 1011 69 8000 2.1 350 18:58 10.11.2019
4654 Clouds 25 1011 69 8000 2.1 350 18:40 10.11.2019
4655 Clouds 25 1011 69 8000 2.6 350 18:20 10.11.2019
4656 Clouds 25 1011 69 8000 2.6 350 18:20 10.11.2019
4657 Clouds 25 1011 65 8000 1 0 17:57 10.11.2019
4658 Clouds 26 1011 61 8000 2.8 355 17:39 10.11.2019
4659 Clouds 26 1011 61 8000 2.73 22 17:20 10.11.2019
4660 Clouds 26 1011 61 8000 2.73 22 16:58 10.11.2019
4661 Clouds 26 1011 61 8000 2.73 22 16:40 10.11.2019
4662 Clouds 26 1011 61 8000 0.5 0 16:21 10.11.2019
4663 Clouds 26 1011 57 8000 2.6 310 15:56 10.11.2019
4664 Clouds 27 1011 54 8000 1.5 350 15:37 10.11.2019
4665 Clouds 27 1011 54 8000 1.5 350 15:37 10.11.2019
4666 Clouds 27 1011 54 8000 1.5 350 15:18 10.11.2019
4667 Clouds 27 1010 51 8000 2.6 340 14:55 10.11.2019
4668 Clouds 27 1010 48 8000 2.6 10 14:36 10.11.2019
4669 Clouds 28 1010 48 8000 2.6 10 14:18 10.11.2019
4670 Clouds 29 1010 48 8000 2.1 10 13:42 10.11.2019
4671 Clouds 29 1009 48 8000 2.6 10 13:21 10.11.2019
4672 Clouds 28 1009 45 8000 3.6 20 12:55 10.11.2019
4673 Clouds 29 1009 48 8000 4.1 20 12:37 10.11.2019
4674 Clouds 29 1009 48 8000 4.1 20 12:18 10.11.2019
4675 Clouds 30 1008 42 8000 4.6 20 11:54 10.11.2019
4676 Clouds 30 1008 42 8000 4.6 20 11:54 10.11.2019
4677 Clouds 30 1008 48 8000 4.1 350 11:36 10.11.2019
4678 Clouds 30 1008 48 8000 4.1 350 11:18 10.11.2019
4679 Clouds 31 1008 48 9000 4.1 30 10:41 10.11.2019
4680 Clouds 30 1008 48 9000 4.1 360 10:20 10.11.2019
4681 Clouds 31 1008 45 9000 5.1 20 09:44 10.11.2019
4682 Clouds 31 1008 45 9000 5.7 10 09:26 10.11.2019
4683 Clouds 32 1009 48 9000 5.7 30 08:59 10.11.2019
4684 Clouds 32 1009 48 9000 5.7 30 08:37 10.11.2019
4685 Clouds 32 1009 48 9000 5.7 20 08:18 10.11.2019
4686 Clouds 31 1010 48 9000 5.7 30 07:42 10.11.2019
4687 Clouds 32 1011 48 9000 5.1 350 07:24 10.11.2019
4688 Clouds 32 1012 48 9000 2.1 0 06:33 10.11.2019
4689 Clouds 32 1012 48 9000 2.1 0 06:33 10.11.2019
4690 Clouds 31 1013 48 8000 1.5 0 05:41 10.11.2019
4691 Clouds 28 1014 61 8000 2.6 70 03:22 10.11.2019
4692 Clouds 26 1013 73 8000 1 350 01:53 10.11.2019
4693 Clouds 25 1013 78 8000 1.5 330 01:19 10.11.2019
4694 Clouds 25 1013 78 8000 1.5 330 01:19 10.11.2019
4695 Clouds 25 1013 78 8000 1.75 15 00:41 10.11.2019
4696 Clouds 24 1013 78 9000 1.75 15 23:57 09.11.2019
4697 Clouds 24 1012 73 9000 1.75 15 23:37 09.11.2019
4698 Clouds 24 1012 73 9000 2.72 342 23:18 09.11.2019
4699 Clouds 24 1012 73 9000 2.72 342 22:41 09.11.2019
4700 Clouds 24 1012 78 9000 1 60 22:21 09.11.2019
4701 Clouds 25 1012 78 9000 1.5 120 21:56 09.11.2019
4702 Clouds 25 1012 78 9000 1.5 120 21:37 09.11.2019
4703 Clouds 25 1012 78 10000 1.5 150 21:19 09.11.2019
4704 Clouds 25 1012 78 10000 1.5 150 21:19 09.11.2019
4705 Clouds 25 1012 83 10000 2.72 342 20:42 09.11.2019
4706 Clouds 25 1013 83 10000 1.5 70 20:22 09.11.2019
4707 Clouds 25 1013 78 10000 3.78 72 19:58 09.11.2019
4708 Clouds 25 1013 73 10000 1.5 100 19:39 09.11.2019
4709 Clouds 25 1013 73 10000 1.5 100 19:21 09.11.2019
4710 Clouds 25 1013 73 10000 1.5 100 19:21 09.11.2019
4711 Clouds 25 1014 73 10000 1.5 120 18:54 09.11.2019
4712 Clouds 25 1014 78 10000 1 130 18:36 09.11.2019
4713 Clouds 25 1014 78 10000 1 130 18:18 09.11.2019
4714 Clouds 26 1014 73 10000 3.78 72 17:41 09.11.2019
4715 Clouds 26 1014 73 10000 4.43 71 17:22 09.11.2019
4716 Clouds 26 1014 69 10000 1 80 16:43 09.11.2019
4717 Clouds 26 1014 69 10000 1 100 16:22 09.11.2019
4718 Clouds 27 1013 65 10000 2.1 120 15:59 09.11.2019
4719 Clouds 27 1013 65 10000 2.1 120 15:41 09.11.2019
4720 Clouds 27 1013 61 10000 2.1 110 15:23 09.11.2019
4721 Clouds 27 1013 61 10000 2.6 110 14:44 09.11.2019
4722 Clouds 28 1012 58 9000 1.5 110 14:22 09.11.2019
4723 Clouds 28 1012 61 9000 2.1 110 13:57 09.11.2019
4724 Clouds 28 1012 61 9000 2.1 110 13:39 09.11.2019
4725 Clouds 28 1012 61 9000 3.1 110 13:19 09.11.2019
4726 Clouds 29 1011 58 9000 3.1 100 12:55 09.11.2019
4727 Clouds 29 1011 58 9000 2.1 100 12:37 09.11.2019
4728 Clouds 29 1011 58 9000 2.1 100 12:37 09.11.2019
4729 Clouds 29 1011 58 9000 2.1 100 12:37 09.11.2019
4730 Clouds 29 1011 58 9000 2.1 100 12:18 09.11.2019
4731 Clouds 29 1010 58 9000 2.6 130 11:47 09.11.2019
4732 Clouds 30 1010 62 9000 2.6 110 11:20 09.11.2019
4733 Clouds 31 1010 55 9000 3.6 120 10:56 09.11.2019
4734 Clouds 31 1010 55 9000 4.6 110 10:37 09.11.2019
4735 Clouds 30 1010 55 9000 4.6 110 10:18 09.11.2019
4736 Clouds 31 1010 48 9000 3.6 360 09:41 09.11.2019
4737 Clouds 31 1010 52 9000 2.6 40 09:20 09.11.2019
4738 Clouds 32 1010 52 9000 2.1 70 08:43 09.11.2019
4739 Clouds 32 1011 52 9000 3.6 50 08:25 09.11.2019
4740 Clouds 31 1011 52 9000 3.1 80 07:55 09.11.2019
4741 Clouds 32 1012 55 9000 2.1 70 07:37 09.11.2019
4742 Clouds 32 1012 55 9000 2.1 70 07:18 09.11.2019
4743 Clouds 31 1013 55 9000 3.6 50 06:42 09.11.2019
4744 Clouds 32 1014 51 9000 2.6 70 06:24 09.11.2019
4745 Clouds 31 1015 54 9000 4.1 70 05:39 09.11.2019
4746 Clouds 29 1015 58 9000 5.1 90 04:29 09.11.2019
4747 Clouds 27 1015 65 8000 4.1 110 02:47 09.11.2019
4748 Clouds 27 1014 69 7000 4.1 100 02:26 09.11.2019
4749 Clouds 25 1014 73 7000 2.1 110 01:18 09.11.2019
4750 Clouds 25 1013 69 9000 3.1 100 00:40 09.11.2019
4751 Clouds 25 1013 69 9000 3.1 100 00:21 09.11.2019
4752 Clouds 25 1012 73 9000 2.1 110 23:40 08.11.2019
4753 Clouds 25 1012 73 9000 2.1 110 23:22 08.11.2019
4754 Clouds 25 1012 73 9000 2.1 110 23:22 08.11.2019
4755 Clouds 25 1012 73 9000 1.5 100 22:56 08.11.2019
4756 Clouds 25 1012 73 9000 1.5 100 22:56 08.11.2019
4757 Clouds 26 1012 73 9000 1 0 22:38 08.11.2019
4758 Clouds 26 1012 73 9000 1 0 22:19 08.11.2019
4759 Clouds 26 1012 73 9000 2.1 70 21:41 08.11.2019
4760 Clouds 26 1012 73 9000 2.6 70 21:23 08.11.2019
4761 Clouds 26 1012 69 9000 1.5 70 20:57 08.11.2019
4762 Clouds 26 1013 69 9000 1.5 60 20:38 08.11.2019
4763 Clouds 26 1013 69 9000 1.5 60 20:19 08.11.2019
4764 Clouds 26 1013 69 9000 2.6 50 19:40 08.11.2019
4765 Clouds 26 1013 69 9000 2.1 70 19:19 08.11.2019
4766 Clouds 27 1014 69 9000 2.6 60 18:57 08.11.2019
4767 Clouds 28 1014 65 9000 2.1 70 18:39 08.11.2019
4768 Clouds 28 1014 65 9000 2.1 70 18:39 08.11.2019
4769 Clouds 28 1014 65 9000 2.1 70 18:39 08.11.2019
4770 Clouds 27 1014 65 9000 2.1 70 18:21 08.11.2019
4771 Clouds 27 1014 69 9000 2.1 60 17:56 08.11.2019
4772 Clouds 27 1014 65 9000 3.1 60 17:38 08.11.2019
4773 Clouds 27 1014 65 9000 3.1 60 17:20 08.11.2019
4774 Clouds 28 1014 61 9000 3.1 60 16:59 08.11.2019
4775 Clouds 29 1014 58 9000 4.1 80 16:40 08.11.2019
4776 Clouds 29 1014 58 9000 4.1 80 16:22 08.11.2019
4777 Clouds 29 1014 58 9000 4.1 80 15:59 08.11.2019
4778 Clouds 29 1014 58 9000 4.1 80 15:40 08.11.2019
4779 Clouds 29 1014 58 9000 2.6 110 15:22 08.11.2019
4780 Clouds 29 1014 58 9000 2.6 110 15:22 08.11.2019
4781 Clouds 30 1013 62 9000 3.1 120 14:57 08.11.2019
4782 Clouds 30 1013 62 9000 2.6 120 14:38 08.11.2019
4783 Clouds 30 1013 62 9000 2.6 120 14:20 08.11.2019
4784 Clouds 30 1012 62 9000 2.1 120 13:58 08.11.2019
4785 Clouds 30 1012 62 9000 2.1 120 13:58 08.11.2019
4786 Clouds 30 1012 58 9000 2.1 120 13:39 08.11.2019
4787 Clouds 30 1012 58 9000 2.1 120 13:20 08.11.2019
4788 Clouds 30 1011 58 8000 2.6 110 12:44 08.11.2019
4789 Clouds 30 1011 58 8000 1 0 12:26 08.11.2019
4790 Clouds 31 1011 55 8000 3.1 330 11:57 08.11.2019
4791 Clouds 31 1011 55 9000 2.6 340 11:39 08.11.2019
4792 Clouds 31 1011 55 9000 2.6 340 11:20 08.11.2019
4793 Clouds 32 1010 55 9000 3.6 360 10:57 08.11.2019
4794 Clouds 33 1010 52 9000 1.5 0 10:39 08.11.2019
4795 Clouds 32 1010 52 9000 1.5 0 10:21 08.11.2019
4796 Clouds 32 1010 52 9000 3.1 360 09:55 08.11.2019
4797 Clouds 32 1010 49 9000 1.5 40 09:36 08.11.2019
4798 Clouds 32 1010 49 9000 1.5 40 09:18 08.11.2019
4799 Clouds 32 1011 49 9000 2.1 20 08:38 08.11.2019
4800 Clouds 32 1011 49 9000 2.1 20 08:19 08.11.2019
4801 Clouds 32 1011 52 9000 4.1 70 07:41 08.11.2019
4802 Clouds 32 1012 52 9000 2.6 0 07:22 08.11.2019
4803 Clouds 32 1012 52 9000 2.6 0 07:22 08.11.2019
4804 Clouds 31 1013 52 9000 3.1 90 06:43 08.11.2019
4805 Clouds 31 1013 55 9000 3.1 0 06:24 08.11.2019
4806 Clouds 30 1014 55 9000 4.1 70 05:56 08.11.2019
4807 Clouds 30 1014 55 8000 4.1 80 05:25 08.11.2019
4808 Clouds 29 1015 54 8000 6.7 90 03:58 08.11.2019
4809 Clouds 29 1015 54 8000 6.7 90 03:58 08.11.2019
4810 Clouds 29 1015 54 8000 6.7 90 03:58 08.11.2019
4811 Clouds 28 1015 61 8000 5.7 100 03:36 08.11.2019
4812 Clouds 27 1014 69 8000 4.6 90 02:52 08.11.2019
4813 Clouds 26 1013 74 9000 2.6 110 01:49 08.11.2019
4814 Clouds 26 1013 74 9000 2.1 110 01:30 08.11.2019
4815 Clouds 26 1012 83 9000 1 0 00:37 08.11.2019
4816 Clouds 26 1012 83 9000 1 0 00:18 08.11.2019
4817 Clouds 26 1011 74 9000 1.5 120 23:43 07.11.2019
4818 Clouds 26 1011 74 9000 2.1 90 23:24 07.11.2019
4819 Clouds 26 1011 74 9000 2.1 100 22:43 07.11.2019
4820 Clouds 26 1011 83 9000 2.1 80 22:22 07.11.2019
4821 Clouds 26 1011 74 9000 2.1 100 21:58 07.11.2019
4822 Clouds 27 1011 69 9000 1.5 120 21:38 07.11.2019
4823 Clouds 26 1011 69 9000 1.5 120 21:20 07.11.2019
4824 Clouds 26 1011 69 9000 2.6 140 20:58 07.11.2019
4825 Clouds 27 1011 74 9000 2.1 140 20:40 07.11.2019
4826 Clouds 28 1011 74 9000 2.1 140 20:21 07.11.2019
4827 Clouds 28 1012 74 9000 2.6 160 19:56 07.11.2019
4828 Clouds 27 1012 74 9000 1.5 140 19:37 07.11.2019
4829 Clouds 27 1012 74 9000 1.5 140 19:18 07.11.2019
4830 Clouds 28 1012 69 9000 1 110 18:56 07.11.2019
4831 Clouds 27 1012 69 9000 2.1 110 18:37 07.11.2019
4832 Clouds 27 1012 69 9000 2.1 110 18:19 07.11.2019
4833 Clouds 29 1012 69 9000 2.6 110 17:40 07.11.2019
4834 Clouds 29 1012 66 9000 2.6 120 17:22 07.11.2019
4835 Clouds 29 1012 66 9000 2.6 120 16:59 07.11.2019
4836 Clouds 29 1012 66 9000 3.1 100 16:40 07.11.2019
4837 Clouds 29 1012 66 9000 3.1 100 16:40 07.11.2019
4838 Clouds 29 1012 66 9000 3.1 100 16:21 07.11.2019
4839 Clouds 29 1012 66 9000 3.1 100 15:59 07.11.2019
4840 Clouds 30 1012 62 9000 3.1 110 15:39 07.11.2019
4841 Clouds 30 1011 62 9000 4.1 100 15:19 07.11.2019
4842 Clouds 30 1011 62 10000 2.6 110 14:45 07.11.2019
4843 Clouds 30 1011 62 10000 2.6 110 14:27 07.11.2019
4844 Clouds 31 1010 58 10000 1.5 110 13:57 07.11.2019
4845 Clouds 31 1010 58 10000 1.5 110 13:39 07.11.2019
4846 Clouds 31 1010 58 10000 1.5 110 13:21 07.11.2019
4847 Clouds 31 1010 58 10000 1.5 110 13:21 07.11.2019
4848 Clouds 32 1009 55 10000 2.1 120 12:58 07.11.2019
4849 Clouds 32 1009 52 10000 3.6 110 12:40 07.11.2019
4850 Clouds 32 1009 52 10000 3.6 110 12:21 07.11.2019
4851 Clouds 32 1009 55 10000 4.6 100 11:59 07.11.2019
4852 Clouds 32 1008 52 10000 4.1 120 11:40 07.11.2019
4853 Clouds 33 1008 52 10000 4.1 120 11:20 07.11.2019
4854 Clouds 33 1008 49 10000 4.1 100 10:40 07.11.2019
4855 Clouds 34 1008 49 10000 4.1 100 10:19 07.11.2019
4856 Clouds 34 1008 49 10000 4.1 80 09:44 07.11.2019
4857 Clouds 34 1008 49 10000 4.1 80 09:23 07.11.2019
4858 Clouds 34 1008 49 10000 4.1 80 09:23 07.11.2019
4859 Clouds 34 1009 52 10000 4.1 60 08:57 07.11.2019
4860 -273 0 0 0 0 0 08:56 07.11.2019
4861 Clouds 34 1009 52 10000 4.1 60 08:56 07.11.2019
4862 Clouds 33 1009 49 10000 2.6 70 08:37 07.11.2019
4863 Clouds 33 1009 49 10000 2.6 70 08:19 07.11.2019
4864 Clouds 33 1010 52 10000 4.1 70 07:41 07.11.2019
4865 Clouds 34 1010 52 10000 4.1 70 07:22 07.11.2019
4866 Clouds 34 1010 52 10000 3.6 70 06:48 07.11.2019
4867 Clouds 34 1011 55 9000 2.6 70 06:48 07.11.2019
4868 Clouds 34 1011 55 9000 2.6 70 06:28 07.11.2019
4869 Clouds 34 1011 55 9000 3.1 80 05:57 07.11.2019
4870 Clouds 33 1012 55 9000 4.1 110 05:38 07.11.2019
4871 Clouds 33 1012 55 9000 4.1 110 05:19 07.11.2019
4872 -273 0 0 0 0 0 04:42 07.11.2019
4873 -273 0 0 0 0 0 02:58 07.11.2019
4874 Mist 26 1010 88 5000 2.55 68 00:57 07.11.2019
4875 Clouds 27 1009 88 9000 2.55 68 00:22 07.11.2019
4876 Clouds 27 1009 88 9000 2.55 68 00:21 07.11.2019
4877 Clouds 27 1009 88 9000 2.55 68 00:21 07.11.2019
4878 Clouds 26 1009 88 9000 2.55 68 23:48 06.11.2019
4879 Clouds 26 1009 88 9000 1.91 79 23:22 06.11.2019
4880 Clouds 26 1008 83 9000 1.5 100 22:57 06.11.2019
4881 Clouds 27 1008 83 9000 2.1 100 22:38 06.11.2019
4882 Clouds 26 1008 83 9000 2.1 100 22:19 06.11.2019
4883 Clouds 26 1008 78 9000 1.5 110 21:42 06.11.2019
4884 Clouds 26 1008 78 9000 1.5 110 21:22 06.11.2019
4885 Clouds 27 1008 78 10000 2.1 90 20:59 06.11.2019
4886 Clouds 27 1008 78 10000 1.5 90 20:41 06.11.2019
4887 Clouds 27 1008 78 10000 1.5 90 20:22 06.11.2019
4888 Clouds 28 1008 69 10000 2.6 110 19:59 06.11.2019
4889 Clouds 28 1009 69 10000 1.78 213 19:40 06.11.2019
4890 Clouds 28 1009 69 10000 1.78 213 19:21 06.11.2019
4891 Clouds 28 1009 74 10000 1.78 213 18:58 06.11.2019
4892 Clouds 28 1009 69 10000 1.78 213 18:39 06.11.2019
4893 Clouds 28 1009 69 10000 1.78 213 18:19 06.11.2019
4894 Clouds 28 1009 69 10000 1.78 213 17:57 06.11.2019
4895 Clouds 28 1010 74 10000 1.78 213 17:39 06.11.2019
4896 Clouds 28 1010 74 10000 1.01 188 17:21 06.11.2019
4897 Clouds 28 1010 74 10000 1.01 188 16:55 06.11.2019
4898 Clouds 29 1010 69 10000 1 190 16:37 06.11.2019
4899 Clouds 29 1010 69 10000 1 190 16:18 06.11.2019
4900 Clouds 28 1010 74 10000 1.5 180 15:54 06.11.2019
4901 Clouds 28 1009 66 10000 1.5 150 15:36 06.11.2019
4902 Clouds 28 1009 66 10000 1.5 150 15:18 06.11.2019
4903 Clouds 28 1009 66 10000 1.5 130 14:55 06.11.2019
4904 Clouds 29 1008 62 10000 2.6 120 14:37 06.11.2019
4905 Clouds 30 1008 62 10000 2.6 120 14:18 06.11.2019
4906 Clouds 31 1007 58 10000 2.1 130 13:39 06.11.2019
4907 Clouds 31 1007 58 10000 2.1 130 13:39 06.11.2019
4908 Clouds 31 1007 58 10000 2.1 130 13:21 06.11.2019
4909 Clouds 31 1007 58 10000 2.6 110 12:58 06.11.2019
4910 Clouds 31 1006 58 10000 2.6 70 12:39 06.11.2019
4911 Clouds 30 1006 58 10000 2.6 70 12:20 06.11.2019
4912 Clouds 30 1006 58 10000 3.1 70 11:58 06.11.2019
4913 Clouds 31 1006 52 10000 2.1 90 11:37 06.11.2019
4914 Clouds 32 1006 52 10000 2.1 90 11:18 06.11.2019
4915 Clouds 32 1006 52 10000 2.1 90 11:18 06.11.2019
4916 Clouds 32 1006 52 10000 2.6 100 10:56 06.11.2019
4917 Clouds 33 1006 49 10000 2.6 30 10:37 06.11.2019
4918 Clouds 32 1006 49 10000 2.6 30 10:19 06.11.2019
4919 Clouds 34 1006 49 10000 3.1 80 09:43 06.11.2019
4920 Clouds 34 1006 49 10000 3.1 80 09:43 06.11.2019
4921 Clouds 34 1006 52 10000 2.6 60 09:21 06.11.2019
4922 Clouds 33 1007 52 10000 2.6 50 08:57 06.11.2019
4923 Clouds 33 1007 49 10000 3.6 90 08:38 06.11.2019
4924 Clouds 33 1007 49 10000 3.6 90 08:19 06.11.2019
4925 Clouds 33 1008 55 10000 2.6 110 07:55 06.11.2019
4926 Clouds 34 1008 55 10000 1 50 07:36 06.11.2019
4927 Clouds 34 1008 55 10000 1 50 07:18 06.11.2019
4928 Clouds 34 1009 59 10000 2.6 0 06:40 06.11.2019
4929 Clouds 34 1009 59 10000 2.6 0 06:22 06.11.2019
4930 Clouds 32 1011 62 10000 4.6 130 03:52 06.11.2019
4931 Clouds 27 1010 78 10000 1 0 02:18 06.11.2019
4932 Clouds 26 1009 78 10000 1.55 5 00:55 06.11.2019
4933 Clouds 26 1008 83 10000 1.55 5 00:27 06.11.2019
4934 Clouds 26 1008 78 10000 1.55 5 23:57 05.11.2019
4935 Clouds 26 1008 78 10000 0.5 130 23:37 05.11.2019
4936 Clouds 26 1008 78 10000 0.5 130 23:37 05.11.2019
4937 Clouds 26 1008 78 10000 0.5 130 23:18 05.11.2019
4938 Clouds 26 1008 74 10000 1 120 22:42 05.11.2019
4939 Clouds 27 1008 74 10000 1.5 140 22:19 05.11.2019
4940 Clouds 27 1008 74 10000 2.1 140 21:57 05.11.2019
4941 Clouds 27 1008 65 10000 2.1 130 21:39 05.11.2019
4942 Clouds 27 1008 65 10000 2.1 130 21:20 05.11.2019
4943 Clouds 27 1008 65 10000 2.1 130 20:56 05.11.2019
4944 Clouds 27 1008 69 10000 2.1 140 20:38 05.11.2019
4945 Clouds 27 1008 69 10000 2.1 140 20:38 05.11.2019
4946 Clouds 27 1008 69 10000 2.1 140 20:20 05.11.2019
4947 Clouds 28 1009 66 10000 2.1 140 19:54 05.11.2019
4948 Clouds 28 1009 66 10000 2.1 140 19:54 05.11.2019
4949 Clouds 28 1009 70 10000 2.6 140 19:36 05.11.2019
4950 Clouds 28 1009 70 10000 2.6 140 19:18 05.11.2019
4951 Clouds 28 1009 70 10000 2.6 120 18:55 05.11.2019
4952 Clouds 28 1010 66 10000 2.75 80 18:37 05.11.2019
4953 Clouds 28 1010 66 10000 2.75 80 18:18 05.11.2019
4954 Clouds 28 1010 70 10000 2.75 80 17:39 05.11.2019
4955 Clouds 28 1010 70 10000 1.89 288 17:21 05.11.2019
4956 Clouds 28 1010 66 10000 1.5 180 16:59 05.11.2019
4957 Clouds 28 1010 66 10000 1.5 180 16:41 05.11.2019
4958 Clouds 28 1010 70 10000 1.89 288 16:20 05.11.2019
4959 Clouds 28 1010 66 10000 1.89 288 15:41 05.11.2019
4960 Clouds 28 1009 62 10000 1 30 15:20 05.11.2019
4961 Clouds 28 1009 62 10000 1 20 14:59 05.11.2019
4962 Clouds 28 1009 62 10000 1 20 14:41 05.11.2019
4963 Clouds 29 1009 66 10000 1.58 280 14:22 05.11.2019
4964 Clouds 29 1008 62 10000 1.5 320 13:58 05.11.2019
4965 Clouds 29 1008 58 10000 2.6 330 13:40 05.11.2019
4966 Clouds 29 1008 58 10000 2.6 330 13:22 05.11.2019
4967 Clouds 29 1007 58 10000 3.1 20 12:40 05.11.2019
4968 Clouds 29 1007 58 10000 3.1 20 12:22 05.11.2019
4969 Clouds 29 1007 52 10000 2.1 70 11:57 05.11.2019
4970 Clouds 31 1007 52 10000 2.1 100 11:38 05.11.2019
4971 Clouds 32 1007 52 10000 2.1 100 11:19 05.11.2019
4972 Clouds 33 1007 52 10000 1 0 10:48 05.11.2019
4973 Clouds 33 1007 55 10000 1 0 10:27 05.11.2019
4974 Clouds 33 1007 49 10000 2.1 0 09:59 05.11.2019
4975 Clouds 33 1007 49 10000 2.1 0 09:59 05.11.2019
4976 Clouds 33 1007 52 10000 2.1 0 09:41 05.11.2019
4977 Clouds 33 1007 52 10000 2.1 0 09:21 05.11.2019
4978 Clouds 33 1007 49 10000 3.1 90 08:57 05.11.2019
4979 Clouds 33 1008 52 10000 3.1 60 08:37 05.11.2019
4980 Clouds 33 1008 52 10000 3.1 60 08:19 05.11.2019
4981 Clouds 33 1009 55 10000 2.6 120 07:45 05.11.2019
4982 Clouds 33 1009 55 9000 3.6 60 07:26 05.11.2019
4983 Clouds 33 1010 58 9000 3.1 80 06:52 05.11.2019
4984 Clouds 33 1010 58 9000 2.6 100 06:30 05.11.2019
4985 Clouds 32 1011 58 9000 4.1 100 05:44 05.11.2019
4986 Clouds 31 1011 58 9000 5.1 110 05:20 05.11.2019
4987 Clouds 31 1012 62 9000 4.6 100 04:22 05.11.2019
4988 Clouds 31 1012 66 9000 2.6 130 03:29 05.11.2019
4989 Clouds 30 1012 74 9000 1.5 120 02:42 05.11.2019
4990 Mist 28 1011 78 5000 1 0 01:53 05.11.2019
4991 Mist 26 1011 94 3000 4.72 56 00:46 05.11.2019
4992 Mist 26 1011 88 3000 4.72 56 00:25 05.11.2019
4993 Mist 26 1010 94 5000 4.72 56 23:42 04.11.2019
4994 Mist 26 1010 88 5000 1.5 330 23:19 04.11.2019
4995 Mist 26 1010 83 5000 0.5 0 22:56 04.11.2019
4996 Mist 26 1010 83 5000 0.5 0 22:56 04.11.2019
4997 Mist 26 1010 88 5000 1.5 350 22:37 04.11.2019
4998 Mist 26 1010 88 5000 1.5 350 22:19 04.11.2019
4999 Mist 26 1010 88 5000 2.87 39 21:54 04.11.2019
5000 Clouds 26 1010 88 8000 2.87 39 21:36 04.11.2019
5001 Clouds 26 1010 88 8000 2.87 39 21:18 04.11.2019
5002 Clouds 26 1010 88 8000 2.87 39 20:55 04.11.2019
5003 Clouds 27 1010 88 8000 1 60 20:36 04.11.2019
5004 Clouds 27 1010 88 8000 1 60 20:18 04.11.2019
5005 Clouds 27 1010 88 8000 0.5 50 19:42 04.11.2019
5006 Clouds 27 1011 83 9000 1.5 20 19:23 04.11.2019
5007 Clouds 27 1011 83 10000 2.1 350 18:59 04.11.2019
5008 Clouds 27 1011 78 10000 1.5 330 18:40 04.11.2019
5009 Clouds 27 1011 78 10000 1.5 330 18:21 04.11.2019
5010 Clouds 27 1012 78 10000 1.5 300 17:58 04.11.2019
5011 Clouds 27 1012 78 10000 2.1 320 17:36 04.11.2019
5012 Clouds 27 1012 78 10000 2.1 320 17:18 04.11.2019
5013 Clouds 27 1012 78 10000 0.5 330 16:43 04.11.2019
5014 Clouds 27 1012 78 10000 1 330 16:24 04.11.2019
5015 Clouds 27 1012 78 10000 0.93 56 15:58 04.11.2019
5016 Clouds 27 1012 70 10000 1.5 270 15:40 04.11.2019
5017 Clouds 28 1012 70 10000 1.5 270 15:21 04.11.2019
5018 Clouds 28 1012 70 10000 0.93 56 14:58 04.11.2019
5019 Clouds 28 1011 70 10000 0.93 56 14:39 04.11.2019
5020 Clouds 28 1011 70 10000 1.68 337 14:20 04.11.2019
5021 Clouds 28 1011 70 10000 0.5 0 13:57 04.11.2019
5022 Clouds 28 1010 74 10000 1.68 337 13:39 04.11.2019
5023 Clouds 28 1010 74 10000 1.13 27 13:20 04.11.2019
5024 Clouds 28 1010 74 10000 1 0 12:49 04.11.2019
5025 Clouds 29 1010 83 10000 1.5 210 12:29 04.11.2019
5026 Clouds 29 1010 74 10000 2.1 170 11:59 04.11.2019
5027 Clouds 29 1009 78 10000 3.1 170 11:41 04.11.2019
5028 Clouds 30 1009 78 10000 3.1 170 11:22 04.11.2019
5029 Rain 29 1009 78 8000 3.1 170 10:54 04.11.2019
5030 Rain 30 1009 74 8000 4.6 140 10:36 04.11.2019
5031 Rain 31 1009 74 8000 4.6 140 10:18 04.11.2019
5032 Rain 31 1009 62 9000 4.1 320 09:40 04.11.2019
5033 Rain 32 1009 62 9000 4.1 320 09:20 04.11.2019
5034 Clouds 32 1010 59 9000 3.1 320 08:43 04.11.2019
5035 Clouds 32 1010 62 9000 3.6 360 08:23 04.11.2019
5036 Clouds 32 1010 58 9000 2.6 340 07:59 04.11.2019
5037 Clouds 32 1010 58 9000 2.6 340 07:41 04.11.2019
5038 Clouds 32 1011 55 9000 1.5 60 07:19 04.11.2019
5039 Clouds 32 1011 55 9000 1 0 06:47 04.11.2019
5040 Clouds 32 1012 55 9000 2.6 120 06:18 04.11.2019
5041 Clouds 31 1013 58 9000 1.5 0 05:32 04.11.2019
5042 Clouds 29 1013 74 9000 1 0 04:34 04.11.2019
5043 Clouds 30 1013 78 9000 1 0 03:39 04.11.2019
5044 Clouds 26 1012 100 10000 1 0 01:37 04.11.2019
5045 Clouds 26 1012 100 10000 1 0 01:18 04.11.2019
5046 Clouds 25 1012 94 10000 2.1 30 00:22 04.11.2019
5047 Clouds 25 1011 94 10000 2.1 30 23:58 03.11.2019
5048 Clouds 25 1011 94 10000 2.1 30 23:38 03.11.2019
5049 Clouds 25 1011 94 10000 2.1 30 23:19 03.11.2019
5050 Clouds 25 1011 94 10000 2.6 30 22:56 03.11.2019
5051 Clouds 25 1011 100 10000 2.1 60 22:38 03.11.2019
5052 Clouds 25 1011 100 10000 2.1 60 22:19 03.11.2019
5053 Clouds 26 1011 100 10000 2.1 50 21:43 03.11.2019
5054 Clouds 26 1011 100 10000 2.1 50 21:43 03.11.2019
5055 Clouds 26 1011 100 10000 3.02 46 21:21 03.11.2019
5056 Clouds 25 1011 94 10000 3.02 46 20:58 03.11.2019
5057 Clouds 25 1011 100 10000 3.02 46 20:38 03.11.2019
5058 Clouds 25 1011 100 10000 3.02 46 20:38 03.11.2019
5059 Clouds 25 1011 100 10000 2.11 40 20:19 03.11.2019
5060 Clouds 25 1011 100 10000 1.41 358 19:57 03.11.2019
5061 Clouds 26 1012 94 10000 1.5 250 19:38 03.11.2019
5062 Clouds 26 1012 94 10000 1.5 250 19:20 03.11.2019
5063 Rain 25 1012 100 10000 1.5 230 18:56 03.11.2019
5064 Rain 25 1012 94 10000 1.5 220 18:37 03.11.2019
5065 Rain 25 1012 94 10000 1.5 220 18:18 03.11.2019
5066 Rain 25 1012 100 10000 2.6 210 17:42 03.11.2019
5067 Rain 25 1013 94 10000 3.1 210 17:20 03.11.2019
5068 Rain 25 1013 100 10000 3.1 210 16:59 03.11.2019
5069 Thunderstorm 25 1013 100 9000 3.1 210 16:40 03.11.2019
5070 Thunderstorm 25 1013 100 9000 3.1 210 16:21 03.11.2019
5071 Thunderstorm 25 1013 100 9000 3.1 210 15:58 03.11.2019
5072 Thunderstorm 24 1014 100 3000 9.3 100 15:39 03.11.2019
5073 Thunderstorm 24 1014 100 3000 9.3 100 15:21 03.11.2019
5074 Rain 27 1011 83 9000 4.1 190 14:43 03.11.2019
5075 Rain 28 1011 83 9000 4.1 190 14:20 03.11.2019
5076 Clouds 29 1010 70 10000 2.6 250 13:59 03.11.2019
5077 Clouds 30 1010 70 10000 3.6 240 13:40 03.11.2019
5078 Clouds 30 1010 70 10000 3.6 240 13:18 03.11.2019
5079 Clouds 31 1009 66 10000 3.1 240 12:39 03.11.2019
5080 Clouds 30 1009 66 10000 3.1 240 12:20 03.11.2019
5081 Clouds 31 1008 59 10000 2.1 70 11:59 03.11.2019
5082 Clouds 31 1008 59 10000 2.1 70 11:41 03.11.2019
5083 Clouds 32 1008 59 10000 2.1 60 11:20 03.11.2019
5084 Clouds 32 1007 59 10000 2.6 10 10:55 03.11.2019
5085 Clouds 32 1007 59 10000 3.1 50 10:37 03.11.2019
5086 Clouds 32 1007 59 10000 3.1 50 10:37 03.11.2019
5087 Clouds 32 1007 59 10000 3.1 50 10:18 03.11.2019
5088 Clouds 32 1007 59 10000 3.1 50 10:18 03.11.2019
5089 Clouds 33 1007 52 10000 2.1 130 09:42 03.11.2019
5090 Clouds 33 1007 55 10000 2.1 60 09:24 03.11.2019
5091 Clouds 33 1008 59 10000 2.6 80 08:56 03.11.2019
5092 Clouds 33 1008 59 10000 2.6 80 08:56 03.11.2019
5093 Clouds 33 1008 55 10000 2.6 100 08:36 03.11.2019
5094 Clouds 33 1008 55 10000 2.6 100 08:18 03.11.2019
5095 Clouds 33 1009 59 10000 2.1 100 07:44 03.11.2019
5096 Clouds 33 1010 59 10000 3.1 90 07:20 03.11.2019
5097 Clouds 33 1010 59 10000 3.1 90 07:20 03.11.2019
5098 Clouds 33 1011 62 10000 2.6 70 06:39 03.11.2019
5099 Clouds 32 1011 66 10000 1.5 0 05:52 03.11.2019
5100 Clouds 32 1012 66 10000 2.6 0 05:32 03.11.2019
5101 Clouds 30 1012 70 10000 2.6 10 04:51 03.11.2019
5102 Clouds 30 1012 79 10000 3.6 30 03:58 03.11.2019
5103 Clouds 29 1012 83 9000 2.6 20 03:19 03.11.2019
5104 Clouds 27 1012 94 8000 2.6 360 02:23 03.11.2019
5105 Clouds 26 1012 88 7000 2.1 340 01:49 03.11.2019
5106 Mist 26 1011 94 5000 2.6 340 01:25 03.11.2019
5107 Mist 26 1011 94 3000 1 0 00:57 03.11.2019
5108 Mist 25 1010 94 4000 1.5 340 00:38 03.11.2019
5109 Mist 25 1010 94 4000 1.5 340 00:19 03.11.2019
5110 Clouds 25 1010 94 6000 2.1 340 23:40 02.11.2019
5111 Clouds 25 1010 94 6000 2.1 340 23:20 02.11.2019
5112 Mist 26 1010 94 5000 0.5 0 22:57 02.11.2019
5113 Mist 26 1010 100 5000 1 0 22:38 02.11.2019
5114 Mist 25 1010 100 5000 1 0 22:20 02.11.2019
5115 Clouds 25 1010 100 6000 3.87 333 21:57 02.11.2019
5116 Clouds 25 1010 100 7000 2.6 360 21:38 02.11.2019
5117 Clouds 25 1010 100 7000 2.6 360 21:19 02.11.2019
5118 Clouds 25 1010 100 7000 2.6 360 21:19 02.11.2019
5119 Clouds 25 1010 100 6000 2.1 10 20:59 02.11.2019
5120 Clouds 25 1010 100 6000 2.1 10 20:41 02.11.2019
5121 Clouds 25 1010 100 6000 2.1 10 20:41 02.11.2019
5122 Clouds 26 1010 94 6000 3.1 310 20:21 02.11.2019
5123 Clouds 26 1010 94 6000 3.1 320 19:58 02.11.2019
5124 Clouds 26 1011 94 6000 2.6 300 19:36 02.11.2019
5125 Clouds 26 1011 94 6000 2.6 300 19:18 02.11.2019
5126 Clouds 26 1011 94 7000 3.1 280 18:54 02.11.2019
5127 Clouds 26 1011 88 8000 3.1 300 18:36 02.11.2019
5128 Clouds 26 1011 88 8000 3.1 300 18:18 02.11.2019
5129 Clouds 26 1011 88 8000 3.1 300 18:18 02.11.2019
5130 Clouds 26 1012 88 8000 2.1 320 17:42 02.11.2019
5131 Clouds 27 1012 88 8000 2.1 330 17:24 02.11.2019
5132 Clouds 27 1012 88 8000 1.5 350 16:59 02.11.2019
5133 Clouds 27 1012 88 8000 2.1 340 16:39 02.11.2019
5134 Clouds 27 1012 88 8000 2.1 340 16:20 02.11.2019
5135 Clouds 27 1012 88 9000 2.6 330 15:43 02.11.2019
5136 Clouds 27 1011 88 9000 2.6 320 15:21 02.11.2019
5137 Clouds 27 1011 88 9000 2.6 340 14:57 02.11.2019
5138 Clouds 27 1011 78 9000 1.5 340 14:39 02.11.2019
5139 Clouds 27 1011 78 9000 1.5 340 14:20 02.11.2019
5140 Clouds 27 1010 78 9000 0.5 0 13:40 02.11.2019
5141 Clouds 28 1010 78 9000 0.5 0 13:20 02.11.2019
5142 Clouds 28 1009 74 8000 2.1 110 12:57 02.11.2019
5143 Clouds 28 1009 70 8000 2.1 100 12:38 02.11.2019
5144 Clouds 28 1009 70 8000 2.1 100 12:19 02.11.2019
5145 Clouds 29 1009 74 9000 1.5 20 11:42 02.11.2019
5146 Clouds 29 1008 70 9000 1.5 350 11:24 02.11.2019
5147 Clouds 29 1008 74 9000 2.1 20 10:57 02.11.2019
5148 Clouds 29 1008 74 9000 2.1 40 10:39 02.11.2019
5149 Clouds 29 1008 74 9000 2.1 40 10:18 02.11.2019
5150 Clouds 29 1008 74 9000 2.1 40 10:18 02.11.2019
5151 Clouds 29 1008 74 9000 2.1 60 09:42 02.11.2019
5152 Clouds 29 1008 74 10000 2.6 50 09:22 02.11.2019
5153 Clouds 29 1009 74 10000 2.6 70 08:51 02.11.2019
5154 Clouds 28 1009 74 8000 2.1 60 08:24 02.11.2019
5155 Clouds 28 1010 74 8000 2.6 50 07:57 02.11.2019
5156 Clouds 28 1010 74 8000 2.6 50 07:57 02.11.2019
5157 Clouds 28 1010 78 8000 2.1 50 07:39 02.11.2019
5158 Clouds 28 1010 78 8000 2.1 50 07:20 02.11.2019
5159 Clouds 27 1010 69 9000 2.6 60 06:46 02.11.2019
5160 Clouds 27 1011 78 8000 3.1 50 06:21 02.11.2019
5161 Clouds 26 1011 83 8000 3.1 20 05:41 02.11.2019
5162 Clouds 26 1012 83 8000 4.1 30 04:24 02.11.2019
5163 Clouds 25 1012 88 8000 2.6 350 03:51 02.11.2019
5164 Clouds 25 1012 88 8000 3.1 330 03:28 02.11.2019
5165 Clouds 24 1011 94 8000 3.1 340 01:57 02.11.2019
5166 Clouds 24 1011 94 8000 3.1 340 01:27 02.11.2019
5167 Clouds 24 1010 94 8000 3.6 340 00:55 02.11.2019
5168 Clouds 24 1010 88 10000 3.6 350 00:29 02.11.2019
5169 Clouds 24 1010 88 10000 3.1 350 23:55 01.11.2019
5170 Clouds 24 1009 88 10000 3.6 340 23:37 01.11.2019
5171 Clouds 24 1009 88 10000 3.6 340 23:37 01.11.2019
5172 Clouds 24 1009 88 10000 3.6 340 23:18 01.11.2019
5173 Clouds 24 1009 88 10000 3.1 340 22:41 01.11.2019
5174 Clouds 24 1010 88 10000 3.1 340 22:41 01.11.2019
5175 Clouds 24 1010 88 10000 3.1 340 22:20 01.11.2019
5176 Clouds 24 1010 88 10000 2.6 330 21:42 01.11.2019
5177 Clouds 24 1010 88 10000 2.6 330 21:24 01.11.2019
5178 Clouds 24 1010 88 10000 3.6 20 20:59 01.11.2019
5179 Clouds 24 1010 88 10000 3.6 20 20:41 01.11.2019
5180 Clouds 24 1010 88 10000 3.6 10 20:21 01.11.2019
5181 Clouds 24 1010 88 10000 3.1 10 19:57 01.11.2019
5182 Clouds 24 1010 88 10000 3.6 20 19:39 01.11.2019
5183 Clouds 24 1010 88 10000 3.6 20 19:20 01.11.2019
5184 Clouds 24 1011 88 10000 3.1 20 18:40 01.11.2019
5185 Clouds 24 1011 88 10000 3.1 20 18:21 01.11.2019
5186 Clouds 24 1011 88 10000 2.6 360 17:56 01.11.2019
5187 Clouds 24 1011 88 10000 2.6 360 17:56 01.11.2019
5188 Clouds 24 1011 88 10000 3.1 340 17:38 01.11.2019
5189 Clouds 25 1011 88 10000 3.1 340 17:19 01.11.2019
5190 Clouds 24 1011 88 10000 3.6 10 16:39 01.11.2019
5191 Clouds 24 1011 88 10000 3.6 10 16:20 01.11.2019
5192 Clouds 24 1011 88 10000 3.6 10 16:20 01.11.2019
5193 Clouds 25 1011 88 10000 4.1 360 15:55 01.11.2019
5194 Clouds 25 1011 88 10000 4.1 10 15:37 01.11.2019
5195 Clouds 24 1011 88 10000 4.1 10 15:19 01.11.2019
5196 Clouds 25 1011 88 10000 5.1 10 14:42 01.11.2019
5197 Clouds 25 1010 88 10000 5.1 20 14:24 01.11.2019
5198 Clouds 24 1010 88 10000 4.6 20 13:57 01.11.2019
5199 Clouds 24 1009 88 10000 5.1 10 13:39 01.11.2019
5200 Clouds 25 1009 88 10000 5.1 10 13:20 01.11.2019
5201 Clouds 25 1009 88 10000 4.1 20 12:43 01.11.2019
5202 Clouds 25 1009 88 10000 5.7 10 12:25 01.11.2019
5203 Clouds 25 1009 88 9000 5.1 10 11:59 01.11.2019
5204 Rain 25 1009 88 7000 5.1 10 11:40 01.11.2019
5205 Rain 26 1009 88 7000 5.1 10 11:22 01.11.2019
5206 Clouds 26 1008 74 10000 4.6 10 10:42 01.11.2019
5207 Clouds 26 1008 74 10000 4.6 10 10:22 01.11.2019
5208 Clouds 26 1008 74 10000 5.7 10 09:57 01.11.2019
5209 Clouds 26 1008 74 10000 5.7 20 09:38 01.11.2019
5210 Clouds 26 1008 74 10000 5.7 20 09:19 01.11.2019
5211 Clouds 26 1008 74 10000 5.7 50 08:43 01.11.2019
5212 Clouds 27 1009 74 10000 5.7 20 08:22 01.11.2019
5213 Clouds 27 1009 74 10000 6.2 20 07:56 01.11.2019
5214 Clouds 27 1009 69 10000 6.2 20 07:37 01.11.2019
5215 Clouds 27 1009 69 10000 6.2 20 07:18 01.11.2019
5216 Clouds 27 1010 69 10000 7.2 10 06:41 01.11.2019
5217 Clouds 27 1010 69 10000 7.2 10 06:21 01.11.2019
5218 Clouds 27 1011 65 10000 7.7 20 05:43 01.11.2019
5219 Clouds 28 1011 69 10000 6.2 30 03:42 01.11.2019
5220 Clouds 26 1011 78 10000 6.2 20 02:49 01.11.2019
5221 Clouds 25 1010 83 10000 4.6 30 01:28 01.11.2019
5222 Clouds 26 1009 83 10000 3.6 40 00:39 01.11.2019
5223 Clouds 26 1009 83 10000 3.6 40 00:18 01.11.2019
5224 Clouds 25 1009 83 10000 2.6 20 23:42 31.10.2019
5225 Clouds 25 1009 83 10000 4.1 30 23:22 31.10.2019
5226 Clouds 25 1009 83 10000 1.5 50 22:43 31.10.2019
5227 Rain 25 1009 83 10000 1.5 70 22:25 31.10.2019
5228 Rain 25 1009 78 10000 3.1 90 21:59 31.10.2019
5229 Rain 25 1009 78 10000 3.1 90 21:41 31.10.2019
5230 Rain 25 1009 78 10000 3.1 90 21:41 31.10.2019
5231 Clouds 26 1009 78 10000 3.6 60 21:20 31.10.2019
5232 Clouds 26 1009 73 10000 5.1 60 20:55 31.10.2019
5233 Clouds 27 1009 65 10000 6.7 60 20:37 31.10.2019
5234 Clouds 27 1009 65 10000 6.7 60 20:19 31.10.2019
5235 Clouds 28 1010 58 10000 4.6 30 19:40 31.10.2019
5236 Clouds 28 1010 58 10000 4.6 30 19:21 31.10.2019
5237 Clouds 28 1010 61 10000 3.1 40 18:55 31.10.2019
5238 Clouds 28 1010 58 10000 3.1 10 18:36 31.10.2019
5239 Clouds 28 1010 58 10000 3.1 10 18:18 31.10.2019
5240 Clouds 28 1010 61 10000 4.6 20 17:41 31.10.2019
5241 Clouds 28 1010 61 10000 4.6 20 17:21 31.10.2019
5242 Clouds 29 1010 61 10000 5.1 20 16:56 31.10.2019
5243 Clouds 29 1010 61 10000 4.6 20 16:37 31.10.2019
5244 Clouds 29 1010 61 10000 4.6 20 16:18 31.10.2019
5245 Clouds 29 1011 69 10000 3.1 40 15:41 31.10.2019
5246 Clouds 29 1010 69 10000 3.6 80 15:23 31.10.2019
5247 Clouds 30 1010 62 10000 2.6 120 14:59 31.10.2019
5248 Clouds 29 1010 62 10000 2.6 120 14:41 31.10.2019
5249 Clouds 29 1009 62 10000 2.1 130 14:23 31.10.2019
5250 Clouds 29 1009 62 10000 2.1 120 13:59 31.10.2019
5251 Clouds 29 1008 55 10000 3.6 90 13:39 31.10.2019
5252 Clouds 29 1008 55 10000 3.6 90 13:19 31.10.2019
5253 Clouds 30 1008 43 10000 2.6 20 12:57 31.10.2019
5254 Clouds 30 1008 43 10000 3.6 350 12:38 31.10.2019
5255 Clouds 30 1008 43 10000 3.6 350 12:20 31.10.2019
5256 Clouds 31 1008 40 10000 4.6 340 11:46 31.10.2019
5257 Clouds 32 1007 40 10000 5.1 330 11:21 31.10.2019
5258 Clouds 32 1007 40 10000 4.1 320 10:58 31.10.2019
5259 Clouds 33 1007 40 10000 4.6 320 10:39 31.10.2019
5260 Clouds 33 1007 40 10000 4.6 320 10:21 31.10.2019
5261 Clouds 34 1007 41 10000 4.6 340 09:56 31.10.2019
5262 Clouds 34 1007 43 10000 3.6 20 09:37 31.10.2019
5263 Clouds 34 1007 43 10000 3.6 20 09:18 31.10.2019
5264 Clouds 34 1007 43 10000 5.1 40 08:44 31.10.2019
5265 Clouds 33 1008 43 10000 5.1 10 08:26 31.10.2019
5266 Clouds 33 1008 46 10000 3.6 20 07:48 31.10.2019
5267 Clouds 33 1008 45 10000 4.6 10 07:27 31.10.2019
5268 Clouds 33 1009 45 10000 3.6 40 06:54 31.10.2019
5269 Clouds 33 1009 43 10000 4.1 40 06:32 31.10.2019
5270 Clouds 31 1010 42 10000 4.6 20 05:27 31.10.2019
5271 Clouds 29 1011 61 10000 4.1 30 03:20 31.10.2019
5272 Clouds 28 1010 69 8000 4.6 20 02:30 31.10.2019
5273 Clouds 25 1010 65 8000 2.6 350 01:24 31.10.2019
5274 Clouds 25 1009 73 10000 3.1 10 00:27 31.10.2019
5275 Clouds 24 1009 73 10000 3.1 20 23:52 30.10.2019
5276 Clouds 25 1008 69 10000 4.1 10 23:27 30.10.2019
5277 Clouds 25 1008 65 10000 3.1 360 22:43 30.10.2019
5278 Clouds 25 1008 65 10000 3.1 360 22:20 30.10.2019
5279 Clouds 25 1009 65 10000 2.6 20 21:55 30.10.2019
5280 Clouds 25 1009 61 10000 2.1 10 21:37 30.10.2019
5281 Clouds 25 1009 61 10000 2.1 10 21:37 30.10.2019
5282 Clouds 26 1009 61 10000 2.1 10 21:18 30.10.2019
5283 Clouds 25 1009 69 10000 2.6 40 20:58 30.10.2019
5284 Clouds 26 1009 69 10000 2.1 20 20:39 30.10.2019
5285 Clouds 26 1009 69 10000 2.1 20 20:21 30.10.2019
5286 Clouds 26 1009 65 10000 1.5 20 19:54 30.10.2019
5287 Clouds 27 1010 65 10000 2.1 50 19:36 30.10.2019
5288 Clouds 27 1010 65 10000 2.1 50 19:18 30.10.2019
5289 Clouds 27 1010 57 10000 2.1 70 18:39 30.10.2019
5290 Clouds 27 1010 57 10000 2.1 70 18:19 30.10.2019
5291 Clouds 27 1010 57 10000 1 60 17:56 30.10.2019
5292 Clouds 27 1010 61 10000 1 90 17:38 30.10.2019
5293 Clouds 28 1010 61 10000 1 90 17:18 30.10.2019
5294 Clouds 28 1010 61 10000 2.1 70 16:54 30.10.2019
5295 Clouds 28 1010 61 10000 2.6 60 16:36 30.10.2019
5296 Clouds 28 1010 61 10000 2.6 60 16:18 30.10.2019
5297 Clouds 29 1010 58 10000 3.1 70 15:41 30.10.2019
5298 Clouds 29 1010 58 10000 3.1 70 15:21 30.10.2019
5299 Clouds 29 1010 51 10000 3.1 80 14:59 30.10.2019
5300 Clouds 29 1010 51 10000 3.1 80 14:41 30.10.2019
5301 Clouds 29 1009 58 10000 3.1 80 14:22 30.10.2019
5302 Clouds 30 1009 55 10000 2.1 90 13:57 30.10.2019
5303 Clouds 30 1009 51 10000 3.1 80 13:39 30.10.2019
5304 Clouds 30 1009 51 10000 3.1 80 13:19 30.10.2019
5305 Clouds 30 1008 54 10000 3.1 40 12:46 30.10.2019
5306 Clouds 31 1008 45 10000 5.1 20 12:28 30.10.2019
5307 Clouds 31 1008 45 10000 5.1 20 12:28 30.10.2019
5308 Clouds 32 1008 43 10000 5.7 10 11:59 30.10.2019
5309 Clouds 32 1008 43 10000 5.7 20 11:41 30.10.2019
5310 Clouds 32 1008 43 10000 5.7 20 11:21 30.10.2019
5311 Clouds 32 1008 46 10000 5.7 20 10:43 30.10.2019
5312 Clouds 33 1008 46 10000 6.7 20 10:23 30.10.2019
5313 Clouds 33 1008 49 10000 5.1 20 09:43 30.10.2019
5314 Clouds 33 1008 55 10000 4.1 50 09:24 30.10.2019
5315 Clouds 33 1008 62 10000 4.1 50 08:58 30.10.2019
5316 Clouds 33 1008 62 10000 3.1 50 08:39 30.10.2019
5317 Clouds 32 1008 62 10000 3.1 50 08:20 30.10.2019
5318 Clouds 32 1009 59 10000 1.5 10 07:46 30.10.2019
5319 Clouds 32 1009 62 10000 2.1 50 07:24 30.10.2019
5320 Clouds 33 1009 62 10000 2.6 80 06:42 30.10.2019
5321 Clouds 32 1010 66 10000 2.6 360 06:21 30.10.2019
5322 Clouds 32 1011 66 10000 2.1 150 05:42 30.10.2019
5323 Clouds 31 1012 62 10000 2.1 140 04:55 30.10.2019
5324 Clouds 32 1012 66 10000 1.5 170 03:43 30.10.2019
5325 Clouds 30 1012 66 10000 2.1 90 02:52 30.10.2019
5326 Clouds 29 1012 74 10000 1.5 40 01:58 30.10.2019
5327 Clouds 27 1011 78 10000 4.34 50 00:57 30.10.2019
5328 Clouds 27 1011 78 10000 1 60 00:28 30.10.2019
5329 Clouds 27 1010 78 10000 4.34 50 23:43 29.10.2019
5330 Clouds 27 1010 83 10000 3.63 66 23:23 29.10.2019
5331 Clouds 27 1010 83 10000 1 100 22:48 29.10.2019
5332 Clouds 27 1010 83 10000 0.5 120 22:20 29.10.2019
5333 Clouds 27 1010 83 10000 3.63 66 21:58 29.10.2019
5334 Clouds 27 1010 83 10000 2.1 70 21:40 29.10.2019
5335 Clouds 27 1010 83 10000 2.1 70 21:20 29.10.2019
5336 Clouds 28 1010 78 10000 2.1 90 20:56 29.10.2019
5337 Clouds 28 1011 78 10000 2.6 100 20:37 29.10.2019
5338 Clouds 28 1011 78 10000 2.6 100 20:37 29.10.2019
5339 Clouds 28 1011 78 10000 2.6 100 20:19 29.10.2019
5340 Clouds 28 1010 83 10000 2.1 90 19:55 29.10.2019
5341 Clouds 28 1011 83 10000 2.6 100 19:37 29.10.2019
5342 Clouds 28 1011 83 10000 2.6 100 19:18 29.10.2019
5343 Clouds 29 1011 83 10000 2.1 100 18:55 29.10.2019
5344 Clouds 29 1011 83 10000 4.01 74 18:36 29.10.2019
5345 Clouds 29 1011 83 10000 4.01 74 18:18 29.10.2019
5346 Clouds 29 1012 78 10000 1 240 17:40 29.10.2019
5347 Clouds 29 1012 78 10000 1 240 17:21 29.10.2019
5348 Clouds 29 1012 74 10000 1.05 92 16:58 29.10.2019
5349 Clouds 29 1012 74 10000 1.05 92 16:38 29.10.2019
5350 Clouds 29 1012 74 10000 1.05 92 16:19 29.10.2019
5351 Clouds 29 1012 74 10000 1.5 130 15:55 29.10.2019
5352 Clouds 28 1011 78 10000 1.5 140 15:36 29.10.2019
5353 Clouds 28 1011 78 10000 1.5 140 15:36 29.10.2019
5354 Clouds 28 1011 78 10000 1.5 140 15:18 29.10.2019
5355 Rain 28 1011 78 9000 2.1 160 14:42 29.10.2019
5356 Rain 30 1011 74 9000 5.1 90 14:24 29.10.2019
5357 Clouds 31 1010 62 10000 1.5 120 13:59 29.10.2019
5358 Clouds 31 1009 62 10000 1 130 13:40 29.10.2019
5359 Clouds 31 1009 62 10000 1 130 13:21 29.10.2019
5360 Clouds 31 1009 62 10000 1 130 13:21 29.10.2019
5361 Clouds 32 1009 62 10000 2.1 130 12:44 29.10.2019
5362 Clouds 32 1008 62 10000 2.6 70 12:25 29.10.2019
5363 Clouds 32 1008 59 10000 3.1 70 11:56 29.10.2019
5364 Clouds 33 1008 59 10000 3.1 80 11:38 29.10.2019
5365 Clouds 34 1008 59 10000 3.1 80 11:18 29.10.2019
5366 Clouds 33 1008 59 10000 3.1 70 10:57 29.10.2019
5367 Clouds 34 1008 52 10000 4.1 100 10:38 29.10.2019
5368 Clouds 34 1008 52 10000 4.1 100 10:19 29.10.2019
5369 Clouds 34 1008 52 10000 4.1 90 09:42 29.10.2019
5370 Clouds 34 1008 52 10000 3.6 130 09:23 29.10.2019
5371 Clouds 34 1008 52 10000 3.6 130 09:23 29.10.2019
5372 Clouds 34 1008 55 10000 5.1 120 08:57 29.10.2019
5373 Clouds 34 1009 55 10000 3.6 130 08:39 29.10.2019
5374 Clouds 34 1009 55 10000 3.6 130 08:20 29.10.2019
5375 Clouds 33 1009 59 10000 3.6 100 07:48 29.10.2019
5376 Clouds 33 1010 59 10000 3.6 100 07:21 29.10.2019
5377 Clouds 35 1010 59 10000 3.1 110 06:54 29.10.2019
5378 Clouds 34 1011 59 10000 4.1 70 06:31 29.10.2019
5379 Clouds 34 1011 55 10000 3.6 40 05:56 29.10.2019
5380 Clouds 34 1011 59 10000 3.6 30 05:38 29.10.2019
5381 Clouds 31 1012 74 8000 2.6 10 04:52 29.10.2019
5382 Clouds 30 1012 83 8000 3.1 300 03:23 29.10.2019
5383 Clouds 28 1012 88 8000 5.71 40 01:57 29.10.2019
5384 Clouds 28 1012 94 8000 1.5 100 01:36 29.10.2019
5385 Clouds 27 1012 94 8000 1.5 110 00:53 29.10.2019
5386 Clouds 27 1011 94 10000 1.5 120 00:24 29.10.2019
5387 Clouds 27 1010 94 10000 1.5 70 23:38 28.10.2019
5388 Clouds 27 1010 94 10000 1.5 70 23:20 28.10.2019
5389 Clouds 27 1010 94 10000 1.5 70 23:20 28.10.2019
5390 Clouds 27 1010 94 10000 1.5 70 23:20 28.10.2019
5391 Clouds 28 1010 83 10000 1.5 10 22:40 28.10.2019
5392 Clouds 28 1010 83 10000 1.5 10 22:20 28.10.2019
5393 Clouds 27 1009 88 10000 1.5 330 21:59 28.10.2019
5394 Clouds 27 1009 88 10000 1.5 330 21:41 28.10.2019
5395 Clouds 27 1010 88 10000 1.5 30 21:22 28.10.2019
5396 Clouds 27 1010 88 10000 1 40 20:59 28.10.2019
5397 Clouds 27 1010 88 10000 2.85 43 20:40 28.10.2019
5398 Clouds 28 1010 88 10000 2.62 65 20:21 28.10.2019
5399 Clouds 28 1010 83 10000 1 180 19:54 28.10.2019
5400 Clouds 28 1010 94 10000 2.62 65 19:36 28.10.2019
5401 Clouds 28 1010 94 10000 2.62 65 19:18 28.10.2019
5402 Clouds 28 1011 83 10000 2.62 65 18:56 28.10.2019
5403 Clouds 28 1011 83 10000 2.62 65 18:56 28.10.2019
5404 Clouds 28 1011 88 10000 1 210 18:38 28.10.2019
5405 Clouds 28 1011 88 10000 1 210 18:20 28.10.2019
5406 Clouds 28 1011 83 10000 1 200 17:55 28.10.2019
5407 Clouds 28 1011 83 10000 1 200 17:55 28.10.2019
5408 Clouds 28 1011 88 10000 2.6 210 17:36 28.10.2019
5409 Clouds 28 1011 88 10000 2.6 210 17:18 28.10.2019
5410 Clouds 28 1011 88 10000 2.6 210 17:18 28.10.2019
5411 Clouds 28 1011 88 10000 2.6 210 17:18 28.10.2019
5412 Clouds 28 1011 88 10000 3.6 250 16:54 28.10.2019
5413 Clouds 28 1010 94 10000 2.6 220 16:36 28.10.2019
5414 Clouds 28 1010 94 10000 2.6 220 16:18 28.10.2019
5415 Thunderstorm 27 1011 100 5000 2.6 180 15:42 28.10.2019
5416 Thunderstorm 27 1011 100 5000 2.6 180 15:24 28.10.2019
5417 Thunderstorm 30 1010 66 8000 4.1 120 14:59 28.10.2019
5418 Clouds 31 1010 66 10000 1.5 180 14:40 28.10.2019
5419 Clouds 32 1010 66 10000 1.5 180 14:20 28.10.2019
5420 Clouds 32 1009 62 10000 2.1 170 13:59 28.10.2019
5421 Clouds 33 1009 62 10000 2.1 150 13:41 28.10.2019
5422 Clouds 33 1009 62 10000 2.1 150 13:18 28.10.2019
5423 Clouds 33 1008 59 10000 2.6 130 12:43 28.10.2019
5424 Clouds 33 1007 59 10000 2.6 130 12:22 28.10.2019
5425 Clouds 33 1007 52 10000 2.6 100 11:58 28.10.2019
5426 Clouds 34 1007 52 10000 3.1 70 11:37 28.10.2019
5427 Clouds 34 1007 52 10000 3.1 70 11:19 28.10.2019
5428 Clouds 34 1007 52 10000 3.6 90 10:41 28.10.2019
5429 Clouds 35 1007 52 10000 3.6 60 10:22 28.10.2019
5430 Clouds 35 1007 56 10000 3.1 60 09:58 28.10.2019
5431 Clouds 35 1007 50 10000 3.6 70 09:39 28.10.2019
5432 Clouds 35 1007 50 10000 3.6 70 09:39 28.10.2019
5433 Clouds 35 1007 50 10000 3.6 70 09:19 28.10.2019
5434 Clouds 35 1007 56 10000 2.1 360 08:57 28.10.2019
5435 Clouds 35 1008 56 10000 2.6 40 08:38 28.10.2019
5436 Clouds 35 1008 56 10000 2.6 40 08:19 28.10.2019
5437 Clouds 35 1009 52 10000 4.1 70 07:56 28.10.2019
5438 Clouds 35 1009 52 10000 3.1 50 07:36 28.10.2019
5439 Clouds 35 1009 52 10000 3.1 50 07:18 28.10.2019
5440 Clouds 35 1010 56 10000 3.1 70 06:40 28.10.2019
5441 Clouds 35 1012 59 10000 3.6 30 05:41 28.10.2019
5442 Clouds 33 1012 70 10000 4.1 340 03:48 28.10.2019
5443 Clouds 32 1012 79 10000 2.6 10 02:46 28.10.2019
5444 Clouds 30 1012 83 10000 2.1 20 02:27 28.10.2019
5445 Clouds 27 1011 88 10000 1.5 70 00:57 28.10.2019
5446 Clouds 27 1010 88 10000 1 10 00:33 28.10.2019
5447 Clouds 27 1010 78 10000 1.5 340 23:47 27.10.2019
5448 Clouds 27 1009 78 10000 1 320 23:24 27.10.2019
5449 Clouds 27 1009 78 10000 1.5 320 22:58 27.10.2019
5450 Clouds 27 1009 83 10000 2.1 280 22:40 27.10.2019
5451 Clouds 27 1009 83 10000 2.1 280 22:21 27.10.2019
5452 Clouds 27 1009 78 10000 3.1 270 21:57 27.10.2019
5453 Clouds 27 1009 83 10000 1.5 230 21:39 27.10.2019
5454 Clouds 27 1009 83 10000 1.5 230 21:21 27.10.2019
5455 Clouds 27 1010 83 10000 3.6 200 20:56 27.10.2019
5456 Clouds 28 1010 74 10000 3.6 100 20:38 27.10.2019
5457 Clouds 28 1010 74 10000 3.6 100 20:20 27.10.2019
5458 Clouds 28 1010 74 10000 3.15 62 19:54 27.10.2019
5459 Clouds 28 1011 74 10000 3.15 62 19:36 27.10.2019
5460 Clouds 28 1011 74 10000 3.15 62 19:18 27.10.2019
5461 Clouds 28 1011 74 10000 1.5 70 18:54 27.10.2019
5462 Clouds 28 1011 74 10000 1.5 130 18:36 27.10.2019
5463 Clouds 28 1011 74 10000 1.5 130 18:18 27.10.2019
5464 Clouds 28 1011 74 10000 3.15 62 17:40 27.10.2019
5465 Clouds 28 1011 74 10000 2.17 84 17:19 27.10.2019
5466 Clouds 28 1011 70 10000 1.5 200 16:57 27.10.2019
5467 Clouds 28 1011 74 10000 3.1 220 16:39 27.10.2019
5468 Clouds 28 1011 74 10000 3.1 220 16:21 27.10.2019
5469 Clouds 28 1011 70 10000 2.6 200 15:56 27.10.2019
5470 Clouds 28 1011 74 10000 2.6 200 15:37 27.10.2019
5471 Clouds 28 1011 74 10000 2.6 200 15:19 27.10.2019
5472 Clouds 28 1011 79 10000 3.1 210 14:42 27.10.2019
5473 Clouds 28 1010 79 9000 3.1 190 14:21 27.10.2019
5474 Clouds 29 1010 74 9000 3.6 160 13:58 27.10.2019
5475 Clouds 29 1009 62 9000 2.6 90 13:38 27.10.2019
5476 Clouds 30 1009 62 9000 2.6 90 13:20 27.10.2019
5477 Clouds 32 1008 62 10000 4.1 50 12:46 27.10.2019
5478 Clouds 32 1008 62 10000 4.1 50 12:46 27.10.2019
5479 Clouds 32 1008 62 10000 4.1 40 12:24 27.10.2019
5480 Clouds 32 1007 55 10000 3.1 60 11:59 27.10.2019
5481 Clouds 33 1007 52 10000 3.1 80 11:41 27.10.2019
5482 Clouds 33 1007 52 10000 3.1 80 11:21 27.10.2019
5483 Clouds 34 1007 49 10000 4.1 60 10:44 27.10.2019
5484 Clouds 35 1007 52 10000 3.1 60 10:25 27.10.2019
5485 Clouds 35 1007 52 10000 3.1 60 09:56 27.10.2019
5486 Clouds 35 1007 56 10000 2.6 80 09:38 27.10.2019
5487 Clouds 35 1007 56 10000 2.6 80 09:18 27.10.2019
5488 Clouds 35 1008 52 10000 1.5 0 08:42 27.10.2019
5489 Clouds 34 1009 56 10000 3.6 70 08:22 27.10.2019
5490 Clouds 34 1009 56 10000 4.1 60 07:56 27.10.2019
5491 Clouds 35 1010 59 10000 4.1 50 07:38 27.10.2019
5492 Clouds 34 1010 59 10000 4.1 50 07:19 27.10.2019
5493 Clouds 34 1010 59 10000 4.6 50 06:42 27.10.2019
5494 Clouds 34 1010 59 10000 4.6 50 06:42 27.10.2019
5495 Clouds 35 1011 56 10000 3.6 100 06:23 27.10.2019
5496 Clouds 34 1012 59 10000 3.1 80 05:38 27.10.2019
5497 Clouds 32 1012 62 10000 2.6 60 04:49 27.10.2019
5498 Clouds 32 1011 70 10000 3.1 80 02:52 27.10.2019
5499 Clouds 29 1010 88 10000 1 40 02:19 27.10.2019
5500 Clouds 28 1010 83 10000 4.03 357 01:24 27.10.2019
5501 Clouds 28 1009 83 10000 1 110 00:51 27.10.2019
5502 Clouds 28 1009 83 10000 1 120 00:29 27.10.2019
5503 Clouds 28 1009 83 10000 1.5 80 23:57 26.10.2019
5504 Clouds 28 1009 88 10000 2.1 100 23:39 26.10.2019
5505 Clouds 28 1009 88 10000 2.1 100 23:21 26.10.2019
5506 Clouds 29 1009 79 10000 2.6 100 22:56 26.10.2019
5507 Clouds 29 1009 83 10000 2.1 100 22:37 26.10.2019
5508 Clouds 29 1009 83 10000 2.1 100 22:18 26.10.2019
5509 Clouds 29 1009 83 10000 1.5 80 21:44 26.10.2019
5510 Clouds 29 1010 83 10000 1.5 110 21:22 26.10.2019
5511 Clouds 29 1010 83 10000 1.5 60 20:58 26.10.2019
5512 Clouds 29 1010 83 10000 2.1 50 20:38 26.10.2019
5513 Clouds 29 1010 83 10000 2.1 50 20:18 26.10.2019
5514 Clouds 29 1010 83 10000 2.1 50 20:18 26.10.2019
5515 Clouds 30 1010 83 10000 2.1 70 19:42 26.10.2019
5516 Clouds 29 1010 83 10000 2.6 70 19:20 26.10.2019
5517 Clouds 30 1011 79 10000 3.1 80 18:57 26.10.2019
5518 Clouds 30 1011 74 10000 3.1 70 18:39 26.10.2019
5519 Clouds 30 1011 74 10000 3.1 70 18:19 26.10.2019
5520 Clouds 30 1011 70 10000 1.5 100 17:56 26.10.2019
5521 Clouds 31 1011 70 10000 1.5 120 17:37 26.10.2019
5522 Clouds 31 1011 70 10000 1.5 120 17:37 26.10.2019
5523 Clouds 31 1011 70 10000 1.5 120 17:19 26.10.2019
5524 Clouds 31 1010 70 10000 2.1 130 16:43 26.10.2019
5525 Clouds 31 1010 62 10000 2.1 130 16:25 26.10.2019
5526 Clouds 31 1010 62 10000 1.5 110 15:44 26.10.2019
5527 Clouds 31 1009 66 10000 2.1 70 15:22 26.10.2019
5528 Clouds 32 1009 62 10000 1.5 80 14:59 26.10.2019
5529 Clouds 32 1009 62 10000 2.1 70 14:37 26.10.2019
5530 Clouds 32 1009 62 10000 2.1 70 14:19 26.10.2019
5531 Clouds 32 1008 62 10000 2.1 40 13:42 26.10.2019
5532 Rain 30 1009 73 0 2.87 289 13:23 26.10.2019
5533 Clouds 33 1008 55 10000 3.1 40 12:50 26.10.2019
5534 Clouds 34 1008 56 10000 3.1 60 12:27 26.10.2019
5535 Clouds 34 1008 56 10000 3.1 60 11:57 26.10.2019
5536 Clouds 34 1008 56 10000 3.1 60 11:39 26.10.2019
5537 Clouds 34 1008 56 10000 3.1 60 11:38 26.10.2019
5538 Clouds 34 1008 56 10000 3.1 60 11:20 26.10.2019
5539 Clouds 36 1008 50 10000 3.1 80 10:45 26.10.2019
5540 Clouds 35 1008 50 10000 2.1 90 10:24 26.10.2019
5541 Clouds 34 1008 55 10000 3.1 60 09:48 26.10.2019
5542 Clouds 35 1009 50 9000 2.1 30 09:28 26.10.2019
5543 Clouds 34 1009 56 9000 2.6 90 08:47 26.10.2019
5544 Clouds 34 1010 52 9000 3.1 10 08:26 26.10.2019
5545 Clouds 34 1010 59 9000 2.1 20 07:57 26.10.2019
5546 Clouds 34 1011 59 9000 2.6 60 07:33 26.10.2019
5547 Clouds 34 1011 56 9000 1.5 60 06:48 26.10.2019
5548 Clouds 33 1012 62 9000 2.1 340 06:29 26.10.2019
5549 Clouds 32 1013 66 9000 2.1 350 05:21 26.10.2019
5550 Clouds 32 1013 70 9000 1.5 360 04:58 26.10.2019
5551 Clear 30 1012 83 9000 3.6 20 03:24 26.10.2019
5552 Clouds 29 1011 88 7000 2.1 30 02:18 26.10.2019
5553 Clouds 28 1011 94 7000 3.31 20 01:42 26.10.2019
5554 Clouds 28 1010 94 9000 2.1 10 00:31 26.10.2019
5555 Clouds 29 1010 94 9000 1.5 10 23:47 25.10.2019
5556 Clouds 28 1010 100 9000 2.14 355 23:21 25.10.2019
5557 Clouds 28 1010 94 10000 1.5 60 22:43 25.10.2019
5558 Clouds 28 1010 94 10000 1.5 50 22:25 25.10.2019
5559 Clouds 29 1010 94 10000 1.5 60 21:58 25.10.2019
5560 Clouds 29 1010 94 10000 2.14 355 21:40 25.10.2019
5561 Clouds 29 1010 94 10000 1.09 100 21:22 25.10.2019
5562 Clouds 28 1011 94 10000 1.5 30 20:57 25.10.2019
5563 Clouds 29 1011 89 10000 1.09 100 20:39 25.10.2019
5564 Clouds 29 1011 89 10000 1.09 100 20:19 25.10.2019
5565 Clouds 29 1011 89 10000 1.09 100 19:45 25.10.2019
5566 Clouds 29 1011 94 10000 1.09 100 19:26 25.10.2019
5567 Clouds 29 1011 94 10000 1.09 100 19:26 25.10.2019
5568 Clouds 29 1011 89 10000 1.5 30 18:46 25.10.2019
5569 Clouds 29 1011 89 10000 1.5 100 18:24 25.10.2019
5570 Clouds 29 1011 89 10000 0.59 76 17:42 25.10.2019
5571 Clouds 29 1011 89 10000 0.59 76 17:22 25.10.2019
5572 Clouds 29 1011 89 10000 0.59 76 17:22 25.10.2019
5573 Clouds 29 1011 89 10000 0.5 0 16:59 25.10.2019
5574 Clouds 29 1011 89 10000 0.5 0 16:59 25.10.2019
5575 Clouds 29 1011 89 10000 0.5 0 16:41 25.10.2019
5576 Clouds 29 1011 94 10000 0.5 190 16:19 25.10.2019
5577 Rain 29 1011 94 8000 4.6 60 15:41 25.10.2019
5578 Clouds 30 1010 83 10000 2.6 340 15:23 25.10.2019
5579 Rain 29 1009 94 8000 2.1 230 14:59 25.10.2019
5580 Thunderstorm 29 1009 94 8000 5.7 290 14:40 25.10.2019
5581 Thunderstorm 28 1009 94 8000 5.7 290 14:22 25.10.2019
5582 Thunderstorm 30 1008 56 8000 2.1 110 13:44 25.10.2019
5583 Clouds 32 1008 56 10000 2.1 120 13:25 25.10.2019
5584 Clouds 34 1008 53 10000 3.1 100 12:58 25.10.2019
5585 Clouds 34 1007 50 10000 3.1 100 12:39 25.10.2019
5586 Clouds 34 1007 50 10000 3.1 100 12:20 25.10.2019
5587 Clouds 35 1007 53 10000 2.1 60 11:42 25.10.2019
5588 Clouds 35 1007 53 10000 2.1 60 11:23 25.10.2019
5589 Clouds 35 1007 50 10000 4.1 110 10:59 25.10.2019
5590 Clouds 35 1008 53 10000 2.6 140 10:39 25.10.2019
5591 Clouds 36 1008 53 10000 2.6 140 10:21 25.10.2019
5592 Clouds 36 1008 50 10000 3.6 100 09:55 25.10.2019
5593 Clouds 35 1008 50 10000 3.6 90 09:36 25.10.2019
5594 Clouds 35 1008 50 10000 3.6 90 09:18 25.10.2019
5595 Clouds 35 1009 53 10000 4.6 90 08:43 25.10.2019
5596 Clouds 35 1009 50 10000 4.6 120 08:23 25.10.2019
5597 Clouds 35 1010 56 10000 4.1 60 07:51 25.10.2019
5598 Clouds 35 1011 63 10000 3.6 60 07:32 25.10.2019
5599 Clouds 34 1012 63 10000 1.5 0 06:39 25.10.2019
5600 Clouds 33 1012 66 10000 2.6 140 05:51 25.10.2019
5601 Clouds 32 1013 66 10000 2.6 60 05:32 25.10.2019
5602 Clouds 32 1013 66 10000 1.5 110 04:38 25.10.2019
5603 Clouds 30 1012 83 8000 2.6 110 02:44 25.10.2019
5604 Clouds 29 1011 88 7000 2.6 110 01:53 25.10.2019
5605 Rain 29 1010 94 10000 2.6 110 00:41 25.10.2019
5606 Rain 29 1010 83 10000 2.1 120 23:57 24.10.2019
5607 Rain 29 1010 83 10000 2.1 120 23:37 24.10.2019
5608 Rain 29 1010 83 10000 2.1 120 23:37 24.10.2019
5609 Rain 29 1010 83 10000 2.1 120 23:19 24.10.2019
5610 Rain 29 1010 83 10000 1.5 110 22:54 24.10.2019
5611 Rain 29 1010 83 10000 1.5 130 22:36 24.10.2019
5612 Rain 29 1010 83 10000 1.5 130 22:18 24.10.2019
5613 Rain 29 1010 83 10000 2.47 232 21:54 24.10.2019
5614 Rain 29 1010 83 10000 2.47 232 21:54 24.10.2019
5615 Rain 29 1010 83 10000 2.47 232 21:54 24.10.2019
5616 -273 0 0 0 0 0 21:54 24.10.2019
5617 Clouds 29 1010 83 10000 1.5 160 21:36 24.10.2019
5618 Clouds 29 1010 83 10000 1.5 160 21:18 24.10.2019
5619 -273 0 0 0 0 0 20:54 24.10.2019
5620 Clouds 29 1010 79 10000 2.1 160 20:36 24.10.2019
5621 Clouds 30 1010 79 10000 2.1 160 20:18 24.10.2019
5622 Clouds 30 1011 74 10000 2.1 180 19:41 24.10.2019
5623 Clouds 30 1011 74 10000 2.1 180 19:22 24.10.2019
5624 Clouds 30 1011 74 10000 2.1 180 18:58 24.10.2019
5625 Clouds 30 1011 74 10000 1.5 170 18:38 24.10.2019
5626 Clouds 30 1011 74 10000 1.5 170 18:20 24.10.2019
5627 Clouds 30 1011 74 10000 3.6 200 17:42 24.10.2019
5628 Clouds 30 1011 74 10000 3.6 200 17:21 24.10.2019
5629 Clouds 30 1010 74 10000 2.6 210 16:58 24.10.2019
5630 Clouds 30 1010 74 10000 2.6 190 16:40 24.10.2019
5631 Clouds 30 1010 74 10000 2.6 190 16:22 24.10.2019
5632 Clouds 31 1010 70 10000 3.1 190 15:59 24.10.2019
5633 Clouds 31 1009 70 10000 3.1 180 15:40 24.10.2019
5634 Clouds 31 1009 70 10000 3.1 180 15:22 24.10.2019
5635 Clouds 31 1009 70 10000 3.1 180 15:22 24.10.2019
5636 Clouds 31 1008 70 10000 2.1 170 14:58 24.10.2019
5637 Clouds 31 1008 70 10000 2.1 170 14:58 24.10.2019
5638 Clouds 31 1008 70 10000 3.1 190 14:40 24.10.2019
5639 Clouds 31 1008 70 10000 3.1 190 14:20 24.10.2019
5640 Clouds 32 1008 52 10000 3.1 140 13:42 24.10.2019
5641 Clouds 32 1007 46 10000 2.6 120 13:20 24.10.2019
5642 Clouds 32 1007 49 10000 2.6 120 12:58 24.10.2019
5643 Clouds 32 1007 44 10000 3.1 130 12:40 24.10.2019
5644 Clouds 34 1007 44 10000 3.1 130 12:20 24.10.2019
5645 Clouds 35 1007 41 10000 2.6 110 11:57 24.10.2019
5646 Clouds 35 1007 44 10000 1 120 11:38 24.10.2019
5647 Clouds 35 1007 44 10000 1 120 11:19 24.10.2019
5648 Clouds 35 1007 47 10000 1.5 130 10:58 24.10.2019
5649 Clouds 35 1007 41 10000 2.6 150 10:38 24.10.2019
5650 Clouds 35 1007 41 10000 2.6 150 10:20 24.10.2019
5651 Clouds 35 1008 50 10000 3.6 140 09:38 24.10.2019
5652 Clouds 36 1008 50 10000 3.6 140 09:19 24.10.2019
5653 Clouds 36 1008 50 10000 3.6 80 08:54 24.10.2019
5654 Clouds 35 1009 53 10000 3.1 0 08:36 24.10.2019
5655 Clouds 35 1009 53 10000 3.1 0 08:36 24.10.2019
5656 Clouds 35 1009 53 10000 3.1 0 08:18 24.10.2019
5657 Clouds 36 1009 56 10000 3.6 120 07:42 24.10.2019
5658 Clouds 35 1010 59 10000 2.6 100 07:21 24.10.2019
5659 Clouds 34 1011 66 10000 2.1 0 06:40 24.10.2019
5660 Clouds 34 1011 66 10000 2.1 0 06:20 24.10.2019
5661 Clouds 34 1011 63 10000 1.5 130 05:48 24.10.2019
5662 Clouds 34 1012 66 10000 0.5 0 05:27 24.10.2019
5663 Clouds 32 1011 84 7000 1.5 110 03:37 24.10.2019
5664 Clouds 30 1011 89 8000 2.1 100 02:55 24.10.2019
5665 Clouds 29 1010 94 8000 2.1 100 02:24 24.10.2019
5666 Clouds 29 1009 88 8000 0.83 215 01:34 24.10.2019
5667 Clouds 28 1009 88 8000 0.83 215 00:57 24.10.2019
5668 Clouds 29 1009 83 10000 1.5 180 00:37 24.10.2019
5669 Clouds 29 1009 83 10000 1.5 180 00:18 24.10.2019
5670 Clouds 29 1009 83 10000 2.1 180 23:42 23.10.2019
5671 Clouds 29 1009 83 10000 1.5 180 23:22 23.10.2019
5672 Clouds 29 1009 83 10000 2.6 170 22:57 23.10.2019
5673 Clouds 29 1009 83 10000 1.5 170 22:38 23.10.2019
5674 Clouds 29 1009 83 10000 1.5 170 22:18 23.10.2019
5675 Clouds 29 1009 83 10000 2.1 170 21:57 23.10.2019
5676 Clouds 29 1009 83 10000 2.1 170 21:38 23.10.2019
5677 Clouds 29 1009 83 10000 2.1 170 21:19 23.10.2019
5678 Clouds 29 1009 83 10000 2.6 180 20:56 23.10.2019
5679 Clouds 29 1009 83 10000 2.1 190 20:37 23.10.2019
5680 Clouds 29 1009 83 10000 2.1 190 20:19 23.10.2019
5681 Clouds 30 1009 74 10000 2.6 180 19:44 23.10.2019
5682 Clouds 30 1009 79 10000 3.1 190 19:20 23.10.2019
5683 Clouds 30 1009 74 10000 3.1 200 18:59 23.10.2019
5684 Clouds 30 1009 74 10000 2.6 180 18:39 23.10.2019
5685 Clouds 30 1009 74 10000 2.6 180 18:19 23.10.2019
5686 Clouds 30 1009 74 10000 2.6 180 17:57 23.10.2019
5687 Clouds 30 1009 74 10000 2.6 190 17:39 23.10.2019
5688 Clouds 30 1009 74 10000 2.6 190 17:18 23.10.2019
5689 Clouds 30 1009 70 10000 2.6 170 16:41 23.10.2019
5690 Clouds 31 1008 70 10000 2.1 190 16:21 23.10.2019
5691 Clouds 31 1008 70 10000 2.6 180 15:57 23.10.2019
5692 Clouds 31 1008 70 10000 2.6 180 15:57 23.10.2019
5693 Clouds 30 1008 70 10000 2.1 160 15:39 23.10.2019
5694 Clouds 31 1008 70 10000 2.1 160 15:21 23.10.2019
5695 Clouds 31 1007 70 10000 3.1 210 14:56 23.10.2019
5696 Clouds 31 1007 66 10000 3.1 210 14:37 23.10.2019
5697 Clouds 31 1007 66 10000 3.1 210 14:19 23.10.2019
5698 Clouds 32 1006 66 10000 3.6 200 13:43 23.10.2019
5699 Clouds 32 1006 66 10000 3.6 200 13:43 23.10.2019
5700 Clouds 33 1006 66 9000 4.1 200 13:25 23.10.2019
5701 Clouds 33 1006 56 10000 1.5 190 12:57 23.10.2019
5702 Clouds 33 1006 56 10000 2.6 210 12:39 23.10.2019
5703 Clouds 34 1006 56 10000 2.6 210 12:19 23.10.2019
5704 Clouds 34 1006 56 10000 2.6 210 11:58 23.10.2019
5705 Clouds 36 1006 53 10000 2.6 220 11:39 23.10.2019
5706 Clouds 35 1006 53 10000 2.6 220 11:21 23.10.2019
5707 Clouds 36 1006 56 10000 2.6 200 10:56 23.10.2019
5708 Clouds 36 1006 56 10000 2.6 230 10:38 23.10.2019
5709 Clouds 36 1006 56 10000 2.6 230 10:38 23.10.2019
5710 Clouds 36 1006 56 10000 2.6 230 10:18 23.10.2019
5711 Clouds 35 1007 63 10000 3.6 220 09:40 23.10.2019
5712 Clouds 35 1007 63 10000 3.6 220 09:22 23.10.2019
5713 Clouds 35 1007 53 10000 1.5 0 08:54 23.10.2019
5714 Clouds 36 1008 53 10000 2.1 0 08:36 23.10.2019
5715 Clouds 35 1008 53 10000 2.1 0 08:18 23.10.2019
5716 Clouds 35 1009 59 10000 1.5 0 07:41 23.10.2019
5717 Clouds 35 1009 59 10000 1.5 0 07:19 23.10.2019
5718 Clouds 35 1010 56 10000 1.5 0 06:41 23.10.2019
5719 Clouds 34 1010 56 10000 1.5 0 06:19 23.10.2019
5720 Clouds 33 1011 63 10000 2.6 220 05:19 23.10.2019
5721 Clouds 32 1010 74 9000 1.11 252 03:46 23.10.2019
5722 Rain 30 1010 94 8000 2.1 120 02:43 23.10.2019
5723 Clouds 28 1009 88 8000 2.26 316 01:40 23.10.2019
5724 Clouds 28 1008 88 10000 2.26 316 00:59 23.10.2019
5725 Clouds 28 1008 88 10000 2.1 330 00:33 23.10.2019
5726 Clouds 28 1008 88 10000 2.69 274 23:55 22.10.2019
5727 Clouds 29 1007 83 10000 2.69 274 23:37 22.10.2019
5728 Clouds 29 1007 83 10000 2.69 274 23:18 22.10.2019
5729 Clouds 29 1008 83 8000 2.69 274 22:40 22.10.2019
5730 Clouds 29 1008 83 8000 2.69 274 22:22 22.10.2019
5731 Clouds 29 1008 83 8000 1 170 21:57 22.10.2019
5732 Clouds 29 1008 83 8000 1 190 21:38 22.10.2019
5733 Clouds 29 1008 83 8000 1 190 21:19 22.10.2019
5734 Clouds 29 1008 83 8000 1.5 180 20:58 22.10.2019
5735 Clouds 29 1008 83 8000 2.1 200 20:40 22.10.2019
5736 Clouds 29 1008 83 8000 2.1 200 20:21 22.10.2019
5737 Clouds 29 1009 83 8000 2.1 190 19:56 22.10.2019
5738 Clouds 29 1009 79 8000 1.5 190 19:38 22.10.2019
5739 Clouds 29 1009 79 8000 1.5 190 19:20 22.10.2019
5740 Clouds 29 1009 79 8000 1.5 200 18:54 22.10.2019
5741 Clouds 30 1009 79 8000 3.31 224 18:36 22.10.2019
5742 Clouds 30 1009 79 8000 2.38 223 18:18 22.10.2019
5743 Clouds 30 1009 79 8000 1.5 200 17:39 22.10.2019
5744 Clouds 30 1009 79 8000 1.5 200 17:20 22.10.2019
5745 Clouds 30 1009 79 8000 1.5 200 17:20 22.10.2019
5746 Clouds 30 1009 74 8000 2.38 223 16:58 22.10.2019
5747 Clouds 30 1009 79 8000 1 200 16:39 22.10.2019
5748 Clouds 30 1009 79 8000 1 200 16:39 22.10.2019
5749 Clouds 30 1009 79 8000 1 200 16:20 22.10.2019
5750 Clouds 30 1008 74 8000 1.5 210 15:58 22.10.2019
5751 Clouds 30 1008 74 8000 2.1 200 15:40 22.10.2019
5752 Clouds 30 1008 74 8000 2.1 200 15:18 22.10.2019
5753 Clouds 30 1007 74 8000 2.6 210 14:44 22.10.2019
5754 Clouds 29 1007 74 8000 2.1 200 14:21 22.10.2019
5755 Clouds 30 1007 70 8000 3.1 230 13:43 22.10.2019
5756 Clouds 31 1006 70 8000 3.6 240 13:23 22.10.2019
5757 Clouds 31 1006 70 8000 4.1 230 12:59 22.10.2019
5758 Clouds 31 1006 70 8000 4.1 210 12:41 22.10.2019
5759 Clouds 33 1006 70 8000 4.1 210 12:21 22.10.2019
5760 Clouds 34 1006 66 8000 4.1 210 11:57 22.10.2019
5761 Clouds 33 1006 66 8000 4.1 210 11:38 22.10.2019
5762 Clouds 33 1006 66 8000 4.1 210 11:20 22.10.2019
5763 Clouds 35 1006 59 8000 2.1 220 10:56 22.10.2019
5764 Clouds 36 1006 52 10000 2.1 10 10:37 22.10.2019
5765 Clouds 36 1006 52 10000 2.1 10 10:18 22.10.2019
5766 Clouds 36 1006 56 10000 1.5 50 09:54 22.10.2019
5767 Clouds 36 1006 56 10000 3.6 60 09:36 22.10.2019
5768 Clouds 35 1006 56 10000 3.6 60 09:18 22.10.2019
5769 Clouds 34 1007 56 10000 2.6 350 08:42 22.10.2019
5770 Clouds 34 1007 56 10000 1.5 80 08:21 22.10.2019
5771 Clouds 36 1008 59 10000 1 10 07:45 22.10.2019
5772 Clouds 35 1009 59 10000 2.1 40 07:26 22.10.2019
5773 Clouds 35 1009 59 10000 2.1 330 06:48 22.10.2019
5774 Clouds 35 1010 59 10000 2.1 130 06:30 22.10.2019
5775 Clouds 34 1010 63 9000 1.5 100 05:50 22.10.2019
5776 Clouds 34 1010 63 9000 1.5 100 05:50 22.10.2019
5777 Clouds 33 1010 66 9000 1.5 90 05:19 22.10.2019
5778 Clouds 29 1009 88 8000 1 70 02:33 22.10.2019
5779 Clouds 28 1009 88 8000 2.1 50 01:51 22.10.2019
5780 Clouds 28 1009 88 9000 1 60 01:26 22.10.2019
5781 Clouds 28 1008 83 9000 1.5 50 00:57 22.10.2019
5782 Clouds 28 1008 83 9000 2.1 60 00:39 22.10.2019
5783 Clouds 28 1008 83 9000 2.1 60 00:20 22.10.2019
5784 Clouds 29 1008 79 9000 1.5 100 23:39 21.10.2019
5785 Clouds 29 1008 79 9000 1.5 100 23:20 21.10.2019
5786 Clouds 28 1008 78 9000 1 110 22:59 21.10.2019
5787 Clouds 29 1008 78 9000 2.1 160 22:40 21.10.2019
5788 Clouds 29 1008 78 9000 2.1 160 22:21 21.10.2019
5789 Clouds 29 1009 74 9000 3.13 322 21:59 21.10.2019
5790 Clouds 29 1009 74 10000 3.14 321 21:40 21.10.2019
5791 Clouds 29 1009 74 10000 2.36 38 21:22 21.10.2019
5792 Clouds 30 1009 74 10000 2.36 38 20:58 21.10.2019
5793 Clouds 29 1009 74 10000 2.36 38 20:40 21.10.2019
5794 Clouds 30 1009 74 10000 2.36 38 20:21 21.10.2019
5795 Clouds 30 1010 70 10000 2.36 38 19:58 21.10.2019
5796 Clouds 30 1010 70 10000 1.5 270 19:40 21.10.2019
5797 Clouds 30 1010 70 10000 1.5 270 19:21 21.10.2019
5798 Clouds 30 1010 66 10000 1.5 290 18:55 21.10.2019
5799 Clouds 30 1010 70 10000 1.5 280 18:37 21.10.2019
5800 Clouds 30 1010 70 10000 1.5 280 18:18 21.10.2019
5801 Clouds 31 1010 70 10000 2.1 250 17:55 21.10.2019
5802 Clouds 31 1010 66 10000 2.1 220 17:37 21.10.2019
5803 Clouds 31 1010 66 10000 2.1 220 17:18 21.10.2019
5804 Clouds 31 1010 62 10000 2.6 240 16:55 21.10.2019
5805 Clouds 31 1010 62 10000 3.1 250 16:37 21.10.2019
5806 Clouds 31 1010 62 10000 3.1 250 16:19 21.10.2019
5807 Clouds 31 1010 62 10000 2.6 260 15:42 21.10.2019
5808 Clouds 31 1010 62 10000 2.6 260 15:42 21.10.2019
5809 Clouds 31 1009 66 10000 2.6 220 15:23 21.10.2019
5810 Clouds 32 1009 59 10000 3.1 250 14:56 21.10.2019
5811 Clouds 32 1009 59 10000 1.5 220 14:37 21.10.2019
5812 Clouds 32 1009 59 10000 1.5 220 14:18 21.10.2019
5813 Clouds 32 1008 49 10000 1.5 110 13:55 21.10.2019
5814 Clouds 33 1008 49 10000 2.6 120 13:37 21.10.2019
5815 Clouds 33 1008 49 10000 2.6 120 13:18 21.10.2019
5816 Clouds 34 1007 44 10000 2.1 130 12:41 21.10.2019
5817 Clouds 34 1007 44 10000 2.1 130 12:21 21.10.2019
5818 Clouds 34 1007 44 10000 3.29 23.736 11:55 21.10.2019
5819 Clouds 35 1007 46 10000 2.1 40 11:37 21.10.2019
5820 Clouds 35 1007 46 10000 2.1 40 11:18 21.10.2019
5821 Clouds 35 1007 46 10000 1.5 10 10:55 21.10.2019
5822 Clouds 35 1008 44 10000 2.6 100 10:36 21.10.2019
5823 Clouds 35 1008 44 10000 2.6 100 10:18 21.10.2019
5824 Clouds 35 1008 46 10000 2.6 80 09:42 21.10.2019
5825 Clouds 34 1008 52 10000 3.6 50 09:23 21.10.2019
5826 Clouds 35 1009 49 10000 3.1 90 08:43 21.10.2019
5827 Clouds 35 1009 46 10000 3.1 60 08:23 21.10.2019
5828 Clouds 35 1010 49 10000 3.1 90 07:58 21.10.2019
5829 Clouds 35 1010 55 10000 1 0 07:37 21.10.2019
5830 Clouds 35 1010 55 10000 1 0 07:18 21.10.2019
5831 Clouds 34 1011 55 10000 2.6 110 06:50 21.10.2019
5832 Clouds 34 1011 59 10000 2.1 60 06:31 21.10.2019
5833 Clouds 33 1012 62 10000 1.5 0 05:43 21.10.2019
5834 Clouds 31 1012 74 10000 2.1 40 03:42 21.10.2019
5835 Clouds 29 1011 88 10000 2.1 40 02:41 21.10.2019
5836 Clouds 29 1011 88 10000 2.1 40 02:21 21.10.2019
5837 Clouds 29 1011 88 10000 2.1 40 02:21 21.10.2019
5838 Clouds 28 1011 88 10000 1.5 20 01:49 21.10.2019
5839 Clouds 27 1010 88 10000 2.1 20 01:20 21.10.2019
5840 Clouds 28 1010 83 10000 2.1 40 00:41 21.10.2019
5841 Clouds 28 1010 83 10000 1 60 00:22 21.10.2019
5842 Clouds 28 1010 78 10000 2.1 110 23:40 20.10.2019
5843 Clouds 28 1010 78 10000 2.1 110 23:21 20.10.2019
5844 Clouds 28 1010 78 10000 2.1 90 22:55 20.10.2019
5845 Clouds 28 1010 83 10000 2.5 351.734 22:36 20.10.2019
5846 Clouds 28 1010 83 10000 2.5 351.734 22:18 20.10.2019
5847 Clouds 29 1010 83 10000 1.5 140 21:40 20.10.2019
5848 Clouds 29 1010 83 10000 1.5 140 21:22 20.10.2019
5849 Clouds 29 1010 79 10000 1 130 20:57 20.10.2019
5850 Clouds 29 1011 79 10000 1 110 20:39 20.10.2019
5851 Clouds 29 1011 79 10000 1 110 20:18 20.10.2019
5852 Clouds 29 1011 79 10000 1 90 19:56 20.10.2019
5853 Clouds 30 1011 79 10000 2.4 17.727 19:37 20.10.2019
5854 Clouds 29 1011 79 10000 2.4 17.727 19:19 20.10.2019
5855 Clouds 29 1011 74 10000 2.4 17.727 18:41 20.10.2019
5856 Clouds 29 1011 74 10000 2.74 11.322 18:22 20.10.2019
5857 Clouds 30 1011 74 10000 1.5 40 17:58 20.10.2019
5858 Clouds 30 1011 74 10000 2.1 40 17:39 20.10.2019
5859 Clouds 30 1011 74 10000 2.1 40 17:21 20.10.2019
5860 Clouds 30 1011 74 10000 2.1 30 16:55 20.10.2019
5861 Clouds 31 1011 66 10000 1 30 16:37 20.10.2019
5862 Clouds 31 1011 66 10000 1 30 16:18 20.10.2019
5863 Clouds 31 1011 66 10000 2.1 50 15:42 20.10.2019
5864 Clouds 31 1010 62 10000 3.1 10 15:23 20.10.2019
5865 Clouds 31 1010 62 10000 2.1 20 14:59 20.10.2019
5866 Clouds 31 1010 58 10000 2.6 30 14:38 20.10.2019
5867 Clouds 31 1010 58 10000 2.6 30 14:38 20.10.2019
5868 Clouds 32 1010 58 10000 2.6 30 14:20 20.10.2019
5869 Clouds 32 1010 62 10000 2.6 20 13:56 20.10.2019
5870 Clouds 32 1010 62 10000 4.1 20 13:37 20.10.2019
5871 Clouds 31 1010 62 10000 4.1 20 13:19 20.10.2019
5872 Clouds 32 1009 59 10000 4.1 20 12:57 20.10.2019
5873 Clouds 32 1009 59 10000 4.1 20 12:39 20.10.2019
5874 Clouds 34 1009 59 10000 4.1 20 12:21 20.10.2019
5875 Clouds 34 1009 55 10000 3.1 60 11:59 20.10.2019
5876 Clouds 34 1009 55 10000 3.6 70 11:40 20.10.2019
5877 Clouds 33 1009 55 10000 3.6 70 11:22 20.10.2019
5878 Clouds 33 1009 55 10000 3.6 80 10:57 20.10.2019
5879 Clouds 33 1009 62 10000 2.6 10 10:37 20.10.2019
5880 Clouds 33 1009 62 10000 2.6 10 10:18 20.10.2019
5881 Clouds 33 1010 55 10000 3.6 80 09:43 20.10.2019
5882 Clouds 33 1010 55 10000 2.6 30 09:22 20.10.2019
5883 Clouds 33 1010 52 10000 3.1 40 08:56 20.10.2019
5884 Clouds 32 1011 59 10000 3.1 20 08:37 20.10.2019
5885 Clouds 33 1011 59 10000 3.1 20 08:18 20.10.2019
5886 Clouds 34 1012 59 10000 2.6 80 07:43 20.10.2019
5887 Clouds 33 1012 62 10000 2.6 10 07:24 20.10.2019
5888 Clouds 33 1012 62 10000 2.6 10 07:24 20.10.2019
5889 Clouds 33 1012 62 10000 2.6 10 07:24 20.10.2019
5890 Clouds 32 1014 66 10000 2.6 120 06:26 20.10.2019
5891 Clouds 31 1014 70 10000 2.1 130 04:28 20.10.2019
5892 Clouds 31 1014 70 10000 1 0 03:49 20.10.2019
5893 Clouds 29 1014 78 10000 1.5 10 03:21 20.10.2019
5894 Clouds 29 1013 78 10000 1.5 350 02:45 20.10.2019
5895 Clouds 28 1013 83 10000 3.29 12.812 02:18 20.10.2019
5896 Clouds 28 1013 83 10000 1.5 50 01:43 20.10.2019
5897 Clouds 28 1012 83 10000 2.1 50 01:19 20.10.2019
5898 Clouds 28 1012 83 10000 2.6 30 00:42 20.10.2019
5899 Clouds 28 1012 83 10000 3.11 358.155 00:20 20.10.2019
5900 Clouds 28 1011 78 10000 2.1 340 23:43 19.10.2019
5901 Clouds 28 1011 78 10000 2.1 0 23:24 19.10.2019
5902 Clouds 28 1011 78 10000 1.5 20 22:57 19.10.2019
5903 Clouds 29 1011 83 10000 2.1 20 22:39 19.10.2019
5904 Clouds 29 1011 83 10000 2.1 20 22:20 19.10.2019
5905 Clouds 29 1011 83 10000 3.11 358.155 21:46 19.10.2019
5906 Clouds 29 1011 83 10000 1.5 60 21:25 19.10.2019
5907 Clouds 29 1012 79 10000 1.5 70 20:57 19.10.2019
5908 Clouds 29 1012 79 10000 1.5 60 20:38 19.10.2019
5909 Clouds 29 1012 79 10000 1.5 60 20:20 19.10.2019
5910 Clouds 30 1013 74 9000 2.6 90 19:41 19.10.2019
5911 Clouds 30 1013 74 9000 2.6 90 19:23 19.10.2019
5912 Clouds 30 1013 74 9000 0.5 100 18:43 19.10.2019
5913 Clouds 30 1013 74 9000 1.5 110 18:25 19.10.2019
5914 Clouds 30 1013 74 10000 1.5 120 17:59 19.10.2019
5915 Clouds 30 1013 74 10000 2.6 100 17:37 19.10.2019
5916 Clouds 30 1013 74 10000 2.6 100 17:19 19.10.2019
5917 Clouds 30 1012 66 10000 2.6 80 16:40 19.10.2019
5918 Clouds 31 1012 66 10000 2.6 80 16:20 19.10.2019
5919 Clouds 30 1012 70 10000 3.1 40 15:59 19.10.2019
5920 Clouds 31 1011 62 10000 2.1 50 15:39 19.10.2019
5921 Clouds 31 1011 62 10000 2.1 50 15:21 19.10.2019
5922 Clouds 31 1011 62 10000 2.1 30 14:38 19.10.2019
5923 Clouds 31 1011 62 10000 2.1 30 14:20 19.10.2019
5924 Clouds 32 1010 62 10000 2.6 30 13:56 19.10.2019
5925 Clouds 32 1010 58 8000 3.1 20 13:37 19.10.2019
5926 Clouds 32 1010 58 8000 3.1 20 13:18 19.10.2019
5927 Clouds 32 1010 58 8000 3.1 20 13:18 19.10.2019
5928 Clouds 33 1010 55 8000 4.1 360 12:40 19.10.2019
5929 Clouds 33 1010 55 8000 4.1 360 12:22 19.10.2019
5930 Clouds 34 1010 55 10000 3.1 350 11:59 19.10.2019
5931 Clouds 34 1010 55 10000 4.1 360 11:40 19.10.2019
5932 Clouds 34 1010 55 10000 4.1 360 11:22 19.10.2019
5933 Clouds 35 1010 49 10000 4.1 20 10:42 19.10.2019
5934 Clouds 35 1010 49 10000 4.1 20 10:23 19.10.2019
5935 Clouds 34 1010 55 10000 3.1 50 09:59 19.10.2019
5936 Clouds 34 1011 52 10000 4.1 80 09:41 19.10.2019
5937 Clouds 34 1011 52 10000 4.1 80 09:41 19.10.2019
5938 Clouds 34 1011 52 10000 4.1 80 09:22 19.10.2019
5939 Clouds 34 1011 52 10000 3.6 50 08:56 19.10.2019
5940 Clouds 34 1011 52 10000 3.6 50 08:56 19.10.2019
5941 Clouds 34 1011 55 10000 4.6 90 08:37 19.10.2019
5942 Clouds 34 1011 55 10000 4.6 90 08:19 19.10.2019
5943 Clouds 34 1012 59 10000 5.1 90 07:41 19.10.2019
5944 Clouds 34 1012 59 10000 5.1 90 07:23 19.10.2019
5945 Clouds 33 1014 58 10000 3.1 80 06:36 19.10.2019
5946 Clouds 32 1014 58 10000 4.6 120 05:51 19.10.2019
5947 Clouds 30 1014 66 10000 3.6 120 04:26 19.10.2019
5948 Clouds 29 1013 78 10000 4.31 19.129 03:18 19.10.2019
5949 Clouds 28 1013 83 10000 4.31 19.129 02:21 19.10.2019
5950 Clouds 28 1012 78 10000 2.1 300 01:49 19.10.2019
5951 Clouds 28 1011 78 10000 1.5 320 00:52 19.10.2019
5952 Clouds 28 1011 74 10000 4.25 24.471 00:29 19.10.2019
5953 Clouds 28 1011 83 10000 1 0 23:59 18.10.2019
5954 Clouds 28 1011 74 10000 2.1 360 23:38 18.10.2019
5955 Clouds 28 1011 74 10000 2.1 360 23:20 18.10.2019
5956 Clouds 28 1011 83 10000 1 40 22:55 18.10.2019
5957 Clouds 28 1011 78 10000 2.1 10 22:36 18.10.2019
5958 Clouds 28 1011 78 10000 2.1 10 22:18 18.10.2019
5959 Clouds 28 1011 78 10000 0.5 30 21:55 18.10.2019
5960 Clouds 28 1011 78 10000 0.5 30 21:55 18.10.2019
5961 Clouds 29 1011 78 10000 3.41 8.696 21:36 18.10.2019
5962 Clouds 29 1011 78 10000 3.41 8.696 21:36 18.10.2019
5963 Clouds 29 1011 78 10000 2.63 15.715 21:18 18.10.2019
5964 Clouds 29 1012 78 10000 1.5 60 20:43 18.10.2019
5965 Clouds 29 1012 78 10000 1.5 60 20:43 18.10.2019
5966 Clouds 29 1012 78 10000 2.1 50 20:22 18.10.2019
5967 Clouds 29 1012 78 10000 2.1 50 20:22 18.10.2019
5968 Clouds 29 1012 78 10000 2.1 60 19:58 18.10.2019
5969 Clouds 29 1012 78 10000 2.1 50 19:40 18.10.2019
5970 Clouds 29 1012 78 10000 2.1 50 19:22 18.10.2019
5971 Clouds 29 1012 83 10000 1.5 60 18:58 18.10.2019
5972 Clouds 30 1013 79 10000 2.1 70 18:40 18.10.2019
5973 Clouds 30 1013 79 10000 2.1 70 18:22 18.10.2019
5974 Clouds 30 1013 74 10000 2.1 60 17:55 18.10.2019
5975 Clouds 30 1013 74 10000 2.6 60 17:36 18.10.2019
5976 Clouds 30 1013 74 10000 2.6 60 17:18 18.10.2019
5977 Clouds 31 1012 66 10000 2.6 50 16:38 18.10.2019
5978 Clouds 31 1012 66 10000 2.6 50 16:20 18.10.2019
5979 Clouds 31 1012 66 10000 3.1 40 15:55 18.10.2019
5980 Clouds 31 1011 62 10000 3.6 30 15:37 18.10.2019
5981 Clouds 32 1011 62 10000 3.6 30 15:18 18.10.2019
5982 Clouds 32 1011 62 10000 1.5 50 14:56 18.10.2019
5983 Clouds 32 1010 59 10000 2.1 70 14:38 18.10.2019
5984 Clouds 32 1010 59 10000 2.1 70 14:38 18.10.2019
5985 Clouds 32 1010 59 10000 2.1 70 14:18 18.10.2019
5986 Clouds 32 1010 62 10000 2.6 70 13:45 18.10.2019
5987 Clouds 32 1010 55 10000 2.1 20 13:26 18.10.2019
5988 Clouds 32 1010 59 10000 3.1 30 12:58 18.10.2019
5989 Clouds 32 1009 59 10000 2.6 70 12:39 18.10.2019
5990 Clouds 32 1009 59 10000 2.6 70 12:39 18.10.2019
5991 Clouds 34 1009 59 10000 2.6 70 12:21 18.10.2019
5992 -273 0 0 0 0 0 11:57 18.10.2019
5993 Clouds 34 1009 55 10000 2.1 50 11:39 18.10.2019
5994 Clouds 34 1009 55 10000 2.1 50 11:20 18.10.2019
5995 Clouds 34 1009 49 10000 2.6 90 10:56 18.10.2019
5996 Clouds 34 1010 52 10000 3.6 50 10:38 18.10.2019
5997 Clouds 34 1010 52 10000 3.6 50 10:38 18.10.2019
5998 Clouds 34 1010 52 10000 3.6 50 10:18 18.10.2019
5999 Clouds 35 1010 52 10000 2.6 60 09:55 18.10.2019
6000 Clouds 35 1010 52 10000 4.1 70 09:37 18.10.2019
6001 Clouds 35 1010 52 10000 4.1 70 09:18 18.10.2019
6002 Clouds 34 1011 52 10000 3.6 100 08:42 18.10.2019
6003 Clouds 34 1011 55 10000 3.1 90 08:23 18.10.2019
6004 Clouds 34 1011 55 10000 3.1 90 08:23 18.10.2019
6005 Clouds 34 1011 49 10000 3.1 0 07:48 18.10.2019
6006 Clouds 34 1012 52 10000 3.6 140 07:29 18.10.2019
6007 Clouds 33 1013 52 10000 3.1 100 06:41 18.10.2019
6008 Clouds 33 1013 52 10000 3.1 100 06:22 18.10.2019
6009 Clouds 32 1013 55 10000 3.1 110 05:58 18.10.2019
6010 Clouds 32 1013 55 10000 2.6 110 05:24 18.10.2019
6011 Clouds 32 1013 55 10000 2.6 110 05:24 18.10.2019
6012 Clear 32 1012 62 10000 2.6 110 04:49 18.10.2019
6013 Clear 31 1012 74 10000 1.5 40 03:33 18.10.2019
6014 Clear 29 1011 83 10000 2.1 10 02:36 18.10.2019
6015 Clouds 28 1011 88 10000 2.1 30 01:55 18.10.2019
6016 Clouds 28 1011 83 10000 1 50 01:30 18.10.2019
6017 Clouds 28 1011 88 10000 1.5 30 00:46 18.10.2019
6018 Clouds 28 1011 88 10000 2.1 30 00:21 18.10.2019
6019 Clouds 28 1011 83 10000 2.6 30 23:59 17.10.2019
6020 Clouds 28 1011 88 10000 3.35 3.487 23:38 17.10.2019
6021 Clouds 28 1011 88 10000 3.35 3.487 23:19 17.10.2019
6022 Clouds 28 1011 88 10000 2.6 350 22:55 17.10.2019
6023 Clouds 28 1011 78 10000 2.6 350 22:37 17.10.2019
6024 Clouds 28 1011 78 10000 2.6 350 22:18 17.10.2019
6025 Clouds 29 1011 78 10000 2.1 360 21:56 17.10.2019
6026 Clouds 29 1011 78 10000 2.6 340 21:37 17.10.2019
6027 Clouds 29 1011 78 10000 2.6 340 21:19 17.10.2019
6028 Clouds 29 1012 83 10000 2.1 20 20:56 17.10.2019
6029 Clouds 29 1012 78 10000 1 50 20:38 17.10.2019
6030 Clouds 29 1012 78 10000 1 50 20:18 17.10.2019
6031 Clouds 30 1012 78 10000 1.5 40 19:42 17.10.2019
6032 Clouds 30 1012 78 10000 1.5 40 19:42 17.10.2019
6033 Clouds 29 1012 78 10000 2.91 11.58 19:21 17.10.2019
6034 Clouds 29 1012 83 10000 1 50 18:59 17.10.2019
6035 Clouds 29 1013 74 10000 1.5 70 18:39 17.10.2019
6036 Clouds 29 1013 74 10000 1.5 70 18:21 17.10.2019
6037 Clouds 30 1012 74 10000 2.58 16.578 17:55 17.10.2019
6038 Clouds 30 1012 74 10000 2.58 16.578 17:55 17.10.2019
6039 Clouds 29 1012 83 10000 1 60 17:36 17.10.2019
6040 Clouds 29 1012 83 10000 1 60 17:18 17.10.2019
6041 Clouds 30 1012 79 10000 1 50 16:41 17.10.2019
6042 Clouds 30 1012 79 10000 1.5 20 16:19 17.10.2019
6043 Clouds 30 1012 79 10000 1.5 20 16:19 17.10.2019
6044 Clouds 30 1011 74 10000 2.1 30 15:59 17.10.2019
6045 Clouds 30 1011 74 10000 4.1 30 15:40 17.10.2019
6046 Clouds 30 1011 74 10000 4.1 30 15:20 17.10.2019
6047 Clouds 30 1011 74 10000 4.1 30 15:20 17.10.2019
6048 Thunderstorm 30 1010 74 10000 2.1 30 14:57 17.10.2019
6049 Thunderstorm 30 1010 70 10000 2.6 10 14:38 17.10.2019
6050 Thunderstorm 31 1010 70 10000 2.6 10 14:20 17.10.2019
6051 Clouds 32 1009 59 10000 3.1 90 13:41 17.10.2019
6052 Clouds 32 1009 59 10000 3.1 90 13:21 17.10.2019
6053 Clouds 32 1009 59 10000 3.1 90 12:58 17.10.2019
6054 Clouds 32 1009 59 10000 3.1 90 12:39 17.10.2019
6055 Clouds 33 1009 59 10000 3.1 90 12:19 17.10.2019
6056 Clouds 33 1009 55 10000 4.1 60 11:56 17.10.2019
6057 Clouds 33 1009 55 10000 4.6 90 11:37 17.10.2019
6058 Clouds 33 1009 55 10000 4.6 90 11:18 17.10.2019
6059 Clouds 34 1009 59 10000 5.1 90 10:42 17.10.2019
6060 Clouds 34 1009 59 10000 5.1 90 10:42 17.10.2019
6061 Clouds 35 1009 59 10000 5.1 90 10:20 17.10.2019
6062 Clouds 34 1009 62 10000 5.7 80 09:57 17.10.2019
6063 Clouds 34 1010 59 10000 6.2 80 09:38 17.10.2019
6064 Clouds 34 1010 59 10000 6.2 80 09:19 17.10.2019
6065 Clouds 33 1010 62 10000 5.7 70 08:56 17.10.2019
6066 Clouds 33 1011 62 10000 5.1 80 08:37 17.10.2019
6067 Clouds 33 1011 62 10000 5.1 80 08:18 17.10.2019
6068 Clouds 34 1012 62 10000 4.6 90 07:41 17.10.2019
6069 Clouds 34 1012 62 10000 4.6 90 07:21 17.10.2019
6070 Clouds 33 1012 66 10000 2.6 70 06:55 17.10.2019
6071 Clouds 33 1013 66 10000 2.6 50 06:37 17.10.2019
6072 Clouds 32 1013 66 10000 2.6 50 06:18 17.10.2019
6073 Clouds 32 1013 66 10000 2.1 0 05:40 17.10.2019
6074 Clouds 32 1013 66 10000 2.1 0 05:19 17.10.2019
6075 Clouds 32 1013 70 10000 2.1 80 04:48 17.10.2019
6076 Clouds 31 1013 74 10000 2.6 30 03:46 17.10.2019
6077 Clouds 28 1012 83 10000 2.6 20 01:57 17.10.2019
6078 Clouds 28 1012 83 10000 2.6 20 01:57 17.10.2019
6079 Clouds 28 1011 88 10000 2.6 40 00:42 17.10.2019
6080 Clouds 28 1010 83 10000 2.1 360 00:21 17.10.2019
6081 Clouds 28 1011 83 10000 4.1 20 23:59 16.10.2019
6082 Clouds 28 1011 83 10000 4.1 20 23:40 16.10.2019
6083 Clouds 28 1011 83 10000 4.1 20 23:18 16.10.2019
6084 Clouds 28 1011 78 10000 4.1 10 22:54 16.10.2019
6085 Clouds 28 1011 78 10000 3.1 10 22:36 16.10.2019
6086 Clouds 28 1011 78 10000 3.1 10 22:36 16.10.2019
6087 Clouds 28 1011 78 10000 3.1 10 22:18 16.10.2019
6088 Clouds 28 1011 78 10000 3.1 340 21:54 16.10.2019
6089 Clouds 28 1011 78 10000 3.1 340 21:54 16.10.2019
6090 Clouds 28 1011 78 10000 3.1 340 21:54 16.10.2019
6091 Clouds 29 1011 78 10000 3.1 10 21:36 16.10.2019
6092 Clouds 29 1011 78 10000 3.1 10 21:18 16.10.2019
6093 Clouds 29 1011 74 10000 2.1 0 20:56 16.10.2019
6094 -273 0 0 0 0 0 20:56 16.10.2019
6095 Clouds 29 1012 83 10000 2.6 20 20:37 16.10.2019
6096 Clouds 29 1012 83 10000 2.6 20 20:37 16.10.2019
6097 Clouds 29 1012 83 10000 2.6 20 20:19 16.10.2019
6098 Clouds 29 1012 79 10000 0.5 30 19:40 16.10.2019
6099 Clouds 29 1012 79 10000 0.5 30 19:21 16.10.2019
6100 Clouds 30 1012 70 10000 2.6 10 18:58 16.10.2019
6101 -273 0 0 0 0 0 18:58 16.10.2019
6102 Clouds 30 1012 70 10000 2.1 10 18:38 16.10.2019
6103 Clouds 30 1012 70 10000 2.1 10 18:18 16.10.2019
6104 Clouds 30 1012 70 10000 2.1 10 18:18 16.10.2019
6105 -273 0 0 0 0 0 17:55 16.10.2019
6106 Clouds 30 1012 74 10000 4.107 63 17:37 16.10.2019
6107 Clouds 30 1012 74 10000 4.107 63 17:18 16.10.2019
6108 Clouds 30 1012 74 10000 1 70 16:55 16.10.2019
6109 Clouds 30 1012 74 10000 1.5 90 16:37 16.10.2019
6110 Clouds 30 1012 74 10000 1.5 90 16:18 16.10.2019
6111 Clouds 31 1010 66 10000 1.5 100 15:40 16.10.2019
6112 Clouds 31 1010 66 10000 1.5 100 15:19 16.10.2019
6113 Clouds 31 1010 66 10000 1.5 100 14:59 16.10.2019
6114 Clouds 31 1010 66 10000 1.5 100 14:40 16.10.2019
6115 Clouds 31 1010 66 10000 2.1 80 14:21 16.10.2019
6116 Clouds 31 1009 66 10000 2.1 90 13:58 16.10.2019
6117 Clouds 31 1009 66 10000 2.1 90 13:40 16.10.2019
6118 Clouds 31 1009 66 10000 2.6 100 13:21 16.10.2019
6119 Clouds 32 1009 62 10000 3.1 80 12:44 16.10.2019
6120 Clouds 32 1009 59 10000 4.1 60 12:20 16.10.2019
6121 Clouds 32 1009 62 10000 4.6 70 11:55 16.10.2019
6122 Clouds 32 1009 62 10000 4.6 70 11:37 16.10.2019
6123 Clouds 33 1009 59 10000 4.6 70 11:18 16.10.2019
6124 Clouds 33 1009 59 10000 5.1 70 10:36 16.10.2019
6125 Clouds 35 1009 59 10000 5.7 80 10:18 16.10.2019
6126 -273 0 0 0 0 0 09:41 16.10.2019
6127 Clouds 34 1009 59 10000 5.1 70 09:40 16.10.2019
6128 Clouds 33 1010 62 10000 5.1 80 09:22 16.10.2019
6129 Clouds 33 1010 59 10000 4.6 100 08:57 16.10.2019
6130 Clouds 33 1010 59 10000 4.6 100 08:38 16.10.2019
6131 Clouds 33 1011 59 10000 5.1 120 08:19 16.10.2019
6132 Clouds 33 1012 66 10000 4.6 70 07:42 16.10.2019
6133 Clouds 33 1012 66 10000 3.6 80 07:23 16.10.2019
6134 Clouds 33 1012 66 10000 4.1 60 06:48 16.10.2019
6135 Clouds 33 1013 62 10000 2.6 80 06:29 16.10.2019
6136 Clouds 31 1013 79 10000 2.1 50 04:31 16.10.2019
6137 Rain 29 1013 83 10000 2.6 50 02:51 16.10.2019
6138 Rain 27 1012 88 10000 1.5 340 01:20 16.10.2019
6139 Clouds 27 1011 83 10000 2.1 350 00:59 16.10.2019
6140 Clouds 27 1011 83 10000 2.1 350 00:40 16.10.2019
6141 Clouds 27 1011 94 10000 4.565 24 23:58 15.10.2019
6142 Clouds 27 1011 94 10000 4.565 24 23:38 15.10.2019
6143 Clouds 27 1011 88 10000 2.1 20 23:19 15.10.2019
6144 Clouds 27 1011 88 10000 0.5 30 22:55 15.10.2019
6145 Clouds 27 1011 88 10000 0.5 30 22:55 15.10.2019
6146 Clouds 27 1011 88 10000 0.5 30 22:37 15.10.2019
6147 Clouds 27 1011 88 10000 1.5 80 22:18 15.10.2019
6148 Clouds 27 1011 88 10000 0.5 40 21:54 15.10.2019
6149 Clouds 27 1011 88 10000 0.5 40 21:54 15.10.2019
6150 Clouds 27 1011 88 10000 0.5 40 21:36 15.10.2019
6151 Clouds 28 1012 88 10000 2.1 30 21:18 15.10.2019
6152 Clouds 28 1012 88 10000 2.6 30 20:54 15.10.2019
6153 Clouds 28 1012 88 10000 2.6 30 20:36 15.10.2019
6154 Clouds 28 1012 88 10000 2.1 50 20:18 15.10.2019
6155 Clouds 28 1012 83 10000 4.046 46 19:41 15.10.2019
6156 Clouds 28 1012 83 10000 4.046 46 19:41 15.10.2019
6157 Clouds 28 1012 78 10000 2.1 20 19:20 15.10.2019
6158 Clouds 28 1012 78 10000 2.1 20 19:20 15.10.2019
6159 Clouds 28 1012 88 10000 1 30 18:57 15.10.2019
6160 Clouds 28 1012 88 10000 1 30 18:39 15.10.2019
6161 Clouds 28 1013 88 10000 1 60 18:20 15.10.2019
6162 Clouds 28 1013 88 10000 2.834 46 17:43 15.10.2019
6163 Clouds 28 1013 88 10000 2.834 46 17:21 15.10.2019
6164 Clouds 28 1012 83 10000 2.1 140 16:59 15.10.2019
6165 Clouds 28 1012 83 10000 2.1 140 16:41 15.10.2019
6166 Clouds 28 1012 88 10000 2.6 170 16:21 15.10.2019
6167 Rain 28 1012 83 9000 2.1 90 15:55 15.10.2019
6168 Rain 28 1012 83 9000 2.1 90 15:37 15.10.2019
6169 Rain 28 1011 88 8000 5.1 90 15:19 15.10.2019
6170 Clouds 30 1011 62 10000 2.1 100 14:54 15.10.2019
6171 Clouds 30 1011 62 10000 2.1 100 14:36 15.10.2019
6172 Clouds 31 1010 70 10000 2.1 50 14:18 15.10.2019
6173 Clouds 31 1010 62 10000 2.1 80 13:43 15.10.2019
6174 Clouds 32 1009 59 10000 2.6 80 13:20 15.10.2019
6175 Clouds 32 1009 59 10000 3.1 60 12:46 15.10.2019
6176 Clouds 32 1009 55 10000 1.5 60 12:23 15.10.2019
6177 Clouds 33 1009 55 10000 3.1 50 11:59 15.10.2019
6178 Clouds 33 1009 55 10000 3.1 50 11:40 15.10.2019
6179 Clouds 34 1009 52 10000 1.5 30 11:20 15.10.2019
6180 Clouds 34 1009 59 10000 3.6 70 10:46 15.10.2019
6181 Clouds 34 1010 59 10000 2.6 100 10:24 15.10.2019
6182 Clouds 33 1010 59 10000 3.1 70 09:59 15.10.2019
6183 Clouds 34 1011 55 10000 3.6 100 09:40 15.10.2019
6184 Clouds 34 1011 55 10000 3.6 100 09:21 15.10.2019
6185 Clouds 34 1011 55 10000 3.6 100 09:21 15.10.2019
6186 Clouds 33 1011 55 10000 3.6 80 08:57 15.10.2019
6187 Clouds 33 1011 59 10000 4.1 90 08:39 15.10.2019
6188 Clouds 33 1011 59 10000 4.1 90 08:18 15.10.2019
6189 Clouds 34 1012 59 10000 3.6 70 07:43 15.10.2019
6190 Clouds 33 1012 62 10000 2.6 110 07:22 15.10.2019
6191 Clouds 33 1013 66 10000 1 0 06:55 15.10.2019
6192 Clouds 33 1013 66 10000 1 0 06:37 15.10.2019
6193 Clouds 32 1013 66 10000 1.5 80 05:56 15.10.2019
6194 Clouds 31 1013 66 10000 1.5 80 05:36 15.10.2019
6195 Clouds 30 1013 70 10000 2.6 50 04:40 15.10.2019
6196 Clear 29 1013 78 10000 2.6 20 03:59 15.10.2019
6197 Clouds 29 1012 78 8000 2.1 20 03:30 15.10.2019
6198 Clouds 27 1012 94 8000 1.5 290 01:51 15.10.2019
6199 Clouds 26 1011 94 8000 2.1 310 01:24 15.10.2019
6200 Clouds 27 1011 94 10000 2.1 310 00:58 15.10.2019
6201 -273 0 0 0 0 0 00:24 15.10.2019
6202 Clouds 27 1011 94 10000 2.1 300 23:55 14.10.2019
6203 Clouds 27 1011 94 10000 2.1 300 23:36 14.10.2019
6204 Clouds 27 1011 88 10000 2.1 320 23:18 14.10.2019
6205 Clouds 27 1011 88 10000 2.6 310 22:39 14.10.2019
6206 Clouds 27 1012 88 10000 2.6 320 22:19 14.10.2019
6207 Clouds 27 1012 88 10000 2.1 290 21:56 14.10.2019
6208 Clouds 27 1012 88 10000 2.1 290 21:38 14.10.2019
6209 Clouds 27 1012 88 10000 2.6 310 21:20 14.10.2019
6210 Clouds 27 1012 88 10000 2.6 310 21:20 14.10.2019
6211 Clouds 28 1012 88 10000 2.1 320 20:56 14.10.2019
6212 Clouds 28 1012 88 10000 2.1 320 20:37 14.10.2019
6213 Clouds 28 1013 88 10000 2.1 350 20:18 14.10.2019
6214 Clouds 28 1013 88 10000 3.1 310 19:42 14.10.2019
6215 Clouds 28 1013 88 10000 2.1 300 19:23 14.10.2019
6216 Clouds 28 1013 83 10000 2.1 340 18:59 14.10.2019
6217 Clouds 28 1013 83 10000 2.1 340 18:39 14.10.2019
6218 Clouds 28 1013 83 10000 2.1 340 18:19 14.10.2019
6219 Clouds 28 1013 83 10000 2.1 340 18:19 14.10.2019
6220 Clouds 28 1013 83 10000 2.1 330 17:57 14.10.2019
6221 Clouds 28 1013 78 10000 2.1 340 17:39 14.10.2019
6222 Clouds 29 1013 78 10000 2.1 340 17:20 14.10.2019
6223 Clouds 29 1012 83 10000 2.1 40 16:44 14.10.2019
6224 Clouds 29 1012 83 10000 2.1 40 16:44 14.10.2019
6225 Clouds 29 1012 83 10000 2.1 40 16:21 14.10.2019
6226 Clouds 29 1012 83 10000 1.5 30 15:54 14.10.2019
6227 Clouds 29 1011 83 10000 2.1 30 15:36 14.10.2019
6228 Clouds 29 1011 83 10000 2.1 30 15:18 14.10.2019
6229 Clouds 30 1011 83 10000 1 20 14:43 14.10.2019
6230 Rain 29 1011 83 6000 5.7 10 14:23 14.10.2019
6231 Rain 30 1010 66 10000 3.1 170 13:45 14.10.2019
6232 Clouds 31 1009 59 10000 2.6 130 13:22 14.10.2019
6233 Clouds 32 1009 55 10000 3.6 130 12:59 14.10.2019
6234 Clouds 32 1009 55 10000 4.1 110 12:40 14.10.2019
6235 Clouds 32 1009 55 10000 4.1 110 12:19 14.10.2019
6236 Clouds 33 1009 55 10000 3.6 110 11:46 14.10.2019
6237 Clouds 33 1009 55 10000 3.6 110 11:26 14.10.2019
6238 Clouds 33 1009 55 10000 3.6 110 11:26 14.10.2019
6239 Clouds 34 1009 52 10000 3.6 140 10:58 14.10.2019
6240 Clouds 33 1009 59 10000 3.1 120 10:38 14.10.2019
6241 Clouds 34 1009 59 10000 3.1 120 10:20 14.10.2019
6242 Clouds 33 1010 55 10000 4.1 120 09:54 14.10.2019
6243 Clouds 33 1010 59 10000 3.6 110 09:36 14.10.2019
6244 Clouds 33 1010 59 10000 3.6 110 09:18 14.10.2019
6245 Clouds 33 1011 59 10000 2.1 0 08:42 14.10.2019
6246 Clouds 32 1011 62 10000 3.6 100 08:20 14.10.2019
6247 Clouds 33 1013 59 10000 4.6 110 07:41 14.10.2019
6248 Clouds 33 1013 59 10000 4.6 110 07:41 14.10.2019
6249 Clouds 33 1013 59 10000 4.6 110 07:18 14.10.2019
6250 Clouds 32 1014 74 10000 3.1 110 06:37 14.10.2019
6251 Clouds 31 1014 74 10000 3.1 110 06:18 14.10.2019
6252 Clouds 30 1014 83 10000 2.1 110 05:42 14.10.2019
6253 Clouds 30 1014 88 10000 4.18 69.436 04:42 14.10.2019
6254 Thunderstorm 27 1013 100 800 4.1 50 03:27 14.10.2019
6255 Thunderstorm 27 1012 88 9000 2.6 340 02:36 14.10.2019
6256 Clouds 27 1011 88 10000 1.4 18.5 01:22 14.10.2019
6257 Clouds 27 1011 88 10000 1 150 00:53 14.10.2019
6258 Clouds 27 1011 88 10000 1 150 00:53 14.10.2019
6259 Clouds 27 1011 88 10000 0.82 280.585 00:19 14.10.2019
6260 Clouds 27 1011 88 10000 1 0 23:44 13.10.2019
6261 Clouds 27 1011 88 10000 1.5 120 23:20 13.10.2019
6262 Clouds 27 1011 88 10000 1 120 22:58 13.10.2019
6263 Clouds 28 1011 83 10000 1.5 140 22:40 13.10.2019
6264 Clouds 28 1011 83 10000 1.5 140 22:21 13.10.2019
6265 Clouds 28 1011 83 10000 1.5 140 21:58 13.10.2019
6266 Clouds 27 1011 83 10000 0.82 280.585 21:37 13.10.2019
6267 Clouds 27 1011 83 10000 0.82 280.585 21:37 13.10.2019
6268 Clouds 27 1011 83 10000 2.19 233.815 21:18 13.10.2019
6269 Clouds 27 1011 83 10000 2.19 233.815 21:18 13.10.2019
6270 Clouds 27 1011 83 10000 2.1 130 20:57 13.10.2019
6271 Clouds 27 1011 83 10000 2.1 130 20:57 13.10.2019
6272 Clouds 27 1011 83 10000 1.5 130 20:38 13.10.2019
6273 Clouds 27 1011 83 10000 1.5 130 20:19 13.10.2019
6274 Clouds 27 1011 83 10000 2.6 140 19:57 13.10.2019
6275 Clouds 27 1011 83 10000 2.1 100 19:39 13.10.2019
6276 Clouds 27 1011 83 10000 2.1 100 19:20 13.10.2019
6277 -273 0 0 0 0 0 18:56 13.10.2019
6278 Clouds 27 1011 83 10000 1.13 231.735 18:55 13.10.2019
6279 -273 0 0 0 0 0 18:36 13.10.2019
6280 Clouds 27 1011 83 10000 2.6 180 18:18 13.10.2019
6281 Clouds 27 1012 83 10000 3.1 180 17:43 13.10.2019
6282 Rain 28 1012 78 10000 4.1 170 17:25 13.10.2019
6283 -273 0 0 0 0 0 16:56 13.10.2019
6284 Rain 28 1010 70 10000 2.6 110 16:36 13.10.2019
6285 Rain 29 1010 70 10000 2.6 110 16:18 13.10.2019
6286 Thunderstorm 30 1010 74 10000 1 140 15:55 13.10.2019
6287 Thunderstorm 30 1010 74 10000 1 140 15:55 13.10.2019
6288 Clouds 29 1009 66 10000 3.1 130 15:36 13.10.2019
6289 Clouds 30 1009 66 10000 3.1 130 15:18 13.10.2019
6290 Thunderstorm 30 1008 66 10000 3.1 70 14:40 13.10.2019
6291 Thunderstorm 30 1008 66 10000 3.1 70 14:22 13.10.2019
6292 Thunderstorm 31 1008 74 10000 3.6 60 13:59 13.10.2019
6293 Clouds 32 1007 59 10000 3.1 80 13:39 13.10.2019
6294 Clouds 32 1007 59 10000 3.1 80 13:21 13.10.2019
6295 Clouds 32 1007 55 10000 3.1 70 12:57 13.10.2019
6296 Rain 32 1007 55 10000 3.6 80 12:38 13.10.2019
6297 Rain 33 1007 55 10000 3.6 80 12:19 13.10.2019
6298 Rain 33 1007 52 10000 3.1 90 11:58 13.10.2019
6299 Clouds 34 1006 52 10000 3.6 70 11:38 13.10.2019
6300 Clouds 34 1006 52 10000 3.6 70 11:38 13.10.2019
6301 Clouds 34 1006 52 10000 3.6 70 11:19 13.10.2019
6302 Clouds 33 1007 55 10000 3.1 60 10:42 13.10.2019
6303 Clouds 34 1007 56 10000 2.6 60 10:23 13.10.2019
6304 Clouds 34 1007 56 10000 2.6 60 10:23 13.10.2019
6305 Clouds 34 1008 52 10000 2.6 70 09:57 13.10.2019
6306 Clouds 34 1008 56 10000 1.5 0 09:38 13.10.2019
6307 Clouds 34 1008 56 10000 1.5 0 09:19 13.10.2019
6308 Clouds 34 1009 56 10000 1.5 0 08:43 13.10.2019
6309 Clouds 34 1009 63 10000 2.6 50 08:22 13.10.2019
6310 Clouds 34 1010 59 10000 2.1 20 07:47 13.10.2019
6311 Clouds 34 1010 63 10000 2.1 10 07:28 13.10.2019
6312 Clouds 34 1011 59 10000 1 0 06:46 13.10.2019
6313 Clouds 32 1012 70 10000 1.5 0 05:50 13.10.2019
6314 Clouds 31 1012 70 10000 1.5 0 04:52 13.10.2019
6315 Clouds 32 1012 74 10000 2.1 100 04:33 13.10.2019
6316 Clouds 28 1011 94 6000 2.6 90 02:47 13.10.2019
6317 Mist 28 1010 100 4900 1.5 80 02:18 13.10.2019
6318 Clear 26 1010 94 8000 2.1 110 01:31 13.10.2019
6319 Clear 26 1010 94 8000 2.1 110 01:31 13.10.2019
6320 Clouds 27 1010 94 9000 1 100 00:50 13.10.2019
6321 Clouds 26 1009 94 9000 2.1 110 00:22 13.10.2019
6322 Clouds 26 1009 94 9000 3.1 110 23:57 12.10.2019
6323 Clouds 27 1009 94 9000 2.1 100 23:39 12.10.2019
6324 Clouds 27 1009 94 9000 2.1 100 23:20 12.10.2019
6325 Clouds 27 1009 94 9000 2.1 120 22:57 12.10.2019
6326 Clouds 27 1009 88 9000 1.5 110 22:38 12.10.2019
6327 Clouds 27 1009 88 9000 1.5 110 22:20 12.10.2019
6328 Clouds 27 1009 88 10000 1 90 21:55 12.10.2019
6329 Clouds 27 1009 88 10000 1 90 21:55 12.10.2019
6330 Clouds 27 1009 94 10000 1.5 100 21:37 12.10.2019
6331 Clouds 27 1009 94 10000 1.5 100 21:18 12.10.2019
6332 Clouds 27 1010 88 10000 0.5 100 20:40 12.10.2019
6333 Clouds 27 1010 88 10000 0.5 100 20:22 12.10.2019
6334 Clouds 27 1011 83 10000 2.1 140 19:39 12.10.2019
6335 Clouds 28 1011 83 10000 2.1 140 19:20 12.10.2019
6336 Clouds 28 1011 83 10000 1.5 120 18:57 12.10.2019
6337 Clouds 28 1011 78 10000 2.6 100 18:39 12.10.2019
6338 Clouds 29 1011 78 10000 2.6 100 18:21 12.10.2019
6339 Clouds 28 1010 78 10000 1.5 130 17:43 12.10.2019
6340 Clouds 28 1010 78 10000 1 0 17:19 12.10.2019
6341 Clouds 29 1010 78 10000 2.37 186.372 16:54 12.10.2019
6342 Clouds 29 1010 78 10000 2.37 186.372 16:54 12.10.2019
6343 Clouds 29 1010 78 10000 0.5 0 16:36 12.10.2019
6344 Clouds 29 1010 78 10000 0.5 0 16:36 12.10.2019
6345 Clouds 28 1010 78 10000 0.5 0 16:18 12.10.2019
6346 Clouds 29 1009 83 10000 3.6 100 15:40 12.10.2019
6347 Clouds 28 1009 83 10000 3.6 100 15:22 12.10.2019
6348 Rain 30 1009 79 10000 4.1 120 14:43 12.10.2019
6349 Thunderstorm 30 1009 70 10000 3.1 120 14:22 12.10.2019
6350 Thunderstorm 31 1008 70 10000 1.5 160 13:57 12.10.2019
6351 -273 0 0 0 0 0 13:38 12.10.2019
6352 Thunderstorm 30 1007 70 10000 1.54 147.341 13:20 12.10.2019
6353 Clouds 31 1006 70 10000 3.6 310 12:39 12.10.2019
6354 Clouds 31 1006 70 10000 3.6 310 12:21 12.10.2019
6355 Clouds 31 1007 66 10000 2.6 280 11:58 12.10.2019
6356 Clouds 31 1007 70 10000 3.1 270 11:38 12.10.2019
6357 Clouds 31 1007 70 10000 3.1 270 11:19 12.10.2019
6358 Clouds 32 1007 62 10000 3.6 210 10:41 12.10.2019
6359 Clouds 31 1007 66 10000 4.6 250 10:23 12.10.2019
6360 Clouds 32 1008 74 10000 7.2 230 09:58 12.10.2019
6361 Clouds 32 1008 74 10000 7.2 230 09:58 12.10.2019
6362 Thunderstorm 31 1008 83 10000 7.7 250 09:39 12.10.2019
6363 Thunderstorm 32 1008 83 10000 7.7 250 09:20 12.10.2019
6364 Thunderstorm 31 1008 74 10000 7.7 300 08:56 12.10.2019
6365 Thunderstorm 31 1008 74 10000 7.7 300 08:55 12.10.2019
6366 Thunderstorm 32 1009 59 9000 7.7 300 08:36 12.10.2019
6367 Thunderstorm 32 1009 59 9000 7.7 300 08:18 12.10.2019
6368 Clouds 34 1010 63 9000 3.1 210 07:33 12.10.2019
6369 Clouds 34 1011 63 9000 1.5 190 06:44 12.10.2019
6370 Clouds 33 1011 66 9000 2.6 190 05:46 12.10.2019
6371 Clouds 32 1011 70 9000 2.6 160 04:52 12.10.2019
6372 Clouds 31 1011 74 9000 2.1 120 03:57 12.10.2019
6373 Clouds 29 1011 83 8000 0.5 0 02:57 12.10.2019
6374 Rain 27 1009 83 10000 0.81 290.207 01:36 12.10.2019
6375 Clouds 27 1009 88 10000 0.81 290.207 00:58 12.10.2019
6376 Rain 27 1009 88 10000 0.81 290.207 00:39 12.10.2019
6377 Clouds 27 1009 88 10000 1.5 60 23:57 11.10.2019
6378 Clouds 27 1009 88 10000 2.1 20 23:38 11.10.2019
6379 Clouds 27 1009 88 10000 2.1 20 23:19 11.10.2019
6380 Thunderstorm 28 1009 83 10000 3.6 250 22:39 11.10.2019
6381 Thunderstorm 28 1009 83 10000 3.6 250 22:21 11.10.2019
6382 Thunderstorm 29 1009 74 10000 3.6 260 21:55 11.10.2019
6383 Clouds 29 1009 74 10000 1.5 230 21:36 11.10.2019
6384 Clouds 29 1009 74 10000 1.5 230 21:18 11.10.2019
6385 Clouds 29 1009 74 10000 1.29 215.579 20:43 11.10.2019
6386 Clouds 29 1010 79 10000 1.5 200 20:25 11.10.2019
6387 Clouds 29 1010 79 10000 2.1 240 19:56 11.10.2019
6388 Clouds 29 1010 79 10000 2.1 210 19:38 11.10.2019
6389 Clouds 29 1010 79 10000 2.1 210 19:38 11.10.2019
6390 Clouds 29 1010 79 10000 2.1 210 19:18 11.10.2019
6391 Clouds 29 1010 79 10000 1.5 150 18:57 11.10.2019
6392 Clouds 29 1010 79 10000 1.5 160 18:37 11.10.2019
6393 Clouds 29 1010 79 10000 1.5 160 18:18 11.10.2019
6394 Clouds 30 1010 74 10000 1.5 160 17:57 11.10.2019
6395 Clouds 30 1010 74 10000 2.1 200 17:37 11.10.2019
6396 Clouds 30 1010 74 10000 2.1 200 17:18 11.10.2019
6397 Clouds 30 1010 66 10000 3.1 250 16:42 11.10.2019
6398 Clouds 30 1010 66 10000 3.1 260 16:21 11.10.2019
6399 Clouds 30 1009 66 10000 3.1 260 15:59 11.10.2019
6400 Clouds 30 1009 66 10000 2.6 260 15:39 11.10.2019
6401 Clouds 30 1009 66 10000 2.6 260 15:19 11.10.2019
6402 Clouds 30 1009 66 10000 2.6 250 14:48 11.10.2019
6403 Clouds 30 1008 74 10000 2.6 190 14:29 11.10.2019
6404 Clouds 31 1008 79 10000 2.1 220 13:57 11.10.2019
6405 Rain 31 1007 70 9000 4.1 210 13:39 11.10.2019
6406 Rain 30 1007 70 9000 4.1 210 13:21 11.10.2019
6407 Rain 30 1007 70 9000 4.1 210 13:21 11.10.2019
6408 Clouds 32 1007 62 9000 4.6 240 12:56 11.10.2019
6409 Clouds 33 1007 55 9000 3.1 70 12:38 11.10.2019
6410 Clouds 33 1007 55 9000 3.1 70 12:19 11.10.2019
6411 Clouds 34 1006 59 9000 2.6 30 11:41 11.10.2019
6412 Clouds 34 1006 59 9000 2.6 30 11:22 11.10.2019
6413 Clouds 33 1007 56 9000 1.5 340 10:58 11.10.2019
6414 Clouds 33 1007 56 9000 1.5 340 10:58 11.10.2019
6415 Clouds 33 1007 56 9000 1.5 340 10:58 11.10.2019
6416 Clouds 34 1007 56 9000 2.6 10 10:40 11.10.2019
6417 Clouds 34 1007 56 9000 2.6 10 10:22 11.10.2019
6418 Clouds 34 1007 59 9000 3.6 70 09:56 11.10.2019
6419 Clouds 33 1008 59 9000 2.6 10 09:37 11.10.2019
6420 Clouds 34 1008 59 9000 2.6 10 09:19 11.10.2019
6421 Clouds 34 1008 59 9000 1.5 0 08:55 11.10.2019
6422 Clouds 34 1009 63 9000 2.1 360 08:36 11.10.2019
6423 Clouds 34 1009 63 9000 2.1 360 08:18 11.10.2019
6424 Clouds 34 1010 63 9000 1.5 0 07:41 11.10.2019
6425 Clouds 33 1010 63 9000 1.5 0 07:22 11.10.2019
6426 Clouds 32 1011 62 9000 1 0 06:47 11.10.2019
6427 Clouds 32 1011 62 10000 1.5 330 06:22 11.10.2019
6428 Clouds 32 1012 59 10000 1 0 05:39 11.10.2019
6429 Clouds 31 1012 66 10000 1.5 130 04:59 11.10.2019
6430 Clouds 30 1012 66 10000 1.5 0 04:24 11.10.2019
6431 Clouds 27 1011 83 8000 2.1 350 02:32 11.10.2019
6432 Thunderstorm 26 1011 83 8000 5.7 220 00:47 11.10.2019
6433 Thunderstorm 26 1011 83 8000 2.1 250 00:27 11.10.2019
6434 Mist 27 1010 88 8000 2.1 360 23:44 10.10.2019
6435 Thunderstorm 27 1010 83 8000 3.6 360 23:22 10.10.2019
6436 Thunderstorm 27 1011 88 8000 3.6 350 22:57 10.10.2019
6437 Thunderstorm 27 1011 88 8000 3.6 350 22:57 10.10.2019
6438 Clouds 27 1011 88 8000 1.79 256.532 22:39 10.10.2019
6439 Clouds 27 1011 88 8000 1.79 256.532 22:20 10.10.2019
6440 Clouds 27 1011 88 8000 0.5 100 21:57 10.10.2019
6441 Clouds 28 1011 88 8000 1.5 110 21:38 10.10.2019
6442 Clouds 28 1011 88 8000 1.5 110 21:20 10.10.2019
6443 Clouds 28 1011 88 8000 1.5 110 20:42 10.10.2019
6444 Clouds 28 1011 88 8000 2.1 110 20:21 10.10.2019
6445 Clouds 28 1012 78 8000 1.5 110 19:58 10.10.2019
6446 Clouds 28 1012 78 8000 2.1 120 19:40 10.10.2019
6447 Clouds 28 1012 78 8000 2.1 120 19:40 10.10.2019
6448 Clouds 28 1012 78 8000 2.1 120 19:20 10.10.2019
6449 Clouds 28 1012 78 8000 2.1 120 19:20 10.10.2019
6450 Clouds 28 1012 78 8000 2.6 120 18:57 10.10.2019
6451 Clouds 28 1012 78 8000 2.1 110 18:38 10.10.2019
6452 Clouds 28 1012 78 8000 2.1 110 18:19 10.10.2019
6453 Clouds 29 1012 74 8000 2.1 130 17:41 10.10.2019
6454 Clouds 29 1012 74 8000 2.1 140 17:20 10.10.2019
6455 Clouds 29 1012 78 8000 1.5 170 16:59 10.10.2019
6456 Clouds 29 1011 78 8000 2.1 180 16:41 10.10.2019
6457 Clouds 29 1011 78 8000 2.1 180 16:22 10.10.2019
6458 Clouds 29 1011 78 8000 1.5 200 15:44 10.10.2019
6459 Rain 29 1010 69 8000 3.6 170 15:25 10.10.2019
6460 Rain 28 1010 74 8000 3.1 130 14:59 10.10.2019
6461 Rain 29 1009 74 8000 4.1 140 14:38 10.10.2019
6462 Rain 29 1009 74 8000 4.1 140 14:38 10.10.2019
6463 Rain 29 1009 74 8000 4.1 140 14:38 10.10.2019
6464 Rain 29 1009 74 8000 4.1 140 14:19 10.10.2019
6465 Thunderstorm 29 1009 70 8000 2.6 180 13:59 10.10.2019
6466 Thunderstorm 30 1008 66 10000 2.1 110 13:40 10.10.2019
6467 Thunderstorm 31 1008 66 10000 2.1 110 13:19 10.10.2019
6468 Thunderstorm 31 1008 66 10000 2.1 110 13:19 10.10.2019
6469 Thunderstorm 30 1008 79 10000 2.1 220 12:55 10.10.2019
6470 Thunderstorm 31 1008 70 10000 2.6 220 12:37 10.10.2019
6471 Thunderstorm 32 1008 70 10000 2.6 220 12:18 10.10.2019
6472 Clouds 33 1008 66 10000 2.6 240 11:42 10.10.2019
6473 Clouds 33 1008 66 10000 2.6 240 11:21 10.10.2019
6474 Clouds 33 1008 66 10000 4.6 250 10:59 10.10.2019
6475 Clouds 34 1008 59 10000 2.1 20 10:41 10.10.2019
6476 Clouds 34 1008 59 10000 2.1 20 10:22 10.10.2019
6477 Clouds 33 1008 59 10000 1.5 360 09:54 10.10.2019
6478 Clouds 34 1009 63 10000 2.6 30 09:36 10.10.2019
6479 Clouds 34 1009 63 10000 2.6 30 09:18 10.10.2019
6480 Clouds 34 1010 59 10000 1.5 0 08:41 10.10.2019
6481 Clouds 34 1010 59 10000 1.5 0 08:22 10.10.2019
6482 Clouds 34 1011 59 10000 2.6 60 07:58 10.10.2019
6483 Clouds 33 1011 59 10000 0.5 0 07:37 10.10.2019
6484 Clouds 34 1011 59 10000 0.5 0 07:19 10.10.2019
6485 Clouds 32 1013 66 10000 1 0 06:40 10.10.2019
6486 Clouds 31 1013 70 9000 2.6 360 05:57 10.10.2019
6487 Rain 31 1013 70 9000 2.6 330 05:22 10.10.2019
6488 Rain 30 1013 79 9000 2.6 20 04:37 10.10.2019
6489 Rain 27 1012 88 9000 2.1 360 02:49 10.10.2019
6490 Clouds 26 1011 94 10000 1.5 350 01:41 10.10.2019
6491 Clouds 26 1011 94 10000 1.5 350 01:41 10.10.2019
6492 Clouds 26 1011 94 10000 1.5 350 01:22 10.10.2019
6493 Clouds 27 1010 94 10000 2.6 320 00:41 10.10.2019
6494 Clouds 27 1010 94 10000 2.6 320 00:19 10.10.2019
6495 Clouds 27 1010 94 10000 2.1 330 23:38 09.10.2019
6496 Clouds 27 1010 94 10000 2.1 330 23:19 09.10.2019
6497 Clouds 27 1010 94 10000 2.1 330 23:19 09.10.2019
6498 Clouds 27 1010 94 10000 2.1 310 22:42 09.10.2019
6499 Clouds 27 1010 88 10000 2.1 300 22:24 09.10.2019
6500 Clouds 27 1010 88 10000 1 320 21:59 09.10.2019
6501 Clouds 27 1011 88 10000 1.98 290.532 21:39 09.10.2019
6502 Clouds 27 1011 88 10000 2.07 26.106 21:19 09.10.2019
6503 Clouds 27 1011 88 10000 1 10 20:55 09.10.2019
6504 Clouds 27 1011 88 10000 1.5 20 20:37 09.10.2019
6505 Clouds 27 1011 88 10000 1.5 20 20:18 09.10.2019
6506 Clouds 27 1012 94 10000 3.1 350 19:45 09.10.2019
6507 Clouds 27 1012 94 10000 3.1 350 19:23 09.10.2019
6508 Clouds 28 1012 83 10000 2.1 360 18:57 09.10.2019
6509 Clouds 28 1012 78 10000 2.1 350 18:37 09.10.2019
6510 Clouds 28 1012 78 10000 2.1 350 18:18 09.10.2019
6511 Clouds 28 1012 78 10000 1.5 300 17:54 09.10.2019
6512 Clouds 28 1012 78 10000 1.53 37.662 17:36 09.10.2019
6513 Clouds 28 1012 78 10000 1.53 37.662 17:18 09.10.2019
6514 Clouds 28 1011 78 10000 1.53 37.662 16:40 09.10.2019
6515 Clouds 28 1011 78 10000 1.53 37.662 16:22 09.10.2019
6516 Clouds 28 1011 78 10000 1.5 170 15:58 09.10.2019
6517 Clouds 28 1010 78 10000 1.53 37.662 15:39 09.10.2019
6518 Clouds 28 1010 78 10000 2.17 45.187 15:20 09.10.2019
6519 Clouds 28 1010 78 10000 2.17 45.187 14:56 09.10.2019
6520 Clouds 28 1010 78 10000 2.1 60 14:37 09.10.2019
6521 Clouds 28 1010 78 10000 2.1 60 14:18 09.10.2019
6522 Clouds 28 1009 74 10000 2.6 50 13:39 09.10.2019
6523 Clouds 28 1009 74 10000 2.6 50 13:21 09.10.2019
6524 Clouds 29 1009 70 10000 1.5 20 12:58 09.10.2019
6525 Clouds 29 1008 74 10000 1.5 300 12:40 09.10.2019
6526 Clouds 29 1008 74 10000 1.5 300 12:21 09.10.2019
6527 Thunderstorm 28 1008 70 10000 2.24 40.355 11:55 09.10.2019
6528 Thunderstorm 28 1008 70 10000 2.24 40.355 11:55 09.10.2019
6529 Thunderstorm 28 1008 74 10000 2.1 340 11:36 09.10.2019
6530 Thunderstorm 28 1008 74 10000 2.1 340 11:18 09.10.2019
6531 Rain 28 1008 70 10000 8.2 70 10:42 09.10.2019
6532 Rain 31 1008 59 10000 2.6 0 10:20 09.10.2019
6533 Clouds 32 1009 59 10000 3.1 90 09:57 09.10.2019
6534 Clouds 33 1009 63 10000 2.6 360 09:38 09.10.2019
6535 Clouds 33 1009 63 10000 2.6 360 09:38 09.10.2019
6536 Clouds 34 1009 63 10000 2.6 360 09:18 09.10.2019
6537 Clouds 34 1010 63 10000 2.6 20 08:39 09.10.2019
6538 Clouds 34 1010 63 10000 2.6 20 08:21 09.10.2019
6539 Clouds 33 1010 63 10000 2.6 20 08:21 09.10.2019
6540 Clouds 33 1011 66 10000 2.1 350 07:47 09.10.2019
6541 Clouds 33 1011 66 10000 2.1 350 07:47 09.10.2019
6542 Clouds 32 1012 62 10000 3.1 50 07:25 09.10.2019
6543 Clouds 32 1012 62 10000 3.1 50 07:25 09.10.2019
6544 Clouds 33 1012 66 10000 2.1 10 06:59 09.10.2019
6545 Clouds 32 1013 70 10000 3.1 10 06:41 09.10.2019
6546 Clouds 31 1013 74 10000 3.1 320 05:53 09.10.2019
6547 Clouds 30 1013 74 10000 3.1 330 05:18 09.10.2019
6548 Clouds 29 1013 83 10000 2.6 10 03:49 09.10.2019
6549 Clouds 27 1012 94 10000 3.1 20 02:35 09.10.2019
6550 Clouds 26 1011 94 10000 2.1 360 01:39 09.10.2019
6551 Clouds 26 1011 94 10000 2.1 360 01:19 09.10.2019
6552 Clouds 26 1011 94 10000 2.1 340 00:55 09.10.2019
6553 Clouds 26 1011 94 10000 2.1 340 00:55 09.10.2019
6554 Clouds 26 1011 94 10000 2.6 330 00:36 09.10.2019
6555 Clouds 26 1011 94 10000 2.6 330 00:18 09.10.2019
6556 Clouds 27 1011 94 10000 2.6 310 23:38 08.10.2019
6557 Clouds 27 1011 94 10000 2.6 310 23:18 08.10.2019
6558 Clouds 27 1011 94 10000 2.6 310 22:55 08.10.2019
6559 Clouds 27 1011 88 10000 3.1 300 22:37 08.10.2019
6560 Clouds 27 1011 88 10000 3.1 300 22:18 08.10.2019
6561 Clouds 26 1011 83 10000 1.5 310 21:56 08.10.2019
6562 Clouds 27 1011 83 10000 2.1 310 21:36 08.10.2019
6563 Clouds 27 1011 83 10000 2.1 310 21:18 08.10.2019
6564 Clouds 27 1012 83 10000 2.26 19.756 20:55 08.10.2019
6565 Clouds 27 1012 83 10000 1.36 17.128 20:37 08.10.2019
6566 Clouds 27 1012 83 10000 1.36 17.128 20:18 08.10.2019
6567 Clouds 27 1012 88 10000 1.36 17.128 19:54 08.10.2019
6568 Clouds 27 1013 88 10000 1.5 180 19:36 08.10.2019
6569 Clouds 27 1013 88 10000 1.5 180 19:18 08.10.2019
6570 Rain 27 1013 83 10000 2.6 160 18:41 08.10.2019
6571 Rain 27 1013 83 10000 2.6 160 18:23 08.10.2019
6572 Rain 27 1013 83 10000 2.6 150 17:57 08.10.2019
6573 Rain 28 1013 78 10000 3.1 150 17:39 08.10.2019
6574 Rain 28 1013 78 10000 3.1 150 17:18 08.10.2019
6575 Rain 28 1013 83 10000 2.1 120 16:55 08.10.2019
6576 Rain 28 1013 78 10000 2.1 140 16:37 08.10.2019
6577 Rain 28 1013 78 10000 2.1 140 16:18 08.10.2019
6578 Thunderstorm 28 1011 78 10000 2.1 50 15:38 08.10.2019
6579 Thunderstorm 28 1011 78 10000 2.1 50 15:20 08.10.2019
6580 Thunderstorm 29 1011 78 10000 3.6 50 14:55 08.10.2019
6581 Thunderstorm 29 1010 79 10000 4.6 70 14:37 08.10.2019
6582 Thunderstorm 29 1010 79 10000 4.6 70 14:19 08.10.2019
6583 Clouds 30 1010 74 10000 3.6 50 13:54 08.10.2019
6584 Clouds 30 1010 74 10000 3.6 50 13:54 08.10.2019
6585 Clouds 30 1010 74 10000 3.1 10 13:36 08.10.2019
6586 Clouds 30 1010 74 10000 3.1 10 13:18 08.10.2019
6587 Clouds 30 1008 70 10000 3.6 70 12:40 08.10.2019
6588 Clouds 30 1008 70 10000 3.6 70 12:20 08.10.2019
6589 Clouds 31 1008 70 10000 5.7 60 11:57 08.10.2019
6590 Clouds 32 1008 59 10000 2.6 20 11:38 08.10.2019
6591 Clouds 32 1008 59 10000 2.6 20 11:20 08.10.2019
6592 Clouds 33 1008 59 10000 3.1 50 10:42 08.10.2019
6593 Clouds 33 1008 59 10000 2.1 340 10:22 08.10.2019
6594 Clouds 33 1008 59 10000 2.1 340 10:22 08.10.2019
6595 Clouds 33 1009 59 10000 3.6 60 09:58 08.10.2019
6596 Clouds 33 1009 59 10000 2.6 10 09:40 08.10.2019
6597 Clouds 34 1009 59 10000 2.6 10 09:20 08.10.2019
6598 Clouds 33 1010 62 10000 3.1 340 08:44 08.10.2019
6599 Clouds 33 1010 66 10000 3.6 340 08:25 08.10.2019
6600 Clouds 33 1011 66 10000 2.1 350 07:47 08.10.2019
6601 Clouds 32 1011 62 10000 2.1 40 07:23 08.10.2019
6602 Clouds 32 1012 66 10000 2.1 20 06:57 08.10.2019
6603 Clouds 31 1012 70 10000 2.1 330 06:35 08.10.2019
6604 Clouds 31 1013 70 10000 2.1 340 05:57 08.10.2019
6605 Clouds 31 1013 70 10000 2.1 340 05:57 08.10.2019
6606 Clouds 30 1013 74 10000 2.1 20 05:38 08.10.2019
6607 Clouds 30 1013 74 10000 2.1 20 05:38 08.10.2019
6608 Clouds 29 1013 74 10000 2.1 30 04:42 08.10.2019
6609 Clouds 28 1013 88 10000 2.6 20 03:30 08.10.2019
6610 Clouds 26 1012 94 10000 1.5 30 02:40 08.10.2019
6611 Clouds 25 1011 94 10000 1.5 30 01:49 08.10.2019
6612 Clouds 25 1011 94 10000 2.6 10 01:31 08.10.2019
6613 Clouds 25 1011 94 10000 1.5 350 00:51 08.10.2019
6614 Clouds 25 1011 94 10000 2.6 330 00:22 08.10.2019
6615 Clouds 25 1010 94 10000 1 340 23:42 07.10.2019
6616 Clouds 25 1010 94 10000 2.46 295.324 23:21 07.10.2019
6617 Clouds 25 1010 94 10000 2.46 295.324 23:21 07.10.2019
6618 Clouds 24 1010 100 10000 2.46 295.324 22:58 07.10.2019
6619 Clouds 24 1010 94 10000 2.46 295.324 22:40 07.10.2019
6620 Clouds 24 1010 94 10000 2.46 295.324 22:40 07.10.2019
6621 Clouds 24 1010 94 10000 2.46 295.324 22:21 07.10.2019
6622 Clouds 25 1010 94 10000 2.46 295.324 21:58 07.10.2019
6623 Clouds 25 1010 94 10000 2.46 295.324 21:39 07.10.2019
6624 Clouds 25 1010 94 10000 0.98 143.574 21:20 07.10.2019
6625 Clouds 25 1011 94 10000 1.71 199.26 20:58 07.10.2019
6626 Clouds 25 1012 94 10000 1.71 199.26 20:39 07.10.2019
6627 Clouds 25 1012 94 10000 1.71 199.26 20:20 07.10.2019
6628 Clouds 25 1012 94 10000 1.71 199.26 19:58 07.10.2019
6629 Clouds 26 1012 88 9000 1 0 19:40 07.10.2019
6630 Clouds 26 1012 88 9000 1 0 19:19 07.10.2019
6631 Clouds 26 1013 94 10000 1.5 150 18:57 07.10.2019
6632 Clouds 26 1012 88 9000 2.1 70 18:38 07.10.2019
6633 Clouds 26 1012 88 9000 2.1 70 18:18 07.10.2019
6634 Clouds 26 1012 88 9000 2.1 70 18:18 07.10.2019
6635 Clouds 26 1013 94 10000 1.5 50 17:43 07.10.2019
6636 Rain 26 1013 94 10000 3.6 100 17:20 07.10.2019
6637 Clouds 26 1013 88 10000 3.1 80 16:57 07.10.2019
6638 Rain 27 1013 88 10000 3.1 100 16:38 07.10.2019
6639 Rain 27 1013 88 10000 3.1 100 16:20 07.10.2019
6640 Rain 27 1012 88 10000 5.7 100 15:45 07.10.2019
6641 Rain 26 1012 94 10000 2.6 160 15:25 07.10.2019
6642 Rain 27 1011 88 7000 3.6 120 14:55 07.10.2019
6643 Rain 27 1010 83 10000 4.6 120 14:37 07.10.2019
6644 Rain 27 1010 83 10000 4.6 120 14:18 07.10.2019
6645 Thunderstorm 28 1009 74 10000 2.65 30.982 13:41 07.10.2019
6646 Thunderstorm 29 1009 74 10000 1.51 254.326 13:19 07.10.2019
6647 Thunderstorm 29 1009 74 10000 1.51 254.326 12:55 07.10.2019
6648 Thunderstorm 30 1009 79 10000 2.6 210 12:37 07.10.2019
6649 Thunderstorm 30 1009 79 10000 2.6 210 12:18 07.10.2019
6650 Thunderstorm 30 1009 74 10000 3.1 250 11:56 07.10.2019
6651 Thunderstorm 30 1008 74 10000 4.1 280 11:37 07.10.2019
6652 Thunderstorm 30 1008 74 10000 4.1 280 11:18 07.10.2019
6653 Clouds 31 1008 59 10000 3.1 120 10:41 07.10.2019
6654 Clouds 31 1008 59 10000 3.1 120 10:41 07.10.2019
6655 Clouds 32 1008 59 10000 3.1 120 10:20 07.10.2019
6656 Clouds 32 1009 59 10000 3.6 100 09:42 07.10.2019
6657 Clouds 32 1009 62 10000 3.6 70 09:23 07.10.2019
6658 Rain 33 1009 55 10000 2.6 0 08:57 07.10.2019
6659 Rain 33 1010 62 10000 4.6 90 08:38 07.10.2019
6660 Rain 33 1010 62 10000 4.6 90 08:19 07.10.2019
6661 Clouds 32 1011 66 10000 1.5 0 07:41 07.10.2019
6662 Clouds 32 1011 66 10000 1.5 0 07:22 07.10.2019
6663 Clouds 32 1011 66 10000 2.6 0 06:49 07.10.2019
6664 Clouds 31 1012 66 10000 2.1 80 06:27 07.10.2019
6665 Clouds 30 1012 70 10000 2.1 50 05:47 07.10.2019
6666 Clouds 30 1013 74 10000 2.1 70 05:21 07.10.2019
6667 Clouds 29 1013 78 10000 1.5 50 04:24 07.10.2019
6668 Clouds 29 1012 78 10000 1.5 60 03:44 07.10.2019
6669 Clouds 29 1012 78 10000 1.5 60 03:44 07.10.2019
6670 Clouds 29 1012 78 10000 1.5 60 03:44 07.10.2019
6671 Clouds 28 1012 88 10000 2.1 20 03:20 07.10.2019
6672 Clouds 28 1012 88 10000 2.1 20 03:20 07.10.2019
6673 Clouds 27 1012 94 10000 1.5 350 02:21 07.10.2019
6674 Clouds 26 1011 100 10000 1.5 350 01:50 07.10.2019
6675 Clouds 25 1011 100 10000 2.07 25.39 01:21 07.10.2019
6676 Clear 25 1010 94 10000 2.07 25.39 00:39 07.10.2019